<?xml version="1.0" encoding="UTF-8" standalone="no" ?>
<gpx xmlns="http://www.topografix.com/GPX/1/1" xmlns:xsi="http://www.w3.org/2001/XMLSchema-instance" xsi:schemaLocation="http://www.topografix.com/GPX/1/1 http://www.topografix.com/GPX/1/1/gpx.xsd" version="1.1" creator="VisuGPX - https://www.visugpx.com">
  <metadata>
    <name>Balade picnique au honneck</name>
  </metadata>
  <trk>
    <name><![CDATA[Balade picnique au honneck_1]]></name>
    <trkseg>
      <trkpt lat="48.03786" lon="7.01621">
        <ele>1365.8</ele>
        <time>2021-07-29T09:34:19Z</time>
      </trkpt>
      <trkpt lat="48.03781" lon="7.01623">
        <ele>1366.4</ele>
        <time>2021-07-29T09:34:23Z</time>
      </trkpt>
      <trkpt lat="48.0378" lon="7.01623">
        <ele>1367.2</ele>
        <time>2021-07-29T09:34:25Z</time>
      </trkpt>
      <trkpt lat="48.03774" lon="7.01623">
        <ele>1367.4</ele>
        <time>2021-07-29T09:34:31Z</time>
      </trkpt>
      <trkpt lat="48.03771" lon="7.01624">
        <ele>1366.6</ele>
        <time>2021-07-29T09:34:33Z</time>
      </trkpt>
      <trkpt lat="48.03766" lon="7.01624">
        <ele>1365.8</ele>
        <time>2021-07-29T09:34:37Z</time>
      </trkpt>
      <trkpt lat="48.03759" lon="7.01627">
        <ele>1366.6</ele>
        <time>2021-07-29T09:34:43Z</time>
      </trkpt>
      <trkpt lat="48.03756" lon="7.01629">
        <ele>1366.8</ele>
        <time>2021-07-29T09:34:45Z</time>
      </trkpt>
      <trkpt lat="48.03751" lon="7.01637">
        <ele>1366.4</ele>
        <time>2021-07-29T09:34:51Z</time>
      </trkpt>
      <trkpt lat="48.03751" lon="7.01639">
        <ele>1366.4</ele>
        <time>2021-07-29T09:34:52Z</time>
      </trkpt>
      <trkpt lat="48.0375" lon="7.01642">
        <ele>1366.8</ele>
        <time>2021-07-29T09:34:55Z</time>
      </trkpt>
      <trkpt lat="48.03749" lon="7.01648">
        <ele>1367</ele>
        <time>2021-07-29T09:34:58Z</time>
      </trkpt>
      <trkpt lat="48.03746" lon="7.01655">
        <ele>1368.4</ele>
        <time>2021-07-29T09:35:02Z</time>
      </trkpt>
      <trkpt lat="48.03745" lon="7.01656">
        <ele>1368.4</ele>
        <time>2021-07-29T09:35:03Z</time>
      </trkpt>
      <trkpt lat="48.03746" lon="7.01657">
        <ele>1367.8</ele>
        <time>2021-07-29T09:35:04Z</time>
      </trkpt>
      <trkpt lat="48.03746" lon="7.01658">
        <ele>1367.2</ele>
        <time>2021-07-29T09:35:05Z</time>
      </trkpt>
      <trkpt lat="48.03744" lon="7.01662">
        <ele>1366.2</ele>
        <time>2021-07-29T09:35:08Z</time>
      </trkpt>
      <trkpt lat="48.03742" lon="7.01667">
        <ele>1365.6</ele>
        <time>2021-07-29T09:35:12Z</time>
      </trkpt>
      <trkpt lat="48.03742" lon="7.01668">
        <ele>1366</ele>
        <time>2021-07-29T09:35:13Z</time>
      </trkpt>
      <trkpt lat="48.03743" lon="7.01671">
        <ele>1365.2</ele>
        <time>2021-07-29T09:35:15Z</time>
      </trkpt>
      <trkpt lat="48.03743" lon="7.01676">
        <ele>1364.8</ele>
        <time>2021-07-29T09:35:17Z</time>
      </trkpt>
      <trkpt lat="48.03742" lon="7.01678">
        <ele>1364.8</ele>
        <time>2021-07-29T09:35:19Z</time>
      </trkpt>
      <trkpt lat="48.03741" lon="7.0168">
        <ele>1364</ele>
        <time>2021-07-29T09:35:21Z</time>
      </trkpt>
      <trkpt lat="48.0374" lon="7.0168">
        <ele>1362.6</ele>
        <time>2021-07-29T09:35:22Z</time>
      </trkpt>
      <trkpt lat="48.03739" lon="7.0168">
        <ele>1362.2</ele>
        <time>2021-07-29T09:35:23Z</time>
      </trkpt>
      <trkpt lat="48.03734" lon="7.01678">
        <ele>1362.6</ele>
        <time>2021-07-29T09:35:27Z</time>
      </trkpt>
      <trkpt lat="48.03732" lon="7.01676">
        <ele>1361.6</ele>
        <time>2021-07-29T09:35:30Z</time>
      </trkpt>
      <trkpt lat="48.0373" lon="7.01676">
        <ele>1362.6</ele>
        <time>2021-07-29T09:35:32Z</time>
      </trkpt>
      <trkpt lat="48.0373" lon="7.01678">
        <ele>1362.2</ele>
        <time>2021-07-29T09:35:34Z</time>
      </trkpt>
      <trkpt lat="48.03728" lon="7.01679">
        <ele>1362.4</ele>
        <time>2021-07-29T09:35:37Z</time>
      </trkpt>
      <trkpt lat="48.03728" lon="7.0168">
        <ele>1361.8</ele>
        <time>2021-07-29T09:35:39Z</time>
      </trkpt>
      <trkpt lat="48.03729" lon="7.01684">
        <ele>1360.4</ele>
        <time>2021-07-29T09:35:44Z</time>
      </trkpt>
      <trkpt lat="48.03728" lon="7.01688">
        <ele>1359.2</ele>
        <time>2021-07-29T09:35:49Z</time>
      </trkpt>
      <trkpt lat="48.03728" lon="7.01692">
        <ele>1358</ele>
        <time>2021-07-29T09:35:54Z</time>
      </trkpt>
      <trkpt lat="48.03725" lon="7.01699">
        <ele>1357.8</ele>
        <time>2021-07-29T09:36:00Z</time>
      </trkpt>
      <trkpt lat="48.03724" lon="7.017">
        <ele>1357</ele>
        <time>2021-07-29T09:36:04Z</time>
      </trkpt>
      <trkpt lat="48.03721" lon="7.01703">
        <ele>1356.4</ele>
        <time>2021-07-29T09:36:10Z</time>
      </trkpt>
      <trkpt lat="48.03719" lon="7.01708">
        <ele>1356.8</ele>
        <time>2021-07-29T09:36:14Z</time>
      </trkpt>
      <trkpt lat="48.03719" lon="7.0171">
        <ele>1355.2</ele>
        <time>2021-07-29T09:36:17Z</time>
      </trkpt>
      <trkpt lat="48.03714" lon="7.01717">
        <ele>1354.6</ele>
        <time>2021-07-29T09:36:20Z</time>
      </trkpt>
      <trkpt lat="48.03709" lon="7.01725">
        <ele>1354.6</ele>
        <time>2021-07-29T09:36:24Z</time>
      </trkpt>
      <trkpt lat="48.03709" lon="7.01725">
        <ele>1354</ele>
        <time>2021-07-29T09:36:25Z</time>
      </trkpt>
      <trkpt lat="48.03708" lon="7.01726">
        <ele>1353.6</ele>
        <time>2021-07-29T09:36:26Z</time>
      </trkpt>
      <trkpt lat="48.03709" lon="7.01726">
        <ele>1352.8</ele>
        <time>2021-07-29T09:36:29Z</time>
      </trkpt>
      <trkpt lat="48.03708" lon="7.01728">
        <ele>1351.8</ele>
        <time>2021-07-29T09:36:34Z</time>
      </trkpt>
      <trkpt lat="48.03706" lon="7.0173">
        <ele>1351.8</ele>
        <time>2021-07-29T09:36:36Z</time>
      </trkpt>
      <trkpt lat="48.03705" lon="7.0173">
        <ele>1351</ele>
        <time>2021-07-29T09:36:38Z</time>
      </trkpt>
      <trkpt lat="48.03704" lon="7.0173">
        <ele>1350</ele>
        <time>2021-07-29T09:36:39Z</time>
      </trkpt>
      <trkpt lat="48.03702" lon="7.01733">
        <ele>1349.4</ele>
        <time>2021-07-29T09:36:44Z</time>
      </trkpt>
      <trkpt lat="48.03697" lon="7.01738">
        <ele>1349</ele>
        <time>2021-07-29T09:36:48Z</time>
      </trkpt>
      <trkpt lat="48.03697" lon="7.01738">
        <ele>1349.2</ele>
        <time>2021-07-29T09:36:50Z</time>
      </trkpt>
      <trkpt lat="48.03695" lon="7.01741">
        <ele>1349</ele>
        <time>2021-07-29T09:36:54Z</time>
      </trkpt>
      <trkpt lat="48.0369" lon="7.01747">
        <ele>1348</ele>
        <time>2021-07-29T09:36:58Z</time>
      </trkpt>
      <trkpt lat="48.0369" lon="7.01748">
        <ele>1348.2</ele>
        <time>2021-07-29T09:37:00Z</time>
      </trkpt>
      <trkpt lat="48.0369" lon="7.0175">
        <ele>1348.2</ele>
        <time>2021-07-29T09:37:04Z</time>
      </trkpt>
      <trkpt lat="48.03689" lon="7.01752">
        <ele>1346.8</ele>
        <time>2021-07-29T09:37:07Z</time>
      </trkpt>
      <trkpt lat="48.03688" lon="7.01756">
        <ele>1345.2</ele>
        <time>2021-07-29T09:37:13Z</time>
      </trkpt>
      <trkpt lat="48.03687" lon="7.01758">
        <ele>1344.8</ele>
        <time>2021-07-29T09:37:14Z</time>
      </trkpt>
      <trkpt lat="48.03687" lon="7.01761">
        <ele>1344.8</ele>
        <time>2021-07-29T09:37:16Z</time>
      </trkpt>
      <trkpt lat="48.03684" lon="7.01767">
        <ele>1345</ele>
        <time>2021-07-29T09:37:22Z</time>
      </trkpt>
      <trkpt lat="48.03683" lon="7.0177">
        <ele>1345.2</ele>
        <time>2021-07-29T09:37:24Z</time>
      </trkpt>
      <trkpt lat="48.03678" lon="7.01779">
        <ele>1346.2</ele>
        <time>2021-07-29T09:37:29Z</time>
      </trkpt>
      <trkpt lat="48.03677" lon="7.01781">
        <ele>1344.8</ele>
        <time>2021-07-29T09:37:31Z</time>
      </trkpt>
      <trkpt lat="48.03675" lon="7.01785">
        <ele>1344.4</ele>
        <time>2021-07-29T09:37:34Z</time>
      </trkpt>
      <trkpt lat="48.03674" lon="7.01788">
        <ele>1343.6</ele>
        <time>2021-07-29T09:37:38Z</time>
      </trkpt>
      <trkpt lat="48.03673" lon="7.0179">
        <ele>1343</ele>
        <time>2021-07-29T09:37:40Z</time>
      </trkpt>
      <trkpt lat="48.03671" lon="7.01796">
        <ele>1345</ele>
        <time>2021-07-29T09:37:44Z</time>
      </trkpt>
      <trkpt lat="48.03668" lon="7.01799">
        <ele>1343</ele>
        <time>2021-07-29T09:37:46Z</time>
      </trkpt>
      <trkpt lat="48.03667" lon="7.018">
        <ele>1342</ele>
        <time>2021-07-29T09:37:47Z</time>
      </trkpt>
      <trkpt lat="48.03662" lon="7.01807">
        <ele>1341</ele>
        <time>2021-07-29T09:37:52Z</time>
      </trkpt>
      <trkpt lat="48.03661" lon="7.01808">
        <ele>1340.8</ele>
        <time>2021-07-29T09:37:53Z</time>
      </trkpt>
      <trkpt lat="48.03661" lon="7.01808">
        <ele>1340.6</ele>
        <time>2021-07-29T09:37:54Z</time>
      </trkpt>
      <trkpt lat="48.0366" lon="7.01809">
        <ele>1342.6</ele>
        <time>2021-07-29T09:37:56Z</time>
      </trkpt>
      <trkpt lat="48.03657" lon="7.01811">
        <ele>1341.6</ele>
        <time>2021-07-29T09:37:59Z</time>
      </trkpt>
      <trkpt lat="48.03655" lon="7.01814">
        <ele>1340</ele>
        <time>2021-07-29T09:38:01Z</time>
      </trkpt>
      <trkpt lat="48.03651" lon="7.01819">
        <ele>1339</ele>
        <time>2021-07-29T09:38:03Z</time>
      </trkpt>
      <trkpt lat="48.0365" lon="7.0182">
        <ele>1338.4</ele>
        <time>2021-07-29T09:38:04Z</time>
      </trkpt>
      <trkpt lat="48.0365" lon="7.01822">
        <ele>1337.4</ele>
        <time>2021-07-29T09:38:07Z</time>
      </trkpt>
      <trkpt lat="48.03649" lon="7.01825">
        <ele>1336.4</ele>
        <time>2021-07-29T09:38:12Z</time>
      </trkpt>
      <trkpt lat="48.03648" lon="7.01828">
        <ele>1336.4</ele>
        <time>2021-07-29T09:38:14Z</time>
      </trkpt>
      <trkpt lat="48.03647" lon="7.01829">
        <ele>1335.8</ele>
        <time>2021-07-29T09:38:16Z</time>
      </trkpt>
      <trkpt lat="48.03644" lon="7.01835">
        <ele>1335.4</ele>
        <time>2021-07-29T09:38:19Z</time>
      </trkpt>
      <trkpt lat="48.03643" lon="7.01836">
        <ele>1335.4</ele>
        <time>2021-07-29T09:38:20Z</time>
      </trkpt>
      <trkpt lat="48.03641" lon="7.01839">
        <ele>1334.6</ele>
        <time>2021-07-29T09:38:23Z</time>
      </trkpt>
      <trkpt lat="48.03641" lon="7.01839">
        <ele>1334.4</ele>
        <time>2021-07-29T09:38:24Z</time>
      </trkpt>
      <trkpt lat="48.0364" lon="7.0184">
        <ele>1334.6</ele>
        <time>2021-07-29T09:38:25Z</time>
      </trkpt>
      <trkpt lat="48.03638" lon="7.01844">
        <ele>1334.8</ele>
        <time>2021-07-29T09:38:27Z</time>
      </trkpt>
      <trkpt lat="48.03632" lon="7.01854">
        <ele>1335.4</ele>
        <time>2021-07-29T09:38:33Z</time>
      </trkpt>
      <trkpt lat="48.03631" lon="7.01856">
        <ele>1335.6</ele>
        <time>2021-07-29T09:38:34Z</time>
      </trkpt>
      <trkpt lat="48.03629" lon="7.0186">
        <ele>1334.2</ele>
        <time>2021-07-29T09:38:36Z</time>
      </trkpt>
      <trkpt lat="48.03628" lon="7.01863">
        <ele>1333.2</ele>
        <time>2021-07-29T09:38:38Z</time>
      </trkpt>
      <trkpt lat="48.03628" lon="7.01864">
        <ele>1331.8</ele>
        <time>2021-07-29T09:38:40Z</time>
      </trkpt>
      <trkpt lat="48.03625" lon="7.01868">
        <ele>1330.6</ele>
        <time>2021-07-29T09:38:43Z</time>
      </trkpt>
      <trkpt lat="48.03624" lon="7.01869">
        <ele>1330.6</ele>
        <time>2021-07-29T09:38:44Z</time>
      </trkpt>
      <trkpt lat="48.03624" lon="7.01869">
        <ele>1330.4</ele>
        <time>2021-07-29T09:38:45Z</time>
      </trkpt>
      <trkpt lat="48.03622" lon="7.01871">
        <ele>1329.2</ele>
        <time>2021-07-29T09:38:49Z</time>
      </trkpt>
      <trkpt lat="48.03618" lon="7.01876">
        <ele>1328</ele>
        <time>2021-07-29T09:38:53Z</time>
      </trkpt>
      <trkpt lat="48.03618" lon="7.01876">
        <ele>1327.8</ele>
        <time>2021-07-29T09:38:54Z</time>
      </trkpt>
      <trkpt lat="48.03618" lon="7.01877">
        <ele>1327.4</ele>
        <time>2021-07-29T09:38:55Z</time>
      </trkpt>
      <trkpt lat="48.03617" lon="7.01878">
        <ele>1326.8</ele>
        <time>2021-07-29T09:38:57Z</time>
      </trkpt>
      <trkpt lat="48.03616" lon="7.01881">
        <ele>1325.4</ele>
        <time>2021-07-29T09:39:00Z</time>
      </trkpt>
      <trkpt lat="48.03616" lon="7.01883">
        <ele>1324.2</ele>
        <time>2021-07-29T09:39:03Z</time>
      </trkpt>
      <trkpt lat="48.03616" lon="7.01884">
        <ele>1324</ele>
        <time>2021-07-29T09:39:04Z</time>
      </trkpt>
      <trkpt lat="48.03615" lon="7.01888">
        <ele>1322.6</ele>
        <time>2021-07-29T09:39:10Z</time>
      </trkpt>
      <trkpt lat="48.03614" lon="7.01888">
        <ele>1322.6</ele>
        <time>2021-07-29T09:39:14Z</time>
      </trkpt>
      <trkpt lat="48.03614" lon="7.01888">
        <ele>1323.8</ele>
        <time>2021-07-29T09:39:16Z</time>
      </trkpt>
      <trkpt lat="48.03614" lon="7.0189">
        <ele>1323.4</ele>
        <time>2021-07-29T09:39:22Z</time>
      </trkpt>
      <trkpt lat="48.03616" lon="7.01892">
        <ele>1323.4</ele>
        <time>2021-07-29T09:39:24Z</time>
      </trkpt>
      <trkpt lat="48.03619" lon="7.01894">
        <ele>1324</ele>
        <time>2021-07-29T09:39:27Z</time>
      </trkpt>
      <trkpt lat="48.03623" lon="7.019">
        <ele>1324.6</ele>
        <time>2021-07-29T09:39:33Z</time>
      </trkpt>
      <trkpt lat="48.03623" lon="7.01901">
        <ele>1324.2</ele>
        <time>2021-07-29T09:39:34Z</time>
      </trkpt>
      <trkpt lat="48.03624" lon="7.01905">
        <ele>1323</ele>
        <time>2021-07-29T09:39:40Z</time>
      </trkpt>
      <trkpt lat="48.03624" lon="7.01906">
        <ele>1322.6</ele>
        <time>2021-07-29T09:39:41Z</time>
      </trkpt>
      <trkpt lat="48.03625" lon="7.01908">
        <ele>1320.6</ele>
        <time>2021-07-29T09:39:44Z</time>
      </trkpt>
      <trkpt lat="48.03626" lon="7.01908">
        <ele>1319.4</ele>
        <time>2021-07-29T09:39:46Z</time>
      </trkpt>
      <trkpt lat="48.03626" lon="7.01909">
        <ele>1318.4</ele>
        <time>2021-07-29T09:39:48Z</time>
      </trkpt>
      <trkpt lat="48.03627" lon="7.01911">
        <ele>1317</ele>
        <time>2021-07-29T09:39:50Z</time>
      </trkpt>
      <trkpt lat="48.03628" lon="7.01915">
        <ele>1316.6</ele>
        <time>2021-07-29T09:39:54Z</time>
      </trkpt>
      <trkpt lat="48.03632" lon="7.01921">
        <ele>1316.2</ele>
        <time>2021-07-29T09:40:00Z</time>
      </trkpt>
      <trkpt lat="48.03633" lon="7.01922">
        <ele>1316.2</ele>
        <time>2021-07-29T09:40:01Z</time>
      </trkpt>
      <trkpt lat="48.03633" lon="7.01922">
        <ele>1316</ele>
        <time>2021-07-29T09:40:02Z</time>
      </trkpt>
      <trkpt lat="48.03637" lon="7.01925">
        <ele>1316</ele>
        <time>2021-07-29T09:40:04Z</time>
      </trkpt>
      <trkpt lat="48.03637" lon="7.01926">
        <ele>1316.2</ele>
        <time>2021-07-29T09:40:06Z</time>
      </trkpt>
      <trkpt lat="48.0364" lon="7.01928">
        <ele>1314.6</ele>
        <time>2021-07-29T09:40:11Z</time>
      </trkpt>
      <trkpt lat="48.03643" lon="7.01931">
        <ele>1315.2</ele>
        <time>2021-07-29T09:40:14Z</time>
      </trkpt>
      <trkpt lat="48.03647" lon="7.01933">
        <ele>1314</ele>
        <time>2021-07-29T09:40:18Z</time>
      </trkpt>
      <trkpt lat="48.03648" lon="7.01934">
        <ele>1313.6</ele>
        <time>2021-07-29T09:40:21Z</time>
      </trkpt>
      <trkpt lat="48.0365" lon="7.01937">
        <ele>1312.8</ele>
        <time>2021-07-29T09:40:24Z</time>
      </trkpt>
      <trkpt lat="48.03651" lon="7.01939">
        <ele>1312.4</ele>
        <time>2021-07-29T09:40:26Z</time>
      </trkpt>
      <trkpt lat="48.03651" lon="7.01942">
        <ele>1311.4</ele>
        <time>2021-07-29T09:40:30Z</time>
      </trkpt>
      <trkpt lat="48.03653" lon="7.01948">
        <ele>1310.8</ele>
        <time>2021-07-29T09:40:34Z</time>
      </trkpt>
      <trkpt lat="48.03656" lon="7.0195">
        <ele>1310.4</ele>
        <time>2021-07-29T09:40:40Z</time>
      </trkpt>
      <trkpt lat="48.03656" lon="7.0195">
        <ele>1310.2</ele>
        <time>2021-07-29T09:40:41Z</time>
      </trkpt>
      <trkpt lat="48.03658" lon="7.01954">
        <ele>1309.6</ele>
        <time>2021-07-29T09:40:44Z</time>
      </trkpt>
      <trkpt lat="48.0366" lon="7.0196">
        <ele>1309.4</ele>
        <time>2021-07-29T09:40:50Z</time>
      </trkpt>
      <trkpt lat="48.0366" lon="7.01963">
        <ele>1309.2</ele>
        <time>2021-07-29T09:40:52Z</time>
      </trkpt>
      <trkpt lat="48.03661" lon="7.01965">
        <ele>1308.8</ele>
        <time>2021-07-29T09:40:54Z</time>
      </trkpt>
      <trkpt lat="48.03662" lon="7.01972">
        <ele>1308</ele>
        <time>2021-07-29T09:41:00Z</time>
      </trkpt>
      <trkpt lat="48.03661" lon="7.01972">
        <ele>1308.6</ele>
        <time>2021-07-29T09:41:04Z</time>
      </trkpt>
      <trkpt lat="48.03661" lon="7.01973">
        <ele>1308.4</ele>
        <time>2021-07-29T09:41:10Z</time>
      </trkpt>
      <trkpt lat="48.03661" lon="7.01978">
        <ele>1308.4</ele>
        <time>2021-07-29T09:41:14Z</time>
      </trkpt>
      <trkpt lat="48.03662" lon="7.01984">
        <ele>1307</ele>
        <time>2021-07-29T09:41:20Z</time>
      </trkpt>
      <trkpt lat="48.03664" lon="7.01989">
        <ele>1305.8</ele>
        <time>2021-07-29T09:41:24Z</time>
      </trkpt>
      <trkpt lat="48.03665" lon="7.01999">
        <ele>1305.4</ele>
        <time>2021-07-29T09:41:30Z</time>
      </trkpt>
      <trkpt lat="48.03667" lon="7.02004">
        <ele>1304.8</ele>
        <time>2021-07-29T09:41:34Z</time>
      </trkpt>
      <trkpt lat="48.03668" lon="7.02014">
        <ele>1304.4</ele>
        <time>2021-07-29T09:41:40Z</time>
      </trkpt>
      <trkpt lat="48.03668" lon="7.02017">
        <ele>1304</ele>
        <time>2021-07-29T09:41:42Z</time>
      </trkpt>
      <trkpt lat="48.03669" lon="7.02019">
        <ele>1304.2</ele>
        <time>2021-07-29T09:41:44Z</time>
      </trkpt>
      <trkpt lat="48.0367" lon="7.0202">
        <ele>1304.2</ele>
        <time>2021-07-29T09:41:45Z</time>
      </trkpt>
      <trkpt lat="48.0367" lon="7.02033">
        <ele>1304</ele>
        <time>2021-07-29T09:41:51Z</time>
      </trkpt>
      <trkpt lat="48.0367" lon="7.02036">
        <ele>1305</ele>
        <time>2021-07-29T09:41:53Z</time>
      </trkpt>
      <trkpt lat="48.0367" lon="7.02037">
        <ele>1304.4</ele>
        <time>2021-07-29T09:41:54Z</time>
      </trkpt>
      <trkpt lat="48.03671" lon="7.02039">
        <ele>1303.6</ele>
        <time>2021-07-29T09:41:55Z</time>
      </trkpt>
      <trkpt lat="48.03671" lon="7.02041">
        <ele>1302.6</ele>
        <time>2021-07-29T09:41:56Z</time>
      </trkpt>
      <trkpt lat="48.03671" lon="7.02045">
        <ele>1302.6</ele>
        <time>2021-07-29T09:41:58Z</time>
      </trkpt>
      <trkpt lat="48.03671" lon="7.02057">
        <ele>1301.2</ele>
        <time>2021-07-29T09:42:04Z</time>
      </trkpt>
      <trkpt lat="48.03673" lon="7.02062">
        <ele>1300.6</ele>
        <time>2021-07-29T09:42:07Z</time>
      </trkpt>
      <trkpt lat="48.03673" lon="7.02063">
        <ele>1300</ele>
        <time>2021-07-29T09:42:08Z</time>
      </trkpt>
      <trkpt lat="48.03671" lon="7.02075">
        <ele>1300.4</ele>
        <time>2021-07-29T09:42:14Z</time>
      </trkpt>
      <trkpt lat="48.0367" lon="7.02076">
        <ele>1301</ele>
        <time>2021-07-29T09:42:15Z</time>
      </trkpt>
      <trkpt lat="48.0367" lon="7.02077">
        <ele>1302</ele>
        <time>2021-07-29T09:42:16Z</time>
      </trkpt>
      <trkpt lat="48.0367" lon="7.02079">
        <ele>1303.6</ele>
        <time>2021-07-29T09:42:17Z</time>
      </trkpt>
      <trkpt lat="48.0367" lon="7.02079">
        <ele>1306</ele>
        <time>2021-07-29T09:42:18Z</time>
      </trkpt>
      <trkpt lat="48.0367" lon="7.02081">
        <ele>1307.2</ele>
        <time>2021-07-29T09:42:19Z</time>
      </trkpt>
      <trkpt lat="48.0367" lon="7.02083">
        <ele>1305.2</ele>
        <time>2021-07-29T09:42:20Z</time>
      </trkpt>
      <trkpt lat="48.0367" lon="7.02085">
        <ele>1302.8</ele>
        <time>2021-07-29T09:42:21Z</time>
      </trkpt>
      <trkpt lat="48.0367" lon="7.02086">
        <ele>1301.6</ele>
        <time>2021-07-29T09:42:22Z</time>
      </trkpt>
      <trkpt lat="48.03671" lon="7.02089">
        <ele>1301.6</ele>
        <time>2021-07-29T09:42:24Z</time>
      </trkpt>
      <trkpt lat="48.03671" lon="7.02095">
        <ele>1302.8</ele>
        <time>2021-07-29T09:42:27Z</time>
      </trkpt>
      <trkpt lat="48.03669" lon="7.02106">
        <ele>1302.6</ele>
        <time>2021-07-29T09:42:33Z</time>
      </trkpt>
      <trkpt lat="48.03667" lon="7.02116">
        <ele>1301.6</ele>
        <time>2021-07-29T09:42:37Z</time>
      </trkpt>
      <trkpt lat="48.03668" lon="7.02122">
        <ele>1303.6</ele>
        <time>2021-07-29T09:42:41Z</time>
      </trkpt>
      <trkpt lat="48.03668" lon="7.02124">
        <ele>1302.4</ele>
        <time>2021-07-29T09:42:42Z</time>
      </trkpt>
      <trkpt lat="48.03668" lon="7.02125">
        <ele>1302</ele>
        <time>2021-07-29T09:42:43Z</time>
      </trkpt>
      <trkpt lat="48.03668" lon="7.02127">
        <ele>1301.2</ele>
        <time>2021-07-29T09:42:44Z</time>
      </trkpt>
      <trkpt lat="48.03668" lon="7.02133">
        <ele>1300.2</ele>
        <time>2021-07-29T09:42:46Z</time>
      </trkpt>
      <trkpt lat="48.03668" lon="7.02139">
        <ele>1302.2</ele>
        <time>2021-07-29T09:42:50Z</time>
      </trkpt>
      <trkpt lat="48.03668" lon="7.02146">
        <ele>1302.8</ele>
        <time>2021-07-29T09:42:54Z</time>
      </trkpt>
      <trkpt lat="48.03664" lon="7.02158">
        <ele>1301.8</ele>
        <time>2021-07-29T09:43:00Z</time>
      </trkpt>
      <trkpt lat="48.03663" lon="7.02163">
        <ele>1301.4</ele>
        <time>2021-07-29T09:43:03Z</time>
      </trkpt>
      <trkpt lat="48.03664" lon="7.02163">
        <ele>1300.2</ele>
        <time>2021-07-29T09:43:04Z</time>
      </trkpt>
      <trkpt lat="48.03664" lon="7.02166">
        <ele>1298.8</ele>
        <time>2021-07-29T09:43:06Z</time>
      </trkpt>
      <trkpt lat="48.03664" lon="7.02166">
        <ele>1297.8</ele>
        <time>2021-07-29T09:43:07Z</time>
      </trkpt>
      <trkpt lat="48.03663" lon="7.02168">
        <ele>1296.4</ele>
        <time>2021-07-29T09:43:08Z</time>
      </trkpt>
      <trkpt lat="48.03662" lon="7.02172">
        <ele>1295.2</ele>
        <time>2021-07-29T09:43:10Z</time>
      </trkpt>
      <trkpt lat="48.03661" lon="7.02178">
        <ele>1295.4</ele>
        <time>2021-07-29T09:43:14Z</time>
      </trkpt>
      <trkpt lat="48.03659" lon="7.02187">
        <ele>1294.8</ele>
        <time>2021-07-29T09:43:20Z</time>
      </trkpt>
      <trkpt lat="48.03658" lon="7.02191">
        <ele>1295.6</ele>
        <time>2021-07-29T09:43:23Z</time>
      </trkpt>
      <trkpt lat="48.03658" lon="7.02191">
        <ele>1295.4</ele>
        <time>2021-07-29T09:43:24Z</time>
      </trkpt>
      <trkpt lat="48.03658" lon="7.02193">
        <ele>1295</ele>
        <time>2021-07-29T09:43:25Z</time>
      </trkpt>
      <trkpt lat="48.03656" lon="7.022">
        <ele>1294.6</ele>
        <time>2021-07-29T09:43:31Z</time>
      </trkpt>
      <trkpt lat="48.03656" lon="7.02199">
        <ele>1294.6</ele>
        <time>2021-07-29T09:43:34Z</time>
      </trkpt>
      <trkpt lat="48.03655" lon="7.02202">
        <ele>1295.8</ele>
        <time>2021-07-29T09:43:40Z</time>
      </trkpt>
      <trkpt lat="48.03655" lon="7.02206">
        <ele>1294.6</ele>
        <time>2021-07-29T09:43:42Z</time>
      </trkpt>
      <trkpt lat="48.03656" lon="7.02208">
        <ele>1294.2</ele>
        <time>2021-07-29T09:43:44Z</time>
      </trkpt>
      <trkpt lat="48.03657" lon="7.02211">
        <ele>1293.4</ele>
        <time>2021-07-29T09:43:47Z</time>
      </trkpt>
      <trkpt lat="48.03657" lon="7.02212">
        <ele>1293</ele>
        <time>2021-07-29T09:43:48Z</time>
      </trkpt>
      <trkpt lat="48.03656" lon="7.02214">
        <ele>1292</ele>
        <time>2021-07-29T09:43:50Z</time>
      </trkpt>
      <trkpt lat="48.03655" lon="7.02218">
        <ele>1291.6</ele>
        <time>2021-07-29T09:43:54Z</time>
      </trkpt>
      <trkpt lat="48.03655" lon="7.02221">
        <ele>1291.4</ele>
        <time>2021-07-29T09:43:56Z</time>
      </trkpt>
      <trkpt lat="48.03655" lon="7.02226">
        <ele>1291.4</ele>
        <time>2021-07-29T09:43:58Z</time>
      </trkpt>
      <trkpt lat="48.03654" lon="7.02229">
        <ele>1290.8</ele>
        <time>2021-07-29T09:44:00Z</time>
      </trkpt>
      <trkpt lat="48.03653" lon="7.02235">
        <ele>1290.8</ele>
        <time>2021-07-29T09:44:04Z</time>
      </trkpt>
      <trkpt lat="48.03653" lon="7.02235">
        <ele>1290.8</ele>
        <time>2021-07-29T09:44:05Z</time>
      </trkpt>
      <trkpt lat="48.03653" lon="7.02243">
        <ele>1290</ele>
        <time>2021-07-29T09:44:11Z</time>
      </trkpt>
      <trkpt lat="48.03651" lon="7.02247">
        <ele>1289.8</ele>
        <time>2021-07-29T09:44:14Z</time>
      </trkpt>
      <trkpt lat="48.0365" lon="7.02254">
        <ele>1289.6</ele>
        <time>2021-07-29T09:44:18Z</time>
      </trkpt>
      <trkpt lat="48.0365" lon="7.02257">
        <ele>1289.4</ele>
        <time>2021-07-29T09:44:20Z</time>
      </trkpt>
      <trkpt lat="48.03649" lon="7.02261">
        <ele>1288.6</ele>
        <time>2021-07-29T09:44:22Z</time>
      </trkpt>
      <trkpt lat="48.03648" lon="7.02263">
        <ele>1288.4</ele>
        <time>2021-07-29T09:44:24Z</time>
      </trkpt>
      <trkpt lat="48.03647" lon="7.02265">
        <ele>1288.4</ele>
        <time>2021-07-29T09:44:25Z</time>
      </trkpt>
      <trkpt lat="48.03647" lon="7.02267">
        <ele>1288.4</ele>
        <time>2021-07-29T09:44:27Z</time>
      </trkpt>
      <trkpt lat="48.03645" lon="7.0227">
        <ele>1288.4</ele>
        <time>2021-07-29T09:44:30Z</time>
      </trkpt>
      <trkpt lat="48.03645" lon="7.02272">
        <ele>1288</ele>
        <time>2021-07-29T09:44:32Z</time>
      </trkpt>
      <trkpt lat="48.03644" lon="7.02272">
        <ele>1287.4</ele>
        <time>2021-07-29T09:44:33Z</time>
      </trkpt>
      <trkpt lat="48.03644" lon="7.02272">
        <ele>1287</ele>
        <time>2021-07-29T09:44:34Z</time>
      </trkpt>
      <trkpt lat="48.03642" lon="7.02277">
        <ele>1287</ele>
        <time>2021-07-29T09:44:40Z</time>
      </trkpt>
      <trkpt lat="48.03642" lon="7.02281">
        <ele>1287.6</ele>
        <time>2021-07-29T09:44:44Z</time>
      </trkpt>
      <trkpt lat="48.03641" lon="7.02284">
        <ele>1288.6</ele>
        <time>2021-07-29T09:44:46Z</time>
      </trkpt>
      <trkpt lat="48.0364" lon="7.02287">
        <ele>1286.8</ele>
        <time>2021-07-29T09:44:49Z</time>
      </trkpt>
      <trkpt lat="48.03639" lon="7.0229">
        <ele>1285.4</ele>
        <time>2021-07-29T09:44:51Z</time>
      </trkpt>
      <trkpt lat="48.03639" lon="7.02291">
        <ele>1284.8</ele>
        <time>2021-07-29T09:44:52Z</time>
      </trkpt>
      <trkpt lat="48.03639" lon="7.02291">
        <ele>1284</ele>
        <time>2021-07-29T09:44:53Z</time>
      </trkpt>
      <trkpt lat="48.03639" lon="7.02291">
        <ele>1285</ele>
        <time>2021-07-29T09:44:54Z</time>
      </trkpt>
      <trkpt lat="48.03639" lon="7.02292">
        <ele>1286.6</ele>
        <time>2021-07-29T09:44:55Z</time>
      </trkpt>
      <trkpt lat="48.0364" lon="7.02294">
        <ele>1285.4</ele>
        <time>2021-07-29T09:44:57Z</time>
      </trkpt>
      <trkpt lat="48.0364" lon="7.02294">
        <ele>1284.2</ele>
        <time>2021-07-29T09:44:58Z</time>
      </trkpt>
      <trkpt lat="48.03638" lon="7.02304">
        <ele>1284.4</ele>
        <time>2021-07-29T09:45:04Z</time>
      </trkpt>
      <trkpt lat="48.03638" lon="7.02306">
        <ele>1285.4</ele>
        <time>2021-07-29T09:45:06Z</time>
      </trkpt>
      <trkpt lat="48.03639" lon="7.02308">
        <ele>1284.4</ele>
        <time>2021-07-29T09:45:08Z</time>
      </trkpt>
      <trkpt lat="48.03637" lon="7.02311">
        <ele>1283.2</ele>
        <time>2021-07-29T09:45:10Z</time>
      </trkpt>
      <trkpt lat="48.03634" lon="7.02319">
        <ele>1283.2</ele>
        <time>2021-07-29T09:45:14Z</time>
      </trkpt>
      <trkpt lat="48.03634" lon="7.0232">
        <ele>1283</ele>
        <time>2021-07-29T09:45:15Z</time>
      </trkpt>
      <trkpt lat="48.03634" lon="7.02323">
        <ele>1282.8</ele>
        <time>2021-07-29T09:45:17Z</time>
      </trkpt>
      <trkpt lat="48.03626" lon="7.02333">
        <ele>1282</ele>
        <time>2021-07-29T09:45:23Z</time>
      </trkpt>
      <trkpt lat="48.03625" lon="7.02333">
        <ele>1281.8</ele>
        <time>2021-07-29T09:45:24Z</time>
      </trkpt>
      <trkpt lat="48.03619" lon="7.02333">
        <ele>1280.8</ele>
        <time>2021-07-29T09:45:29Z</time>
      </trkpt>
      <trkpt lat="48.03618" lon="7.02333">
        <ele>1280.2</ele>
        <time>2021-07-29T09:45:31Z</time>
      </trkpt>
      <trkpt lat="48.03617" lon="7.02333">
        <ele>1279.8</ele>
        <time>2021-07-29T09:45:33Z</time>
      </trkpt>
      <trkpt lat="48.03616" lon="7.02333">
        <ele>1279.8</ele>
        <time>2021-07-29T09:45:34Z</time>
      </trkpt>
      <trkpt lat="48.03614" lon="7.02335">
        <ele>1278.8</ele>
        <time>2021-07-29T09:45:36Z</time>
      </trkpt>
      <trkpt lat="48.03613" lon="7.02335">
        <ele>1279</ele>
        <time>2021-07-29T09:45:38Z</time>
      </trkpt>
      <trkpt lat="48.0361" lon="7.02337">
        <ele>1277.2</ele>
        <time>2021-07-29T09:45:43Z</time>
      </trkpt>
      <trkpt lat="48.0361" lon="7.02336">
        <ele>1277.2</ele>
        <time>2021-07-29T09:45:44Z</time>
      </trkpt>
      <trkpt lat="48.03609" lon="7.02337">
        <ele>1279.2</ele>
        <time>2021-07-29T09:45:49Z</time>
      </trkpt>
      <trkpt lat="48.03608" lon="7.02339">
        <ele>1278</ele>
        <time>2021-07-29T09:45:52Z</time>
      </trkpt>
      <trkpt lat="48.03607" lon="7.0234">
        <ele>1277.4</ele>
        <time>2021-07-29T09:45:54Z</time>
      </trkpt>
      <trkpt lat="48.03607" lon="7.02342">
        <ele>1276.6</ele>
        <time>2021-07-29T09:45:59Z</time>
      </trkpt>
      <trkpt lat="48.03607" lon="7.02345">
        <ele>1276.6</ele>
        <time>2021-07-29T09:46:04Z</time>
      </trkpt>
      <trkpt lat="48.03607" lon="7.02346">
        <ele>1275.6</ele>
        <time>2021-07-29T09:46:05Z</time>
      </trkpt>
      <trkpt lat="48.03606" lon="7.02349">
        <ele>1275</ele>
        <time>2021-07-29T09:46:11Z</time>
      </trkpt>
      <trkpt lat="48.03607" lon="7.02351">
        <ele>1274.2</ele>
        <time>2021-07-29T09:46:13Z</time>
      </trkpt>
      <trkpt lat="48.03606" lon="7.02352">
        <ele>1274</ele>
        <time>2021-07-29T09:46:14Z</time>
      </trkpt>
      <trkpt lat="48.03606" lon="7.02356">
        <ele>1275.2</ele>
        <time>2021-07-29T09:46:18Z</time>
      </trkpt>
      <trkpt lat="48.03606" lon="7.02362">
        <ele>1275.8</ele>
        <time>2021-07-29T09:46:24Z</time>
      </trkpt>
      <trkpt lat="48.03607" lon="7.02367">
        <ele>1276.6</ele>
        <time>2021-07-29T09:46:27Z</time>
      </trkpt>
      <trkpt lat="48.03606" lon="7.02372">
        <ele>1275.2</ele>
        <time>2021-07-29T09:46:30Z</time>
      </trkpt>
      <trkpt lat="48.03606" lon="7.02377">
        <ele>1274.2</ele>
        <time>2021-07-29T09:46:34Z</time>
      </trkpt>
      <trkpt lat="48.03606" lon="7.02378">
        <ele>1274.2</ele>
        <time>2021-07-29T09:46:35Z</time>
      </trkpt>
      <trkpt lat="48.03606" lon="7.02379">
        <ele>1273.8</ele>
        <time>2021-07-29T09:46:36Z</time>
      </trkpt>
      <trkpt lat="48.03606" lon="7.0238">
        <ele>1272.8</ele>
        <time>2021-07-29T09:46:38Z</time>
      </trkpt>
      <trkpt lat="48.03604" lon="7.02381">
        <ele>1273.2</ele>
        <time>2021-07-29T09:46:44Z</time>
      </trkpt>
      <trkpt lat="48.03604" lon="7.02382">
        <ele>1271.8</ele>
        <time>2021-07-29T09:46:47Z</time>
      </trkpt>
      <trkpt lat="48.03603" lon="7.02388">
        <ele>1273</ele>
        <time>2021-07-29T09:46:51Z</time>
      </trkpt>
      <trkpt lat="48.03603" lon="7.02391">
        <ele>1272.8</ele>
        <time>2021-07-29T09:46:54Z</time>
      </trkpt>
      <trkpt lat="48.03601" lon="7.02398">
        <ele>1271.6</ele>
        <time>2021-07-29T09:46:59Z</time>
      </trkpt>
      <trkpt lat="48.036" lon="7.024">
        <ele>1270.4</ele>
        <time>2021-07-29T09:47:01Z</time>
      </trkpt>
      <trkpt lat="48.03599" lon="7.02403">
        <ele>1269.2</ele>
        <time>2021-07-29T09:47:03Z</time>
      </trkpt>
      <trkpt lat="48.03599" lon="7.02404">
        <ele>1268.8</ele>
        <time>2021-07-29T09:47:04Z</time>
      </trkpt>
      <trkpt lat="48.03601" lon="7.02411">
        <ele>1268.6</ele>
        <time>2021-07-29T09:47:10Z</time>
      </trkpt>
      <trkpt lat="48.03602" lon="7.02416">
        <ele>1268.2</ele>
        <time>2021-07-29T09:47:14Z</time>
      </trkpt>
      <trkpt lat="48.03603" lon="7.02418">
        <ele>1267.8</ele>
        <time>2021-07-29T09:47:16Z</time>
      </trkpt>
      <trkpt lat="48.03604" lon="7.02423">
        <ele>1267</ele>
        <time>2021-07-29T09:47:22Z</time>
      </trkpt>
      <trkpt lat="48.03604" lon="7.02424">
        <ele>1266.8</ele>
        <time>2021-07-29T09:47:23Z</time>
      </trkpt>
      <trkpt lat="48.03605" lon="7.02426">
        <ele>1266.2</ele>
        <time>2021-07-29T09:47:24Z</time>
      </trkpt>
      <trkpt lat="48.03605" lon="7.02429">
        <ele>1265.8</ele>
        <time>2021-07-29T09:47:25Z</time>
      </trkpt>
      <trkpt lat="48.03605" lon="7.0243">
        <ele>1265.6</ele>
        <time>2021-07-29T09:47:26Z</time>
      </trkpt>
      <trkpt lat="48.03608" lon="7.02431">
        <ele>1266.2</ele>
        <time>2021-07-29T09:47:29Z</time>
      </trkpt>
      <trkpt lat="48.03608" lon="7.02431">
        <ele>1265.6</ele>
        <time>2021-07-29T09:47:31Z</time>
      </trkpt>
      <trkpt lat="48.03609" lon="7.02432">
        <ele>1264.6</ele>
        <time>2021-07-29T09:47:34Z</time>
      </trkpt>
      <trkpt lat="48.03609" lon="7.02435">
        <ele>1263.4</ele>
        <time>2021-07-29T09:47:37Z</time>
      </trkpt>
      <trkpt lat="48.03611" lon="7.02439">
        <ele>1263.6</ele>
        <time>2021-07-29T09:47:43Z</time>
      </trkpt>
      <trkpt lat="48.03611" lon="7.02439">
        <ele>1263.6</ele>
        <time>2021-07-29T09:47:44Z</time>
      </trkpt>
      <trkpt lat="48.03615" lon="7.02442">
        <ele>1262.4</ele>
        <time>2021-07-29T09:47:50Z</time>
      </trkpt>
      <trkpt lat="48.03617" lon="7.02443">
        <ele>1262.2</ele>
        <time>2021-07-29T09:47:54Z</time>
      </trkpt>
      <trkpt lat="48.03618" lon="7.02443">
        <ele>1263.4</ele>
        <time>2021-07-29T09:48:00Z</time>
      </trkpt>
      <trkpt lat="48.03619" lon="7.02444">
        <ele>1262.6</ele>
        <time>2021-07-29T09:48:04Z</time>
      </trkpt>
      <trkpt lat="48.03622" lon="7.02448">
        <ele>1262.6</ele>
        <time>2021-07-29T09:48:10Z</time>
      </trkpt>
      <trkpt lat="48.03623" lon="7.02449">
        <ele>1262.2</ele>
        <time>2021-07-29T09:48:11Z</time>
      </trkpt>
      <trkpt lat="48.03622" lon="7.02451">
        <ele>1261.6</ele>
        <time>2021-07-29T09:48:14Z</time>
      </trkpt>
      <trkpt lat="48.03621" lon="7.02452">
        <ele>1261.2</ele>
        <time>2021-07-29T09:48:16Z</time>
      </trkpt>
      <trkpt lat="48.03621" lon="7.02456">
        <ele>1261.2</ele>
        <time>2021-07-29T09:48:22Z</time>
      </trkpt>
      <trkpt lat="48.03621" lon="7.02459">
        <ele>1260.6</ele>
        <time>2021-07-29T09:48:24Z</time>
      </trkpt>
      <trkpt lat="48.03623" lon="7.02464">
        <ele>1259.6</ele>
        <time>2021-07-29T09:48:29Z</time>
      </trkpt>
      <trkpt lat="48.03623" lon="7.02465">
        <ele>1258.4</ele>
        <time>2021-07-29T09:48:32Z</time>
      </trkpt>
      <trkpt lat="48.03624" lon="7.02466">
        <ele>1258</ele>
        <time>2021-07-29T09:48:34Z</time>
      </trkpt>
      <trkpt lat="48.03625" lon="7.02466">
        <ele>1257</ele>
        <time>2021-07-29T09:48:36Z</time>
      </trkpt>
      <trkpt lat="48.03628" lon="7.02469">
        <ele>1256.2</ele>
        <time>2021-07-29T09:48:42Z</time>
      </trkpt>
      <trkpt lat="48.03629" lon="7.02472">
        <ele>1256</ele>
        <time>2021-07-29T09:48:44Z</time>
      </trkpt>
      <trkpt lat="48.03629" lon="7.02474">
        <ele>1255.4</ele>
        <time>2021-07-29T09:48:46Z</time>
      </trkpt>
      <trkpt lat="48.03632" lon="7.02477">
        <ele>1254.8</ele>
        <time>2021-07-29T09:48:50Z</time>
      </trkpt>
      <trkpt lat="48.03634" lon="7.02479">
        <ele>1254</ele>
        <time>2021-07-29T09:48:54Z</time>
      </trkpt>
      <trkpt lat="48.03637" lon="7.02485">
        <ele>1253.6</ele>
        <time>2021-07-29T09:48:59Z</time>
      </trkpt>
      <trkpt lat="48.03638" lon="7.02485">
        <ele>1252.4</ele>
        <time>2021-07-29T09:49:01Z</time>
      </trkpt>
      <trkpt lat="48.0364" lon="7.02487">
        <ele>1251.4</ele>
        <time>2021-07-29T09:49:04Z</time>
      </trkpt>
      <trkpt lat="48.03641" lon="7.0249">
        <ele>1251.4</ele>
        <time>2021-07-29T09:49:06Z</time>
      </trkpt>
      <trkpt lat="48.03642" lon="7.02493">
        <ele>1251</ele>
        <time>2021-07-29T09:49:09Z</time>
      </trkpt>
      <trkpt lat="48.03643" lon="7.02494">
        <ele>1250.4</ele>
        <time>2021-07-29T09:49:11Z</time>
      </trkpt>
      <trkpt lat="48.03644" lon="7.02496">
        <ele>1250</ele>
        <time>2021-07-29T09:49:14Z</time>
      </trkpt>
      <trkpt lat="48.03646" lon="7.02499">
        <ele>1249.4</ele>
        <time>2021-07-29T09:49:16Z</time>
      </trkpt>
      <trkpt lat="48.03646" lon="7.02499">
        <ele>1249.2</ele>
        <time>2021-07-29T09:49:17Z</time>
      </trkpt>
      <trkpt lat="48.03646" lon="7.02501">
        <ele>1248.8</ele>
        <time>2021-07-29T09:49:18Z</time>
      </trkpt>
      <trkpt lat="48.03648" lon="7.02504">
        <ele>1248.6</ele>
        <time>2021-07-29T09:49:21Z</time>
      </trkpt>
      <trkpt lat="48.03649" lon="7.02505">
        <ele>1249.6</ele>
        <time>2021-07-29T09:49:23Z</time>
      </trkpt>
      <trkpt lat="48.03649" lon="7.02506">
        <ele>1249.6</ele>
        <time>2021-07-29T09:49:24Z</time>
      </trkpt>
      <trkpt lat="48.0365" lon="7.0251">
        <ele>1248</ele>
        <time>2021-07-29T09:49:30Z</time>
      </trkpt>
      <trkpt lat="48.03651" lon="7.02512">
        <ele>1246.6</ele>
        <time>2021-07-29T09:49:32Z</time>
      </trkpt>
      <trkpt lat="48.03652" lon="7.02513">
        <ele>1246.6</ele>
        <time>2021-07-29T09:49:34Z</time>
      </trkpt>
      <trkpt lat="48.03654" lon="7.02517">
        <ele>1247.2</ele>
        <time>2021-07-29T09:49:40Z</time>
      </trkpt>
      <trkpt lat="48.03654" lon="7.02519">
        <ele>1246.6</ele>
        <time>2021-07-29T09:49:44Z</time>
      </trkpt>
      <trkpt lat="48.03656" lon="7.02523">
        <ele>1246</ele>
        <time>2021-07-29T09:49:50Z</time>
      </trkpt>
      <trkpt lat="48.03656" lon="7.02525">
        <ele>1245.2</ele>
        <time>2021-07-29T09:49:52Z</time>
      </trkpt>
      <trkpt lat="48.03655" lon="7.02525">
        <ele>1244.4</ele>
        <time>2021-07-29T09:49:54Z</time>
      </trkpt>
      <trkpt lat="48.03656" lon="7.02525">
        <ele>1245</ele>
        <time>2021-07-29T09:50:00Z</time>
      </trkpt>
      <trkpt lat="48.03656" lon="7.02528">
        <ele>1244.8</ele>
        <time>2021-07-29T09:50:04Z</time>
      </trkpt>
      <trkpt lat="48.03657" lon="7.02529">
        <ele>1244.2</ele>
        <time>2021-07-29T09:50:06Z</time>
      </trkpt>
      <trkpt lat="48.03658" lon="7.02533">
        <ele>1243.6</ele>
        <time>2021-07-29T09:50:12Z</time>
      </trkpt>
      <trkpt lat="48.03658" lon="7.02534">
        <ele>1243.6</ele>
        <time>2021-07-29T09:50:14Z</time>
      </trkpt>
      <trkpt lat="48.03658" lon="7.02535">
        <ele>1242.4</ele>
        <time>2021-07-29T09:50:16Z</time>
      </trkpt>
      <trkpt lat="48.03658" lon="7.02534">
        <ele>1243.8</ele>
        <time>2021-07-29T09:50:19Z</time>
      </trkpt>
      <trkpt lat="48.03658" lon="7.02534">
        <ele>1243.8</ele>
        <time>2021-07-29T09:50:24Z</time>
      </trkpt>
      <trkpt lat="48.03658" lon="7.02534">
        <ele>1244.6</ele>
        <time>2021-07-29T09:50:30Z</time>
      </trkpt>
      <trkpt lat="48.03658" lon="7.02534">
        <ele>1245</ele>
        <time>2021-07-29T09:50:32Z</time>
      </trkpt>
      <trkpt lat="48.03658" lon="7.02534">
        <ele>1245.2</ele>
        <time>2021-07-29T09:50:34Z</time>
      </trkpt>
      <trkpt lat="48.03661" lon="7.02536">
        <ele>1245.2</ele>
        <time>2021-07-29T09:50:40Z</time>
      </trkpt>
      <trkpt lat="48.03661" lon="7.02536">
        <ele>1243.6</ele>
        <time>2021-07-29T09:50:44Z</time>
      </trkpt>
      <trkpt lat="48.03661" lon="7.02536">
        <ele>1244</ele>
        <time>2021-07-29T09:50:50Z</time>
      </trkpt>
      <trkpt lat="48.0366" lon="7.02535">
        <ele>1243.2</ele>
        <time>2021-07-29T09:50:54Z</time>
      </trkpt>
      <trkpt lat="48.03659" lon="7.02535">
        <ele>1243.8</ele>
        <time>2021-07-29T09:51:00Z</time>
      </trkpt>
      <trkpt lat="48.03659" lon="7.02534">
        <ele>1243.4</ele>
        <time>2021-07-29T09:51:04Z</time>
      </trkpt>
      <trkpt lat="48.03659" lon="7.02534">
        <ele>1244</ele>
        <time>2021-07-29T09:51:10Z</time>
      </trkpt>
      <trkpt lat="48.03659" lon="7.02535">
        <ele>1243</ele>
        <time>2021-07-29T09:51:14Z</time>
      </trkpt>
      <trkpt lat="48.03659" lon="7.02535">
        <ele>1242</ele>
        <time>2021-07-29T09:51:17Z</time>
      </trkpt>
      <trkpt lat="48.03658" lon="7.02535">
        <ele>1243.2</ele>
        <time>2021-07-29T09:51:20Z</time>
      </trkpt>
      <trkpt lat="48.03657" lon="7.02534">
        <ele>1242.6</ele>
        <time>2021-07-29T09:51:24Z</time>
      </trkpt>
      <trkpt lat="48.03658" lon="7.02534">
        <ele>1242.8</ele>
        <time>2021-07-29T09:51:30Z</time>
      </trkpt>
      <trkpt lat="48.03658" lon="7.02534">
        <ele>1243.2</ele>
        <time>2021-07-29T09:51:34Z</time>
      </trkpt>
      <trkpt lat="48.03658" lon="7.02534">
        <ele>1244.4</ele>
        <time>2021-07-29T09:51:40Z</time>
      </trkpt>
      <trkpt lat="48.03657" lon="7.02535">
        <ele>1242.2</ele>
        <time>2021-07-29T09:51:44Z</time>
      </trkpt>
      <trkpt lat="48.03657" lon="7.02535">
        <ele>1241</ele>
        <time>2021-07-29T09:51:45Z</time>
      </trkpt>
      <trkpt lat="48.03655" lon="7.02536">
        <ele>1242.2</ele>
        <time>2021-07-29T09:51:47Z</time>
      </trkpt>
      <trkpt lat="48.03655" lon="7.02537">
        <ele>1243.2</ele>
        <time>2021-07-29T09:51:49Z</time>
      </trkpt>
      <trkpt lat="48.03654" lon="7.02539">
        <ele>1242.2</ele>
        <time>2021-07-29T09:51:54Z</time>
      </trkpt>
      <trkpt lat="48.03654" lon="7.02539">
        <ele>1242.2</ele>
        <time>2021-07-29T09:51:58Z</time>
      </trkpt>
      <trkpt lat="48.03654" lon="7.02539">
        <ele>1243.2</ele>
        <time>2021-07-29T09:52:04Z</time>
      </trkpt>
      <trkpt lat="48.03654" lon="7.02539">
        <ele>1243.6</ele>
        <time>2021-07-29T09:52:05Z</time>
      </trkpt>
      <trkpt lat="48.03653" lon="7.02539">
        <ele>1242.6</ele>
        <time>2021-07-29T09:52:10Z</time>
      </trkpt>
      <trkpt lat="48.03651" lon="7.02544">
        <ele>1241</ele>
        <time>2021-07-29T09:52:13Z</time>
      </trkpt>
      <trkpt lat="48.0365" lon="7.02546">
        <ele>1240.8</ele>
        <time>2021-07-29T09:52:14Z</time>
      </trkpt>
      <trkpt lat="48.03647" lon="7.02549">
        <ele>1242.2</ele>
        <time>2021-07-29T09:52:18Z</time>
      </trkpt>
      <trkpt lat="48.03648" lon="7.02552">
        <ele>1240.8</ele>
        <time>2021-07-29T09:52:21Z</time>
      </trkpt>
      <trkpt lat="48.03646" lon="7.02556">
        <ele>1240.6</ele>
        <time>2021-07-29T09:52:24Z</time>
      </trkpt>
      <trkpt lat="48.03645" lon="7.02557">
        <ele>1242</ele>
        <time>2021-07-29T09:52:26Z</time>
      </trkpt>
      <trkpt lat="48.03645" lon="7.02558">
        <ele>1241</ele>
        <time>2021-07-29T09:52:28Z</time>
      </trkpt>
      <trkpt lat="48.03643" lon="7.02563">
        <ele>1240</ele>
        <time>2021-07-29T09:52:31Z</time>
      </trkpt>
      <trkpt lat="48.03643" lon="7.02567">
        <ele>1240</ele>
        <time>2021-07-29T09:52:34Z</time>
      </trkpt>
      <trkpt lat="48.03642" lon="7.02571">
        <ele>1239.6</ele>
        <time>2021-07-29T09:52:36Z</time>
      </trkpt>
      <trkpt lat="48.03639" lon="7.02576">
        <ele>1238.8</ele>
        <time>2021-07-29T09:52:38Z</time>
      </trkpt>
      <trkpt lat="48.03637" lon="7.02579">
        <ele>1236.8</ele>
        <time>2021-07-29T09:52:41Z</time>
      </trkpt>
      <trkpt lat="48.03636" lon="7.0258">
        <ele>1237</ele>
        <time>2021-07-29T09:52:42Z</time>
      </trkpt>
      <trkpt lat="48.03636" lon="7.0258">
        <ele>1237.6</ele>
        <time>2021-07-29T09:52:44Z</time>
      </trkpt>
      <trkpt lat="48.03628" lon="7.02588">
        <ele>1236.2</ele>
        <time>2021-07-29T09:52:50Z</time>
      </trkpt>
      <trkpt lat="48.03628" lon="7.02589">
        <ele>1236</ele>
        <time>2021-07-29T09:52:51Z</time>
      </trkpt>
      <trkpt lat="48.03625" lon="7.02591">
        <ele>1235.8</ele>
        <time>2021-07-29T09:52:54Z</time>
      </trkpt>
      <trkpt lat="48.03622" lon="7.02595">
        <ele>1235.6</ele>
        <time>2021-07-29T09:52:56Z</time>
      </trkpt>
      <trkpt lat="48.0362" lon="7.02598">
        <ele>1235.4</ele>
        <time>2021-07-29T09:52:58Z</time>
      </trkpt>
      <trkpt lat="48.03619" lon="7.026">
        <ele>1234.2</ele>
        <time>2021-07-29T09:53:03Z</time>
      </trkpt>
      <trkpt lat="48.03618" lon="7.02601">
        <ele>1234.2</ele>
        <time>2021-07-29T09:53:04Z</time>
      </trkpt>
      <trkpt lat="48.03615" lon="7.02607">
        <ele>1234</ele>
        <time>2021-07-29T09:53:08Z</time>
      </trkpt>
      <trkpt lat="48.03612" lon="7.02611">
        <ele>1234</ele>
        <time>2021-07-29T09:53:12Z</time>
      </trkpt>
      <trkpt lat="48.0361" lon="7.02613">
        <ele>1233.4</ele>
        <time>2021-07-29T09:53:14Z</time>
      </trkpt>
      <trkpt lat="48.03609" lon="7.02613">
        <ele>1232.8</ele>
        <time>2021-07-29T09:53:15Z</time>
      </trkpt>
      <trkpt lat="48.03609" lon="7.02613">
        <ele>1232.4</ele>
        <time>2021-07-29T09:53:16Z</time>
      </trkpt>
      <trkpt lat="48.03607" lon="7.02615">
        <ele>1231.6</ele>
        <time>2021-07-29T09:53:20Z</time>
      </trkpt>
      <trkpt lat="48.03607" lon="7.02615">
        <ele>1232.4</ele>
        <time>2021-07-29T09:53:24Z</time>
      </trkpt>
      <trkpt lat="48.03607" lon="7.02615">
        <ele>1232.8</ele>
        <time>2021-07-29T09:53:25Z</time>
      </trkpt>
      <trkpt lat="48.03607" lon="7.02616">
        <ele>1233.2</ele>
        <time>2021-07-29T09:53:31Z</time>
      </trkpt>
      <trkpt lat="48.03606" lon="7.02618">
        <ele>1231.8</ele>
        <time>2021-07-29T09:53:34Z</time>
      </trkpt>
      <trkpt lat="48.03606" lon="7.02618">
        <ele>1231.6</ele>
        <time>2021-07-29T09:53:35Z</time>
      </trkpt>
      <trkpt lat="48.03605" lon="7.0262">
        <ele>1229.6</ele>
        <time>2021-07-29T09:53:37Z</time>
      </trkpt>
      <trkpt lat="48.03603" lon="7.02619">
        <ele>1228.4</ele>
        <time>2021-07-29T09:53:39Z</time>
      </trkpt>
      <trkpt lat="48.03601" lon="7.02617">
        <ele>1229</ele>
        <time>2021-07-29T09:53:41Z</time>
      </trkpt>
      <trkpt lat="48.03599" lon="7.02619">
        <ele>1229.8</ele>
        <time>2021-07-29T09:53:44Z</time>
      </trkpt>
      <trkpt lat="48.03598" lon="7.02619">
        <ele>1228.4</ele>
        <time>2021-07-29T09:53:46Z</time>
      </trkpt>
      <trkpt lat="48.03594" lon="7.02623">
        <ele>1227.8</ele>
        <time>2021-07-29T09:53:52Z</time>
      </trkpt>
      <trkpt lat="48.03594" lon="7.02624">
        <ele>1228.4</ele>
        <time>2021-07-29T09:53:53Z</time>
      </trkpt>
      <trkpt lat="48.03593" lon="7.02627">
        <ele>1227</ele>
        <time>2021-07-29T09:53:59Z</time>
      </trkpt>
      <trkpt lat="48.03589" lon="7.0263">
        <ele>1225.8</ele>
        <time>2021-07-29T09:54:03Z</time>
      </trkpt>
      <trkpt lat="48.03589" lon="7.02631">
        <ele>1225</ele>
        <time>2021-07-29T09:54:04Z</time>
      </trkpt>
      <trkpt lat="48.03584" lon="7.02633">
        <ele>1226.8</ele>
        <time>2021-07-29T09:54:09Z</time>
      </trkpt>
      <trkpt lat="48.03584" lon="7.02634">
        <ele>1227.2</ele>
        <time>2021-07-29T09:54:10Z</time>
      </trkpt>
      <trkpt lat="48.03582" lon="7.02639">
        <ele>1226.8</ele>
        <time>2021-07-29T09:54:14Z</time>
      </trkpt>
      <trkpt lat="48.03579" lon="7.02643">
        <ele>1225.2</ele>
        <time>2021-07-29T09:54:17Z</time>
      </trkpt>
      <trkpt lat="48.03578" lon="7.02644">
        <ele>1224.2</ele>
        <time>2021-07-29T09:54:19Z</time>
      </trkpt>
      <trkpt lat="48.03576" lon="7.02643">
        <ele>1224.2</ele>
        <time>2021-07-29T09:54:21Z</time>
      </trkpt>
      <trkpt lat="48.03576" lon="7.02643">
        <ele>1222</ele>
        <time>2021-07-29T09:54:23Z</time>
      </trkpt>
      <trkpt lat="48.03575" lon="7.02643">
        <ele>1223.2</ele>
        <time>2021-07-29T09:54:24Z</time>
      </trkpt>
      <trkpt lat="48.03574" lon="7.02643">
        <ele>1224.8</ele>
        <time>2021-07-29T09:54:25Z</time>
      </trkpt>
      <trkpt lat="48.03573" lon="7.02644">
        <ele>1224.8</ele>
        <time>2021-07-29T09:54:28Z</time>
      </trkpt>
      <trkpt lat="48.03571" lon="7.02645">
        <ele>1223.8</ele>
        <time>2021-07-29T09:54:34Z</time>
      </trkpt>
      <trkpt lat="48.03569" lon="7.0265">
        <ele>1223.2</ele>
        <time>2021-07-29T09:54:40Z</time>
      </trkpt>
      <trkpt lat="48.03566" lon="7.02655">
        <ele>1222.6</ele>
        <time>2021-07-29T09:54:44Z</time>
      </trkpt>
      <trkpt lat="48.03566" lon="7.02656">
        <ele>1223.4</ele>
        <time>2021-07-29T09:54:46Z</time>
      </trkpt>
      <trkpt lat="48.03564" lon="7.02661">
        <ele>1221.6</ele>
        <time>2021-07-29T09:54:50Z</time>
      </trkpt>
      <trkpt lat="48.03563" lon="7.02663">
        <ele>1220.6</ele>
        <time>2021-07-29T09:54:52Z</time>
      </trkpt>
      <trkpt lat="48.03562" lon="7.02663">
        <ele>1220.2</ele>
        <time>2021-07-29T09:54:54Z</time>
      </trkpt>
      <trkpt lat="48.03561" lon="7.02667">
        <ele>1219.8</ele>
        <time>2021-07-29T09:55:00Z</time>
      </trkpt>
      <trkpt lat="48.0356" lon="7.02667">
        <ele>1219.4</ele>
        <time>2021-07-29T09:55:01Z</time>
      </trkpt>
      <trkpt lat="48.03559" lon="7.0267">
        <ele>1219.4</ele>
        <time>2021-07-29T09:55:04Z</time>
      </trkpt>
      <trkpt lat="48.03558" lon="7.02674">
        <ele>1218.8</ele>
        <time>2021-07-29T09:55:10Z</time>
      </trkpt>
      <trkpt lat="48.03556" lon="7.02676">
        <ele>1218</ele>
        <time>2021-07-29T09:55:13Z</time>
      </trkpt>
      <trkpt lat="48.03556" lon="7.02676">
        <ele>1218</ele>
        <time>2021-07-29T09:55:14Z</time>
      </trkpt>
      <trkpt lat="48.03553" lon="7.02679">
        <ele>1217.8</ele>
        <time>2021-07-29T09:55:20Z</time>
      </trkpt>
      <trkpt lat="48.03552" lon="7.0268">
        <ele>1217</ele>
        <time>2021-07-29T09:55:21Z</time>
      </trkpt>
      <trkpt lat="48.03549" lon="7.0268">
        <ele>1215.8</ele>
        <time>2021-07-29T09:55:23Z</time>
      </trkpt>
      <trkpt lat="48.03549" lon="7.02681">
        <ele>1215.6</ele>
        <time>2021-07-29T09:55:24Z</time>
      </trkpt>
      <trkpt lat="48.03548" lon="7.02682">
        <ele>1216.2</ele>
        <time>2021-07-29T09:55:26Z</time>
      </trkpt>
      <trkpt lat="48.03545" lon="7.02683">
        <ele>1216.6</ele>
        <time>2021-07-29T09:55:32Z</time>
      </trkpt>
      <trkpt lat="48.03544" lon="7.02683">
        <ele>1216.4</ele>
        <time>2021-07-29T09:55:34Z</time>
      </trkpt>
      <trkpt lat="48.03542" lon="7.02685">
        <ele>1214.8</ele>
        <time>2021-07-29T09:55:38Z</time>
      </trkpt>
      <trkpt lat="48.03539" lon="7.02685">
        <ele>1213.4</ele>
        <time>2021-07-29T09:55:44Z</time>
      </trkpt>
      <trkpt lat="48.03538" lon="7.02685">
        <ele>1212.4</ele>
        <time>2021-07-29T09:55:46Z</time>
      </trkpt>
      <trkpt lat="48.03535" lon="7.02686">
        <ele>1211.4</ele>
        <time>2021-07-29T09:55:51Z</time>
      </trkpt>
      <trkpt lat="48.03534" lon="7.02687">
        <ele>1210.2</ele>
        <time>2021-07-29T09:55:53Z</time>
      </trkpt>
      <trkpt lat="48.03534" lon="7.02688">
        <ele>1210.4</ele>
        <time>2021-07-29T09:55:54Z</time>
      </trkpt>
      <trkpt lat="48.03531" lon="7.02689">
        <ele>1211</ele>
        <time>2021-07-29T09:56:00Z</time>
      </trkpt>
      <trkpt lat="48.03529" lon="7.0269">
        <ele>1209.8</ele>
        <time>2021-07-29T09:56:04Z</time>
      </trkpt>
      <trkpt lat="48.03528" lon="7.02691">
        <ele>1209.2</ele>
        <time>2021-07-29T09:56:07Z</time>
      </trkpt>
      <trkpt lat="48.03526" lon="7.02694">
        <ele>1208.4</ele>
        <time>2021-07-29T09:56:13Z</time>
      </trkpt>
      <trkpt lat="48.03526" lon="7.02695">
        <ele>1208.4</ele>
        <time>2021-07-29T09:56:14Z</time>
      </trkpt>
      <trkpt lat="48.03524" lon="7.02697">
        <ele>1207.8</ele>
        <time>2021-07-29T09:56:17Z</time>
      </trkpt>
      <trkpt lat="48.03523" lon="7.02698">
        <ele>1206.8</ele>
        <time>2021-07-29T09:56:20Z</time>
      </trkpt>
      <trkpt lat="48.0352" lon="7.02699">
        <ele>1206.6</ele>
        <time>2021-07-29T09:56:24Z</time>
      </trkpt>
      <trkpt lat="48.03518" lon="7.02702">
        <ele>1206.8</ele>
        <time>2021-07-29T09:56:30Z</time>
      </trkpt>
      <trkpt lat="48.03517" lon="7.02703">
        <ele>1205.6</ele>
        <time>2021-07-29T09:56:33Z</time>
      </trkpt>
      <trkpt lat="48.03516" lon="7.02703">
        <ele>1205.4</ele>
        <time>2021-07-29T09:56:34Z</time>
      </trkpt>
      <trkpt lat="48.03514" lon="7.02704">
        <ele>1204.6</ele>
        <time>2021-07-29T09:56:38Z</time>
      </trkpt>
      <trkpt lat="48.0351" lon="7.02707">
        <ele>1204.6</ele>
        <time>2021-07-29T09:56:44Z</time>
      </trkpt>
      <trkpt lat="48.03507" lon="7.02711">
        <ele>1204.6</ele>
        <time>2021-07-29T09:56:50Z</time>
      </trkpt>
      <trkpt lat="48.03506" lon="7.02712">
        <ele>1204.8</ele>
        <time>2021-07-29T09:56:54Z</time>
      </trkpt>
      <trkpt lat="48.03503" lon="7.02715">
        <ele>1204.6</ele>
        <time>2021-07-29T09:57:00Z</time>
      </trkpt>
      <trkpt lat="48.03503" lon="7.02714">
        <ele>1204</ele>
        <time>2021-07-29T09:57:04Z</time>
      </trkpt>
      <trkpt lat="48.03499" lon="7.02716">
        <ele>1203.8</ele>
        <time>2021-07-29T09:57:10Z</time>
      </trkpt>
      <trkpt lat="48.03498" lon="7.02717">
        <ele>1204</ele>
        <time>2021-07-29T09:57:14Z</time>
      </trkpt>
      <trkpt lat="48.03499" lon="7.02718">
        <ele>1204.6</ele>
        <time>2021-07-29T09:57:20Z</time>
      </trkpt>
      <trkpt lat="48.035" lon="7.02718">
        <ele>1204</ele>
        <time>2021-07-29T09:57:24Z</time>
      </trkpt>
      <trkpt lat="48.035" lon="7.0272">
        <ele>1203.6</ele>
        <time>2021-07-29T09:57:30Z</time>
      </trkpt>
      <trkpt lat="48.035" lon="7.0272">
        <ele>1203.4</ele>
        <time>2021-07-29T09:57:34Z</time>
      </trkpt>
      <trkpt lat="48.035" lon="7.02719">
        <ele>1203.8</ele>
        <time>2021-07-29T09:57:40Z</time>
      </trkpt>
      <trkpt lat="48.035" lon="7.02719">
        <ele>1203.2</ele>
        <time>2021-07-29T09:57:44Z</time>
      </trkpt>
      <trkpt lat="48.03499" lon="7.02718">
        <ele>1203.8</ele>
        <time>2021-07-29T09:57:50Z</time>
      </trkpt>
      <trkpt lat="48.03498" lon="7.02719">
        <ele>1203.6</ele>
        <time>2021-07-29T09:57:54Z</time>
      </trkpt>
      <trkpt lat="48.03495" lon="7.0272">
        <ele>1203</ele>
        <time>2021-07-29T09:58:00Z</time>
      </trkpt>
      <trkpt lat="48.03494" lon="7.02721">
        <ele>1202.8</ele>
        <time>2021-07-29T09:58:04Z</time>
      </trkpt>
      <trkpt lat="48.03492" lon="7.02721">
        <ele>1202.6</ele>
        <time>2021-07-29T09:58:07Z</time>
      </trkpt>
      <trkpt lat="48.03489" lon="7.02722">
        <ele>1202.6</ele>
        <time>2021-07-29T09:58:13Z</time>
      </trkpt>
      <trkpt lat="48.03489" lon="7.02722">
        <ele>1202.6</ele>
        <time>2021-07-29T09:58:14Z</time>
      </trkpt>
      <trkpt lat="48.03484" lon="7.02726">
        <ele>1201.8</ele>
        <time>2021-07-29T09:58:20Z</time>
      </trkpt>
      <trkpt lat="48.03482" lon="7.02725">
        <ele>1201.2</ele>
        <time>2021-07-29T09:58:22Z</time>
      </trkpt>
      <trkpt lat="48.0348" lon="7.02725">
        <ele>1201</ele>
        <time>2021-07-29T09:58:24Z</time>
      </trkpt>
      <trkpt lat="48.03479" lon="7.02728">
        <ele>1200.6</ele>
        <time>2021-07-29T09:58:27Z</time>
      </trkpt>
      <trkpt lat="48.03478" lon="7.0273">
        <ele>1200.6</ele>
        <time>2021-07-29T09:58:30Z</time>
      </trkpt>
      <trkpt lat="48.03477" lon="7.02731">
        <ele>1200.2</ele>
        <time>2021-07-29T09:58:31Z</time>
      </trkpt>
      <trkpt lat="48.03477" lon="7.02732">
        <ele>1200</ele>
        <time>2021-07-29T09:58:32Z</time>
      </trkpt>
      <trkpt lat="48.03476" lon="7.02733">
        <ele>1199.6</ele>
        <time>2021-07-29T09:58:34Z</time>
      </trkpt>
      <trkpt lat="48.03475" lon="7.02734">
        <ele>1199.2</ele>
        <time>2021-07-29T09:58:36Z</time>
      </trkpt>
      <trkpt lat="48.0347" lon="7.02736">
        <ele>1198</ele>
        <time>2021-07-29T09:58:42Z</time>
      </trkpt>
      <trkpt lat="48.03469" lon="7.02737">
        <ele>1198</ele>
        <time>2021-07-29T09:58:43Z</time>
      </trkpt>
      <trkpt lat="48.03466" lon="7.0274">
        <ele>1197.2</ele>
        <time>2021-07-29T09:58:49Z</time>
      </trkpt>
      <trkpt lat="48.03464" lon="7.02742">
        <ele>1196.8</ele>
        <time>2021-07-29T09:58:52Z</time>
      </trkpt>
      <trkpt lat="48.03463" lon="7.02742">
        <ele>1196.4</ele>
        <time>2021-07-29T09:58:54Z</time>
      </trkpt>
      <trkpt lat="48.0346" lon="7.02745">
        <ele>1195.6</ele>
        <time>2021-07-29T09:58:59Z</time>
      </trkpt>
      <trkpt lat="48.03459" lon="7.0275">
        <ele>1194.8</ele>
        <time>2021-07-29T09:59:04Z</time>
      </trkpt>
      <trkpt lat="48.03458" lon="7.0275">
        <ele>1194.4</ele>
        <time>2021-07-29T09:59:05Z</time>
      </trkpt>
      <trkpt lat="48.03456" lon="7.02752">
        <ele>1193.4</ele>
        <time>2021-07-29T09:59:11Z</time>
      </trkpt>
      <trkpt lat="48.03455" lon="7.02754">
        <ele>1193.2</ele>
        <time>2021-07-29T09:59:14Z</time>
      </trkpt>
      <trkpt lat="48.03453" lon="7.02758">
        <ele>1192.8</ele>
        <time>2021-07-29T09:59:20Z</time>
      </trkpt>
      <trkpt lat="48.03452" lon="7.02761">
        <ele>1192.4</ele>
        <time>2021-07-29T09:59:24Z</time>
      </trkpt>
      <trkpt lat="48.03452" lon="7.02762">
        <ele>1192.2</ele>
        <time>2021-07-29T09:59:26Z</time>
      </trkpt>
      <trkpt lat="48.03449" lon="7.02765">
        <ele>1192.4</ele>
        <time>2021-07-29T09:59:32Z</time>
      </trkpt>
      <trkpt lat="48.03447" lon="7.02766">
        <ele>1192.4</ele>
        <time>2021-07-29T09:59:34Z</time>
      </trkpt>
      <trkpt lat="48.03445" lon="7.0277">
        <ele>1192.2</ele>
        <time>2021-07-29T09:59:40Z</time>
      </trkpt>
      <trkpt lat="48.03443" lon="7.02771">
        <ele>1192.2</ele>
        <time>2021-07-29T09:59:44Z</time>
      </trkpt>
      <trkpt lat="48.0344" lon="7.02775">
        <ele>1191.4</ele>
        <time>2021-07-29T09:59:50Z</time>
      </trkpt>
      <trkpt lat="48.03437" lon="7.02776">
        <ele>1191.2</ele>
        <time>2021-07-29T09:59:54Z</time>
      </trkpt>
      <trkpt lat="48.03432" lon="7.02779">
        <ele>1190.2</ele>
        <time>2021-07-29T10:00:00Z</time>
      </trkpt>
      <trkpt lat="48.03431" lon="7.0278">
        <ele>1190.2</ele>
        <time>2021-07-29T10:00:02Z</time>
      </trkpt>
      <trkpt lat="48.0343" lon="7.02781">
        <ele>1190.2</ele>
        <time>2021-07-29T10:00:04Z</time>
      </trkpt>
      <trkpt lat="48.03426" lon="7.02787">
        <ele>1189.4</ele>
        <time>2021-07-29T10:00:10Z</time>
      </trkpt>
      <trkpt lat="48.03424" lon="7.02789">
        <ele>1189</ele>
        <time>2021-07-29T10:00:14Z</time>
      </trkpt>
      <trkpt lat="48.03424" lon="7.02789">
        <ele>1189</ele>
        <time>2021-07-29T10:00:15Z</time>
      </trkpt>
      <trkpt lat="48.03419" lon="7.02792">
        <ele>1188.6</ele>
        <time>2021-07-29T10:00:21Z</time>
      </trkpt>
      <trkpt lat="48.03416" lon="7.02793">
        <ele>1188</ele>
        <time>2021-07-29T10:00:24Z</time>
      </trkpt>
      <trkpt lat="48.03413" lon="7.02795">
        <ele>1187.4</ele>
        <time>2021-07-29T10:00:27Z</time>
      </trkpt>
      <trkpt lat="48.0341" lon="7.02797">
        <ele>1186.8</ele>
        <time>2021-07-29T10:00:29Z</time>
      </trkpt>
      <trkpt lat="48.03405" lon="7.02801">
        <ele>1187.2</ele>
        <time>2021-07-29T10:00:34Z</time>
      </trkpt>
      <trkpt lat="48.03403" lon="7.02806">
        <ele>1187.4</ele>
        <time>2021-07-29T10:00:40Z</time>
      </trkpt>
      <trkpt lat="48.03401" lon="7.02809">
        <ele>1186.4</ele>
        <time>2021-07-29T10:00:44Z</time>
      </trkpt>
      <trkpt lat="48.03401" lon="7.02811">
        <ele>1187.2</ele>
        <time>2021-07-29T10:00:50Z</time>
      </trkpt>
      <trkpt lat="48.034" lon="7.02814">
        <ele>1186.4</ele>
        <time>2021-07-29T10:00:54Z</time>
      </trkpt>
      <trkpt lat="48.034" lon="7.02817">
        <ele>1186</ele>
        <time>2021-07-29T10:00:56Z</time>
      </trkpt>
      <trkpt lat="48.034" lon="7.02818">
        <ele>1185.8</ele>
        <time>2021-07-29T10:00:58Z</time>
      </trkpt>
      <trkpt lat="48.03399" lon="7.02821">
        <ele>1185.4</ele>
        <time>2021-07-29T10:01:00Z</time>
      </trkpt>
      <trkpt lat="48.03398" lon="7.02822">
        <ele>1185.2</ele>
        <time>2021-07-29T10:01:02Z</time>
      </trkpt>
      <trkpt lat="48.03397" lon="7.02824">
        <ele>1184.6</ele>
        <time>2021-07-29T10:01:04Z</time>
      </trkpt>
      <trkpt lat="48.03392" lon="7.02828">
        <ele>1183.8</ele>
        <time>2021-07-29T10:01:10Z</time>
      </trkpt>
      <trkpt lat="48.03391" lon="7.02828">
        <ele>1183.4</ele>
        <time>2021-07-29T10:01:12Z</time>
      </trkpt>
      <trkpt lat="48.03389" lon="7.0283">
        <ele>1183.2</ele>
        <time>2021-07-29T10:01:14Z</time>
      </trkpt>
      <trkpt lat="48.03386" lon="7.02835">
        <ele>1182.8</ele>
        <time>2021-07-29T10:01:20Z</time>
      </trkpt>
      <trkpt lat="48.03384" lon="7.02839">
        <ele>1182.8</ele>
        <time>2021-07-29T10:01:24Z</time>
      </trkpt>
      <trkpt lat="48.03382" lon="7.02842">
        <ele>1182.2</ele>
        <time>2021-07-29T10:01:28Z</time>
      </trkpt>
      <trkpt lat="48.03379" lon="7.02845">
        <ele>1181.8</ele>
        <time>2021-07-29T10:01:34Z</time>
      </trkpt>
      <trkpt lat="48.03375" lon="7.02847">
        <ele>1181.6</ele>
        <time>2021-07-29T10:01:40Z</time>
      </trkpt>
      <trkpt lat="48.03373" lon="7.02849">
        <ele>1181.4</ele>
        <time>2021-07-29T10:01:44Z</time>
      </trkpt>
      <trkpt lat="48.03368" lon="7.02854">
        <ele>1181.4</ele>
        <time>2021-07-29T10:01:50Z</time>
      </trkpt>
      <trkpt lat="48.03366" lon="7.02858">
        <ele>1181.4</ele>
        <time>2021-07-29T10:01:54Z</time>
      </trkpt>
      <trkpt lat="48.03363" lon="7.02863">
        <ele>1181.2</ele>
        <time>2021-07-29T10:02:00Z</time>
      </trkpt>
      <trkpt lat="48.03363" lon="7.02865">
        <ele>1181.2</ele>
        <time>2021-07-29T10:02:01Z</time>
      </trkpt>
      <trkpt lat="48.03362" lon="7.02867">
        <ele>1181</ele>
        <time>2021-07-29T10:02:03Z</time>
      </trkpt>
      <trkpt lat="48.03361" lon="7.02869">
        <ele>1181</ele>
        <time>2021-07-29T10:02:04Z</time>
      </trkpt>
      <trkpt lat="48.03356" lon="7.02875">
        <ele>1180.2</ele>
        <time>2021-07-29T10:02:10Z</time>
      </trkpt>
      <trkpt lat="48.03356" lon="7.02875">
        <ele>1180.2</ele>
        <time>2021-07-29T10:02:11Z</time>
      </trkpt>
      <trkpt lat="48.03353" lon="7.02877">
        <ele>1179.8</ele>
        <time>2021-07-29T10:02:14Z</time>
      </trkpt>
      <trkpt lat="48.03353" lon="7.02878">
        <ele>1179.8</ele>
        <time>2021-07-29T10:02:15Z</time>
      </trkpt>
      <trkpt lat="48.03352" lon="7.02879">
        <ele>1179.6</ele>
        <time>2021-07-29T10:02:17Z</time>
      </trkpt>
      <trkpt lat="48.0335" lon="7.0288">
        <ele>1179.4</ele>
        <time>2021-07-29T10:02:19Z</time>
      </trkpt>
      <trkpt lat="48.03348" lon="7.02883">
        <ele>1179.2</ele>
        <time>2021-07-29T10:02:22Z</time>
      </trkpt>
      <trkpt lat="48.03348" lon="7.02883">
        <ele>1179</ele>
        <time>2021-07-29T10:02:23Z</time>
      </trkpt>
      <trkpt lat="48.03347" lon="7.02884">
        <ele>1178.8</ele>
        <time>2021-07-29T10:02:24Z</time>
      </trkpt>
      <trkpt lat="48.03346" lon="7.02888">
        <ele>1178</ele>
        <time>2021-07-29T10:02:28Z</time>
      </trkpt>
      <trkpt lat="48.03342" lon="7.02894">
        <ele>1177.6</ele>
        <time>2021-07-29T10:02:34Z</time>
      </trkpt>
      <trkpt lat="48.03338" lon="7.02899">
        <ele>1178.2</ele>
        <time>2021-07-29T10:02:40Z</time>
      </trkpt>
      <trkpt lat="48.03337" lon="7.02902">
        <ele>1178.4</ele>
        <time>2021-07-29T10:02:44Z</time>
      </trkpt>
      <trkpt lat="48.03336" lon="7.02902">
        <ele>1178.4</ele>
        <time>2021-07-29T10:02:45Z</time>
      </trkpt>
      <trkpt lat="48.03332" lon="7.02906">
        <ele>1178.2</ele>
        <time>2021-07-29T10:02:51Z</time>
      </trkpt>
      <trkpt lat="48.03331" lon="7.02906">
        <ele>1178.2</ele>
        <time>2021-07-29T10:02:52Z</time>
      </trkpt>
      <trkpt lat="48.0333" lon="7.02908">
        <ele>1178.4</ele>
        <time>2021-07-29T10:02:54Z</time>
      </trkpt>
      <trkpt lat="48.03329" lon="7.02908">
        <ele>1178.4</ele>
        <time>2021-07-29T10:02:55Z</time>
      </trkpt>
      <trkpt lat="48.03327" lon="7.0291">
        <ele>1177.8</ele>
        <time>2021-07-29T10:02:58Z</time>
      </trkpt>
      <trkpt lat="48.03322" lon="7.02918">
        <ele>1177.2</ele>
        <time>2021-07-29T10:03:04Z</time>
      </trkpt>
      <trkpt lat="48.03317" lon="7.02924">
        <ele>1176.8</ele>
        <time>2021-07-29T10:03:09Z</time>
      </trkpt>
      <trkpt lat="48.03314" lon="7.02928">
        <ele>1175.8</ele>
        <time>2021-07-29T10:03:14Z</time>
      </trkpt>
      <trkpt lat="48.03314" lon="7.02928">
        <ele>1175.6</ele>
        <time>2021-07-29T10:03:15Z</time>
      </trkpt>
      <trkpt lat="48.03309" lon="7.02933">
        <ele>1174.6</ele>
        <time>2021-07-29T10:03:20Z</time>
      </trkpt>
      <trkpt lat="48.03307" lon="7.02935">
        <ele>1174</ele>
        <time>2021-07-29T10:03:24Z</time>
      </trkpt>
      <trkpt lat="48.03305" lon="7.02938">
        <ele>1173.6</ele>
        <time>2021-07-29T10:03:28Z</time>
      </trkpt>
      <trkpt lat="48.03301" lon="7.02943">
        <ele>1172.8</ele>
        <time>2021-07-29T10:03:34Z</time>
      </trkpt>
      <trkpt lat="48.033" lon="7.02945">
        <ele>1172.8</ele>
        <time>2021-07-29T10:03:40Z</time>
      </trkpt>
      <trkpt lat="48.03299" lon="7.02947">
        <ele>1172.2</ele>
        <time>2021-07-29T10:03:43Z</time>
      </trkpt>
      <trkpt lat="48.03299" lon="7.02948">
        <ele>1172.4</ele>
        <time>2021-07-29T10:03:44Z</time>
      </trkpt>
      <trkpt lat="48.03298" lon="7.02952">
        <ele>1172.4</ele>
        <time>2021-07-29T10:03:47Z</time>
      </trkpt>
      <trkpt lat="48.03297" lon="7.02954">
        <ele>1172.4</ele>
        <time>2021-07-29T10:03:49Z</time>
      </trkpt>
      <trkpt lat="48.03296" lon="7.02957">
        <ele>1171.8</ele>
        <time>2021-07-29T10:03:52Z</time>
      </trkpt>
      <trkpt lat="48.03296" lon="7.02959">
        <ele>1171.4</ele>
        <time>2021-07-29T10:03:54Z</time>
      </trkpt>
      <trkpt lat="48.03293" lon="7.02964">
        <ele>1170.6</ele>
        <time>2021-07-29T10:04:00Z</time>
      </trkpt>
      <trkpt lat="48.03293" lon="7.02966">
        <ele>1170.2</ele>
        <time>2021-07-29T10:04:02Z</time>
      </trkpt>
      <trkpt lat="48.03292" lon="7.02969">
        <ele>1170.2</ele>
        <time>2021-07-29T10:04:04Z</time>
      </trkpt>
      <trkpt lat="48.03291" lon="7.0297">
        <ele>1170.2</ele>
        <time>2021-07-29T10:04:05Z</time>
      </trkpt>
      <trkpt lat="48.03289" lon="7.02973">
        <ele>1169.8</ele>
        <time>2021-07-29T10:04:07Z</time>
      </trkpt>
      <trkpt lat="48.03287" lon="7.02975">
        <ele>1169.4</ele>
        <time>2021-07-29T10:04:10Z</time>
      </trkpt>
      <trkpt lat="48.03286" lon="7.02976">
        <ele>1169.2</ele>
        <time>2021-07-29T10:04:11Z</time>
      </trkpt>
      <trkpt lat="48.03283" lon="7.02979">
        <ele>1168.4</ele>
        <time>2021-07-29T10:04:14Z</time>
      </trkpt>
      <trkpt lat="48.03283" lon="7.02981">
        <ele>1168.2</ele>
        <time>2021-07-29T10:04:15Z</time>
      </trkpt>
      <trkpt lat="48.03278" lon="7.02987">
        <ele>1167.4</ele>
        <time>2021-07-29T10:04:21Z</time>
      </trkpt>
      <trkpt lat="48.03275" lon="7.02989">
        <ele>1167.8</ele>
        <time>2021-07-29T10:04:24Z</time>
      </trkpt>
      <trkpt lat="48.03271" lon="7.02995">
        <ele>1167.2</ele>
        <time>2021-07-29T10:04:30Z</time>
      </trkpt>
      <trkpt lat="48.03271" lon="7.02995">
        <ele>1167</ele>
        <time>2021-07-29T10:04:31Z</time>
      </trkpt>
      <trkpt lat="48.0327" lon="7.02997">
        <ele>1165.8</ele>
        <time>2021-07-29T10:04:33Z</time>
      </trkpt>
      <trkpt lat="48.0327" lon="7.02999">
        <ele>1165.8</ele>
        <time>2021-07-29T10:04:34Z</time>
      </trkpt>
      <trkpt lat="48.03266" lon="7.03008">
        <ele>1166</ele>
        <time>2021-07-29T10:04:40Z</time>
      </trkpt>
      <trkpt lat="48.03262" lon="7.03017">
        <ele>1165.6</ele>
        <time>2021-07-29T10:04:44Z</time>
      </trkpt>
      <trkpt lat="48.0326" lon="7.03027">
        <ele>1165.8</ele>
        <time>2021-07-29T10:04:50Z</time>
      </trkpt>
      <trkpt lat="48.03259" lon="7.03035">
        <ele>1165.2</ele>
        <time>2021-07-29T10:04:54Z</time>
      </trkpt>
      <trkpt lat="48.03259" lon="7.03038">
        <ele>1164.8</ele>
        <time>2021-07-29T10:04:56Z</time>
      </trkpt>
      <trkpt lat="48.03256" lon="7.03046">
        <ele>1164.8</ele>
        <time>2021-07-29T10:05:02Z</time>
      </trkpt>
      <trkpt lat="48.03256" lon="7.03045">
        <ele>1165.2</ele>
        <time>2021-07-29T10:05:03Z</time>
      </trkpt>
      <trkpt lat="48.03255" lon="7.03045">
        <ele>1165.8</ele>
        <time>2021-07-29T10:05:09Z</time>
      </trkpt>
      <trkpt lat="48.03254" lon="7.03047">
        <ele>1165.8</ele>
        <time>2021-07-29T10:05:10Z</time>
      </trkpt>
      <trkpt lat="48.03253" lon="7.0305">
        <ele>1166</ele>
        <time>2021-07-29T10:05:12Z</time>
      </trkpt>
      <trkpt lat="48.03254" lon="7.03051">
        <ele>1165.8</ele>
        <time>2021-07-29T10:05:13Z</time>
      </trkpt>
      <trkpt lat="48.03253" lon="7.03059">
        <ele>1165.6</ele>
        <time>2021-07-29T10:05:19Z</time>
      </trkpt>
      <trkpt lat="48.03249" lon="7.03064">
        <ele>1165.4</ele>
        <time>2021-07-29T10:05:24Z</time>
      </trkpt>
      <trkpt lat="48.03246" lon="7.0307">
        <ele>1165</ele>
        <time>2021-07-29T10:05:30Z</time>
      </trkpt>
      <trkpt lat="48.03244" lon="7.03076">
        <ele>1165.2</ele>
        <time>2021-07-29T10:05:34Z</time>
      </trkpt>
      <trkpt lat="48.03243" lon="7.03079">
        <ele>1164.8</ele>
        <time>2021-07-29T10:05:36Z</time>
      </trkpt>
      <trkpt lat="48.0324" lon="7.03084">
        <ele>1165.2</ele>
        <time>2021-07-29T10:05:39Z</time>
      </trkpt>
      <trkpt lat="48.03239" lon="7.03087">
        <ele>1165.4</ele>
        <time>2021-07-29T10:05:41Z</time>
      </trkpt>
      <trkpt lat="48.03238" lon="7.0309">
        <ele>1165.2</ele>
        <time>2021-07-29T10:05:44Z</time>
      </trkpt>
      <trkpt lat="48.03234" lon="7.03095">
        <ele>1165.4</ele>
        <time>2021-07-29T10:05:50Z</time>
      </trkpt>
      <trkpt lat="48.03231" lon="7.031">
        <ele>1165.4</ele>
        <time>2021-07-29T10:05:54Z</time>
      </trkpt>
      <trkpt lat="48.03227" lon="7.03104">
        <ele>1165.4</ele>
        <time>2021-07-29T10:06:00Z</time>
      </trkpt>
      <trkpt lat="48.03225" lon="7.03107">
        <ele>1165</ele>
        <time>2021-07-29T10:06:03Z</time>
      </trkpt>
      <trkpt lat="48.03224" lon="7.03108">
        <ele>1165</ele>
        <time>2021-07-29T10:06:04Z</time>
      </trkpt>
      <trkpt lat="48.03223" lon="7.03108">
        <ele>1164.8</ele>
        <time>2021-07-29T10:06:05Z</time>
      </trkpt>
      <trkpt lat="48.03219" lon="7.03114">
        <ele>1165</ele>
        <time>2021-07-29T10:06:10Z</time>
      </trkpt>
      <trkpt lat="48.03216" lon="7.03116">
        <ele>1164.8</ele>
        <time>2021-07-29T10:06:13Z</time>
      </trkpt>
      <trkpt lat="48.03216" lon="7.03116">
        <ele>1164.8</ele>
        <time>2021-07-29T10:06:14Z</time>
      </trkpt>
      <trkpt lat="48.03211" lon="7.03122">
        <ele>1164.8</ele>
        <time>2021-07-29T10:06:20Z</time>
      </trkpt>
      <trkpt lat="48.03208" lon="7.03123">
        <ele>1164.4</ele>
        <time>2021-07-29T10:06:24Z</time>
      </trkpt>
      <trkpt lat="48.03205" lon="7.03126">
        <ele>1163.6</ele>
        <time>2021-07-29T10:06:28Z</time>
      </trkpt>
      <trkpt lat="48.03198" lon="7.03131">
        <ele>1163.4</ele>
        <time>2021-07-29T10:06:34Z</time>
      </trkpt>
      <trkpt lat="48.03194" lon="7.03135">
        <ele>1162.4</ele>
        <time>2021-07-29T10:06:39Z</time>
      </trkpt>
      <trkpt lat="48.03189" lon="7.0314">
        <ele>1162.4</ele>
        <time>2021-07-29T10:06:43Z</time>
      </trkpt>
      <trkpt lat="48.03189" lon="7.03141">
        <ele>1162.4</ele>
        <time>2021-07-29T10:06:44Z</time>
      </trkpt>
      <trkpt lat="48.03184" lon="7.03147">
        <ele>1161.8</ele>
        <time>2021-07-29T10:06:50Z</time>
      </trkpt>
      <trkpt lat="48.03181" lon="7.03149">
        <ele>1162.2</ele>
        <time>2021-07-29T10:06:54Z</time>
      </trkpt>
      <trkpt lat="48.03177" lon="7.03151">
        <ele>1162.4</ele>
        <time>2021-07-29T10:07:00Z</time>
      </trkpt>
      <trkpt lat="48.03176" lon="7.03152">
        <ele>1162.2</ele>
        <time>2021-07-29T10:07:04Z</time>
      </trkpt>
      <trkpt lat="48.03172" lon="7.03154">
        <ele>1160.8</ele>
        <time>2021-07-29T10:07:08Z</time>
      </trkpt>
      <trkpt lat="48.03168" lon="7.03158">
        <ele>1160.2</ele>
        <time>2021-07-29T10:07:13Z</time>
      </trkpt>
      <trkpt lat="48.03167" lon="7.03158">
        <ele>1160.2</ele>
        <time>2021-07-29T10:07:14Z</time>
      </trkpt>
      <trkpt lat="48.03165" lon="7.0316">
        <ele>1159.6</ele>
        <time>2021-07-29T10:07:16Z</time>
      </trkpt>
      <trkpt lat="48.03159" lon="7.03165">
        <ele>1159.6</ele>
        <time>2021-07-29T10:07:22Z</time>
      </trkpt>
      <trkpt lat="48.03156" lon="7.03167">
        <ele>1159.8</ele>
        <time>2021-07-29T10:07:24Z</time>
      </trkpt>
      <trkpt lat="48.03153" lon="7.03168">
        <ele>1159.8</ele>
        <time>2021-07-29T10:07:27Z</time>
      </trkpt>
      <trkpt lat="48.03152" lon="7.03169">
        <ele>1160</ele>
        <time>2021-07-29T10:07:29Z</time>
      </trkpt>
      <trkpt lat="48.03147" lon="7.03169">
        <ele>1160.2</ele>
        <time>2021-07-29T10:07:34Z</time>
      </trkpt>
      <trkpt lat="48.03143" lon="7.03169">
        <ele>1160</ele>
        <time>2021-07-29T10:07:40Z</time>
      </trkpt>
      <trkpt lat="48.03139" lon="7.03169">
        <ele>1160.2</ele>
        <time>2021-07-29T10:07:44Z</time>
      </trkpt>
      <trkpt lat="48.03134" lon="7.03172">
        <ele>1159.6</ele>
        <time>2021-07-29T10:07:48Z</time>
      </trkpt>
      <trkpt lat="48.03132" lon="7.03172">
        <ele>1159.4</ele>
        <time>2021-07-29T10:07:50Z</time>
      </trkpt>
      <trkpt lat="48.03126" lon="7.03174">
        <ele>1159.2</ele>
        <time>2021-07-29T10:07:54Z</time>
      </trkpt>
      <trkpt lat="48.03125" lon="7.03175">
        <ele>1159.2</ele>
        <time>2021-07-29T10:07:55Z</time>
      </trkpt>
      <trkpt lat="48.03122" lon="7.03179">
        <ele>1158.4</ele>
        <time>2021-07-29T10:08:00Z</time>
      </trkpt>
      <trkpt lat="48.03118" lon="7.03182">
        <ele>1158.4</ele>
        <time>2021-07-29T10:08:04Z</time>
      </trkpt>
      <trkpt lat="48.03117" lon="7.03182">
        <ele>1158.8</ele>
        <time>2021-07-29T10:08:06Z</time>
      </trkpt>
      <trkpt lat="48.03115" lon="7.03184">
        <ele>1158.4</ele>
        <time>2021-07-29T10:08:08Z</time>
      </trkpt>
      <trkpt lat="48.03114" lon="7.03185">
        <ele>1158.2</ele>
        <time>2021-07-29T10:08:10Z</time>
      </trkpt>
      <trkpt lat="48.0311" lon="7.03188">
        <ele>1158</ele>
        <time>2021-07-29T10:08:14Z</time>
      </trkpt>
      <trkpt lat="48.03109" lon="7.03189">
        <ele>1158</ele>
        <time>2021-07-29T10:08:15Z</time>
      </trkpt>
      <trkpt lat="48.03103" lon="7.03193">
        <ele>1158</ele>
        <time>2021-07-29T10:08:21Z</time>
      </trkpt>
      <trkpt lat="48.031" lon="7.03195">
        <ele>1157.8</ele>
        <time>2021-07-29T10:08:24Z</time>
      </trkpt>
      <trkpt lat="48.03099" lon="7.03196">
        <ele>1157.6</ele>
        <time>2021-07-29T10:08:25Z</time>
      </trkpt>
      <trkpt lat="48.03097" lon="7.03196">
        <ele>1157</ele>
        <time>2021-07-29T10:08:27Z</time>
      </trkpt>
      <trkpt lat="48.03097" lon="7.03196">
        <ele>1157.4</ele>
        <time>2021-07-29T10:08:28Z</time>
      </trkpt>
      <trkpt lat="48.03096" lon="7.03197">
        <ele>1156.8</ele>
        <time>2021-07-29T10:08:34Z</time>
      </trkpt>
      <trkpt lat="48.0309" lon="7.03201">
        <ele>1157.2</ele>
        <time>2021-07-29T10:08:40Z</time>
      </trkpt>
      <trkpt lat="48.03087" lon="7.03204">
        <ele>1156.8</ele>
        <time>2021-07-29T10:08:44Z</time>
      </trkpt>
      <trkpt lat="48.03084" lon="7.03206">
        <ele>1156.2</ele>
        <time>2021-07-29T10:08:48Z</time>
      </trkpt>
      <trkpt lat="48.03083" lon="7.03207">
        <ele>1156</ele>
        <time>2021-07-29T10:08:49Z</time>
      </trkpt>
      <trkpt lat="48.03081" lon="7.03208">
        <ele>1156.4</ele>
        <time>2021-07-29T10:08:50Z</time>
      </trkpt>
      <trkpt lat="48.03078" lon="7.03211">
        <ele>1156</ele>
        <time>2021-07-29T10:08:54Z</time>
      </trkpt>
      <trkpt lat="48.03074" lon="7.03215">
        <ele>1155.6</ele>
        <time>2021-07-29T10:09:00Z</time>
      </trkpt>
      <trkpt lat="48.0307" lon="7.03218">
        <ele>1155.6</ele>
        <time>2021-07-29T10:09:04Z</time>
      </trkpt>
      <trkpt lat="48.03068" lon="7.0322">
        <ele>1155</ele>
        <time>2021-07-29T10:09:07Z</time>
      </trkpt>
      <trkpt lat="48.03064" lon="7.03223">
        <ele>1154.8</ele>
        <time>2021-07-29T10:09:12Z</time>
      </trkpt>
      <trkpt lat="48.03063" lon="7.03224">
        <ele>1155</ele>
        <time>2021-07-29T10:09:14Z</time>
      </trkpt>
      <trkpt lat="48.03062" lon="7.03225">
        <ele>1154.8</ele>
        <time>2021-07-29T10:09:16Z</time>
      </trkpt>
      <trkpt lat="48.03062" lon="7.03223">
        <ele>1155.8</ele>
        <time>2021-07-29T10:09:22Z</time>
      </trkpt>
      <trkpt lat="48.03062" lon="7.03223">
        <ele>1155.8</ele>
        <time>2021-07-29T10:09:24Z</time>
      </trkpt>
      <trkpt lat="48.03062" lon="7.03223">
        <ele>1153.6</ele>
        <time>2021-07-29T10:09:28Z</time>
      </trkpt>
      <trkpt lat="48.03058" lon="7.03225">
        <ele>1154.4</ele>
        <time>2021-07-29T10:09:34Z</time>
      </trkpt>
      <trkpt lat="48.03052" lon="7.03228">
        <ele>1155</ele>
        <time>2021-07-29T10:09:40Z</time>
      </trkpt>
      <trkpt lat="48.03049" lon="7.0323">
        <ele>1154.4</ele>
        <time>2021-07-29T10:09:43Z</time>
      </trkpt>
      <trkpt lat="48.03048" lon="7.03231">
        <ele>1154</ele>
        <time>2021-07-29T10:09:44Z</time>
      </trkpt>
      <trkpt lat="48.03046" lon="7.03233">
        <ele>1154</ele>
        <time>2021-07-29T10:09:46Z</time>
      </trkpt>
      <trkpt lat="48.03038" lon="7.03238">
        <ele>1153.8</ele>
        <time>2021-07-29T10:09:52Z</time>
      </trkpt>
      <trkpt lat="48.03037" lon="7.03238">
        <ele>1153.8</ele>
        <time>2021-07-29T10:09:53Z</time>
      </trkpt>
      <trkpt lat="48.03037" lon="7.03239">
        <ele>1153.6</ele>
        <time>2021-07-29T10:09:54Z</time>
      </trkpt>
      <trkpt lat="48.03032" lon="7.03242">
        <ele>1153.4</ele>
        <time>2021-07-29T10:09:59Z</time>
      </trkpt>
      <trkpt lat="48.03027" lon="7.03244">
        <ele>1153.8</ele>
        <time>2021-07-29T10:10:04Z</time>
      </trkpt>
      <trkpt lat="48.03026" lon="7.03245">
        <ele>1153.8</ele>
        <time>2021-07-29T10:10:10Z</time>
      </trkpt>
      <trkpt lat="48.03022" lon="7.03246">
        <ele>1153.6</ele>
        <time>2021-07-29T10:10:14Z</time>
      </trkpt>
      <trkpt lat="48.03018" lon="7.03249">
        <ele>1153.4</ele>
        <time>2021-07-29T10:10:18Z</time>
      </trkpt>
      <trkpt lat="48.03014" lon="7.0325">
        <ele>1152.8</ele>
        <time>2021-07-29T10:10:21Z</time>
      </trkpt>
      <trkpt lat="48.03014" lon="7.0325">
        <ele>1152.8</ele>
        <time>2021-07-29T10:10:22Z</time>
      </trkpt>
      <trkpt lat="48.03014" lon="7.03252">
        <ele>1152.8</ele>
        <time>2021-07-29T10:10:24Z</time>
      </trkpt>
      <trkpt lat="48.03009" lon="7.03256">
        <ele>1152.6</ele>
        <time>2021-07-29T10:10:30Z</time>
      </trkpt>
      <trkpt lat="48.03005" lon="7.0326">
        <ele>1152.6</ele>
        <time>2021-07-29T10:10:34Z</time>
      </trkpt>
      <trkpt lat="48.02999" lon="7.03265">
        <ele>1151.8</ele>
        <time>2021-07-29T10:10:40Z</time>
      </trkpt>
      <trkpt lat="48.02996" lon="7.03269">
        <ele>1151.2</ele>
        <time>2021-07-29T10:10:44Z</time>
      </trkpt>
      <trkpt lat="48.02996" lon="7.0327">
        <ele>1151</ele>
        <time>2021-07-29T10:10:46Z</time>
      </trkpt>
      <trkpt lat="48.02993" lon="7.03272">
        <ele>1150.6</ele>
        <time>2021-07-29T10:10:48Z</time>
      </trkpt>
      <trkpt lat="48.02986" lon="7.03277">
        <ele>1151</ele>
        <time>2021-07-29T10:10:54Z</time>
      </trkpt>
      <trkpt lat="48.02983" lon="7.03278">
        <ele>1150.6</ele>
        <time>2021-07-29T10:10:57Z</time>
      </trkpt>
      <trkpt lat="48.02981" lon="7.0328">
        <ele>1151</ele>
        <time>2021-07-29T10:11:00Z</time>
      </trkpt>
      <trkpt lat="48.0298" lon="7.03279">
        <ele>1150.6</ele>
        <time>2021-07-29T10:11:04Z</time>
      </trkpt>
      <trkpt lat="48.0298" lon="7.03279">
        <ele>1152.2</ele>
        <time>2021-07-29T10:11:07Z</time>
      </trkpt>
      <trkpt lat="48.02979" lon="7.03279">
        <ele>1151.6</ele>
        <time>2021-07-29T10:11:13Z</time>
      </trkpt>
      <trkpt lat="48.02978" lon="7.0328">
        <ele>1151.4</ele>
        <time>2021-07-29T10:11:14Z</time>
      </trkpt>
      <trkpt lat="48.02977" lon="7.03279">
        <ele>1152.8</ele>
        <time>2021-07-29T10:11:20Z</time>
      </trkpt>
      <trkpt lat="48.02977" lon="7.03279">
        <ele>1152.2</ele>
        <time>2021-07-29T10:11:24Z</time>
      </trkpt>
      <trkpt lat="48.02976" lon="7.0328">
        <ele>1151</ele>
        <time>2021-07-29T10:11:26Z</time>
      </trkpt>
      <trkpt lat="48.02974" lon="7.03284">
        <ele>1151</ele>
        <time>2021-07-29T10:11:32Z</time>
      </trkpt>
      <trkpt lat="48.02972" lon="7.03286">
        <ele>1151.4</ele>
        <time>2021-07-29T10:11:34Z</time>
      </trkpt>
      <trkpt lat="48.02971" lon="7.03286">
        <ele>1152.2</ele>
        <time>2021-07-29T10:11:35Z</time>
      </trkpt>
      <trkpt lat="48.02967" lon="7.03291">
        <ele>1151.2</ele>
        <time>2021-07-29T10:11:39Z</time>
      </trkpt>
      <trkpt lat="48.02962" lon="7.03299">
        <ele>1150.6</ele>
        <time>2021-07-29T10:11:44Z</time>
      </trkpt>
      <trkpt lat="48.02958" lon="7.03304">
        <ele>1150.4</ele>
        <time>2021-07-29T10:11:48Z</time>
      </trkpt>
      <trkpt lat="48.02953" lon="7.03313">
        <ele>1150.6</ele>
        <time>2021-07-29T10:11:54Z</time>
      </trkpt>
      <trkpt lat="48.02949" lon="7.03321">
        <ele>1150.4</ele>
        <time>2021-07-29T10:12:00Z</time>
      </trkpt>
      <trkpt lat="48.02947" lon="7.03323">
        <ele>1150.6</ele>
        <time>2021-07-29T10:12:03Z</time>
      </trkpt>
      <trkpt lat="48.02947" lon="7.03324">
        <ele>1150.4</ele>
        <time>2021-07-29T10:12:04Z</time>
      </trkpt>
      <trkpt lat="48.02945" lon="7.03328">
        <ele>1149.8</ele>
        <time>2021-07-29T10:12:07Z</time>
      </trkpt>
      <trkpt lat="48.02944" lon="7.03329">
        <ele>1150</ele>
        <time>2021-07-29T10:12:09Z</time>
      </trkpt>
      <trkpt lat="48.02943" lon="7.03334">
        <ele>1150.6</ele>
        <time>2021-07-29T10:12:14Z</time>
      </trkpt>
      <trkpt lat="48.02939" lon="7.03344">
        <ele>1150.2</ele>
        <time>2021-07-29T10:12:20Z</time>
      </trkpt>
      <trkpt lat="48.02938" lon="7.03345">
        <ele>1150</ele>
        <time>2021-07-29T10:12:24Z</time>
      </trkpt>
      <trkpt lat="48.02938" lon="7.03348">
        <ele>1149.8</ele>
        <time>2021-07-29T10:12:30Z</time>
      </trkpt>
      <trkpt lat="48.02937" lon="7.03352">
        <ele>1150.4</ele>
        <time>2021-07-29T10:12:33Z</time>
      </trkpt>
      <trkpt lat="48.02937" lon="7.03353">
        <ele>1151</ele>
        <time>2021-07-29T10:12:34Z</time>
      </trkpt>
      <trkpt lat="48.02937" lon="7.03354">
        <ele>1151.2</ele>
        <time>2021-07-29T10:12:40Z</time>
      </trkpt>
      <trkpt lat="48.02937" lon="7.03359">
        <ele>1150.4</ele>
        <time>2021-07-29T10:12:44Z</time>
      </trkpt>
      <trkpt lat="48.02933" lon="7.03356">
        <ele>1150.8</ele>
        <time>2021-07-29T10:12:47Z</time>
      </trkpt>
      <trkpt lat="48.02932" lon="7.03353">
        <ele>1149.4</ele>
        <time>2021-07-29T10:12:49Z</time>
      </trkpt>
      <trkpt lat="48.0293" lon="7.03351">
        <ele>1149.8</ele>
        <time>2021-07-29T10:12:52Z</time>
      </trkpt>
      <trkpt lat="48.0293" lon="7.03351">
        <ele>1150</ele>
        <time>2021-07-29T10:12:53Z</time>
      </trkpt>
      <trkpt lat="48.0293" lon="7.03352">
        <ele>1150.8</ele>
        <time>2021-07-29T10:12:55Z</time>
      </trkpt>
      <trkpt lat="48.0293" lon="7.03349">
        <ele>1146.6</ele>
        <time>2021-07-29T10:12:57Z</time>
      </trkpt>
      <trkpt lat="48.02929" lon="7.0334">
        <ele>1145</ele>
        <time>2021-07-29T10:13:02Z</time>
      </trkpt>
      <trkpt lat="48.02929" lon="7.03339">
        <ele>1146.2</ele>
        <time>2021-07-29T10:13:03Z</time>
      </trkpt>
      <trkpt lat="48.02929" lon="7.03338">
        <ele>1147.2</ele>
        <time>2021-07-29T10:13:04Z</time>
      </trkpt>
      <trkpt lat="48.02929" lon="7.03332">
        <ele>1147.8</ele>
        <time>2021-07-29T10:13:07Z</time>
      </trkpt>
      <trkpt lat="48.02929" lon="7.03332">
        <ele>1148.8</ele>
        <time>2021-07-29T10:13:08Z</time>
      </trkpt>
      <trkpt lat="48.02929" lon="7.03333">
        <ele>1150.4</ele>
        <time>2021-07-29T10:13:11Z</time>
      </trkpt>
      <trkpt lat="48.02929" lon="7.0333">
        <ele>1147.8</ele>
        <time>2021-07-29T10:13:12Z</time>
      </trkpt>
      <trkpt lat="48.0293" lon="7.03327">
        <ele>1146.2</ele>
        <time>2021-07-29T10:13:13Z</time>
      </trkpt>
      <trkpt lat="48.0293" lon="7.03324">
        <ele>1147</ele>
        <time>2021-07-29T10:13:14Z</time>
      </trkpt>
      <trkpt lat="48.0293" lon="7.03322">
        <ele>1148</ele>
        <time>2021-07-29T10:13:15Z</time>
      </trkpt>
      <trkpt lat="48.02929" lon="7.03316">
        <ele>1149.2</ele>
        <time>2021-07-29T10:13:17Z</time>
      </trkpt>
      <trkpt lat="48.02929" lon="7.03308">
        <ele>1150.2</ele>
        <time>2021-07-29T10:13:22Z</time>
      </trkpt>
      <trkpt lat="48.02928" lon="7.03307">
        <ele>1149.8</ele>
        <time>2021-07-29T10:13:23Z</time>
      </trkpt>
      <trkpt lat="48.02928" lon="7.03306">
        <ele>1149.8</ele>
        <time>2021-07-29T10:13:24Z</time>
      </trkpt>
      <trkpt lat="48.02926" lon="7.03302">
        <ele>1148.8</ele>
        <time>2021-07-29T10:13:27Z</time>
      </trkpt>
      <trkpt lat="48.02924" lon="7.03301">
        <ele>1148.2</ele>
        <time>2021-07-29T10:13:33Z</time>
      </trkpt>
      <trkpt lat="48.02923" lon="7.03301">
        <ele>1149.4</ele>
        <time>2021-07-29T10:13:34Z</time>
      </trkpt>
      <trkpt lat="48.02919" lon="7.033">
        <ele>1148</ele>
        <time>2021-07-29T10:13:38Z</time>
      </trkpt>
      <trkpt lat="48.02918" lon="7.03299">
        <ele>1147.8</ele>
        <time>2021-07-29T10:13:39Z</time>
      </trkpt>
      <trkpt lat="48.02918" lon="7.03298">
        <ele>1146.8</ele>
        <time>2021-07-29T10:13:40Z</time>
      </trkpt>
      <trkpt lat="48.02915" lon="7.03291">
        <ele>1145.8</ele>
        <time>2021-07-29T10:13:44Z</time>
      </trkpt>
      <trkpt lat="48.02914" lon="7.0329">
        <ele>1146.2</ele>
        <time>2021-07-29T10:13:46Z</time>
      </trkpt>
      <trkpt lat="48.02911" lon="7.03286">
        <ele>1144.6</ele>
        <time>2021-07-29T10:13:50Z</time>
      </trkpt>
      <trkpt lat="48.0291" lon="7.03284">
        <ele>1143.4</ele>
        <time>2021-07-29T10:13:51Z</time>
      </trkpt>
      <trkpt lat="48.0291" lon="7.03283">
        <ele>1143.2</ele>
        <time>2021-07-29T10:13:53Z</time>
      </trkpt>
      <trkpt lat="48.0291" lon="7.03282">
        <ele>1142.2</ele>
        <time>2021-07-29T10:13:54Z</time>
      </trkpt>
      <trkpt lat="48.02909" lon="7.0328">
        <ele>1141.2</ele>
        <time>2021-07-29T10:13:55Z</time>
      </trkpt>
      <trkpt lat="48.02909" lon="7.03278">
        <ele>1140.2</ele>
        <time>2021-07-29T10:13:56Z</time>
      </trkpt>
      <trkpt lat="48.02909" lon="7.03274">
        <ele>1138.8</ele>
        <time>2021-07-29T10:13:58Z</time>
      </trkpt>
      <trkpt lat="48.02909" lon="7.03271">
        <ele>1137.6</ele>
        <time>2021-07-29T10:14:00Z</time>
      </trkpt>
      <trkpt lat="48.02909" lon="7.03269">
        <ele>1135.4</ele>
        <time>2021-07-29T10:14:03Z</time>
      </trkpt>
      <trkpt lat="48.0291" lon="7.03267">
        <ele>1135.8</ele>
        <time>2021-07-29T10:14:04Z</time>
      </trkpt>
      <trkpt lat="48.0291" lon="7.03265">
        <ele>1137.2</ele>
        <time>2021-07-29T10:14:05Z</time>
      </trkpt>
      <trkpt lat="48.02911" lon="7.03261">
        <ele>1137.2</ele>
        <time>2021-07-29T10:14:09Z</time>
      </trkpt>
      <trkpt lat="48.02911" lon="7.03258">
        <ele>1136.8</ele>
        <time>2021-07-29T10:14:11Z</time>
      </trkpt>
      <trkpt lat="48.02914" lon="7.03252">
        <ele>1137.6</ele>
        <time>2021-07-29T10:14:14Z</time>
      </trkpt>
      <trkpt lat="48.02918" lon="7.03245">
        <ele>1137.6</ele>
        <time>2021-07-29T10:14:18Z</time>
      </trkpt>
      <trkpt lat="48.02919" lon="7.03242">
        <ele>1138</ele>
        <time>2021-07-29T10:14:21Z</time>
      </trkpt>
      <trkpt lat="48.02922" lon="7.03235">
        <ele>1137.4</ele>
        <time>2021-07-29T10:14:24Z</time>
      </trkpt>
      <trkpt lat="48.02922" lon="7.03232">
        <ele>1137.2</ele>
        <time>2021-07-29T10:14:26Z</time>
      </trkpt>
      <trkpt lat="48.02923" lon="7.0323">
        <ele>1136.8</ele>
        <time>2021-07-29T10:14:28Z</time>
      </trkpt>
      <trkpt lat="48.02927" lon="7.03222">
        <ele>1137</ele>
        <time>2021-07-29T10:14:34Z</time>
      </trkpt>
      <trkpt lat="48.0293" lon="7.03217">
        <ele>1136</ele>
        <time>2021-07-29T10:14:38Z</time>
      </trkpt>
      <trkpt lat="48.02934" lon="7.0321">
        <ele>1135.2</ele>
        <time>2021-07-29T10:14:42Z</time>
      </trkpt>
      <trkpt lat="48.02934" lon="7.0321">
        <ele>1135</ele>
        <time>2021-07-29T10:14:43Z</time>
      </trkpt>
      <trkpt lat="48.02934" lon="7.03209">
        <ele>1134.6</ele>
        <time>2021-07-29T10:14:44Z</time>
      </trkpt>
      <trkpt lat="48.02936" lon="7.03206">
        <ele>1133.8</ele>
        <time>2021-07-29T10:14:46Z</time>
      </trkpt>
      <trkpt lat="48.02938" lon="7.03204">
        <ele>1133.2</ele>
        <time>2021-07-29T10:14:48Z</time>
      </trkpt>
      <trkpt lat="48.02938" lon="7.03203">
        <ele>1132.6</ele>
        <time>2021-07-29T10:14:49Z</time>
      </trkpt>
      <trkpt lat="48.02939" lon="7.03202">
        <ele>1132.8</ele>
        <time>2021-07-29T10:14:50Z</time>
      </trkpt>
      <trkpt lat="48.02941" lon="7.03202">
        <ele>1133</ele>
        <time>2021-07-29T10:14:53Z</time>
      </trkpt>
      <trkpt lat="48.02942" lon="7.03201">
        <ele>1133.2</ele>
        <time>2021-07-29T10:14:54Z</time>
      </trkpt>
      <trkpt lat="48.02943" lon="7.03201">
        <ele>1133.2</ele>
        <time>2021-07-29T10:14:55Z</time>
      </trkpt>
      <trkpt lat="48.02944" lon="7.03198">
        <ele>1131.8</ele>
        <time>2021-07-29T10:14:58Z</time>
      </trkpt>
      <trkpt lat="48.02944" lon="7.03197">
        <ele>1131.6</ele>
        <time>2021-07-29T10:14:59Z</time>
      </trkpt>
      <trkpt lat="48.02944" lon="7.03195">
        <ele>1131.2</ele>
        <time>2021-07-29T10:15:00Z</time>
      </trkpt>
      <trkpt lat="48.02947" lon="7.03191">
        <ele>1130.8</ele>
        <time>2021-07-29T10:15:02Z</time>
      </trkpt>
      <trkpt lat="48.02948" lon="7.03189">
        <ele>1130.6</ele>
        <time>2021-07-29T10:15:03Z</time>
      </trkpt>
      <trkpt lat="48.0295" lon="7.03187">
        <ele>1130.2</ele>
        <time>2021-07-29T10:15:05Z</time>
      </trkpt>
      <trkpt lat="48.0295" lon="7.03188">
        <ele>1130.8</ele>
        <time>2021-07-29T10:15:07Z</time>
      </trkpt>
      <trkpt lat="48.02954" lon="7.03184">
        <ele>1131</ele>
        <time>2021-07-29T10:15:13Z</time>
      </trkpt>
      <trkpt lat="48.02955" lon="7.03183">
        <ele>1130.8</ele>
        <time>2021-07-29T10:15:14Z</time>
      </trkpt>
      <trkpt lat="48.02956" lon="7.03183">
        <ele>1130.8</ele>
        <time>2021-07-29T10:15:15Z</time>
      </trkpt>
      <trkpt lat="48.02957" lon="7.03183">
        <ele>1131.6</ele>
        <time>2021-07-29T10:15:16Z</time>
      </trkpt>
      <trkpt lat="48.02957" lon="7.03182">
        <ele>1131.8</ele>
        <time>2021-07-29T10:15:18Z</time>
      </trkpt>
      <trkpt lat="48.0296" lon="7.0318">
        <ele>1130.2</ele>
        <time>2021-07-29T10:15:24Z</time>
      </trkpt>
      <trkpt lat="48.02961" lon="7.03179">
        <ele>1130</ele>
        <time>2021-07-29T10:15:25Z</time>
      </trkpt>
      <trkpt lat="48.02968" lon="7.03177">
        <ele>1129.8</ele>
        <time>2021-07-29T10:15:30Z</time>
      </trkpt>
      <trkpt lat="48.02968" lon="7.03178">
        <ele>1129.8</ele>
        <time>2021-07-29T10:15:35Z</time>
      </trkpt>
      <trkpt lat="48.02968" lon="7.03176">
        <ele>1129.2</ele>
        <time>2021-07-29T10:15:37Z</time>
      </trkpt>
      <trkpt lat="48.02972" lon="7.03172">
        <ele>1128.8</ele>
        <time>2021-07-29T10:15:43Z</time>
      </trkpt>
      <trkpt lat="48.02974" lon="7.03171">
        <ele>1128.8</ele>
        <time>2021-07-29T10:15:45Z</time>
      </trkpt>
      <trkpt lat="48.02976" lon="7.03168">
        <ele>1128</ele>
        <time>2021-07-29T10:15:49Z</time>
      </trkpt>
      <trkpt lat="48.02981" lon="7.03163">
        <ele>1127.2</ele>
        <time>2021-07-29T10:15:55Z</time>
      </trkpt>
      <trkpt lat="48.02982" lon="7.03161">
        <ele>1126.8</ele>
        <time>2021-07-29T10:15:56Z</time>
      </trkpt>
      <trkpt lat="48.02984" lon="7.03158">
        <ele>1126</ele>
        <time>2021-07-29T10:15:59Z</time>
      </trkpt>
      <trkpt lat="48.02985" lon="7.03158">
        <ele>1125.8</ele>
        <time>2021-07-29T10:16:01Z</time>
      </trkpt>
      <trkpt lat="48.0299" lon="7.03155">
        <ele>1125.8</ele>
        <time>2021-07-29T10:16:05Z</time>
      </trkpt>
      <trkpt lat="48.0299" lon="7.03155">
        <ele>1126</ele>
        <time>2021-07-29T10:16:06Z</time>
      </trkpt>
      <trkpt lat="48.02991" lon="7.03152">
        <ele>1125.8</ele>
        <time>2021-07-29T10:16:09Z</time>
      </trkpt>
      <trkpt lat="48.02995" lon="7.03146">
        <ele>1125.6</ele>
        <time>2021-07-29T10:16:15Z</time>
      </trkpt>
      <trkpt lat="48.02997" lon="7.03145">
        <ele>1124.4</ele>
        <time>2021-07-29T10:16:17Z</time>
      </trkpt>
      <trkpt lat="48.02999" lon="7.03144">
        <ele>1123.8</ele>
        <time>2021-07-29T10:16:20Z</time>
      </trkpt>
      <trkpt lat="48.03003" lon="7.03141">
        <ele>1123.4</ele>
        <time>2021-07-29T10:16:25Z</time>
      </trkpt>
      <trkpt lat="48.03006" lon="7.03139">
        <ele>1124</ele>
        <time>2021-07-29T10:16:28Z</time>
      </trkpt>
      <trkpt lat="48.03005" lon="7.03138">
        <ele>1123.8</ele>
        <time>2021-07-29T10:16:30Z</time>
      </trkpt>
      <trkpt lat="48.03008" lon="7.03132">
        <ele>1122.8</ele>
        <time>2021-07-29T10:16:34Z</time>
      </trkpt>
      <trkpt lat="48.03008" lon="7.03132">
        <ele>1122.4</ele>
        <time>2021-07-29T10:16:35Z</time>
      </trkpt>
      <trkpt lat="48.03008" lon="7.03132">
        <ele>1122.2</ele>
        <time>2021-07-29T10:16:36Z</time>
      </trkpt>
      <trkpt lat="48.03013" lon="7.03129">
        <ele>1121.6</ele>
        <time>2021-07-29T10:16:42Z</time>
      </trkpt>
      <trkpt lat="48.03014" lon="7.03127">
        <ele>1121</ele>
        <time>2021-07-29T10:16:44Z</time>
      </trkpt>
      <trkpt lat="48.03015" lon="7.03127">
        <ele>1121</ele>
        <time>2021-07-29T10:16:45Z</time>
      </trkpt>
      <trkpt lat="48.03022" lon="7.0312">
        <ele>1120.4</ele>
        <time>2021-07-29T10:16:51Z</time>
      </trkpt>
      <trkpt lat="48.03022" lon="7.03119">
        <ele>1120.2</ele>
        <time>2021-07-29T10:16:53Z</time>
      </trkpt>
      <trkpt lat="48.03024" lon="7.03118">
        <ele>1120.2</ele>
        <time>2021-07-29T10:16:54Z</time>
      </trkpt>
      <trkpt lat="48.03025" lon="7.03117">
        <ele>1120</ele>
        <time>2021-07-29T10:16:56Z</time>
      </trkpt>
      <trkpt lat="48.03026" lon="7.03115">
        <ele>1119.4</ele>
        <time>2021-07-29T10:16:58Z</time>
      </trkpt>
      <trkpt lat="48.03027" lon="7.03113">
        <ele>1119</ele>
        <time>2021-07-29T10:17:00Z</time>
      </trkpt>
      <trkpt lat="48.03031" lon="7.03108">
        <ele>1118.8</ele>
        <time>2021-07-29T10:17:05Z</time>
      </trkpt>
      <trkpt lat="48.03035" lon="7.03104">
        <ele>1118.2</ele>
        <time>2021-07-29T10:17:09Z</time>
      </trkpt>
      <trkpt lat="48.03035" lon="7.03104">
        <ele>1118</ele>
        <time>2021-07-29T10:17:10Z</time>
      </trkpt>
      <trkpt lat="48.03039" lon="7.03099">
        <ele>1117</ele>
        <time>2021-07-29T10:17:15Z</time>
      </trkpt>
      <trkpt lat="48.03044" lon="7.03093">
        <ele>1117</ele>
        <time>2021-07-29T10:17:21Z</time>
      </trkpt>
      <trkpt lat="48.03045" lon="7.0309">
        <ele>1117</ele>
        <time>2021-07-29T10:17:23Z</time>
      </trkpt>
      <trkpt lat="48.03045" lon="7.03088">
        <ele>1116.4</ele>
        <time>2021-07-29T10:17:25Z</time>
      </trkpt>
      <trkpt lat="48.03045" lon="7.03088">
        <ele>1116.4</ele>
        <time>2021-07-29T10:17:26Z</time>
      </trkpt>
      <trkpt lat="48.03048" lon="7.03084">
        <ele>1116</ele>
        <time>2021-07-29T10:17:32Z</time>
      </trkpt>
      <trkpt lat="48.03051" lon="7.03079">
        <ele>1116</ele>
        <time>2021-07-29T10:17:35Z</time>
      </trkpt>
      <trkpt lat="48.03051" lon="7.03079">
        <ele>1115.8</ele>
        <time>2021-07-29T10:17:36Z</time>
      </trkpt>
      <trkpt lat="48.03056" lon="7.03074">
        <ele>1115.2</ele>
        <time>2021-07-29T10:17:42Z</time>
      </trkpt>
      <trkpt lat="48.03056" lon="7.03074">
        <ele>1115.4</ele>
        <time>2021-07-29T10:17:43Z</time>
      </trkpt>
      <trkpt lat="48.03058" lon="7.03071">
        <ele>1115.4</ele>
        <time>2021-07-29T10:17:45Z</time>
      </trkpt>
      <trkpt lat="48.03062" lon="7.03066">
        <ele>1115</ele>
        <time>2021-07-29T10:17:49Z</time>
      </trkpt>
      <trkpt lat="48.03062" lon="7.03065">
        <ele>1115.4</ele>
        <time>2021-07-29T10:17:51Z</time>
      </trkpt>
      <trkpt lat="48.03064" lon="7.03063">
        <ele>1114.8</ele>
        <time>2021-07-29T10:17:55Z</time>
      </trkpt>
      <trkpt lat="48.03066" lon="7.03062">
        <ele>1113.4</ele>
        <time>2021-07-29T10:17:58Z</time>
      </trkpt>
      <trkpt lat="48.03068" lon="7.0306">
        <ele>1112</ele>
        <time>2021-07-29T10:18:02Z</time>
      </trkpt>
      <trkpt lat="48.03069" lon="7.0306">
        <ele>1112.4</ele>
        <time>2021-07-29T10:18:05Z</time>
      </trkpt>
      <trkpt lat="48.03068" lon="7.03059">
        <ele>1111.2</ele>
        <time>2021-07-29T10:18:11Z</time>
      </trkpt>
      <trkpt lat="48.03068" lon="7.03059">
        <ele>1111</ele>
        <time>2021-07-29T10:18:12Z</time>
      </trkpt>
      <trkpt lat="48.03065" lon="7.03057">
        <ele>1110.6</ele>
        <time>2021-07-29T10:18:15Z</time>
      </trkpt>
      <trkpt lat="48.03064" lon="7.03057">
        <ele>1110.4</ele>
        <time>2021-07-29T10:18:16Z</time>
      </trkpt>
      <trkpt lat="48.03062" lon="7.03057">
        <ele>1109.8</ele>
        <time>2021-07-29T10:18:18Z</time>
      </trkpt>
      <trkpt lat="48.0306" lon="7.03059">
        <ele>1109.2</ele>
        <time>2021-07-29T10:18:21Z</time>
      </trkpt>
      <trkpt lat="48.03059" lon="7.03059">
        <ele>1108.8</ele>
        <time>2021-07-29T10:18:22Z</time>
      </trkpt>
      <trkpt lat="48.03055" lon="7.03062">
        <ele>1108.4</ele>
        <time>2021-07-29T10:18:25Z</time>
      </trkpt>
      <trkpt lat="48.03053" lon="7.03063">
        <ele>1107.8</ele>
        <time>2021-07-29T10:18:28Z</time>
      </trkpt>
      <trkpt lat="48.03051" lon="7.03062">
        <ele>1106.6</ele>
        <time>2021-07-29T10:18:30Z</time>
      </trkpt>
      <trkpt lat="48.03044" lon="7.03065">
        <ele>1105.6</ele>
        <time>2021-07-29T10:18:34Z</time>
      </trkpt>
      <trkpt lat="48.03044" lon="7.03065">
        <ele>1105.4</ele>
        <time>2021-07-29T10:18:35Z</time>
      </trkpt>
      <trkpt lat="48.03043" lon="7.03066">
        <ele>1104.8</ele>
        <time>2021-07-29T10:18:37Z</time>
      </trkpt>
      <trkpt lat="48.03041" lon="7.0307">
        <ele>1104.2</ele>
        <time>2021-07-29T10:18:43Z</time>
      </trkpt>
      <trkpt lat="48.03039" lon="7.03072">
        <ele>1103.6</ele>
        <time>2021-07-29T10:18:45Z</time>
      </trkpt>
      <trkpt lat="48.03038" lon="7.03075">
        <ele>1103.6</ele>
        <time>2021-07-29T10:18:48Z</time>
      </trkpt>
      <trkpt lat="48.03036" lon="7.03071">
        <ele>1103.2</ele>
        <time>2021-07-29T10:18:54Z</time>
      </trkpt>
      <trkpt lat="48.03037" lon="7.0307">
        <ele>1102.8</ele>
        <time>2021-07-29T10:18:55Z</time>
      </trkpt>
      <trkpt lat="48.0304" lon="7.03064">
        <ele>1102.6</ele>
        <time>2021-07-29T10:19:01Z</time>
      </trkpt>
      <trkpt lat="48.03042" lon="7.03059">
        <ele>1102.6</ele>
        <time>2021-07-29T10:19:06Z</time>
      </trkpt>
      <trkpt lat="48.03044" lon="7.03054">
        <ele>1102</ele>
        <time>2021-07-29T10:19:12Z</time>
      </trkpt>
      <trkpt lat="48.03045" lon="7.03051">
        <ele>1101.6</ele>
        <time>2021-07-29T10:19:16Z</time>
      </trkpt>
      <trkpt lat="48.03047" lon="7.03048">
        <ele>1101.4</ele>
        <time>2021-07-29T10:19:22Z</time>
      </trkpt>
      <trkpt lat="48.03049" lon="7.03046">
        <ele>1101</ele>
        <time>2021-07-29T10:19:26Z</time>
      </trkpt>
      <trkpt lat="48.03049" lon="7.03043">
        <ele>1100</ele>
        <time>2021-07-29T10:19:30Z</time>
      </trkpt>
      <trkpt lat="48.03053" lon="7.03038">
        <ele>1099</ele>
        <time>2021-07-29T10:19:36Z</time>
      </trkpt>
      <trkpt lat="48.03054" lon="7.03036">
        <ele>1098.8</ele>
        <time>2021-07-29T10:19:38Z</time>
      </trkpt>
      <trkpt lat="48.03054" lon="7.03034">
        <ele>1098.6</ele>
        <time>2021-07-29T10:19:40Z</time>
      </trkpt>
      <trkpt lat="48.03054" lon="7.0303">
        <ele>1097.8</ele>
        <time>2021-07-29T10:19:44Z</time>
      </trkpt>
      <trkpt lat="48.03055" lon="7.03028">
        <ele>1097.8</ele>
        <time>2021-07-29T10:19:46Z</time>
      </trkpt>
      <trkpt lat="48.03055" lon="7.03025">
        <ele>1097.6</ele>
        <time>2021-07-29T10:19:52Z</time>
      </trkpt>
      <trkpt lat="48.03056" lon="7.03024">
        <ele>1096.8</ele>
        <time>2021-07-29T10:19:56Z</time>
      </trkpt>
      <trkpt lat="48.03056" lon="7.0302">
        <ele>1096.2</ele>
        <time>2021-07-29T10:20:02Z</time>
      </trkpt>
      <trkpt lat="48.03057" lon="7.03018">
        <ele>1095.6</ele>
        <time>2021-07-29T10:20:05Z</time>
      </trkpt>
      <trkpt lat="48.03057" lon="7.03017">
        <ele>1095.2</ele>
        <time>2021-07-29T10:20:06Z</time>
      </trkpt>
      <trkpt lat="48.03058" lon="7.03014">
        <ele>1095.2</ele>
        <time>2021-07-29T10:20:12Z</time>
      </trkpt>
      <trkpt lat="48.0306" lon="7.03012">
        <ele>1095.2</ele>
        <time>2021-07-29T10:20:16Z</time>
      </trkpt>
      <trkpt lat="48.03063" lon="7.03007">
        <ele>1094.2</ele>
        <time>2021-07-29T10:20:22Z</time>
      </trkpt>
      <trkpt lat="48.03066" lon="7.03004">
        <ele>1093.8</ele>
        <time>2021-07-29T10:20:26Z</time>
      </trkpt>
      <trkpt lat="48.03068" lon="7.03002">
        <ele>1092.8</ele>
        <time>2021-07-29T10:20:29Z</time>
      </trkpt>
      <trkpt lat="48.03072" lon="7.02998">
        <ele>1092</ele>
        <time>2021-07-29T10:20:35Z</time>
      </trkpt>
      <trkpt lat="48.03073" lon="7.02997">
        <ele>1092</ele>
        <time>2021-07-29T10:20:36Z</time>
      </trkpt>
      <trkpt lat="48.03074" lon="7.02996">
        <ele>1091.8</ele>
        <time>2021-07-29T10:20:38Z</time>
      </trkpt>
      <trkpt lat="48.03075" lon="7.02995">
        <ele>1091.6</ele>
        <time>2021-07-29T10:20:39Z</time>
      </trkpt>
      <trkpt lat="48.03075" lon="7.02995">
        <ele>1091.4</ele>
        <time>2021-07-29T10:20:41Z</time>
      </trkpt>
      <trkpt lat="48.03075" lon="7.02995">
        <ele>1090.4</ele>
        <time>2021-07-29T10:20:44Z</time>
      </trkpt>
      <trkpt lat="48.03074" lon="7.02994">
        <ele>1089.8</ele>
        <time>2021-07-29T10:20:47Z</time>
      </trkpt>
      <trkpt lat="48.03071" lon="7.02994">
        <ele>1089.4</ele>
        <time>2021-07-29T10:20:50Z</time>
      </trkpt>
      <trkpt lat="48.03066" lon="7.02994">
        <ele>1088.8</ele>
        <time>2021-07-29T10:20:56Z</time>
      </trkpt>
      <trkpt lat="48.03065" lon="7.02994">
        <ele>1088.8</ele>
        <time>2021-07-29T10:20:57Z</time>
      </trkpt>
      <trkpt lat="48.03062" lon="7.02995">
        <ele>1088.2</ele>
        <time>2021-07-29T10:21:01Z</time>
      </trkpt>
      <trkpt lat="48.03057" lon="7.02994">
        <ele>1088</ele>
        <time>2021-07-29T10:21:07Z</time>
      </trkpt>
      <trkpt lat="48.03053" lon="7.02994">
        <ele>1087.6</ele>
        <time>2021-07-29T10:21:13Z</time>
      </trkpt>
      <trkpt lat="48.03051" lon="7.02994">
        <ele>1087.2</ele>
        <time>2021-07-29T10:21:15Z</time>
      </trkpt>
      <trkpt lat="48.0305" lon="7.02994">
        <ele>1087</ele>
        <time>2021-07-29T10:21:16Z</time>
      </trkpt>
      <trkpt lat="48.03046" lon="7.02994">
        <ele>1086</ele>
        <time>2021-07-29T10:21:21Z</time>
      </trkpt>
      <trkpt lat="48.03045" lon="7.02995">
        <ele>1085.8</ele>
        <time>2021-07-29T10:21:27Z</time>
      </trkpt>
      <trkpt lat="48.03041" lon="7.02995">
        <ele>1085.4</ele>
        <time>2021-07-29T10:21:33Z</time>
      </trkpt>
      <trkpt lat="48.03041" lon="7.02994">
        <ele>1085</ele>
        <time>2021-07-29T10:21:34Z</time>
      </trkpt>
      <trkpt lat="48.03039" lon="7.02995">
        <ele>1084.4</ele>
        <time>2021-07-29T10:21:36Z</time>
      </trkpt>
      <trkpt lat="48.03038" lon="7.02995">
        <ele>1084.2</ele>
        <time>2021-07-29T10:21:37Z</time>
      </trkpt>
      <trkpt lat="48.03037" lon="7.02995">
        <ele>1083.8</ele>
        <time>2021-07-29T10:21:38Z</time>
      </trkpt>
      <trkpt lat="48.03034" lon="7.02995">
        <ele>1083.4</ele>
        <time>2021-07-29T10:21:40Z</time>
      </trkpt>
      <trkpt lat="48.03031" lon="7.02995">
        <ele>1082.8</ele>
        <time>2021-07-29T10:21:43Z</time>
      </trkpt>
      <trkpt lat="48.03027" lon="7.02996">
        <ele>1081.6</ele>
        <time>2021-07-29T10:21:48Z</time>
      </trkpt>
      <trkpt lat="48.03025" lon="7.02996">
        <ele>1081.4</ele>
        <time>2021-07-29T10:21:50Z</time>
      </trkpt>
      <trkpt lat="48.03021" lon="7.02999">
        <ele>1080.6</ele>
        <time>2021-07-29T10:21:56Z</time>
      </trkpt>
      <trkpt lat="48.03019" lon="7.02999">
        <ele>1080.6</ele>
        <time>2021-07-29T10:21:58Z</time>
      </trkpt>
      <trkpt lat="48.03014" lon="7.03001">
        <ele>1080.2</ele>
        <time>2021-07-29T10:22:04Z</time>
      </trkpt>
      <trkpt lat="48.03012" lon="7.03002">
        <ele>1080.2</ele>
        <time>2021-07-29T10:22:06Z</time>
      </trkpt>
      <trkpt lat="48.03011" lon="7.03003">
        <ele>1080.2</ele>
        <time>2021-07-29T10:22:08Z</time>
      </trkpt>
      <trkpt lat="48.03006" lon="7.03003">
        <ele>1079.6</ele>
        <time>2021-07-29T10:22:14Z</time>
      </trkpt>
      <trkpt lat="48.03003" lon="7.03004">
        <ele>1079</ele>
        <time>2021-07-29T10:22:18Z</time>
      </trkpt>
      <trkpt lat="48.03001" lon="7.03004">
        <ele>1078.6</ele>
        <time>2021-07-29T10:22:22Z</time>
      </trkpt>
      <trkpt lat="48.03" lon="7.03001">
        <ele>1077.4</ele>
        <time>2021-07-29T10:22:28Z</time>
      </trkpt>
      <trkpt lat="48.03" lon="7.02998">
        <ele>1076.4</ele>
        <time>2021-07-29T10:22:33Z</time>
      </trkpt>
      <trkpt lat="48.03" lon="7.02993">
        <ele>1075.4</ele>
        <time>2021-07-29T10:22:38Z</time>
      </trkpt>
      <trkpt lat="48.03003" lon="7.02987">
        <ele>1074.4</ele>
        <time>2021-07-29T10:22:44Z</time>
      </trkpt>
      <trkpt lat="48.03003" lon="7.02986">
        <ele>1074.2</ele>
        <time>2021-07-29T10:22:45Z</time>
      </trkpt>
      <trkpt lat="48.03004" lon="7.02985">
        <ele>1074</ele>
        <time>2021-07-29T10:22:46Z</time>
      </trkpt>
      <trkpt lat="48.03005" lon="7.02983">
        <ele>1073.6</ele>
        <time>2021-07-29T10:22:48Z</time>
      </trkpt>
      <trkpt lat="48.03006" lon="7.0298">
        <ele>1073.2</ele>
        <time>2021-07-29T10:22:52Z</time>
      </trkpt>
      <trkpt lat="48.03009" lon="7.02976">
        <ele>1072.6</ele>
        <time>2021-07-29T10:22:58Z</time>
      </trkpt>
      <trkpt lat="48.03015" lon="7.02972">
        <ele>1072.8</ele>
        <time>2021-07-29T10:23:04Z</time>
      </trkpt>
      <trkpt lat="48.03019" lon="7.02969">
        <ele>1072.2</ele>
        <time>2021-07-29T10:23:07Z</time>
      </trkpt>
      <trkpt lat="48.0302" lon="7.02968">
        <ele>1072.4</ele>
        <time>2021-07-29T10:23:08Z</time>
      </trkpt>
      <trkpt lat="48.03022" lon="7.02963">
        <ele>1072</ele>
        <time>2021-07-29T10:23:12Z</time>
      </trkpt>
      <trkpt lat="48.03024" lon="7.02958">
        <ele>1071.4</ele>
        <time>2021-07-29T10:23:17Z</time>
      </trkpt>
      <trkpt lat="48.03024" lon="7.02957">
        <ele>1071</ele>
        <time>2021-07-29T10:23:18Z</time>
      </trkpt>
      <trkpt lat="48.03026" lon="7.02953">
        <ele>1070.6</ele>
        <time>2021-07-29T10:23:21Z</time>
      </trkpt>
      <trkpt lat="48.03029" lon="7.0295">
        <ele>1071</ele>
        <time>2021-07-29T10:23:26Z</time>
      </trkpt>
      <trkpt lat="48.03032" lon="7.02949">
        <ele>1071.2</ele>
        <time>2021-07-29T10:23:29Z</time>
      </trkpt>
      <trkpt lat="48.03035" lon="7.02947">
        <ele>1071.2</ele>
        <time>2021-07-29T10:23:32Z</time>
      </trkpt>
      <trkpt lat="48.03039" lon="7.02947">
        <ele>1071.6</ele>
        <time>2021-07-29T10:23:38Z</time>
      </trkpt>
      <trkpt lat="48.03039" lon="7.02947">
        <ele>1071.6</ele>
        <time>2021-07-29T10:23:39Z</time>
      </trkpt>
      <trkpt lat="48.0304" lon="7.02947">
        <ele>1071.8</ele>
        <time>2021-07-29T10:23:45Z</time>
      </trkpt>
      <trkpt lat="48.0304" lon="7.02947">
        <ele>1072</ele>
        <time>2021-07-29T10:23:49Z</time>
      </trkpt>
      <trkpt lat="48.03042" lon="7.02946">
        <ele>1071.2</ele>
        <time>2021-07-29T10:23:55Z</time>
      </trkpt>
      <trkpt lat="48.03044" lon="7.02944">
        <ele>1070.2</ele>
        <time>2021-07-29T10:23:59Z</time>
      </trkpt>
      <trkpt lat="48.03045" lon="7.02943">
        <ele>1070</ele>
        <time>2021-07-29T10:24:00Z</time>
      </trkpt>
      <trkpt lat="48.03051" lon="7.0294">
        <ele>1068.8</ele>
        <time>2021-07-29T10:24:06Z</time>
      </trkpt>
      <trkpt lat="48.03053" lon="7.02939">
        <ele>1068.4</ele>
        <time>2021-07-29T10:24:09Z</time>
      </trkpt>
      <trkpt lat="48.03054" lon="7.02938">
        <ele>1068.2</ele>
        <time>2021-07-29T10:24:11Z</time>
      </trkpt>
      <trkpt lat="48.03057" lon="7.02936">
        <ele>1067.6</ele>
        <time>2021-07-29T10:24:17Z</time>
      </trkpt>
      <trkpt lat="48.03059" lon="7.02935">
        <ele>1067.6</ele>
        <time>2021-07-29T10:24:19Z</time>
      </trkpt>
      <trkpt lat="48.03063" lon="7.02931">
        <ele>1067</ele>
        <time>2021-07-29T10:24:23Z</time>
      </trkpt>
      <trkpt lat="48.03065" lon="7.02929">
        <ele>1066.8</ele>
        <time>2021-07-29T10:24:25Z</time>
      </trkpt>
      <trkpt lat="48.03066" lon="7.02929">
        <ele>1066.8</ele>
        <time>2021-07-29T10:24:26Z</time>
      </trkpt>
      <trkpt lat="48.03068" lon="7.02928">
        <ele>1066.8</ele>
        <time>2021-07-29T10:24:29Z</time>
      </trkpt>
      <trkpt lat="48.0307" lon="7.02928">
        <ele>1067</ele>
        <time>2021-07-29T10:24:35Z</time>
      </trkpt>
      <trkpt lat="48.0307" lon="7.02927">
        <ele>1067.2</ele>
        <time>2021-07-29T10:24:39Z</time>
      </trkpt>
      <trkpt lat="48.03072" lon="7.02924">
        <ele>1066.4</ele>
        <time>2021-07-29T10:24:45Z</time>
      </trkpt>
      <trkpt lat="48.03074" lon="7.02922">
        <ele>1065.6</ele>
        <time>2021-07-29T10:24:48Z</time>
      </trkpt>
      <trkpt lat="48.03074" lon="7.02921">
        <ele>1065.4</ele>
        <time>2021-07-29T10:24:49Z</time>
      </trkpt>
      <trkpt lat="48.03077" lon="7.02919">
        <ele>1064.6</ele>
        <time>2021-07-29T10:24:53Z</time>
      </trkpt>
      <trkpt lat="48.03079" lon="7.02915">
        <ele>1063.6</ele>
        <time>2021-07-29T10:24:57Z</time>
      </trkpt>
      <trkpt lat="48.03079" lon="7.02914">
        <ele>1063.2</ele>
        <time>2021-07-29T10:24:59Z</time>
      </trkpt>
      <trkpt lat="48.03077" lon="7.02912">
        <ele>1062.8</ele>
        <time>2021-07-29T10:25:05Z</time>
      </trkpt>
      <trkpt lat="48.03074" lon="7.02909">
        <ele>1062.4</ele>
        <time>2021-07-29T10:25:08Z</time>
      </trkpt>
      <trkpt lat="48.03074" lon="7.02908">
        <ele>1062.2</ele>
        <time>2021-07-29T10:25:09Z</time>
      </trkpt>
      <trkpt lat="48.0307" lon="7.02907">
        <ele>1061.8</ele>
        <time>2021-07-29T10:25:15Z</time>
      </trkpt>
      <trkpt lat="48.03069" lon="7.02908">
        <ele>1061.4</ele>
        <time>2021-07-29T10:25:19Z</time>
      </trkpt>
      <trkpt lat="48.03068" lon="7.02908">
        <ele>1061.4</ele>
        <time>2021-07-29T10:25:20Z</time>
      </trkpt>
      <trkpt lat="48.03064" lon="7.02911">
        <ele>1060</ele>
        <time>2021-07-29T10:25:25Z</time>
      </trkpt>
      <trkpt lat="48.03062" lon="7.02911">
        <ele>1059.6</ele>
        <time>2021-07-29T10:25:27Z</time>
      </trkpt>
      <trkpt lat="48.0306" lon="7.02911">
        <ele>1059.4</ele>
        <time>2021-07-29T10:25:29Z</time>
      </trkpt>
      <trkpt lat="48.03059" lon="7.02911">
        <ele>1059</ele>
        <time>2021-07-29T10:25:31Z</time>
      </trkpt>
      <trkpt lat="48.03058" lon="7.0291">
        <ele>1058.6</ele>
        <time>2021-07-29T10:25:33Z</time>
      </trkpt>
      <trkpt lat="48.03057" lon="7.02909">
        <ele>1058</ele>
        <time>2021-07-29T10:25:35Z</time>
      </trkpt>
      <trkpt lat="48.03056" lon="7.0291">
        <ele>1057.6</ele>
        <time>2021-07-29T10:25:36Z</time>
      </trkpt>
      <trkpt lat="48.03054" lon="7.0291">
        <ele>1057</ele>
        <time>2021-07-29T10:25:38Z</time>
      </trkpt>
      <trkpt lat="48.03053" lon="7.0291">
        <ele>1056.8</ele>
        <time>2021-07-29T10:25:39Z</time>
      </trkpt>
      <trkpt lat="48.03053" lon="7.0291">
        <ele>1056.6</ele>
        <time>2021-07-29T10:25:40Z</time>
      </trkpt>
      <trkpt lat="48.03048" lon="7.0291">
        <ele>1055.4</ele>
        <time>2021-07-29T10:25:45Z</time>
      </trkpt>
      <trkpt lat="48.03045" lon="7.02911">
        <ele>1054.4</ele>
        <time>2021-07-29T10:25:49Z</time>
      </trkpt>
      <trkpt lat="48.03044" lon="7.02911">
        <ele>1054.4</ele>
        <time>2021-07-29T10:25:50Z</time>
      </trkpt>
      <trkpt lat="48.03042" lon="7.02911">
        <ele>1054</ele>
        <time>2021-07-29T10:25:52Z</time>
      </trkpt>
      <trkpt lat="48.03039" lon="7.02911">
        <ele>1054</ele>
        <time>2021-07-29T10:25:55Z</time>
      </trkpt>
      <trkpt lat="48.03036" lon="7.02911">
        <ele>1053.6</ele>
        <time>2021-07-29T10:25:57Z</time>
      </trkpt>
      <trkpt lat="48.03034" lon="7.02911">
        <ele>1053.4</ele>
        <time>2021-07-29T10:25:59Z</time>
      </trkpt>
      <trkpt lat="48.03033" lon="7.02912">
        <ele>1053.4</ele>
        <time>2021-07-29T10:26:00Z</time>
      </trkpt>
      <trkpt lat="48.03032" lon="7.02912">
        <ele>1053.2</ele>
        <time>2021-07-29T10:26:01Z</time>
      </trkpt>
      <trkpt lat="48.03029" lon="7.02912">
        <ele>1053</ele>
        <time>2021-07-29T10:26:07Z</time>
      </trkpt>
      <trkpt lat="48.03028" lon="7.02911">
        <ele>1053</ele>
        <time>2021-07-29T10:26:09Z</time>
      </trkpt>
      <trkpt lat="48.03026" lon="7.02911">
        <ele>1052.8</ele>
        <time>2021-07-29T10:26:15Z</time>
      </trkpt>
      <trkpt lat="48.03026" lon="7.0291">
        <ele>1052.8</ele>
        <time>2021-07-29T10:26:19Z</time>
      </trkpt>
      <trkpt lat="48.03023" lon="7.02912">
        <ele>1052.8</ele>
        <time>2021-07-29T10:26:25Z</time>
      </trkpt>
      <trkpt lat="48.03022" lon="7.02913">
        <ele>1052.4</ele>
        <time>2021-07-29T10:26:28Z</time>
      </trkpt>
      <trkpt lat="48.03022" lon="7.02913">
        <ele>1052.4</ele>
        <time>2021-07-29T10:26:29Z</time>
      </trkpt>
      <trkpt lat="48.03018" lon="7.02912">
        <ele>1051.8</ele>
        <time>2021-07-29T10:26:35Z</time>
      </trkpt>
      <trkpt lat="48.03014" lon="7.0291">
        <ele>1051.2</ele>
        <time>2021-07-29T10:26:39Z</time>
      </trkpt>
      <trkpt lat="48.03008" lon="7.02911">
        <ele>1050.4</ele>
        <time>2021-07-29T10:26:45Z</time>
      </trkpt>
      <trkpt lat="48.03006" lon="7.02913">
        <ele>1050.2</ele>
        <time>2021-07-29T10:26:47Z</time>
      </trkpt>
      <trkpt lat="48.03005" lon="7.02913">
        <ele>1049.8</ele>
        <time>2021-07-29T10:26:49Z</time>
      </trkpt>
      <trkpt lat="48.03003" lon="7.02917">
        <ele>1049.2</ele>
        <time>2021-07-29T10:26:55Z</time>
      </trkpt>
      <trkpt lat="48.03002" lon="7.02918">
        <ele>1049.2</ele>
        <time>2021-07-29T10:26:56Z</time>
      </trkpt>
      <trkpt lat="48.03" lon="7.02919">
        <ele>1048.8</ele>
        <time>2021-07-29T10:26:59Z</time>
      </trkpt>
      <trkpt lat="48.02998" lon="7.0292">
        <ele>1048</ele>
        <time>2021-07-29T10:27:04Z</time>
      </trkpt>
      <trkpt lat="48.02996" lon="7.02918">
        <ele>1047.4</ele>
        <time>2021-07-29T10:27:09Z</time>
      </trkpt>
      <trkpt lat="48.02996" lon="7.02916">
        <ele>1047</ele>
        <time>2021-07-29T10:27:11Z</time>
      </trkpt>
      <trkpt lat="48.02996" lon="7.0291">
        <ele>1046.4</ele>
        <time>2021-07-29T10:27:17Z</time>
      </trkpt>
      <trkpt lat="48.02997" lon="7.02909">
        <ele>1046.4</ele>
        <time>2021-07-29T10:27:18Z</time>
      </trkpt>
      <trkpt lat="48.03" lon="7.02907">
        <ele>1045.8</ele>
        <time>2021-07-29T10:27:24Z</time>
      </trkpt>
      <trkpt lat="48.03004" lon="7.02903">
        <ele>1045.4</ele>
        <time>2021-07-29T10:27:29Z</time>
      </trkpt>
      <trkpt lat="48.03006" lon="7.029">
        <ele>1044.6</ele>
        <time>2021-07-29T10:27:33Z</time>
      </trkpt>
      <trkpt lat="48.0301" lon="7.02897">
        <ele>1044.4</ele>
        <time>2021-07-29T10:27:36Z</time>
      </trkpt>
      <trkpt lat="48.03013" lon="7.02893">
        <ele>1044.2</ele>
        <time>2021-07-29T10:27:39Z</time>
      </trkpt>
      <trkpt lat="48.03014" lon="7.0289">
        <ele>1043.4</ele>
        <time>2021-07-29T10:27:41Z</time>
      </trkpt>
      <trkpt lat="48.03014" lon="7.02889">
        <ele>1043.2</ele>
        <time>2021-07-29T10:27:42Z</time>
      </trkpt>
      <trkpt lat="48.03017" lon="7.02885">
        <ele>1042.6</ele>
        <time>2021-07-29T10:27:47Z</time>
      </trkpt>
      <trkpt lat="48.03018" lon="7.02884">
        <ele>1042.4</ele>
        <time>2021-07-29T10:27:48Z</time>
      </trkpt>
      <trkpt lat="48.03019" lon="7.02884">
        <ele>1042.2</ele>
        <time>2021-07-29T10:27:49Z</time>
      </trkpt>
      <trkpt lat="48.0302" lon="7.02881">
        <ele>1041.6</ele>
        <time>2021-07-29T10:27:51Z</time>
      </trkpt>
      <trkpt lat="48.03021" lon="7.02881">
        <ele>1041.4</ele>
        <time>2021-07-29T10:27:52Z</time>
      </trkpt>
      <trkpt lat="48.03023" lon="7.02881">
        <ele>1041.4</ele>
        <time>2021-07-29T10:27:53Z</time>
      </trkpt>
      <trkpt lat="48.03025" lon="7.02878">
        <ele>1040.6</ele>
        <time>2021-07-29T10:27:56Z</time>
      </trkpt>
      <trkpt lat="48.03028" lon="7.02877">
        <ele>1040.4</ele>
        <time>2021-07-29T10:27:59Z</time>
      </trkpt>
      <trkpt lat="48.03029" lon="7.02876">
        <ele>1040.4</ele>
        <time>2021-07-29T10:28:01Z</time>
      </trkpt>
      <trkpt lat="48.03033" lon="7.02876">
        <ele>1040</ele>
        <time>2021-07-29T10:28:05Z</time>
      </trkpt>
      <trkpt lat="48.03036" lon="7.02873">
        <ele>1039.2</ele>
        <time>2021-07-29T10:28:08Z</time>
      </trkpt>
      <trkpt lat="48.03037" lon="7.02873">
        <ele>1039</ele>
        <time>2021-07-29T10:28:09Z</time>
      </trkpt>
      <trkpt lat="48.03038" lon="7.02872">
        <ele>1038.6</ele>
        <time>2021-07-29T10:28:11Z</time>
      </trkpt>
      <trkpt lat="48.03039" lon="7.02872">
        <ele>1038</ele>
        <time>2021-07-29T10:28:13Z</time>
      </trkpt>
      <trkpt lat="48.03042" lon="7.0287">
        <ele>1037.4</ele>
        <time>2021-07-29T10:28:19Z</time>
      </trkpt>
      <trkpt lat="48.03047" lon="7.02869">
        <ele>1037.2</ele>
        <time>2021-07-29T10:28:25Z</time>
      </trkpt>
      <trkpt lat="48.03047" lon="7.02869">
        <ele>1037</ele>
        <time>2021-07-29T10:28:26Z</time>
      </trkpt>
      <trkpt lat="48.0305" lon="7.02867">
        <ele>1036.6</ele>
        <time>2021-07-29T10:28:29Z</time>
      </trkpt>
      <trkpt lat="48.03054" lon="7.02864">
        <ele>1036</ele>
        <time>2021-07-29T10:28:35Z</time>
      </trkpt>
      <trkpt lat="48.03055" lon="7.02862">
        <ele>1035.8</ele>
        <time>2021-07-29T10:28:36Z</time>
      </trkpt>
      <trkpt lat="48.03056" lon="7.02861">
        <ele>1035.4</ele>
        <time>2021-07-29T10:28:38Z</time>
      </trkpt>
      <trkpt lat="48.03057" lon="7.0286">
        <ele>1035.2</ele>
        <time>2021-07-29T10:28:39Z</time>
      </trkpt>
      <trkpt lat="48.03058" lon="7.02858">
        <ele>1034.8</ele>
        <time>2021-07-29T10:28:41Z</time>
      </trkpt>
      <trkpt lat="48.03059" lon="7.02857">
        <ele>1034.4</ele>
        <time>2021-07-29T10:28:42Z</time>
      </trkpt>
      <trkpt lat="48.03059" lon="7.02857">
        <ele>1034.2</ele>
        <time>2021-07-29T10:28:43Z</time>
      </trkpt>
      <trkpt lat="48.03057" lon="7.02855">
        <ele>1033.4</ele>
        <time>2021-07-29T10:28:49Z</time>
      </trkpt>
      <trkpt lat="48.03056" lon="7.02856">
        <ele>1032.8</ele>
        <time>2021-07-29T10:28:55Z</time>
      </trkpt>
      <trkpt lat="48.03054" lon="7.02858">
        <ele>1032.2</ele>
        <time>2021-07-29T10:28:59Z</time>
      </trkpt>
      <trkpt lat="48.03048" lon="7.02855">
        <ele>1031.6</ele>
        <time>2021-07-29T10:29:05Z</time>
      </trkpt>
      <trkpt lat="48.03045" lon="7.02855">
        <ele>1031.2</ele>
        <time>2021-07-29T10:29:07Z</time>
      </trkpt>
      <trkpt lat="48.03042" lon="7.02855">
        <ele>1030.8</ele>
        <time>2021-07-29T10:29:09Z</time>
      </trkpt>
      <trkpt lat="48.03038" lon="7.02855">
        <ele>1030</ele>
        <time>2021-07-29T10:29:12Z</time>
      </trkpt>
      <trkpt lat="48.03028" lon="7.02852">
        <ele>1029.4</ele>
        <time>2021-07-29T10:29:18Z</time>
      </trkpt>
      <trkpt lat="48.03027" lon="7.02852">
        <ele>1029.2</ele>
        <time>2021-07-29T10:29:19Z</time>
      </trkpt>
      <trkpt lat="48.03025" lon="7.02852">
        <ele>1029</ele>
        <time>2021-07-29T10:29:20Z</time>
      </trkpt>
      <trkpt lat="48.03017" lon="7.02852">
        <ele>1028.2</ele>
        <time>2021-07-29T10:29:26Z</time>
      </trkpt>
      <trkpt lat="48.03012" lon="7.02852">
        <ele>1028</ele>
        <time>2021-07-29T10:29:30Z</time>
      </trkpt>
      <trkpt lat="48.03007" lon="7.02854">
        <ele>1027.8</ele>
        <time>2021-07-29T10:29:35Z</time>
      </trkpt>
      <trkpt lat="48.03001" lon="7.02854">
        <ele>1027.4</ele>
        <time>2021-07-29T10:29:40Z</time>
      </trkpt>
      <trkpt lat="48.03001" lon="7.02854">
        <ele>1027.4</ele>
        <time>2021-07-29T10:29:42Z</time>
      </trkpt>
      <trkpt lat="48.03" lon="7.02853">
        <ele>1026.8</ele>
        <time>2021-07-29T10:29:45Z</time>
      </trkpt>
      <trkpt lat="48.02999" lon="7.02852">
        <ele>1026</ele>
        <time>2021-07-29T10:29:50Z</time>
      </trkpt>
      <trkpt lat="48.02998" lon="7.02852">
        <ele>1025.8</ele>
        <time>2021-07-29T10:29:51Z</time>
      </trkpt>
      <trkpt lat="48.02999" lon="7.0285">
        <ele>1024.6</ele>
        <time>2021-07-29T10:29:55Z</time>
      </trkpt>
      <trkpt lat="48.03" lon="7.02847">
        <ele>1023.8</ele>
        <time>2021-07-29T10:30:00Z</time>
      </trkpt>
      <trkpt lat="48.03001" lon="7.02847">
        <ele>1023.4</ele>
        <time>2021-07-29T10:30:02Z</time>
      </trkpt>
      <trkpt lat="48.03005" lon="7.02847">
        <ele>1023.6</ele>
        <time>2021-07-29T10:30:05Z</time>
      </trkpt>
      <trkpt lat="48.03008" lon="7.02846">
        <ele>1023.6</ele>
        <time>2021-07-29T10:30:08Z</time>
      </trkpt>
      <trkpt lat="48.0301" lon="7.02845">
        <ele>1023.4</ele>
        <time>2021-07-29T10:30:10Z</time>
      </trkpt>
      <trkpt lat="48.03013" lon="7.02843">
        <ele>1022.2</ele>
        <time>2021-07-29T10:30:15Z</time>
      </trkpt>
      <trkpt lat="48.03015" lon="7.02842">
        <ele>1021.6</ele>
        <time>2021-07-29T10:30:20Z</time>
      </trkpt>
      <trkpt lat="48.03014" lon="7.02841">
        <ele>1021</ele>
        <time>2021-07-29T10:30:24Z</time>
      </trkpt>
      <trkpt lat="48.0301" lon="7.02841">
        <ele>1020.2</ele>
        <time>2021-07-29T10:30:29Z</time>
      </trkpt>
      <trkpt lat="48.0301" lon="7.0284">
        <ele>1020</ele>
        <time>2021-07-29T10:30:30Z</time>
      </trkpt>
      <trkpt lat="48.03008" lon="7.02839">
        <ele>1019.8</ele>
        <time>2021-07-29T10:30:32Z</time>
      </trkpt>
      <trkpt lat="48.03004" lon="7.02839">
        <ele>1019</ele>
        <time>2021-07-29T10:30:36Z</time>
      </trkpt>
      <trkpt lat="48.03002" lon="7.02839">
        <ele>1018.8</ele>
        <time>2021-07-29T10:30:37Z</time>
      </trkpt>
      <trkpt lat="48.03001" lon="7.02839">
        <ele>1018.6</ele>
        <time>2021-07-29T10:30:38Z</time>
      </trkpt>
      <trkpt lat="48.02997" lon="7.02839">
        <ele>1018</ele>
        <time>2021-07-29T10:30:41Z</time>
      </trkpt>
      <trkpt lat="48.02996" lon="7.0284">
        <ele>1017.8</ele>
        <time>2021-07-29T10:30:42Z</time>
      </trkpt>
      <trkpt lat="48.02995" lon="7.0284">
        <ele>1017.6</ele>
        <time>2021-07-29T10:30:43Z</time>
      </trkpt>
      <trkpt lat="48.02991" lon="7.02841">
        <ele>1017</ele>
        <time>2021-07-29T10:30:49Z</time>
      </trkpt>
      <trkpt lat="48.0299" lon="7.02842">
        <ele>1016.8</ele>
        <time>2021-07-29T10:30:50Z</time>
      </trkpt>
      <trkpt lat="48.0299" lon="7.02842">
        <ele>1016.8</ele>
        <time>2021-07-29T10:30:51Z</time>
      </trkpt>
      <trkpt lat="48.02987" lon="7.02843">
        <ele>1016.8</ele>
        <time>2021-07-29T10:30:57Z</time>
      </trkpt>
      <trkpt lat="48.02987" lon="7.02844">
        <ele>1016.8</ele>
        <time>2021-07-29T10:31:01Z</time>
      </trkpt>
      <trkpt lat="48.02986" lon="7.02844">
        <ele>1016.4</ele>
        <time>2021-07-29T10:31:07Z</time>
      </trkpt>
      <trkpt lat="48.02985" lon="7.02844">
        <ele>1016.2</ele>
        <time>2021-07-29T10:31:11Z</time>
      </trkpt>
      <trkpt lat="48.02983" lon="7.02844">
        <ele>1015.8</ele>
        <time>2021-07-29T10:31:14Z</time>
      </trkpt>
      <trkpt lat="48.02979" lon="7.02846">
        <ele>1014.6</ele>
        <time>2021-07-29T10:31:19Z</time>
      </trkpt>
      <trkpt lat="48.02977" lon="7.02846">
        <ele>1014.6</ele>
        <time>2021-07-29T10:31:21Z</time>
      </trkpt>
      <trkpt lat="48.02973" lon="7.02848">
        <ele>1013.6</ele>
        <time>2021-07-29T10:31:27Z</time>
      </trkpt>
      <trkpt lat="48.02972" lon="7.02849">
        <ele>1013.4</ele>
        <time>2021-07-29T10:31:28Z</time>
      </trkpt>
      <trkpt lat="48.0297" lon="7.02848">
        <ele>1013.2</ele>
        <time>2021-07-29T10:31:30Z</time>
      </trkpt>
      <trkpt lat="48.02969" lon="7.02849">
        <ele>1013</ele>
        <time>2021-07-29T10:31:31Z</time>
      </trkpt>
      <trkpt lat="48.02968" lon="7.02849">
        <ele>1012.6</ele>
        <time>2021-07-29T10:31:32Z</time>
      </trkpt>
      <trkpt lat="48.02968" lon="7.0285">
        <ele>1012.4</ele>
        <time>2021-07-29T10:31:33Z</time>
      </trkpt>
      <trkpt lat="48.02965" lon="7.02853">
        <ele>1011.8</ele>
        <time>2021-07-29T10:31:37Z</time>
      </trkpt>
      <trkpt lat="48.02964" lon="7.02854">
        <ele>1011.4</ele>
        <time>2021-07-29T10:31:42Z</time>
      </trkpt>
      <trkpt lat="48.02965" lon="7.02856">
        <ele>1011.2</ele>
        <time>2021-07-29T10:31:45Z</time>
      </trkpt>
      <trkpt lat="48.02963" lon="7.02861">
        <ele>1011.4</ele>
        <time>2021-07-29T10:31:51Z</time>
      </trkpt>
      <trkpt lat="48.02962" lon="7.02861">
        <ele>1011.2</ele>
        <time>2021-07-29T10:31:52Z</time>
      </trkpt>
      <trkpt lat="48.0296" lon="7.02863">
        <ele>1011.2</ele>
        <time>2021-07-29T10:31:54Z</time>
      </trkpt>
      <trkpt lat="48.02957" lon="7.02864">
        <ele>1011</ele>
        <time>2021-07-29T10:31:57Z</time>
      </trkpt>
      <trkpt lat="48.02954" lon="7.02862">
        <ele>1010</ele>
        <time>2021-07-29T10:32:02Z</time>
      </trkpt>
      <trkpt lat="48.02955" lon="7.02859">
        <ele>1009</ele>
        <time>2021-07-29T10:32:07Z</time>
      </trkpt>
      <trkpt lat="48.02955" lon="7.02854">
        <ele>1008</ele>
        <time>2021-07-29T10:32:12Z</time>
      </trkpt>
      <trkpt lat="48.02957" lon="7.0285">
        <ele>1007.4</ele>
        <time>2021-07-29T10:32:15Z</time>
      </trkpt>
      <trkpt lat="48.02959" lon="7.02845">
        <ele>1006.8</ele>
        <time>2021-07-29T10:32:19Z</time>
      </trkpt>
      <trkpt lat="48.0296" lon="7.02842">
        <ele>1006.4</ele>
        <time>2021-07-29T10:32:22Z</time>
      </trkpt>
      <trkpt lat="48.02965" lon="7.02838">
        <ele>1006.4</ele>
        <time>2021-07-29T10:32:28Z</time>
      </trkpt>
      <trkpt lat="48.02967" lon="7.02833">
        <ele>1006.6</ele>
        <time>2021-07-29T10:32:32Z</time>
      </trkpt>
      <trkpt lat="48.02969" lon="7.02827">
        <ele>1006.2</ele>
        <time>2021-07-29T10:32:38Z</time>
      </trkpt>
      <trkpt lat="48.02971" lon="7.02823">
        <ele>1005.8</ele>
        <time>2021-07-29T10:32:42Z</time>
      </trkpt>
      <trkpt lat="48.02974" lon="7.02819">
        <ele>1005.4</ele>
        <time>2021-07-29T10:32:46Z</time>
      </trkpt>
      <trkpt lat="48.02976" lon="7.02817">
        <ele>1005.6</ele>
        <time>2021-07-29T10:32:49Z</time>
      </trkpt>
      <trkpt lat="48.02979" lon="7.02813">
        <ele>1005</ele>
        <time>2021-07-29T10:32:53Z</time>
      </trkpt>
      <trkpt lat="48.02981" lon="7.0281">
        <ele>1004.6</ele>
        <time>2021-07-29T10:32:56Z</time>
      </trkpt>
      <trkpt lat="48.02982" lon="7.02808">
        <ele>1004.4</ele>
        <time>2021-07-29T10:32:57Z</time>
      </trkpt>
      <trkpt lat="48.02987" lon="7.02803">
        <ele>1003.4</ele>
        <time>2021-07-29T10:33:02Z</time>
      </trkpt>
      <trkpt lat="48.02987" lon="7.02802">
        <ele>1003.2</ele>
        <time>2021-07-29T10:33:03Z</time>
      </trkpt>
      <trkpt lat="48.02992" lon="7.02798">
        <ele>1002.4</ele>
        <time>2021-07-29T10:33:08Z</time>
      </trkpt>
      <trkpt lat="48.02996" lon="7.02794">
        <ele>1001.6</ele>
        <time>2021-07-29T10:33:14Z</time>
      </trkpt>
      <trkpt lat="48.02996" lon="7.02794">
        <ele>1001.2</ele>
        <time>2021-07-29T10:33:15Z</time>
      </trkpt>
      <trkpt lat="48.02998" lon="7.02791">
        <ele>1001</ele>
        <time>2021-07-29T10:33:18Z</time>
      </trkpt>
      <trkpt lat="48.03001" lon="7.02788">
        <ele>1000.6</ele>
        <time>2021-07-29T10:33:24Z</time>
      </trkpt>
      <trkpt lat="48.03004" lon="7.02787">
        <ele>1000</ele>
        <time>2021-07-29T10:33:27Z</time>
      </trkpt>
      <trkpt lat="48.03007" lon="7.02783">
        <ele>999.2</ele>
        <time>2021-07-29T10:33:32Z</time>
      </trkpt>
      <trkpt lat="48.03009" lon="7.02782">
        <ele>998.8</ele>
        <time>2021-07-29T10:33:34Z</time>
      </trkpt>
      <trkpt lat="48.0301" lon="7.02781">
        <ele>998.2</ele>
        <time>2021-07-29T10:33:36Z</time>
      </trkpt>
      <trkpt lat="48.03012" lon="7.02781">
        <ele>998.2</ele>
        <time>2021-07-29T10:33:38Z</time>
      </trkpt>
      <trkpt lat="48.03016" lon="7.02782">
        <ele>998.2</ele>
        <time>2021-07-29T10:33:44Z</time>
      </trkpt>
      <trkpt lat="48.03021" lon="7.02781">
        <ele>997.6</ele>
        <time>2021-07-29T10:33:50Z</time>
      </trkpt>
      <trkpt lat="48.03022" lon="7.0278">
        <ele>997.4</ele>
        <time>2021-07-29T10:33:52Z</time>
      </trkpt>
      <trkpt lat="48.03023" lon="7.02779">
        <ele>997.2</ele>
        <time>2021-07-29T10:33:54Z</time>
      </trkpt>
      <trkpt lat="48.03024" lon="7.02778">
        <ele>997.2</ele>
        <time>2021-07-29T10:33:55Z</time>
      </trkpt>
      <trkpt lat="48.03027" lon="7.02774">
        <ele>996.8</ele>
        <time>2021-07-29T10:34:01Z</time>
      </trkpt>
      <trkpt lat="48.0303" lon="7.0277">
        <ele>996.4</ele>
        <time>2021-07-29T10:34:04Z</time>
      </trkpt>
      <trkpt lat="48.0303" lon="7.02768">
        <ele>996.2</ele>
        <time>2021-07-29T10:34:05Z</time>
      </trkpt>
      <trkpt lat="48.03031" lon="7.02768">
        <ele>996</ele>
        <time>2021-07-29T10:34:06Z</time>
      </trkpt>
      <trkpt lat="48.03032" lon="7.02767">
        <ele>996</ele>
        <time>2021-07-29T10:34:07Z</time>
      </trkpt>
      <trkpt lat="48.03035" lon="7.02765">
        <ele>995.4</ele>
        <time>2021-07-29T10:34:11Z</time>
      </trkpt>
      <trkpt lat="48.03039" lon="7.02763">
        <ele>995</ele>
        <time>2021-07-29T10:34:14Z</time>
      </trkpt>
      <trkpt lat="48.0304" lon="7.02762">
        <ele>995</ele>
        <time>2021-07-29T10:34:15Z</time>
      </trkpt>
      <trkpt lat="48.03045" lon="7.02758">
        <ele>994</ele>
        <time>2021-07-29T10:34:20Z</time>
      </trkpt>
      <trkpt lat="48.03049" lon="7.02754">
        <ele>993.2</ele>
        <time>2021-07-29T10:34:24Z</time>
      </trkpt>
      <trkpt lat="48.03053" lon="7.02748">
        <ele>993</ele>
        <time>2021-07-29T10:34:29Z</time>
      </trkpt>
      <trkpt lat="48.03056" lon="7.02742">
        <ele>992.4</ele>
        <time>2021-07-29T10:34:34Z</time>
      </trkpt>
      <trkpt lat="48.03057" lon="7.0274">
        <ele>992</ele>
        <time>2021-07-29T10:34:37Z</time>
      </trkpt>
      <trkpt lat="48.03057" lon="7.02739">
        <ele>991.8</ele>
        <time>2021-07-29T10:34:38Z</time>
      </trkpt>
      <trkpt lat="48.03059" lon="7.02734">
        <ele>991</ele>
        <time>2021-07-29T10:34:44Z</time>
      </trkpt>
      <trkpt lat="48.0306" lon="7.02732">
        <ele>990.8</ele>
        <time>2021-07-29T10:34:46Z</time>
      </trkpt>
      <trkpt lat="48.03061" lon="7.02731">
        <ele>990.6</ele>
        <time>2021-07-29T10:34:52Z</time>
      </trkpt>
      <trkpt lat="48.03063" lon="7.02728">
        <ele>990.4</ele>
        <time>2021-07-29T10:34:54Z</time>
      </trkpt>
      <trkpt lat="48.03064" lon="7.02726">
        <ele>990.4</ele>
        <time>2021-07-29T10:34:56Z</time>
      </trkpt>
      <trkpt lat="48.03064" lon="7.02721">
        <ele>990</ele>
        <time>2021-07-29T10:34:59Z</time>
      </trkpt>
      <trkpt lat="48.03065" lon="7.02718">
        <ele>989.8</ele>
        <time>2021-07-29T10:35:02Z</time>
      </trkpt>
      <trkpt lat="48.03067" lon="7.02716">
        <ele>989.6</ele>
        <time>2021-07-29T10:35:04Z</time>
      </trkpt>
      <trkpt lat="48.03067" lon="7.02715">
        <ele>989.4</ele>
        <time>2021-07-29T10:35:05Z</time>
      </trkpt>
      <trkpt lat="48.03068" lon="7.0271">
        <ele>988.8</ele>
        <time>2021-07-29T10:35:09Z</time>
      </trkpt>
      <trkpt lat="48.03068" lon="7.02706">
        <ele>988.4</ele>
        <time>2021-07-29T10:35:14Z</time>
      </trkpt>
      <trkpt lat="48.0307" lon="7.02708">
        <ele>987.8</ele>
        <time>2021-07-29T10:35:20Z</time>
      </trkpt>
      <trkpt lat="48.0307" lon="7.02709">
        <ele>987.6</ele>
        <time>2021-07-29T10:35:23Z</time>
      </trkpt>
      <trkpt lat="48.0307" lon="7.02709">
        <ele>987.4</ele>
        <time>2021-07-29T10:35:24Z</time>
      </trkpt>
      <trkpt lat="48.03069" lon="7.02713">
        <ele>987</ele>
        <time>2021-07-29T10:35:30Z</time>
      </trkpt>
      <trkpt lat="48.03067" lon="7.02717">
        <ele>987</ele>
        <time>2021-07-29T10:35:34Z</time>
      </trkpt>
      <trkpt lat="48.03065" lon="7.02719">
        <ele>986.4</ele>
        <time>2021-07-29T10:35:38Z</time>
      </trkpt>
      <trkpt lat="48.03059" lon="7.0272">
        <ele>986</ele>
        <time>2021-07-29T10:35:44Z</time>
      </trkpt>
      <trkpt lat="48.03058" lon="7.0272">
        <ele>986.2</ele>
        <time>2021-07-29T10:35:45Z</time>
      </trkpt>
      <trkpt lat="48.03057" lon="7.02721">
        <ele>986.2</ele>
        <time>2021-07-29T10:35:47Z</time>
      </trkpt>
      <trkpt lat="48.03051" lon="7.02722">
        <ele>986</ele>
        <time>2021-07-29T10:35:51Z</time>
      </trkpt>
      <trkpt lat="48.03047" lon="7.02722">
        <ele>985.4</ele>
        <time>2021-07-29T10:35:54Z</time>
      </trkpt>
      <trkpt lat="48.03046" lon="7.02723">
        <ele>985.2</ele>
        <time>2021-07-29T10:35:55Z</time>
      </trkpt>
      <trkpt lat="48.0304" lon="7.02729">
        <ele>984.4</ele>
        <time>2021-07-29T10:36:01Z</time>
      </trkpt>
      <trkpt lat="48.03039" lon="7.02732">
        <ele>984.2</ele>
        <time>2021-07-29T10:36:04Z</time>
      </trkpt>
      <trkpt lat="48.03039" lon="7.02733">
        <ele>984</ele>
        <time>2021-07-29T10:36:05Z</time>
      </trkpt>
      <trkpt lat="48.03035" lon="7.02735">
        <ele>983.6</ele>
        <time>2021-07-29T10:36:11Z</time>
      </trkpt>
      <trkpt lat="48.03032" lon="7.02736">
        <ele>983.2</ele>
        <time>2021-07-29T10:36:14Z</time>
      </trkpt>
      <trkpt lat="48.03031" lon="7.02736">
        <ele>983</ele>
        <time>2021-07-29T10:36:16Z</time>
      </trkpt>
      <trkpt lat="48.03026" lon="7.02736">
        <ele>982.6</ele>
        <time>2021-07-29T10:36:20Z</time>
      </trkpt>
      <trkpt lat="48.03023" lon="7.02736">
        <ele>982.4</ele>
        <time>2021-07-29T10:36:24Z</time>
      </trkpt>
      <trkpt lat="48.03021" lon="7.02737">
        <ele>982</ele>
        <time>2021-07-29T10:36:27Z</time>
      </trkpt>
      <trkpt lat="48.03016" lon="7.02739">
        <ele>981</ele>
        <time>2021-07-29T10:36:32Z</time>
      </trkpt>
      <trkpt lat="48.03015" lon="7.02739">
        <ele>980.8</ele>
        <time>2021-07-29T10:36:33Z</time>
      </trkpt>
      <trkpt lat="48.03011" lon="7.02742">
        <ele>980.2</ele>
        <time>2021-07-29T10:36:39Z</time>
      </trkpt>
      <trkpt lat="48.03011" lon="7.02742">
        <ele>980</ele>
        <time>2021-07-29T10:36:40Z</time>
      </trkpt>
      <trkpt lat="48.03007" lon="7.02741">
        <ele>979.2</ele>
        <time>2021-07-29T10:36:44Z</time>
      </trkpt>
      <trkpt lat="48.03006" lon="7.02741">
        <ele>978.8</ele>
        <time>2021-07-29T10:36:46Z</time>
      </trkpt>
      <trkpt lat="48.03001" lon="7.02742">
        <ele>978.4</ele>
        <time>2021-07-29T10:36:52Z</time>
      </trkpt>
      <trkpt lat="48.03" lon="7.0274">
        <ele>978.2</ele>
        <time>2021-07-29T10:36:54Z</time>
      </trkpt>
      <trkpt lat="48.02998" lon="7.02741">
        <ele>977.8</ele>
        <time>2021-07-29T10:36:56Z</time>
      </trkpt>
      <trkpt lat="48.02995" lon="7.02744">
        <ele>976.6</ele>
        <time>2021-07-29T10:37:02Z</time>
      </trkpt>
      <trkpt lat="48.02993" lon="7.02744">
        <ele>976.2</ele>
        <time>2021-07-29T10:37:04Z</time>
      </trkpt>
      <trkpt lat="48.02991" lon="7.02746">
        <ele>975.6</ele>
        <time>2021-07-29T10:37:07Z</time>
      </trkpt>
      <trkpt lat="48.02986" lon="7.02744">
        <ele>974.8</ele>
        <time>2021-07-29T10:37:11Z</time>
      </trkpt>
      <trkpt lat="48.02984" lon="7.02745">
        <ele>974.6</ele>
        <time>2021-07-29T10:37:12Z</time>
      </trkpt>
      <trkpt lat="48.02981" lon="7.02745">
        <ele>974.2</ele>
        <time>2021-07-29T10:37:14Z</time>
      </trkpt>
      <trkpt lat="48.02976" lon="7.02747">
        <ele>973.4</ele>
        <time>2021-07-29T10:37:20Z</time>
      </trkpt>
      <trkpt lat="48.02971" lon="7.02747">
        <ele>972.8</ele>
        <time>2021-07-29T10:37:24Z</time>
      </trkpt>
      <trkpt lat="48.02965" lon="7.02748">
        <ele>972.2</ele>
        <time>2021-07-29T10:37:29Z</time>
      </trkpt>
      <trkpt lat="48.02964" lon="7.0275">
        <ele>972</ele>
        <time>2021-07-29T10:37:33Z</time>
      </trkpt>
      <trkpt lat="48.02964" lon="7.02751">
        <ele>972</ele>
        <time>2021-07-29T10:37:34Z</time>
      </trkpt>
      <trkpt lat="48.0296" lon="7.02754">
        <ele>971.2</ele>
        <time>2021-07-29T10:37:40Z</time>
      </trkpt>
      <trkpt lat="48.02958" lon="7.02757">
        <ele>970.8</ele>
        <time>2021-07-29T10:37:44Z</time>
      </trkpt>
      <trkpt lat="48.02955" lon="7.02761">
        <ele>970.2</ele>
        <time>2021-07-29T10:37:49Z</time>
      </trkpt>
      <trkpt lat="48.02954" lon="7.02763">
        <ele>970</ele>
        <time>2021-07-29T10:37:54Z</time>
      </trkpt>
      <trkpt lat="48.0295" lon="7.02764">
        <ele>969.2</ele>
        <time>2021-07-29T10:38:00Z</time>
      </trkpt>
      <trkpt lat="48.02947" lon="7.02764">
        <ele>969.2</ele>
        <time>2021-07-29T10:38:02Z</time>
      </trkpt>
      <trkpt lat="48.02946" lon="7.02764">
        <ele>969</ele>
        <time>2021-07-29T10:38:04Z</time>
      </trkpt>
      <trkpt lat="48.02942" lon="7.02764">
        <ele>968.4</ele>
        <time>2021-07-29T10:38:07Z</time>
      </trkpt>
      <trkpt lat="48.02941" lon="7.02764">
        <ele>968</ele>
        <time>2021-07-29T10:38:08Z</time>
      </trkpt>
      <trkpt lat="48.02937" lon="7.02762">
        <ele>967.4</ele>
        <time>2021-07-29T10:38:10Z</time>
      </trkpt>
      <trkpt lat="48.02934" lon="7.02761">
        <ele>967</ele>
        <time>2021-07-29T10:38:14Z</time>
      </trkpt>
      <trkpt lat="48.02933" lon="7.02762">
        <ele>966.6</ele>
        <time>2021-07-29T10:38:16Z</time>
      </trkpt>
      <trkpt lat="48.02928" lon="7.02761">
        <ele>966</ele>
        <time>2021-07-29T10:38:21Z</time>
      </trkpt>
      <trkpt lat="48.02925" lon="7.02761">
        <ele>965.8</ele>
        <time>2021-07-29T10:38:23Z</time>
      </trkpt>
      <trkpt lat="48.02924" lon="7.02762">
        <ele>965.8</ele>
        <time>2021-07-29T10:38:24Z</time>
      </trkpt>
      <trkpt lat="48.0292" lon="7.02764">
        <ele>965.4</ele>
        <time>2021-07-29T10:38:30Z</time>
      </trkpt>
      <trkpt lat="48.0292" lon="7.02767">
        <ele>965.2</ele>
        <time>2021-07-29T10:38:34Z</time>
      </trkpt>
      <trkpt lat="48.02919" lon="7.02771">
        <ele>965</ele>
        <time>2021-07-29T10:38:40Z</time>
      </trkpt>
      <trkpt lat="48.02919" lon="7.02772">
        <ele>965</ele>
        <time>2021-07-29T10:38:41Z</time>
      </trkpt>
      <trkpt lat="48.02915" lon="7.02773">
        <ele>964.6</ele>
        <time>2021-07-29T10:38:44Z</time>
      </trkpt>
      <trkpt lat="48.02914" lon="7.02773">
        <ele>964.6</ele>
        <time>2021-07-29T10:38:45Z</time>
      </trkpt>
      <trkpt lat="48.02913" lon="7.02773">
        <ele>964.4</ele>
        <time>2021-07-29T10:38:47Z</time>
      </trkpt>
      <trkpt lat="48.02911" lon="7.02774">
        <ele>963.8</ele>
        <time>2021-07-29T10:38:50Z</time>
      </trkpt>
      <trkpt lat="48.02909" lon="7.02774">
        <ele>963.4</ele>
        <time>2021-07-29T10:38:52Z</time>
      </trkpt>
      <trkpt lat="48.02905" lon="7.02774">
        <ele>962.8</ele>
        <time>2021-07-29T10:38:54Z</time>
      </trkpt>
      <trkpt lat="48.02902" lon="7.02773">
        <ele>962.4</ele>
        <time>2021-07-29T10:38:56Z</time>
      </trkpt>
      <trkpt lat="48.02896" lon="7.02774">
        <ele>961.8</ele>
        <time>2021-07-29T10:39:02Z</time>
      </trkpt>
      <trkpt lat="48.02894" lon="7.02774">
        <ele>961.6</ele>
        <time>2021-07-29T10:39:04Z</time>
      </trkpt>
      <trkpt lat="48.0289" lon="7.02776">
        <ele>960.8</ele>
        <time>2021-07-29T10:39:09Z</time>
      </trkpt>
      <trkpt lat="48.02888" lon="7.02777">
        <ele>960.6</ele>
        <time>2021-07-29T10:39:11Z</time>
      </trkpt>
      <trkpt lat="48.02887" lon="7.02778">
        <ele>960.6</ele>
        <time>2021-07-29T10:39:12Z</time>
      </trkpt>
      <trkpt lat="48.02886" lon="7.02779">
        <ele>960.4</ele>
        <time>2021-07-29T10:39:14Z</time>
      </trkpt>
      <trkpt lat="48.02884" lon="7.0278">
        <ele>960.2</ele>
        <time>2021-07-29T10:39:16Z</time>
      </trkpt>
      <trkpt lat="48.02883" lon="7.0278">
        <ele>960.2</ele>
        <time>2021-07-29T10:39:17Z</time>
      </trkpt>
      <trkpt lat="48.02882" lon="7.0278">
        <ele>959.6</ele>
        <time>2021-07-29T10:39:19Z</time>
      </trkpt>
      <trkpt lat="48.02881" lon="7.02781">
        <ele>959.6</ele>
        <time>2021-07-29T10:39:21Z</time>
      </trkpt>
      <trkpt lat="48.0288" lon="7.02781">
        <ele>959.4</ele>
        <time>2021-07-29T10:39:22Z</time>
      </trkpt>
      <trkpt lat="48.0288" lon="7.02784">
        <ele>959</ele>
        <time>2021-07-29T10:39:24Z</time>
      </trkpt>
      <trkpt lat="48.02878" lon="7.02786">
        <ele>958.4</ele>
        <time>2021-07-29T10:39:27Z</time>
      </trkpt>
      <trkpt lat="48.02876" lon="7.02787">
        <ele>958</ele>
        <time>2021-07-29T10:39:29Z</time>
      </trkpt>
      <trkpt lat="48.02874" lon="7.0279">
        <ele>957.6</ele>
        <time>2021-07-29T10:39:32Z</time>
      </trkpt>
      <trkpt lat="48.02876" lon="7.02794">
        <ele>957.2</ele>
        <time>2021-07-29T10:39:33Z</time>
      </trkpt>
      <trkpt lat="48.02875" lon="7.02794">
        <ele>957.2</ele>
        <time>2021-07-29T10:39:34Z</time>
      </trkpt>
      <trkpt lat="48.02871" lon="7.02797">
        <ele>956.4</ele>
        <time>2021-07-29T10:39:40Z</time>
      </trkpt>
      <trkpt lat="48.02869" lon="7.02798">
        <ele>956</ele>
        <time>2021-07-29T10:39:43Z</time>
      </trkpt>
      <trkpt lat="48.02869" lon="7.02798">
        <ele>956.2</ele>
        <time>2021-07-29T10:39:44Z</time>
      </trkpt>
      <trkpt lat="48.02866" lon="7.02799">
        <ele>955.2</ele>
        <time>2021-07-29T10:39:50Z</time>
      </trkpt>
      <trkpt lat="48.02862" lon="7.02799">
        <ele>954.6</ele>
        <time>2021-07-29T10:39:54Z</time>
      </trkpt>
      <trkpt lat="48.0286" lon="7.02798">
        <ele>954</ele>
        <time>2021-07-29T10:39:57Z</time>
      </trkpt>
      <trkpt lat="48.02856" lon="7.02795">
        <ele>953</ele>
        <time>2021-07-29T10:40:03Z</time>
      </trkpt>
      <trkpt lat="48.02855" lon="7.02795">
        <ele>952.8</ele>
        <time>2021-07-29T10:40:04Z</time>
      </trkpt>
      <trkpt lat="48.02852" lon="7.02794">
        <ele>952.4</ele>
        <time>2021-07-29T10:40:07Z</time>
      </trkpt>
      <trkpt lat="48.0285" lon="7.02792">
        <ele>951.8</ele>
        <time>2021-07-29T10:40:10Z</time>
      </trkpt>
      <trkpt lat="48.02847" lon="7.02791">
        <ele>951.2</ele>
        <time>2021-07-29T10:40:14Z</time>
      </trkpt>
      <trkpt lat="48.02845" lon="7.0279">
        <ele>950.8</ele>
        <time>2021-07-29T10:40:17Z</time>
      </trkpt>
      <trkpt lat="48.02844" lon="7.02789">
        <ele>950.4</ele>
        <time>2021-07-29T10:40:18Z</time>
      </trkpt>
      <trkpt lat="48.02843" lon="7.02787">
        <ele>950.2</ele>
        <time>2021-07-29T10:40:20Z</time>
      </trkpt>
      <trkpt lat="48.02841" lon="7.02788">
        <ele>950</ele>
        <time>2021-07-29T10:40:24Z</time>
      </trkpt>
      <trkpt lat="48.0284" lon="7.02789">
        <ele>950</ele>
        <time>2021-07-29T10:40:30Z</time>
      </trkpt>
      <trkpt lat="48.0284" lon="7.0279">
        <ele>950</ele>
        <time>2021-07-29T10:40:34Z</time>
      </trkpt>
      <trkpt lat="48.0284" lon="7.02791">
        <ele>949.8</ele>
        <time>2021-07-29T10:40:40Z</time>
      </trkpt>
      <trkpt lat="48.02841" lon="7.0279">
        <ele>949.6</ele>
        <time>2021-07-29T10:40:44Z</time>
      </trkpt>
      <trkpt lat="48.02844" lon="7.02787">
        <ele>949</ele>
        <time>2021-07-29T10:40:50Z</time>
      </trkpt>
      <trkpt lat="48.02844" lon="7.02786">
        <ele>948.8</ele>
        <time>2021-07-29T10:40:54Z</time>
      </trkpt>
      <trkpt lat="48.02844" lon="7.02786">
        <ele>948.6</ele>
        <time>2021-07-29T10:41:00Z</time>
      </trkpt>
      <trkpt lat="48.02844" lon="7.02784">
        <ele>948</ele>
        <time>2021-07-29T10:41:04Z</time>
      </trkpt>
      <trkpt lat="48.02846" lon="7.02783">
        <ele>947.4</ele>
        <time>2021-07-29T10:41:07Z</time>
      </trkpt>
      <trkpt lat="48.02849" lon="7.02777">
        <ele>946.8</ele>
        <time>2021-07-29T10:41:12Z</time>
      </trkpt>
      <trkpt lat="48.02851" lon="7.02775">
        <ele>946.6</ele>
        <time>2021-07-29T10:41:14Z</time>
      </trkpt>
      <trkpt lat="48.02853" lon="7.02774">
        <ele>946.4</ele>
        <time>2021-07-29T10:41:16Z</time>
      </trkpt>
      <trkpt lat="48.02858" lon="7.02769">
        <ele>945.8</ele>
        <time>2021-07-29T10:41:22Z</time>
      </trkpt>
      <trkpt lat="48.02859" lon="7.02767">
        <ele>945.6</ele>
        <time>2021-07-29T10:41:24Z</time>
      </trkpt>
      <trkpt lat="48.02862" lon="7.02765">
        <ele>945.2</ele>
        <time>2021-07-29T10:41:26Z</time>
      </trkpt>
      <trkpt lat="48.02869" lon="7.02756">
        <ele>944.8</ele>
        <time>2021-07-29T10:41:32Z</time>
      </trkpt>
      <trkpt lat="48.02871" lon="7.02753">
        <ele>944.4</ele>
        <time>2021-07-29T10:41:34Z</time>
      </trkpt>
      <trkpt lat="48.02875" lon="7.02748">
        <ele>944.2</ele>
        <time>2021-07-29T10:41:38Z</time>
      </trkpt>
      <trkpt lat="48.0288" lon="7.02743">
        <ele>944</ele>
        <time>2021-07-29T10:41:44Z</time>
      </trkpt>
      <trkpt lat="48.02884" lon="7.02736">
        <ele>944</ele>
        <time>2021-07-29T10:41:50Z</time>
      </trkpt>
      <trkpt lat="48.02888" lon="7.02732">
        <ele>944</ele>
        <time>2021-07-29T10:41:54Z</time>
      </trkpt>
      <trkpt lat="48.02898" lon="7.02723">
        <ele>944</ele>
        <time>2021-07-29T10:42:00Z</time>
      </trkpt>
      <trkpt lat="48.02903" lon="7.02718">
        <ele>943.8</ele>
        <time>2021-07-29T10:42:04Z</time>
      </trkpt>
      <trkpt lat="48.0291" lon="7.02709">
        <ele>943.4</ele>
        <time>2021-07-29T10:42:10Z</time>
      </trkpt>
      <trkpt lat="48.02911" lon="7.02703">
        <ele>943</ele>
        <time>2021-07-29T10:42:13Z</time>
      </trkpt>
      <trkpt lat="48.02912" lon="7.02702">
        <ele>942.8</ele>
        <time>2021-07-29T10:42:14Z</time>
      </trkpt>
      <trkpt lat="48.02914" lon="7.02693">
        <ele>942.2</ele>
        <time>2021-07-29T10:42:20Z</time>
      </trkpt>
      <trkpt lat="48.02914" lon="7.02691">
        <ele>942</ele>
        <time>2021-07-29T10:42:21Z</time>
      </trkpt>
      <trkpt lat="48.02912" lon="7.02687">
        <ele>941.8</ele>
        <time>2021-07-29T10:42:24Z</time>
      </trkpt>
      <trkpt lat="48.0291" lon="7.02685">
        <ele>941.6</ele>
        <time>2021-07-29T10:42:26Z</time>
      </trkpt>
      <trkpt lat="48.02906" lon="7.02675">
        <ele>940.8</ele>
        <time>2021-07-29T10:42:32Z</time>
      </trkpt>
      <trkpt lat="48.02905" lon="7.02672">
        <ele>940.8</ele>
        <time>2021-07-29T10:42:34Z</time>
      </trkpt>
      <trkpt lat="48.02903" lon="7.02669">
        <ele>940.8</ele>
        <time>2021-07-29T10:42:36Z</time>
      </trkpt>
      <trkpt lat="48.02904" lon="7.02666">
        <ele>940.8</ele>
        <time>2021-07-29T10:42:39Z</time>
      </trkpt>
      <trkpt lat="48.02906" lon="7.02667">
        <ele>941</ele>
        <time>2021-07-29T10:42:44Z</time>
      </trkpt>
      <trkpt lat="48.02906" lon="7.02661">
        <ele>941.2</ele>
        <time>2021-07-29T10:42:50Z</time>
      </trkpt>
      <trkpt lat="48.02905" lon="7.02659">
        <ele>941.4</ele>
        <time>2021-07-29T10:42:54Z</time>
      </trkpt>
      <trkpt lat="48.02905" lon="7.02659">
        <ele>941.4</ele>
        <time>2021-07-29T10:43:00Z</time>
      </trkpt>
      <trkpt lat="48.02905" lon="7.02659">
        <ele>941.6</ele>
        <time>2021-07-29T10:43:04Z</time>
      </trkpt>
      <trkpt lat="48.02905" lon="7.02661">
        <ele>941</ele>
        <time>2021-07-29T10:43:10Z</time>
      </trkpt>
      <trkpt lat="48.02906" lon="7.02664">
        <ele>941.4</ele>
        <time>2021-07-29T10:43:14Z</time>
      </trkpt>
      <trkpt lat="48.02905" lon="7.02664">
        <ele>941.2</ele>
        <time>2021-07-29T10:43:20Z</time>
      </trkpt>
      <trkpt lat="48.02904" lon="7.02663">
        <ele>941.4</ele>
        <time>2021-07-29T10:43:24Z</time>
      </trkpt>
      <trkpt lat="48.02904" lon="7.02663">
        <ele>941.4</ele>
        <time>2021-07-29T10:43:30Z</time>
      </trkpt>
      <trkpt lat="48.02905" lon="7.02665">
        <ele>941.2</ele>
        <time>2021-07-29T10:43:34Z</time>
      </trkpt>
      <trkpt lat="48.02905" lon="7.02664">
        <ele>940.8</ele>
        <time>2021-07-29T10:43:40Z</time>
      </trkpt>
      <trkpt lat="48.02905" lon="7.02665">
        <ele>941</ele>
        <time>2021-07-29T10:43:44Z</time>
      </trkpt>
      <trkpt lat="48.02905" lon="7.02665">
        <ele>941.2</ele>
        <time>2021-07-29T10:43:50Z</time>
      </trkpt>
      <trkpt lat="48.02905" lon="7.02665">
        <ele>940.8</ele>
        <time>2021-07-29T10:43:54Z</time>
      </trkpt>
      <trkpt lat="48.02906" lon="7.02667">
        <ele>941</ele>
        <time>2021-07-29T10:44:00Z</time>
      </trkpt>
      <trkpt lat="48.02906" lon="7.02667">
        <ele>940.8</ele>
        <time>2021-07-29T10:44:04Z</time>
      </trkpt>
      <trkpt lat="48.02906" lon="7.02667">
        <ele>940.8</ele>
        <time>2021-07-29T10:44:10Z</time>
      </trkpt>
      <trkpt lat="48.02906" lon="7.02667">
        <ele>941</ele>
        <time>2021-07-29T10:44:14Z</time>
      </trkpt>
      <trkpt lat="48.02906" lon="7.02668">
        <ele>940.8</ele>
        <time>2021-07-29T10:44:20Z</time>
      </trkpt>
      <trkpt lat="48.02907" lon="7.02668">
        <ele>940.8</ele>
        <time>2021-07-29T10:44:24Z</time>
      </trkpt>
      <trkpt lat="48.02907" lon="7.02669">
        <ele>940.8</ele>
        <time>2021-07-29T10:44:30Z</time>
      </trkpt>
      <trkpt lat="48.02907" lon="7.02669">
        <ele>940.6</ele>
        <time>2021-07-29T10:44:34Z</time>
      </trkpt>
      <trkpt lat="48.02907" lon="7.02667">
        <ele>940.8</ele>
        <time>2021-07-29T10:44:40Z</time>
      </trkpt>
      <trkpt lat="48.02908" lon="7.02666">
        <ele>940.4</ele>
        <time>2021-07-29T10:44:44Z</time>
      </trkpt>
      <trkpt lat="48.02908" lon="7.02665">
        <ele>940.4</ele>
        <time>2021-07-29T10:44:50Z</time>
      </trkpt>
      <trkpt lat="48.02907" lon="7.02665">
        <ele>940.2</ele>
        <time>2021-07-29T10:44:54Z</time>
      </trkpt>
      <trkpt lat="48.02907" lon="7.02667">
        <ele>940</ele>
        <time>2021-07-29T10:45:00Z</time>
      </trkpt>
      <trkpt lat="48.02907" lon="7.02667">
        <ele>939.8</ele>
        <time>2021-07-29T10:45:01Z</time>
      </trkpt>
      <trkpt lat="48.02907" lon="7.02669">
        <ele>940</ele>
        <time>2021-07-29T10:45:04Z</time>
      </trkpt>
      <trkpt lat="48.02907" lon="7.02671">
        <ele>939.6</ele>
        <time>2021-07-29T10:45:10Z</time>
      </trkpt>
      <trkpt lat="48.02907" lon="7.02671">
        <ele>939</ele>
        <time>2021-07-29T10:45:14Z</time>
      </trkpt>
      <trkpt lat="48.02906" lon="7.02671">
        <ele>939.2</ele>
        <time>2021-07-29T10:45:20Z</time>
      </trkpt>
      <trkpt lat="48.02906" lon="7.02672">
        <ele>939.2</ele>
        <time>2021-07-29T10:45:24Z</time>
      </trkpt>
      <trkpt lat="48.02905" lon="7.02672">
        <ele>938.8</ele>
        <time>2021-07-29T10:45:30Z</time>
      </trkpt>
      <trkpt lat="48.02905" lon="7.02671">
        <ele>939.4</ele>
        <time>2021-07-29T10:45:34Z</time>
      </trkpt>
      <trkpt lat="48.02905" lon="7.02672">
        <ele>940</ele>
        <time>2021-07-29T10:45:40Z</time>
      </trkpt>
      <trkpt lat="48.02906" lon="7.02672">
        <ele>940</ele>
        <time>2021-07-29T10:45:44Z</time>
      </trkpt>
      <trkpt lat="48.02906" lon="7.02672">
        <ele>940.8</ele>
        <time>2021-07-29T10:45:50Z</time>
      </trkpt>
      <trkpt lat="48.02906" lon="7.02672">
        <ele>941</ele>
        <time>2021-07-29T10:45:51Z</time>
      </trkpt>
      <trkpt lat="48.02907" lon="7.02671">
        <ele>941</ele>
        <time>2021-07-29T10:45:54Z</time>
      </trkpt>
      <trkpt lat="48.02905" lon="7.02669">
        <ele>940</ele>
        <time>2021-07-29T10:46:00Z</time>
      </trkpt>
      <trkpt lat="48.02901" lon="7.02666">
        <ele>939.6</ele>
        <time>2021-07-29T10:46:04Z</time>
      </trkpt>
      <trkpt lat="48.02894" lon="7.02659">
        <ele>940.4</ele>
        <time>2021-07-29T10:46:10Z</time>
      </trkpt>
      <trkpt lat="48.0289" lon="7.02653">
        <ele>940.6</ele>
        <time>2021-07-29T10:46:14Z</time>
      </trkpt>
      <trkpt lat="48.02889" lon="7.02652">
        <ele>940.6</ele>
        <time>2021-07-29T10:46:15Z</time>
      </trkpt>
      <trkpt lat="48.0289" lon="7.02654">
        <ele>941</ele>
        <time>2021-07-29T10:46:21Z</time>
      </trkpt>
      <trkpt lat="48.0289" lon="7.02654">
        <ele>940.8</ele>
        <time>2021-07-29T10:46:24Z</time>
      </trkpt>
      <trkpt lat="48.02891" lon="7.02654">
        <ele>941.2</ele>
        <time>2021-07-29T10:46:26Z</time>
      </trkpt>
      <trkpt lat="48.0289" lon="7.02653">
        <ele>941</ele>
        <time>2021-07-29T10:46:32Z</time>
      </trkpt>
      <trkpt lat="48.02888" lon="7.02652">
        <ele>941.2</ele>
        <time>2021-07-29T10:46:34Z</time>
      </trkpt>
      <trkpt lat="48.02882" lon="7.02639">
        <ele>941.2</ele>
        <time>2021-07-29T10:46:40Z</time>
      </trkpt>
      <trkpt lat="48.02879" lon="7.02633">
        <ele>941.4</ele>
        <time>2021-07-29T10:46:44Z</time>
      </trkpt>
      <trkpt lat="48.02878" lon="7.02631">
        <ele>941.6</ele>
        <time>2021-07-29T10:46:46Z</time>
      </trkpt>
      <trkpt lat="48.02873" lon="7.02622">
        <ele>941.8</ele>
        <time>2021-07-29T10:46:52Z</time>
      </trkpt>
      <trkpt lat="48.0287" lon="7.02621">
        <ele>941.6</ele>
        <time>2021-07-29T10:46:54Z</time>
      </trkpt>
      <trkpt lat="48.02867" lon="7.02621">
        <ele>941.4</ele>
        <time>2021-07-29T10:47:00Z</time>
      </trkpt>
      <trkpt lat="48.02867" lon="7.02621">
        <ele>941.2</ele>
        <time>2021-07-29T10:47:04Z</time>
      </trkpt>
      <trkpt lat="48.02868" lon="7.02621">
        <ele>941.4</ele>
        <time>2021-07-29T10:47:10Z</time>
      </trkpt>
      <trkpt lat="48.02866" lon="7.02616">
        <ele>941.2</ele>
        <time>2021-07-29T10:47:14Z</time>
      </trkpt>
      <trkpt lat="48.02863" lon="7.02605">
        <ele>941</ele>
        <time>2021-07-29T10:47:20Z</time>
      </trkpt>
      <trkpt lat="48.0286" lon="7.02595">
        <ele>941</ele>
        <time>2021-07-29T10:47:24Z</time>
      </trkpt>
      <trkpt lat="48.02854" lon="7.02582">
        <ele>941</ele>
        <time>2021-07-29T10:47:30Z</time>
      </trkpt>
      <trkpt lat="48.02853" lon="7.02577">
        <ele>940.8</ele>
        <time>2021-07-29T10:47:34Z</time>
      </trkpt>
      <trkpt lat="48.02853" lon="7.02573">
        <ele>941</ele>
        <time>2021-07-29T10:47:37Z</time>
      </trkpt>
      <trkpt lat="48.0285" lon="7.02566">
        <ele>940.8</ele>
        <time>2021-07-29T10:47:43Z</time>
      </trkpt>
      <trkpt lat="48.0285" lon="7.02564">
        <ele>940.8</ele>
        <time>2021-07-29T10:47:44Z</time>
      </trkpt>
      <trkpt lat="48.02848" lon="7.02555">
        <ele>940.8</ele>
        <time>2021-07-29T10:47:50Z</time>
      </trkpt>
      <trkpt lat="48.02849" lon="7.02547">
        <ele>941</ele>
        <time>2021-07-29T10:47:55Z</time>
      </trkpt>
      <trkpt lat="48.02854" lon="7.02533">
        <ele>941.8</ele>
        <time>2021-07-29T10:48:01Z</time>
      </trkpt>
      <trkpt lat="48.02856" lon="7.02527">
        <ele>942.2</ele>
        <time>2021-07-29T10:48:04Z</time>
      </trkpt>
      <trkpt lat="48.02856" lon="7.02526">
        <ele>942.4</ele>
        <time>2021-07-29T10:48:05Z</time>
      </trkpt>
      <trkpt lat="48.02857" lon="7.02513">
        <ele>943.2</ele>
        <time>2021-07-29T10:48:11Z</time>
      </trkpt>
      <trkpt lat="48.02858" lon="7.02511">
        <ele>943.2</ele>
        <time>2021-07-29T10:48:12Z</time>
      </trkpt>
      <trkpt lat="48.02859" lon="7.02504">
        <ele>943.4</ele>
        <time>2021-07-29T10:48:15Z</time>
      </trkpt>
      <trkpt lat="48.02859" lon="7.02495">
        <ele>943.8</ele>
        <time>2021-07-29T10:48:21Z</time>
      </trkpt>
      <trkpt lat="48.02861" lon="7.02493">
        <ele>943.8</ele>
        <time>2021-07-29T10:48:25Z</time>
      </trkpt>
      <trkpt lat="48.02863" lon="7.0249">
        <ele>944</ele>
        <time>2021-07-29T10:48:31Z</time>
      </trkpt>
      <trkpt lat="48.02862" lon="7.02489">
        <ele>943.6</ele>
        <time>2021-07-29T10:48:35Z</time>
      </trkpt>
      <trkpt lat="48.02863" lon="7.02491">
        <ele>943.8</ele>
        <time>2021-07-29T10:48:41Z</time>
      </trkpt>
      <trkpt lat="48.02864" lon="7.0249">
        <ele>943.6</ele>
        <time>2021-07-29T10:48:45Z</time>
      </trkpt>
      <trkpt lat="48.02864" lon="7.02495">
        <ele>943.2</ele>
        <time>2021-07-29T10:48:51Z</time>
      </trkpt>
      <trkpt lat="48.02864" lon="7.02499">
        <ele>943.2</ele>
        <time>2021-07-29T10:48:55Z</time>
      </trkpt>
      <trkpt lat="48.02864" lon="7.02506">
        <ele>942.4</ele>
        <time>2021-07-29T10:49:01Z</time>
      </trkpt>
      <trkpt lat="48.02865" lon="7.02509">
        <ele>942.4</ele>
        <time>2021-07-29T10:49:05Z</time>
      </trkpt>
      <trkpt lat="48.02863" lon="7.02513">
        <ele>942.2</ele>
        <time>2021-07-29T10:49:11Z</time>
      </trkpt>
      <trkpt lat="48.02862" lon="7.02513">
        <ele>942</ele>
        <time>2021-07-29T10:49:15Z</time>
      </trkpt>
      <trkpt lat="48.02862" lon="7.02517">
        <ele>942.2</ele>
        <time>2021-07-29T10:49:21Z</time>
      </trkpt>
      <trkpt lat="48.02862" lon="7.02519">
        <ele>942</ele>
        <time>2021-07-29T10:49:25Z</time>
      </trkpt>
      <trkpt lat="48.02863" lon="7.02522">
        <ele>941.2</ele>
        <time>2021-07-29T10:49:28Z</time>
      </trkpt>
      <trkpt lat="48.0286" lon="7.02528">
        <ele>940.2</ele>
        <time>2021-07-29T10:49:33Z</time>
      </trkpt>
      <trkpt lat="48.02859" lon="7.02529">
        <ele>940.2</ele>
        <time>2021-07-29T10:49:34Z</time>
      </trkpt>
      <trkpt lat="48.02859" lon="7.02531">
        <ele>940</ele>
        <time>2021-07-29T10:49:35Z</time>
      </trkpt>
      <trkpt lat="48.02857" lon="7.02536">
        <ele>940</ele>
        <time>2021-07-29T10:49:41Z</time>
      </trkpt>
      <trkpt lat="48.02859" lon="7.0254">
        <ele>939.8</ele>
        <time>2021-07-29T10:49:45Z</time>
      </trkpt>
      <trkpt lat="48.02864" lon="7.02546">
        <ele>939.4</ele>
        <time>2021-07-29T10:49:51Z</time>
      </trkpt>
      <trkpt lat="48.02865" lon="7.02551">
        <ele>940</ele>
        <time>2021-07-29T10:49:55Z</time>
      </trkpt>
      <trkpt lat="48.02864" lon="7.0256">
        <ele>939.6</ele>
        <time>2021-07-29T10:50:01Z</time>
      </trkpt>
      <trkpt lat="48.02864" lon="7.02561">
        <ele>940.4</ele>
        <time>2021-07-29T10:50:03Z</time>
      </trkpt>
      <trkpt lat="48.02863" lon="7.02563">
        <ele>939.6</ele>
        <time>2021-07-29T10:50:05Z</time>
      </trkpt>
      <trkpt lat="48.02861" lon="7.02565">
        <ele>940.2</ele>
        <time>2021-07-29T10:50:08Z</time>
      </trkpt>
      <trkpt lat="48.0286" lon="7.02564">
        <ele>939.8</ele>
        <time>2021-07-29T10:50:14Z</time>
      </trkpt>
      <trkpt lat="48.0286" lon="7.02565">
        <ele>939.4</ele>
        <time>2021-07-29T10:50:15Z</time>
      </trkpt>
      <trkpt lat="48.02864" lon="7.02574">
        <ele>939.6</ele>
        <time>2021-07-29T10:50:21Z</time>
      </trkpt>
      <trkpt lat="48.02866" lon="7.02581">
        <ele>939.6</ele>
        <time>2021-07-29T10:50:25Z</time>
      </trkpt>
      <trkpt lat="48.0287" lon="7.02595">
        <ele>939.8</ele>
        <time>2021-07-29T10:50:31Z</time>
      </trkpt>
      <trkpt lat="48.02873" lon="7.02604">
        <ele>939.8</ele>
        <time>2021-07-29T10:50:35Z</time>
      </trkpt>
      <trkpt lat="48.02875" lon="7.02618">
        <ele>940</ele>
        <time>2021-07-29T10:50:41Z</time>
      </trkpt>
      <trkpt lat="48.02877" lon="7.02625">
        <ele>940.4</ele>
        <time>2021-07-29T10:50:45Z</time>
      </trkpt>
      <trkpt lat="48.02881" lon="7.02636">
        <ele>940.4</ele>
        <time>2021-07-29T10:50:51Z</time>
      </trkpt>
      <trkpt lat="48.02883" lon="7.02639">
        <ele>940.2</ele>
        <time>2021-07-29T10:50:54Z</time>
      </trkpt>
      <trkpt lat="48.02884" lon="7.02639">
        <ele>940.4</ele>
        <time>2021-07-29T10:50:55Z</time>
      </trkpt>
      <trkpt lat="48.02889" lon="7.02646">
        <ele>940.4</ele>
        <time>2021-07-29T10:51:01Z</time>
      </trkpt>
      <trkpt lat="48.02892" lon="7.02653">
        <ele>940.4</ele>
        <time>2021-07-29T10:51:05Z</time>
      </trkpt>
      <trkpt lat="48.02901" lon="7.02667">
        <ele>940.2</ele>
        <time>2021-07-29T10:51:11Z</time>
      </trkpt>
      <trkpt lat="48.02906" lon="7.02674">
        <ele>940</ele>
        <time>2021-07-29T10:51:15Z</time>
      </trkpt>
      <trkpt lat="48.02915" lon="7.02683">
        <ele>940</ele>
        <time>2021-07-29T10:51:21Z</time>
      </trkpt>
      <trkpt lat="48.0292" lon="7.02688">
        <ele>940.2</ele>
        <time>2021-07-29T10:51:25Z</time>
      </trkpt>
      <trkpt lat="48.02921" lon="7.02688">
        <ele>940</ele>
        <time>2021-07-29T10:51:26Z</time>
      </trkpt>
      <trkpt lat="48.02923" lon="7.02687">
        <ele>940.4</ele>
        <time>2021-07-29T10:51:28Z</time>
      </trkpt>
      <trkpt lat="48.02923" lon="7.02686">
        <ele>940.8</ele>
        <time>2021-07-29T10:51:30Z</time>
      </trkpt>
      <trkpt lat="48.02923" lon="7.02687">
        <ele>940.4</ele>
        <time>2021-07-29T10:51:35Z</time>
      </trkpt>
      <trkpt lat="48.02923" lon="7.02686">
        <ele>940</ele>
        <time>2021-07-29T10:51:41Z</time>
      </trkpt>
      <trkpt lat="48.02923" lon="7.02686">
        <ele>939.8</ele>
        <time>2021-07-29T10:51:45Z</time>
      </trkpt>
      <trkpt lat="48.02923" lon="7.02686">
        <ele>939.8</ele>
        <time>2021-07-29T10:51:51Z</time>
      </trkpt>
      <trkpt lat="48.02923" lon="7.02686">
        <ele>940</ele>
        <time>2021-07-29T10:51:55Z</time>
      </trkpt>
      <trkpt lat="48.02923" lon="7.02686">
        <ele>940.4</ele>
        <time>2021-07-29T10:52:01Z</time>
      </trkpt>
      <trkpt lat="48.02923" lon="7.02686">
        <ele>940.4</ele>
        <time>2021-07-29T10:52:05Z</time>
      </trkpt>
      <trkpt lat="48.02923" lon="7.02687">
        <ele>940.6</ele>
        <time>2021-07-29T10:52:11Z</time>
      </trkpt>
      <trkpt lat="48.02922" lon="7.02686">
        <ele>940.6</ele>
        <time>2021-07-29T10:52:15Z</time>
      </trkpt>
      <trkpt lat="48.02922" lon="7.02686">
        <ele>940.8</ele>
        <time>2021-07-29T10:52:21Z</time>
      </trkpt>
      <trkpt lat="48.02922" lon="7.02686">
        <ele>941</ele>
        <time>2021-07-29T10:52:25Z</time>
      </trkpt>
      <trkpt lat="48.02922" lon="7.02686">
        <ele>940.8</ele>
        <time>2021-07-29T10:52:31Z</time>
      </trkpt>
      <trkpt lat="48.02922" lon="7.02687">
        <ele>940.8</ele>
        <time>2021-07-29T10:52:35Z</time>
      </trkpt>
      <trkpt lat="48.02922" lon="7.02687">
        <ele>940.6</ele>
        <time>2021-07-29T10:52:41Z</time>
      </trkpt>
      <trkpt lat="48.02922" lon="7.02688">
        <ele>940.2</ele>
        <time>2021-07-29T10:52:46Z</time>
      </trkpt>
      <trkpt lat="48.02922" lon="7.02689">
        <ele>939.8</ele>
        <time>2021-07-29T10:52:52Z</time>
      </trkpt>
      <trkpt lat="48.02922" lon="7.02688">
        <ele>939.8</ele>
        <time>2021-07-29T10:52:58Z</time>
      </trkpt>
      <trkpt lat="48.02922" lon="7.02689">
        <ele>940.2</ele>
        <time>2021-07-29T10:53:04Z</time>
      </trkpt>
      <trkpt lat="48.02922" lon="7.02689">
        <ele>940.4</ele>
        <time>2021-07-29T10:53:08Z</time>
      </trkpt>
      <trkpt lat="48.02922" lon="7.02689">
        <ele>940.2</ele>
        <time>2021-07-29T10:53:14Z</time>
      </trkpt>
      <trkpt lat="48.02922" lon="7.02689">
        <ele>940.2</ele>
        <time>2021-07-29T10:53:18Z</time>
      </trkpt>
      <trkpt lat="48.02922" lon="7.02689">
        <ele>940.4</ele>
        <time>2021-07-29T10:53:24Z</time>
      </trkpt>
      <trkpt lat="48.02922" lon="7.02689">
        <ele>940</ele>
        <time>2021-07-29T10:53:28Z</time>
      </trkpt>
      <trkpt lat="48.02922" lon="7.02689">
        <ele>939.6</ele>
        <time>2021-07-29T10:53:34Z</time>
      </trkpt>
      <trkpt lat="48.02922" lon="7.02689">
        <ele>939.4</ele>
        <time>2021-07-29T10:53:38Z</time>
      </trkpt>
      <trkpt lat="48.02922" lon="7.02689">
        <ele>939.4</ele>
        <time>2021-07-29T10:53:44Z</time>
      </trkpt>
      <trkpt lat="48.02922" lon="7.02689">
        <ele>939.4</ele>
        <time>2021-07-29T10:53:48Z</time>
      </trkpt>
      <trkpt lat="48.02922" lon="7.02689">
        <ele>939.8</ele>
        <time>2021-07-29T10:53:54Z</time>
      </trkpt>
      <trkpt lat="48.02922" lon="7.02689">
        <ele>939.6</ele>
        <time>2021-07-29T10:53:58Z</time>
      </trkpt>
      <trkpt lat="48.02922" lon="7.02689">
        <ele>939.8</ele>
        <time>2021-07-29T10:54:04Z</time>
      </trkpt>
      <trkpt lat="48.02922" lon="7.02689">
        <ele>940.6</ele>
        <time>2021-07-29T10:54:08Z</time>
      </trkpt>
      <trkpt lat="48.02922" lon="7.02689">
        <ele>940.6</ele>
        <time>2021-07-29T10:54:14Z</time>
      </trkpt>
      <trkpt lat="48.02922" lon="7.02689">
        <ele>940.6</ele>
        <time>2021-07-29T10:54:18Z</time>
      </trkpt>
      <trkpt lat="48.02922" lon="7.02689">
        <ele>940.4</ele>
        <time>2021-07-29T10:54:24Z</time>
      </trkpt>
      <trkpt lat="48.02922" lon="7.02689">
        <ele>940.2</ele>
        <time>2021-07-29T10:54:28Z</time>
      </trkpt>
      <trkpt lat="48.02922" lon="7.02689">
        <ele>940.4</ele>
        <time>2021-07-29T10:54:34Z</time>
      </trkpt>
      <trkpt lat="48.02922" lon="7.02689">
        <ele>940.4</ele>
        <time>2021-07-29T10:54:38Z</time>
      </trkpt>
      <trkpt lat="48.02922" lon="7.02689">
        <ele>940</ele>
        <time>2021-07-29T10:54:44Z</time>
      </trkpt>
      <trkpt lat="48.02922" lon="7.02689">
        <ele>940</ele>
        <time>2021-07-29T10:54:48Z</time>
      </trkpt>
      <trkpt lat="48.02921" lon="7.02689">
        <ele>940</ele>
        <time>2021-07-29T10:54:54Z</time>
      </trkpt>
      <trkpt lat="48.02921" lon="7.02689">
        <ele>940</ele>
        <time>2021-07-29T10:54:58Z</time>
      </trkpt>
      <trkpt lat="48.02921" lon="7.02689">
        <ele>940.2</ele>
        <time>2021-07-29T10:55:04Z</time>
      </trkpt>
      <trkpt lat="48.02921" lon="7.02689">
        <ele>940.4</ele>
        <time>2021-07-29T10:55:08Z</time>
      </trkpt>
      <trkpt lat="48.02921" lon="7.02689">
        <ele>940</ele>
        <time>2021-07-29T10:55:14Z</time>
      </trkpt>
      <trkpt lat="48.02921" lon="7.02689">
        <ele>940.2</ele>
        <time>2021-07-29T10:55:18Z</time>
      </trkpt>
      <trkpt lat="48.02921" lon="7.02689">
        <ele>939.8</ele>
        <time>2021-07-29T10:55:24Z</time>
      </trkpt>
      <trkpt lat="48.02921" lon="7.02689">
        <ele>939.8</ele>
        <time>2021-07-29T10:55:28Z</time>
      </trkpt>
      <trkpt lat="48.02921" lon="7.02689">
        <ele>940</ele>
        <time>2021-07-29T10:55:34Z</time>
      </trkpt>
      <trkpt lat="48.02921" lon="7.02689">
        <ele>940</ele>
        <time>2021-07-29T10:55:38Z</time>
      </trkpt>
      <trkpt lat="48.02921" lon="7.02689">
        <ele>939.8</ele>
        <time>2021-07-29T10:55:44Z</time>
      </trkpt>
      <trkpt lat="48.02921" lon="7.02689">
        <ele>939.6</ele>
        <time>2021-07-29T10:55:48Z</time>
      </trkpt>
      <trkpt lat="48.02921" lon="7.02689">
        <ele>939.6</ele>
        <time>2021-07-29T10:55:54Z</time>
      </trkpt>
      <trkpt lat="48.02921" lon="7.02689">
        <ele>939.8</ele>
        <time>2021-07-29T10:55:58Z</time>
      </trkpt>
      <trkpt lat="48.02921" lon="7.02689">
        <ele>939.8</ele>
        <time>2021-07-29T10:56:04Z</time>
      </trkpt>
      <trkpt lat="48.02921" lon="7.02689">
        <ele>939.8</ele>
        <time>2021-07-29T10:56:08Z</time>
      </trkpt>
      <trkpt lat="48.02921" lon="7.02689">
        <ele>939.8</ele>
        <time>2021-07-29T10:56:14Z</time>
      </trkpt>
      <trkpt lat="48.02921" lon="7.02689">
        <ele>939.6</ele>
        <time>2021-07-29T10:56:18Z</time>
      </trkpt>
      <trkpt lat="48.02921" lon="7.02689">
        <ele>939.8</ele>
        <time>2021-07-29T10:56:24Z</time>
      </trkpt>
      <trkpt lat="48.02921" lon="7.02689">
        <ele>939.8</ele>
        <time>2021-07-29T10:56:28Z</time>
      </trkpt>
      <trkpt lat="48.02921" lon="7.02689">
        <ele>939.4</ele>
        <time>2021-07-29T10:56:34Z</time>
      </trkpt>
      <trkpt lat="48.02921" lon="7.02689">
        <ele>939</ele>
        <time>2021-07-29T10:56:38Z</time>
      </trkpt>
      <trkpt lat="48.02921" lon="7.02689">
        <ele>939</ele>
        <time>2021-07-29T10:56:39Z</time>
      </trkpt>
      <trkpt lat="48.02921" lon="7.02689">
        <ele>938.8</ele>
        <time>2021-07-29T10:56:45Z</time>
      </trkpt>
      <trkpt lat="48.02921" lon="7.02688">
        <ele>938.8</ele>
        <time>2021-07-29T10:56:48Z</time>
      </trkpt>
      <trkpt lat="48.02921" lon="7.02688">
        <ele>938.8</ele>
        <time>2021-07-29T10:56:54Z</time>
      </trkpt>
      <trkpt lat="48.02921" lon="7.02688">
        <ele>938.8</ele>
        <time>2021-07-29T10:56:58Z</time>
      </trkpt>
      <trkpt lat="48.02921" lon="7.02688">
        <ele>939.4</ele>
        <time>2021-07-29T10:57:04Z</time>
      </trkpt>
      <trkpt lat="48.02921" lon="7.02688">
        <ele>939</ele>
        <time>2021-07-29T10:57:08Z</time>
      </trkpt>
      <trkpt lat="48.02921" lon="7.02688">
        <ele>939.4</ele>
        <time>2021-07-29T10:57:14Z</time>
      </trkpt>
      <trkpt lat="48.02921" lon="7.02688">
        <ele>939.6</ele>
        <time>2021-07-29T10:57:18Z</time>
      </trkpt>
      <trkpt lat="48.02921" lon="7.02688">
        <ele>939.4</ele>
        <time>2021-07-29T10:57:24Z</time>
      </trkpt>
      <trkpt lat="48.02921" lon="7.02688">
        <ele>939.8</ele>
        <time>2021-07-29T10:57:28Z</time>
      </trkpt>
      <trkpt lat="48.02921" lon="7.02688">
        <ele>939.6</ele>
        <time>2021-07-29T10:57:34Z</time>
      </trkpt>
      <trkpt lat="48.02921" lon="7.02688">
        <ele>939.6</ele>
        <time>2021-07-29T10:57:38Z</time>
      </trkpt>
      <trkpt lat="48.02921" lon="7.02688">
        <ele>939.4</ele>
        <time>2021-07-29T10:57:44Z</time>
      </trkpt>
      <trkpt lat="48.02921" lon="7.02688">
        <ele>939.4</ele>
        <time>2021-07-29T10:57:48Z</time>
      </trkpt>
      <trkpt lat="48.02921" lon="7.02688">
        <ele>939</ele>
        <time>2021-07-29T10:57:54Z</time>
      </trkpt>
      <trkpt lat="48.02921" lon="7.02688">
        <ele>938.8</ele>
        <time>2021-07-29T10:57:58Z</time>
      </trkpt>
      <trkpt lat="48.02921" lon="7.02688">
        <ele>938.4</ele>
        <time>2021-07-29T10:58:04Z</time>
      </trkpt>
      <trkpt lat="48.02921" lon="7.02688">
        <ele>938.6</ele>
        <time>2021-07-29T10:58:08Z</time>
      </trkpt>
      <trkpt lat="48.02921" lon="7.02687">
        <ele>938.8</ele>
        <time>2021-07-29T10:58:14Z</time>
      </trkpt>
      <trkpt lat="48.02921" lon="7.02687">
        <ele>939</ele>
        <time>2021-07-29T10:58:18Z</time>
      </trkpt>
      <trkpt lat="48.02921" lon="7.02687">
        <ele>939.2</ele>
        <time>2021-07-29T10:58:24Z</time>
      </trkpt>
      <trkpt lat="48.02921" lon="7.02687">
        <ele>939.2</ele>
        <time>2021-07-29T10:58:28Z</time>
      </trkpt>
      <trkpt lat="48.02921" lon="7.02686">
        <ele>939.4</ele>
        <time>2021-07-29T10:58:34Z</time>
      </trkpt>
      <trkpt lat="48.02921" lon="7.02686">
        <ele>939.2</ele>
        <time>2021-07-29T10:58:38Z</time>
      </trkpt>
      <trkpt lat="48.02921" lon="7.02686">
        <ele>938.6</ele>
        <time>2021-07-29T10:58:44Z</time>
      </trkpt>
      <trkpt lat="48.02921" lon="7.02686">
        <ele>938.8</ele>
        <time>2021-07-29T10:58:48Z</time>
      </trkpt>
      <trkpt lat="48.02921" lon="7.02686">
        <ele>939</ele>
        <time>2021-07-29T10:58:54Z</time>
      </trkpt>
      <trkpt lat="48.02921" lon="7.02686">
        <ele>938.8</ele>
        <time>2021-07-29T10:58:58Z</time>
      </trkpt>
      <trkpt lat="48.02921" lon="7.02686">
        <ele>938.6</ele>
        <time>2021-07-29T10:59:04Z</time>
      </trkpt>
      <trkpt lat="48.02921" lon="7.02686">
        <ele>938.8</ele>
        <time>2021-07-29T10:59:08Z</time>
      </trkpt>
      <trkpt lat="48.02921" lon="7.02687">
        <ele>939.2</ele>
        <time>2021-07-29T10:59:14Z</time>
      </trkpt>
      <trkpt lat="48.02921" lon="7.02688">
        <ele>939.4</ele>
        <time>2021-07-29T10:59:18Z</time>
      </trkpt>
      <trkpt lat="48.02921" lon="7.02688">
        <ele>939.6</ele>
        <time>2021-07-29T10:59:24Z</time>
      </trkpt>
      <trkpt lat="48.02921" lon="7.02688">
        <ele>939.6</ele>
        <time>2021-07-29T10:59:28Z</time>
      </trkpt>
      <trkpt lat="48.02921" lon="7.02688">
        <ele>940.2</ele>
        <time>2021-07-29T10:59:31Z</time>
      </trkpt>
      <trkpt lat="48.0292" lon="7.02687">
        <ele>940.8</ele>
        <time>2021-07-29T10:59:37Z</time>
      </trkpt>
      <trkpt lat="48.0292" lon="7.02687">
        <ele>940.8</ele>
        <time>2021-07-29T10:59:38Z</time>
      </trkpt>
      <trkpt lat="48.0292" lon="7.02687">
        <ele>941.2</ele>
        <time>2021-07-29T10:59:40Z</time>
      </trkpt>
      <trkpt lat="48.0292" lon="7.02687">
        <ele>941.6</ele>
        <time>2021-07-29T10:59:46Z</time>
      </trkpt>
      <trkpt lat="48.0292" lon="7.02687">
        <ele>941.6</ele>
        <time>2021-07-29T10:59:48Z</time>
      </trkpt>
      <trkpt lat="48.02921" lon="7.02687">
        <ele>941.8</ele>
        <time>2021-07-29T10:59:54Z</time>
      </trkpt>
      <trkpt lat="48.0292" lon="7.02687">
        <ele>941.8</ele>
        <time>2021-07-29T10:59:58Z</time>
      </trkpt>
      <trkpt lat="48.0292" lon="7.02687">
        <ele>941.8</ele>
        <time>2021-07-29T11:00:04Z</time>
      </trkpt>
      <trkpt lat="48.0292" lon="7.02687">
        <ele>941.8</ele>
        <time>2021-07-29T11:00:08Z</time>
      </trkpt>
      <trkpt lat="48.0292" lon="7.02687">
        <ele>942.4</ele>
        <time>2021-07-29T11:00:14Z</time>
      </trkpt>
      <trkpt lat="48.0292" lon="7.02687">
        <ele>942.8</ele>
        <time>2021-07-29T11:00:18Z</time>
      </trkpt>
      <trkpt lat="48.0292" lon="7.02686">
        <ele>942</ele>
        <time>2021-07-29T11:00:24Z</time>
      </trkpt>
      <trkpt lat="48.0292" lon="7.02686">
        <ele>942</ele>
        <time>2021-07-29T11:00:28Z</time>
      </trkpt>
      <trkpt lat="48.02921" lon="7.02686">
        <ele>942</ele>
        <time>2021-07-29T11:00:34Z</time>
      </trkpt>
      <trkpt lat="48.0292" lon="7.02685">
        <ele>941.8</ele>
        <time>2021-07-29T11:00:38Z</time>
      </trkpt>
      <trkpt lat="48.0292" lon="7.02685">
        <ele>941.6</ele>
        <time>2021-07-29T11:00:44Z</time>
      </trkpt>
      <trkpt lat="48.0292" lon="7.02685">
        <ele>941.4</ele>
        <time>2021-07-29T11:00:48Z</time>
      </trkpt>
      <trkpt lat="48.02919" lon="7.02686">
        <ele>940.8</ele>
        <time>2021-07-29T11:00:54Z</time>
      </trkpt>
      <trkpt lat="48.0292" lon="7.02686">
        <ele>941</ele>
        <time>2021-07-29T11:00:58Z</time>
      </trkpt>
      <trkpt lat="48.02919" lon="7.02686">
        <ele>940.8</ele>
        <time>2021-07-29T11:01:04Z</time>
      </trkpt>
      <trkpt lat="48.02919" lon="7.02686">
        <ele>940.6</ele>
        <time>2021-07-29T11:01:08Z</time>
      </trkpt>
      <trkpt lat="48.02919" lon="7.02686">
        <ele>941.2</ele>
        <time>2021-07-29T11:01:14Z</time>
      </trkpt>
      <trkpt lat="48.02919" lon="7.02686">
        <ele>941.4</ele>
        <time>2021-07-29T11:01:18Z</time>
      </trkpt>
      <trkpt lat="48.02918" lon="7.02686">
        <ele>941</ele>
        <time>2021-07-29T11:01:24Z</time>
      </trkpt>
      <trkpt lat="48.02918" lon="7.02686">
        <ele>941</ele>
        <time>2021-07-29T11:01:28Z</time>
      </trkpt>
      <trkpt lat="48.02918" lon="7.02687">
        <ele>940.4</ele>
        <time>2021-07-29T11:01:32Z</time>
      </trkpt>
      <trkpt lat="48.02918" lon="7.02686">
        <ele>940</ele>
        <time>2021-07-29T11:01:38Z</time>
      </trkpt>
      <trkpt lat="48.02918" lon="7.02686">
        <ele>940.2</ele>
        <time>2021-07-29T11:01:44Z</time>
      </trkpt>
      <trkpt lat="48.02918" lon="7.02686">
        <ele>939.8</ele>
        <time>2021-07-29T11:01:48Z</time>
      </trkpt>
      <trkpt lat="48.02918" lon="7.02687">
        <ele>939.8</ele>
        <time>2021-07-29T11:01:54Z</time>
      </trkpt>
      <trkpt lat="48.02918" lon="7.02687">
        <ele>939.8</ele>
        <time>2021-07-29T11:01:58Z</time>
      </trkpt>
      <trkpt lat="48.02918" lon="7.02687">
        <ele>939.8</ele>
        <time>2021-07-29T11:02:04Z</time>
      </trkpt>
      <trkpt lat="48.02918" lon="7.02687">
        <ele>940</ele>
        <time>2021-07-29T11:02:08Z</time>
      </trkpt>
      <trkpt lat="48.02918" lon="7.02686">
        <ele>939.8</ele>
        <time>2021-07-29T11:02:14Z</time>
      </trkpt>
      <trkpt lat="48.02918" lon="7.02686">
        <ele>939.6</ele>
        <time>2021-07-29T11:02:18Z</time>
      </trkpt>
      <trkpt lat="48.02918" lon="7.02686">
        <ele>939.6</ele>
        <time>2021-07-29T11:02:24Z</time>
      </trkpt>
      <trkpt lat="48.02918" lon="7.02686">
        <ele>939.6</ele>
        <time>2021-07-29T11:02:28Z</time>
      </trkpt>
      <trkpt lat="48.02918" lon="7.02686">
        <ele>940</ele>
        <time>2021-07-29T11:02:34Z</time>
      </trkpt>
      <trkpt lat="48.02918" lon="7.02686">
        <ele>939.4</ele>
        <time>2021-07-29T11:02:38Z</time>
      </trkpt>
      <trkpt lat="48.02918" lon="7.02686">
        <ele>939.4</ele>
        <time>2021-07-29T11:02:44Z</time>
      </trkpt>
      <trkpt lat="48.02918" lon="7.02686">
        <ele>939.2</ele>
        <time>2021-07-29T11:02:47Z</time>
      </trkpt>
      <trkpt lat="48.02918" lon="7.02686">
        <ele>939</ele>
        <time>2021-07-29T11:02:48Z</time>
      </trkpt>
      <trkpt lat="48.02918" lon="7.02686">
        <ele>939.4</ele>
        <time>2021-07-29T11:02:54Z</time>
      </trkpt>
      <trkpt lat="48.02918" lon="7.02685">
        <ele>939.2</ele>
        <time>2021-07-29T11:02:58Z</time>
      </trkpt>
      <trkpt lat="48.02918" lon="7.02685">
        <ele>939.8</ele>
        <time>2021-07-29T11:03:04Z</time>
      </trkpt>
      <trkpt lat="48.02918" lon="7.02685">
        <ele>940</ele>
        <time>2021-07-29T11:03:08Z</time>
      </trkpt>
      <trkpt lat="48.02918" lon="7.02685">
        <ele>940.2</ele>
        <time>2021-07-29T11:03:14Z</time>
      </trkpt>
      <trkpt lat="48.02918" lon="7.02685">
        <ele>940.2</ele>
        <time>2021-07-29T11:03:16Z</time>
      </trkpt>
      <trkpt lat="48.02918" lon="7.02685">
        <ele>940</ele>
        <time>2021-07-29T11:03:18Z</time>
      </trkpt>
      <trkpt lat="48.02918" lon="7.02684">
        <ele>940.8</ele>
        <time>2021-07-29T11:03:24Z</time>
      </trkpt>
      <trkpt lat="48.02919" lon="7.02685">
        <ele>940.6</ele>
        <time>2021-07-29T11:03:28Z</time>
      </trkpt>
      <trkpt lat="48.02919" lon="7.02685">
        <ele>941</ele>
        <time>2021-07-29T11:03:34Z</time>
      </trkpt>
      <trkpt lat="48.02918" lon="7.02684">
        <ele>940.6</ele>
        <time>2021-07-29T11:03:38Z</time>
      </trkpt>
      <trkpt lat="48.02919" lon="7.02685">
        <ele>941</ele>
        <time>2021-07-29T11:03:44Z</time>
      </trkpt>
      <trkpt lat="48.02919" lon="7.02685">
        <ele>941.4</ele>
        <time>2021-07-29T11:03:46Z</time>
      </trkpt>
      <trkpt lat="48.02918" lon="7.02685">
        <ele>941.6</ele>
        <time>2021-07-29T11:03:48Z</time>
      </trkpt>
      <trkpt lat="48.02918" lon="7.02686">
        <ele>940.6</ele>
        <time>2021-07-29T11:03:54Z</time>
      </trkpt>
      <trkpt lat="48.02918" lon="7.02686">
        <ele>941</ele>
        <time>2021-07-29T11:03:58Z</time>
      </trkpt>
      <trkpt lat="48.02919" lon="7.02686">
        <ele>940.8</ele>
        <time>2021-07-29T11:04:04Z</time>
      </trkpt>
      <trkpt lat="48.02919" lon="7.02686">
        <ele>940.8</ele>
        <time>2021-07-29T11:04:08Z</time>
      </trkpt>
      <trkpt lat="48.02919" lon="7.02686">
        <ele>941</ele>
        <time>2021-07-29T11:04:14Z</time>
      </trkpt>
      <trkpt lat="48.02919" lon="7.02686">
        <ele>941.2</ele>
        <time>2021-07-29T11:04:18Z</time>
      </trkpt>
      <trkpt lat="48.02919" lon="7.02686">
        <ele>941.4</ele>
        <time>2021-07-29T11:04:24Z</time>
      </trkpt>
      <trkpt lat="48.0292" lon="7.02686">
        <ele>941.4</ele>
        <time>2021-07-29T11:04:28Z</time>
      </trkpt>
      <trkpt lat="48.0292" lon="7.02687">
        <ele>941.6</ele>
        <time>2021-07-29T11:04:34Z</time>
      </trkpt>
      <trkpt lat="48.0292" lon="7.02686">
        <ele>941.6</ele>
        <time>2021-07-29T11:04:38Z</time>
      </trkpt>
      <trkpt lat="48.0292" lon="7.02686">
        <ele>941.2</ele>
        <time>2021-07-29T11:04:44Z</time>
      </trkpt>
      <trkpt lat="48.02921" lon="7.02686">
        <ele>941.6</ele>
        <time>2021-07-29T11:04:48Z</time>
      </trkpt>
      <trkpt lat="48.02921" lon="7.02686">
        <ele>941.4</ele>
        <time>2021-07-29T11:04:54Z</time>
      </trkpt>
      <trkpt lat="48.02921" lon="7.02687">
        <ele>940.8</ele>
        <time>2021-07-29T11:04:58Z</time>
      </trkpt>
      <trkpt lat="48.02921" lon="7.02689">
        <ele>940.8</ele>
        <time>2021-07-29T11:05:04Z</time>
      </trkpt>
      <trkpt lat="48.02921" lon="7.02689">
        <ele>940.8</ele>
        <time>2021-07-29T11:05:08Z</time>
      </trkpt>
      <trkpt lat="48.02921" lon="7.02689">
        <ele>940.2</ele>
        <time>2021-07-29T11:05:11Z</time>
      </trkpt>
      <trkpt lat="48.02921" lon="7.02689">
        <ele>939.2</ele>
        <time>2021-07-29T11:05:17Z</time>
      </trkpt>
      <trkpt lat="48.02921" lon="7.02689">
        <ele>939</ele>
        <time>2021-07-29T11:05:18Z</time>
      </trkpt>
      <trkpt lat="48.02921" lon="7.02689">
        <ele>940.8</ele>
        <time>2021-07-29T11:05:23Z</time>
      </trkpt>
      <trkpt lat="48.02921" lon="7.02689">
        <ele>940.4</ele>
        <time>2021-07-29T11:05:28Z</time>
      </trkpt>
      <trkpt lat="48.02921" lon="7.02689">
        <ele>940.2</ele>
        <time>2021-07-29T11:05:34Z</time>
      </trkpt>
      <trkpt lat="48.02921" lon="7.02689">
        <ele>940.4</ele>
        <time>2021-07-29T11:05:38Z</time>
      </trkpt>
      <trkpt lat="48.02921" lon="7.02689">
        <ele>940.8</ele>
        <time>2021-07-29T11:05:44Z</time>
      </trkpt>
      <trkpt lat="48.02921" lon="7.02688">
        <ele>940.6</ele>
        <time>2021-07-29T11:05:48Z</time>
      </trkpt>
      <trkpt lat="48.0292" lon="7.02688">
        <ele>940.8</ele>
        <time>2021-07-29T11:05:54Z</time>
      </trkpt>
      <trkpt lat="48.0292" lon="7.02687">
        <ele>940.8</ele>
        <time>2021-07-29T11:05:58Z</time>
      </trkpt>
      <trkpt lat="48.0292" lon="7.02688">
        <ele>940</ele>
        <time>2021-07-29T11:06:04Z</time>
      </trkpt>
      <trkpt lat="48.0292" lon="7.02688">
        <ele>939.6</ele>
        <time>2021-07-29T11:06:06Z</time>
      </trkpt>
      <trkpt lat="48.0292" lon="7.02688">
        <ele>939.6</ele>
        <time>2021-07-29T11:06:08Z</time>
      </trkpt>
      <trkpt lat="48.0292" lon="7.02688">
        <ele>939.8</ele>
        <time>2021-07-29T11:06:14Z</time>
      </trkpt>
      <trkpt lat="48.0292" lon="7.02688">
        <ele>939.8</ele>
        <time>2021-07-29T11:06:18Z</time>
      </trkpt>
      <trkpt lat="48.0292" lon="7.02687">
        <ele>939.6</ele>
        <time>2021-07-29T11:06:24Z</time>
      </trkpt>
      <trkpt lat="48.0292" lon="7.02688">
        <ele>939.4</ele>
        <time>2021-07-29T11:06:28Z</time>
      </trkpt>
      <trkpt lat="48.0292" lon="7.02687">
        <ele>939.8</ele>
        <time>2021-07-29T11:06:34Z</time>
      </trkpt>
      <trkpt lat="48.0292" lon="7.02687">
        <ele>939.6</ele>
        <time>2021-07-29T11:06:38Z</time>
      </trkpt>
      <trkpt lat="48.0292" lon="7.02687">
        <ele>938.8</ele>
        <time>2021-07-29T11:06:44Z</time>
      </trkpt>
      <trkpt lat="48.0292" lon="7.02687">
        <ele>938.6</ele>
        <time>2021-07-29T11:06:47Z</time>
      </trkpt>
      <trkpt lat="48.0292" lon="7.02687">
        <ele>938.8</ele>
        <time>2021-07-29T11:06:48Z</time>
      </trkpt>
      <trkpt lat="48.0292" lon="7.02687">
        <ele>939.6</ele>
        <time>2021-07-29T11:06:54Z</time>
      </trkpt>
      <trkpt lat="48.02919" lon="7.02687">
        <ele>939.8</ele>
        <time>2021-07-29T11:06:55Z</time>
      </trkpt>
      <trkpt lat="48.0292" lon="7.02687">
        <ele>940</ele>
        <time>2021-07-29T11:06:58Z</time>
      </trkpt>
      <trkpt lat="48.0292" lon="7.02687">
        <ele>940.8</ele>
        <time>2021-07-29T11:07:03Z</time>
      </trkpt>
      <trkpt lat="48.0292" lon="7.02687">
        <ele>940.8</ele>
        <time>2021-07-29T11:07:08Z</time>
      </trkpt>
      <trkpt lat="48.0292" lon="7.02687">
        <ele>939.8</ele>
        <time>2021-07-29T11:07:13Z</time>
      </trkpt>
      <trkpt lat="48.0292" lon="7.02687">
        <ele>940</ele>
        <time>2021-07-29T11:07:18Z</time>
      </trkpt>
      <trkpt lat="48.0292" lon="7.02687">
        <ele>939.8</ele>
        <time>2021-07-29T11:07:24Z</time>
      </trkpt>
      <trkpt lat="48.0292" lon="7.02687">
        <ele>940.8</ele>
        <time>2021-07-29T11:07:28Z</time>
      </trkpt>
      <trkpt lat="48.0292" lon="7.02687">
        <ele>940.8</ele>
        <time>2021-07-29T11:07:30Z</time>
      </trkpt>
      <trkpt lat="48.0292" lon="7.02687">
        <ele>940.8</ele>
        <time>2021-07-29T11:07:36Z</time>
      </trkpt>
      <trkpt lat="48.0292" lon="7.02687">
        <ele>940.6</ele>
        <time>2021-07-29T11:07:38Z</time>
      </trkpt>
      <trkpt lat="48.0292" lon="7.02687">
        <ele>940.4</ele>
        <time>2021-07-29T11:07:44Z</time>
      </trkpt>
      <trkpt lat="48.0292" lon="7.02687">
        <ele>940.4</ele>
        <time>2021-07-29T11:07:48Z</time>
      </trkpt>
      <trkpt lat="48.0292" lon="7.02687">
        <ele>940.4</ele>
        <time>2021-07-29T11:07:54Z</time>
      </trkpt>
      <trkpt lat="48.0292" lon="7.02687">
        <ele>940.8</ele>
        <time>2021-07-29T11:07:58Z</time>
      </trkpt>
      <trkpt lat="48.0292" lon="7.02687">
        <ele>940.4</ele>
        <time>2021-07-29T11:08:04Z</time>
      </trkpt>
      <trkpt lat="48.0292" lon="7.02687">
        <ele>940.4</ele>
        <time>2021-07-29T11:08:08Z</time>
      </trkpt>
      <trkpt lat="48.0292" lon="7.02687">
        <ele>940.8</ele>
        <time>2021-07-29T11:08:14Z</time>
      </trkpt>
      <trkpt lat="48.0292" lon="7.02686">
        <ele>941</ele>
        <time>2021-07-29T11:08:18Z</time>
      </trkpt>
      <trkpt lat="48.0292" lon="7.02686">
        <ele>941.4</ele>
        <time>2021-07-29T11:08:24Z</time>
      </trkpt>
      <trkpt lat="48.0292" lon="7.02686">
        <ele>940.8</ele>
        <time>2021-07-29T11:08:28Z</time>
      </trkpt>
      <trkpt lat="48.0292" lon="7.02686">
        <ele>939.8</ele>
        <time>2021-07-29T11:08:34Z</time>
      </trkpt>
      <trkpt lat="48.0292" lon="7.02686">
        <ele>939.8</ele>
        <time>2021-07-29T11:08:35Z</time>
      </trkpt>
      <trkpt lat="48.02921" lon="7.02686">
        <ele>940</ele>
        <time>2021-07-29T11:08:38Z</time>
      </trkpt>
      <trkpt lat="48.02921" lon="7.02686">
        <ele>940</ele>
        <time>2021-07-29T11:08:44Z</time>
      </trkpt>
      <trkpt lat="48.02921" lon="7.02687">
        <ele>939.2</ele>
        <time>2021-07-29T11:08:48Z</time>
      </trkpt>
      <trkpt lat="48.02921" lon="7.02687">
        <ele>939.2</ele>
        <time>2021-07-29T11:08:54Z</time>
      </trkpt>
      <trkpt lat="48.02921" lon="7.02687">
        <ele>938.8</ele>
        <time>2021-07-29T11:08:56Z</time>
      </trkpt>
      <trkpt lat="48.02921" lon="7.02687">
        <ele>938.6</ele>
        <time>2021-07-29T11:08:58Z</time>
      </trkpt>
      <trkpt lat="48.02921" lon="7.02687">
        <ele>937.8</ele>
        <time>2021-07-29T11:09:04Z</time>
      </trkpt>
      <trkpt lat="48.02921" lon="7.02687">
        <ele>938</ele>
        <time>2021-07-29T11:09:08Z</time>
      </trkpt>
      <trkpt lat="48.02921" lon="7.02687">
        <ele>938.2</ele>
        <time>2021-07-29T11:09:14Z</time>
      </trkpt>
      <trkpt lat="48.02921" lon="7.02687">
        <ele>938.4</ele>
        <time>2021-07-29T11:09:18Z</time>
      </trkpt>
      <trkpt lat="48.02921" lon="7.02687">
        <ele>939.2</ele>
        <time>2021-07-29T11:09:24Z</time>
      </trkpt>
      <trkpt lat="48.02921" lon="7.02687">
        <ele>939.2</ele>
        <time>2021-07-29T11:09:28Z</time>
      </trkpt>
      <trkpt lat="48.02921" lon="7.02687">
        <ele>939.4</ele>
        <time>2021-07-29T11:09:34Z</time>
      </trkpt>
      <trkpt lat="48.02921" lon="7.02687">
        <ele>939.4</ele>
        <time>2021-07-29T11:09:38Z</time>
      </trkpt>
      <trkpt lat="48.02921" lon="7.02687">
        <ele>939.4</ele>
        <time>2021-07-29T11:09:44Z</time>
      </trkpt>
      <trkpt lat="48.02921" lon="7.02687">
        <ele>939.8</ele>
        <time>2021-07-29T11:09:48Z</time>
      </trkpt>
      <trkpt lat="48.02921" lon="7.02686">
        <ele>940.4</ele>
        <time>2021-07-29T11:09:54Z</time>
      </trkpt>
      <trkpt lat="48.0292" lon="7.02686">
        <ele>940.4</ele>
        <time>2021-07-29T11:09:58Z</time>
      </trkpt>
      <trkpt lat="48.0292" lon="7.02687">
        <ele>940.4</ele>
        <time>2021-07-29T11:10:04Z</time>
      </trkpt>
      <trkpt lat="48.02921" lon="7.02687">
        <ele>940.8</ele>
        <time>2021-07-29T11:10:07Z</time>
      </trkpt>
      <trkpt lat="48.02921" lon="7.02687">
        <ele>940.8</ele>
        <time>2021-07-29T11:10:08Z</time>
      </trkpt>
      <trkpt lat="48.0292" lon="7.02687">
        <ele>940.8</ele>
        <time>2021-07-29T11:10:14Z</time>
      </trkpt>
      <trkpt lat="48.0292" lon="7.02687">
        <ele>940.8</ele>
        <time>2021-07-29T11:10:18Z</time>
      </trkpt>
      <trkpt lat="48.02921" lon="7.02687">
        <ele>941.2</ele>
        <time>2021-07-29T11:10:24Z</time>
      </trkpt>
      <trkpt lat="48.02921" lon="7.02687">
        <ele>941</ele>
        <time>2021-07-29T11:10:28Z</time>
      </trkpt>
      <trkpt lat="48.02921" lon="7.02686">
        <ele>941.6</ele>
        <time>2021-07-29T11:10:34Z</time>
      </trkpt>
      <trkpt lat="48.0292" lon="7.02686">
        <ele>942</ele>
        <time>2021-07-29T11:10:38Z</time>
      </trkpt>
      <trkpt lat="48.0292" lon="7.02685">
        <ele>941.2</ele>
        <time>2021-07-29T11:10:44Z</time>
      </trkpt>
      <trkpt lat="48.0292" lon="7.02685">
        <ele>941</ele>
        <time>2021-07-29T11:10:48Z</time>
      </trkpt>
      <trkpt lat="48.0292" lon="7.02685">
        <ele>941</ele>
        <time>2021-07-29T11:10:49Z</time>
      </trkpt>
      <trkpt lat="48.0292" lon="7.02685">
        <ele>940.8</ele>
        <time>2021-07-29T11:10:55Z</time>
      </trkpt>
      <trkpt lat="48.02921" lon="7.02685">
        <ele>940.2</ele>
        <time>2021-07-29T11:10:58Z</time>
      </trkpt>
      <trkpt lat="48.0292" lon="7.02684">
        <ele>939.8</ele>
        <time>2021-07-29T11:11:01Z</time>
      </trkpt>
      <trkpt lat="48.0292" lon="7.02684">
        <ele>940.4</ele>
        <time>2021-07-29T11:11:07Z</time>
      </trkpt>
      <trkpt lat="48.0292" lon="7.02684">
        <ele>940.2</ele>
        <time>2021-07-29T11:11:08Z</time>
      </trkpt>
      <trkpt lat="48.0292" lon="7.02684">
        <ele>940.6</ele>
        <time>2021-07-29T11:11:14Z</time>
      </trkpt>
      <trkpt lat="48.0292" lon="7.02684">
        <ele>941</ele>
        <time>2021-07-29T11:11:18Z</time>
      </trkpt>
      <trkpt lat="48.0292" lon="7.02684">
        <ele>941.2</ele>
        <time>2021-07-29T11:11:24Z</time>
      </trkpt>
      <trkpt lat="48.0292" lon="7.02684">
        <ele>941</ele>
        <time>2021-07-29T11:11:28Z</time>
      </trkpt>
      <trkpt lat="48.0292" lon="7.02684">
        <ele>941.2</ele>
        <time>2021-07-29T11:11:34Z</time>
      </trkpt>
      <trkpt lat="48.0292" lon="7.02684">
        <ele>941.6</ele>
        <time>2021-07-29T11:11:38Z</time>
      </trkpt>
      <trkpt lat="48.0292" lon="7.02684">
        <ele>940.6</ele>
        <time>2021-07-29T11:11:44Z</time>
      </trkpt>
      <trkpt lat="48.0292" lon="7.02684">
        <ele>940.6</ele>
        <time>2021-07-29T11:11:48Z</time>
      </trkpt>
      <trkpt lat="48.0292" lon="7.02684">
        <ele>940.8</ele>
        <time>2021-07-29T11:11:54Z</time>
      </trkpt>
      <trkpt lat="48.0292" lon="7.02684">
        <ele>941.2</ele>
        <time>2021-07-29T11:11:58Z</time>
      </trkpt>
      <trkpt lat="48.02919" lon="7.02684">
        <ele>941</ele>
        <time>2021-07-29T11:12:04Z</time>
      </trkpt>
      <trkpt lat="48.0292" lon="7.02683">
        <ele>941.4</ele>
        <time>2021-07-29T11:12:08Z</time>
      </trkpt>
      <trkpt lat="48.0292" lon="7.02683">
        <ele>941.8</ele>
        <time>2021-07-29T11:12:14Z</time>
      </trkpt>
      <trkpt lat="48.0292" lon="7.02683">
        <ele>941.8</ele>
        <time>2021-07-29T11:12:18Z</time>
      </trkpt>
      <trkpt lat="48.0292" lon="7.02682">
        <ele>942</ele>
        <time>2021-07-29T11:12:22Z</time>
      </trkpt>
      <trkpt lat="48.0292" lon="7.02682">
        <ele>942</ele>
        <time>2021-07-29T11:12:28Z</time>
      </trkpt>
      <trkpt lat="48.0292" lon="7.02682">
        <ele>942</ele>
        <time>2021-07-29T11:12:34Z</time>
      </trkpt>
      <trkpt lat="48.02919" lon="7.02681">
        <ele>942.2</ele>
        <time>2021-07-29T11:12:38Z</time>
      </trkpt>
      <trkpt lat="48.02919" lon="7.02681">
        <ele>941.6</ele>
        <time>2021-07-29T11:12:44Z</time>
      </trkpt>
      <trkpt lat="48.02919" lon="7.02681">
        <ele>941.6</ele>
        <time>2021-07-29T11:12:48Z</time>
      </trkpt>
      <trkpt lat="48.02919" lon="7.02681">
        <ele>941.4</ele>
        <time>2021-07-29T11:12:54Z</time>
      </trkpt>
      <trkpt lat="48.02919" lon="7.02681">
        <ele>942.2</ele>
        <time>2021-07-29T11:12:58Z</time>
      </trkpt>
      <trkpt lat="48.02919" lon="7.02682">
        <ele>941</ele>
        <time>2021-07-29T11:13:04Z</time>
      </trkpt>
      <trkpt lat="48.02919" lon="7.02682">
        <ele>941</ele>
        <time>2021-07-29T11:13:05Z</time>
      </trkpt>
      <trkpt lat="48.02919" lon="7.02682">
        <ele>940.6</ele>
        <time>2021-07-29T11:13:08Z</time>
      </trkpt>
      <trkpt lat="48.02919" lon="7.02682">
        <ele>940</ele>
        <time>2021-07-29T11:13:14Z</time>
      </trkpt>
      <trkpt lat="48.0292" lon="7.02682">
        <ele>940.2</ele>
        <time>2021-07-29T11:13:18Z</time>
      </trkpt>
      <trkpt lat="48.0292" lon="7.02683">
        <ele>940.2</ele>
        <time>2021-07-29T11:13:24Z</time>
      </trkpt>
      <trkpt lat="48.0292" lon="7.02683">
        <ele>940.4</ele>
        <time>2021-07-29T11:13:28Z</time>
      </trkpt>
      <trkpt lat="48.0292" lon="7.02683">
        <ele>940.2</ele>
        <time>2021-07-29T11:13:34Z</time>
      </trkpt>
      <trkpt lat="48.0292" lon="7.02683">
        <ele>940.2</ele>
        <time>2021-07-29T11:13:38Z</time>
      </trkpt>
      <trkpt lat="48.0292" lon="7.02683">
        <ele>940.2</ele>
        <time>2021-07-29T11:13:44Z</time>
      </trkpt>
      <trkpt lat="48.0292" lon="7.02683">
        <ele>940.2</ele>
        <time>2021-07-29T11:13:48Z</time>
      </trkpt>
      <trkpt lat="48.02921" lon="7.02683">
        <ele>940.8</ele>
        <time>2021-07-29T11:13:54Z</time>
      </trkpt>
      <trkpt lat="48.0292" lon="7.02683">
        <ele>940</ele>
        <time>2021-07-29T11:13:58Z</time>
      </trkpt>
      <trkpt lat="48.0292" lon="7.02684">
        <ele>940</ele>
        <time>2021-07-29T11:14:04Z</time>
      </trkpt>
      <trkpt lat="48.0292" lon="7.02683">
        <ele>940.4</ele>
        <time>2021-07-29T11:14:08Z</time>
      </trkpt>
      <trkpt lat="48.0292" lon="7.02684">
        <ele>940.2</ele>
        <time>2021-07-29T11:14:14Z</time>
      </trkpt>
      <trkpt lat="48.0292" lon="7.02683">
        <ele>940.2</ele>
        <time>2021-07-29T11:14:18Z</time>
      </trkpt>
      <trkpt lat="48.0292" lon="7.02684">
        <ele>940.8</ele>
        <time>2021-07-29T11:14:24Z</time>
      </trkpt>
      <trkpt lat="48.0292" lon="7.02684">
        <ele>941</ele>
        <time>2021-07-29T11:14:28Z</time>
      </trkpt>
      <trkpt lat="48.0292" lon="7.02684">
        <ele>941.4</ele>
        <time>2021-07-29T11:14:34Z</time>
      </trkpt>
      <trkpt lat="48.0292" lon="7.02684">
        <ele>941</ele>
        <time>2021-07-29T11:14:38Z</time>
      </trkpt>
      <trkpt lat="48.0292" lon="7.02684">
        <ele>940.8</ele>
        <time>2021-07-29T11:14:44Z</time>
      </trkpt>
      <trkpt lat="48.0292" lon="7.02683">
        <ele>940.8</ele>
        <time>2021-07-29T11:14:48Z</time>
      </trkpt>
      <trkpt lat="48.0292" lon="7.02684">
        <ele>941.2</ele>
        <time>2021-07-29T11:14:54Z</time>
      </trkpt>
      <trkpt lat="48.0292" lon="7.02683">
        <ele>941.2</ele>
        <time>2021-07-29T11:14:58Z</time>
      </trkpt>
      <trkpt lat="48.0292" lon="7.02683">
        <ele>941</ele>
        <time>2021-07-29T11:15:04Z</time>
      </trkpt>
      <trkpt lat="48.0292" lon="7.02682">
        <ele>941</ele>
        <time>2021-07-29T11:15:08Z</time>
      </trkpt>
      <trkpt lat="48.0292" lon="7.02682">
        <ele>941</ele>
        <time>2021-07-29T11:15:14Z</time>
      </trkpt>
      <trkpt lat="48.0292" lon="7.02683">
        <ele>941.6</ele>
        <time>2021-07-29T11:15:18Z</time>
      </trkpt>
      <trkpt lat="48.0292" lon="7.02684">
        <ele>941.2</ele>
        <time>2021-07-29T11:15:24Z</time>
      </trkpt>
      <trkpt lat="48.0292" lon="7.02685">
        <ele>941.4</ele>
        <time>2021-07-29T11:15:28Z</time>
      </trkpt>
      <trkpt lat="48.02921" lon="7.02685">
        <ele>941.6</ele>
        <time>2021-07-29T11:15:29Z</time>
      </trkpt>
      <trkpt lat="48.02921" lon="7.02685">
        <ele>941.6</ele>
        <time>2021-07-29T11:15:35Z</time>
      </trkpt>
      <trkpt lat="48.02921" lon="7.02685">
        <ele>941.6</ele>
        <time>2021-07-29T11:15:38Z</time>
      </trkpt>
      <trkpt lat="48.0292" lon="7.02685">
        <ele>941.4</ele>
        <time>2021-07-29T11:15:44Z</time>
      </trkpt>
      <trkpt lat="48.0292" lon="7.02685">
        <ele>941.6</ele>
        <time>2021-07-29T11:15:48Z</time>
      </trkpt>
      <trkpt lat="48.02919" lon="7.02685">
        <ele>941.6</ele>
        <time>2021-07-29T11:15:54Z</time>
      </trkpt>
      <trkpt lat="48.02919" lon="7.02686">
        <ele>941.2</ele>
        <time>2021-07-29T11:15:58Z</time>
      </trkpt>
      <trkpt lat="48.02916" lon="7.02683">
        <ele>941.6</ele>
        <time>2021-07-29T11:16:04Z</time>
      </trkpt>
      <trkpt lat="48.02914" lon="7.02682">
        <ele>941.6</ele>
        <time>2021-07-29T11:16:08Z</time>
      </trkpt>
      <trkpt lat="48.0291" lon="7.02684">
        <ele>941.4</ele>
        <time>2021-07-29T11:16:14Z</time>
      </trkpt>
      <trkpt lat="48.02912" lon="7.02684">
        <ele>941.4</ele>
        <time>2021-07-29T11:16:18Z</time>
      </trkpt>
      <trkpt lat="48.02912" lon="7.02683">
        <ele>941.4</ele>
        <time>2021-07-29T11:16:24Z</time>
      </trkpt>
      <trkpt lat="48.02912" lon="7.02683">
        <ele>941.6</ele>
        <time>2021-07-29T11:16:28Z</time>
      </trkpt>
      <trkpt lat="48.02912" lon="7.02684">
        <ele>941.6</ele>
        <time>2021-07-29T11:16:34Z</time>
      </trkpt>
      <trkpt lat="48.02912" lon="7.02684">
        <ele>941.2</ele>
        <time>2021-07-29T11:16:38Z</time>
      </trkpt>
      <trkpt lat="48.0291" lon="7.02681">
        <ele>941.8</ele>
        <time>2021-07-29T11:16:44Z</time>
      </trkpt>
      <trkpt lat="48.02908" lon="7.0268">
        <ele>942</ele>
        <time>2021-07-29T11:16:46Z</time>
      </trkpt>
      <trkpt lat="48.02905" lon="7.02677">
        <ele>941.8</ele>
        <time>2021-07-29T11:16:48Z</time>
      </trkpt>
      <trkpt lat="48.02904" lon="7.02674">
        <ele>942</ele>
        <time>2021-07-29T11:16:50Z</time>
      </trkpt>
      <trkpt lat="48.02902" lon="7.02669">
        <ele>941.6</ele>
        <time>2021-07-29T11:16:56Z</time>
      </trkpt>
      <trkpt lat="48.029" lon="7.02668">
        <ele>941.4</ele>
        <time>2021-07-29T11:16:58Z</time>
      </trkpt>
      <trkpt lat="48.02895" lon="7.02662">
        <ele>941</ele>
        <time>2021-07-29T11:17:04Z</time>
      </trkpt>
      <trkpt lat="48.02892" lon="7.02656">
        <ele>941.4</ele>
        <time>2021-07-29T11:17:08Z</time>
      </trkpt>
      <trkpt lat="48.02889" lon="7.02649">
        <ele>941.8</ele>
        <time>2021-07-29T11:17:14Z</time>
      </trkpt>
      <trkpt lat="48.02888" lon="7.02648">
        <ele>942</ele>
        <time>2021-07-29T11:17:15Z</time>
      </trkpt>
      <trkpt lat="48.02888" lon="7.02646">
        <ele>941.8</ele>
        <time>2021-07-29T11:17:18Z</time>
      </trkpt>
      <trkpt lat="48.02887" lon="7.02641">
        <ele>941.6</ele>
        <time>2021-07-29T11:17:24Z</time>
      </trkpt>
      <trkpt lat="48.02888" lon="7.0264">
        <ele>941.8</ele>
        <time>2021-07-29T11:17:28Z</time>
      </trkpt>
      <trkpt lat="48.02885" lon="7.02635">
        <ele>942.8</ele>
        <time>2021-07-29T11:17:34Z</time>
      </trkpt>
      <trkpt lat="48.02883" lon="7.02629">
        <ele>942.6</ele>
        <time>2021-07-29T11:17:38Z</time>
      </trkpt>
      <trkpt lat="48.02881" lon="7.02621">
        <ele>942.6</ele>
        <time>2021-07-29T11:17:43Z</time>
      </trkpt>
      <trkpt lat="48.02877" lon="7.02616">
        <ele>942.4</ele>
        <time>2021-07-29T11:17:48Z</time>
      </trkpt>
      <trkpt lat="48.02876" lon="7.02614">
        <ele>942.4</ele>
        <time>2021-07-29T11:17:50Z</time>
      </trkpt>
      <trkpt lat="48.02872" lon="7.0261">
        <ele>942.6</ele>
        <time>2021-07-29T11:17:55Z</time>
      </trkpt>
      <trkpt lat="48.02871" lon="7.02605">
        <ele>942.8</ele>
        <time>2021-07-29T11:17:58Z</time>
      </trkpt>
      <trkpt lat="48.02869" lon="7.02598">
        <ele>942.6</ele>
        <time>2021-07-29T11:18:04Z</time>
      </trkpt>
      <trkpt lat="48.02869" lon="7.02596">
        <ele>942.4</ele>
        <time>2021-07-29T11:18:05Z</time>
      </trkpt>
      <trkpt lat="48.02867" lon="7.02591">
        <ele>942.4</ele>
        <time>2021-07-29T11:18:08Z</time>
      </trkpt>
      <trkpt lat="48.02864" lon="7.02584">
        <ele>942.4</ele>
        <time>2021-07-29T11:18:13Z</time>
      </trkpt>
      <trkpt lat="48.02862" lon="7.02574">
        <ele>942.2</ele>
        <time>2021-07-29T11:18:18Z</time>
      </trkpt>
      <trkpt lat="48.02859" lon="7.02567">
        <ele>942.2</ele>
        <time>2021-07-29T11:18:24Z</time>
      </trkpt>
      <trkpt lat="48.02858" lon="7.02563">
        <ele>942.2</ele>
        <time>2021-07-29T11:18:28Z</time>
      </trkpt>
      <trkpt lat="48.02856" lon="7.02554">
        <ele>942.4</ele>
        <time>2021-07-29T11:18:34Z</time>
      </trkpt>
      <trkpt lat="48.02852" lon="7.02549">
        <ele>942.6</ele>
        <time>2021-07-29T11:18:38Z</time>
      </trkpt>
      <trkpt lat="48.0285" lon="7.02541">
        <ele>942.8</ele>
        <time>2021-07-29T11:18:43Z</time>
      </trkpt>
      <trkpt lat="48.0285" lon="7.02541">
        <ele>943</ele>
        <time>2021-07-29T11:18:45Z</time>
      </trkpt>
      <trkpt lat="48.02849" lon="7.0254">
        <ele>943</ele>
        <time>2021-07-29T11:18:46Z</time>
      </trkpt>
      <trkpt lat="48.0285" lon="7.02538">
        <ele>943.2</ele>
        <time>2021-07-29T11:18:48Z</time>
      </trkpt>
      <trkpt lat="48.02849" lon="7.02531">
        <ele>943.4</ele>
        <time>2021-07-29T11:18:54Z</time>
      </trkpt>
      <trkpt lat="48.0285" lon="7.02527">
        <ele>943.4</ele>
        <time>2021-07-29T11:18:58Z</time>
      </trkpt>
      <trkpt lat="48.02851" lon="7.02527">
        <ele>943.6</ele>
        <time>2021-07-29T11:19:04Z</time>
      </trkpt>
      <trkpt lat="48.02851" lon="7.02527">
        <ele>943.6</ele>
        <time>2021-07-29T11:19:08Z</time>
      </trkpt>
      <trkpt lat="48.02851" lon="7.02528">
        <ele>943</ele>
        <time>2021-07-29T11:19:14Z</time>
      </trkpt>
      <trkpt lat="48.02851" lon="7.02527">
        <ele>943.2</ele>
        <time>2021-07-29T11:19:18Z</time>
      </trkpt>
      <trkpt lat="48.02852" lon="7.02523">
        <ele>943.6</ele>
        <time>2021-07-29T11:19:24Z</time>
      </trkpt>
      <trkpt lat="48.02853" lon="7.02519">
        <ele>944</ele>
        <time>2021-07-29T11:19:28Z</time>
      </trkpt>
      <trkpt lat="48.02853" lon="7.02518">
        <ele>944</ele>
        <time>2021-07-29T11:19:29Z</time>
      </trkpt>
      <trkpt lat="48.02855" lon="7.02511">
        <ele>944.8</ele>
        <time>2021-07-29T11:19:35Z</time>
      </trkpt>
      <trkpt lat="48.02855" lon="7.02508">
        <ele>945.2</ele>
        <time>2021-07-29T11:19:38Z</time>
      </trkpt>
      <trkpt lat="48.02855" lon="7.02505">
        <ele>945.6</ele>
        <time>2021-07-29T11:19:40Z</time>
      </trkpt>
      <trkpt lat="48.02855" lon="7.02501">
        <ele>945.4</ele>
        <time>2021-07-29T11:19:43Z</time>
      </trkpt>
      <trkpt lat="48.02855" lon="7.02494">
        <ele>946</ele>
        <time>2021-07-29T11:19:47Z</time>
      </trkpt>
      <trkpt lat="48.02856" lon="7.02492">
        <ele>945.8</ele>
        <time>2021-07-29T11:19:48Z</time>
      </trkpt>
      <trkpt lat="48.02856" lon="7.02483">
        <ele>946.2</ele>
        <time>2021-07-29T11:19:54Z</time>
      </trkpt>
      <trkpt lat="48.02854" lon="7.02478">
        <ele>946</ele>
        <time>2021-07-29T11:19:58Z</time>
      </trkpt>
      <trkpt lat="48.02851" lon="7.02472">
        <ele>946.4</ele>
        <time>2021-07-29T11:20:04Z</time>
      </trkpt>
      <trkpt lat="48.02849" lon="7.02469">
        <ele>947</ele>
        <time>2021-07-29T11:20:08Z</time>
      </trkpt>
      <trkpt lat="48.02846" lon="7.02465">
        <ele>947.2</ele>
        <time>2021-07-29T11:20:12Z</time>
      </trkpt>
      <trkpt lat="48.02843" lon="7.0246">
        <ele>947.6</ele>
        <time>2021-07-29T11:20:18Z</time>
      </trkpt>
      <trkpt lat="48.0284" lon="7.02458">
        <ele>948.2</ele>
        <time>2021-07-29T11:20:24Z</time>
      </trkpt>
      <trkpt lat="48.02838" lon="7.02456">
        <ele>948.2</ele>
        <time>2021-07-29T11:20:26Z</time>
      </trkpt>
      <trkpt lat="48.02836" lon="7.02454">
        <ele>948.4</ele>
        <time>2021-07-29T11:20:28Z</time>
      </trkpt>
      <trkpt lat="48.02835" lon="7.02451">
        <ele>948.4</ele>
        <time>2021-07-29T11:20:32Z</time>
      </trkpt>
      <trkpt lat="48.02832" lon="7.02446">
        <ele>948.4</ele>
        <time>2021-07-29T11:20:38Z</time>
      </trkpt>
      <trkpt lat="48.02829" lon="7.02442">
        <ele>948.6</ele>
        <time>2021-07-29T11:20:44Z</time>
      </trkpt>
      <trkpt lat="48.02824" lon="7.02441">
        <ele>948.8</ele>
        <time>2021-07-29T11:20:48Z</time>
      </trkpt>
      <trkpt lat="48.02821" lon="7.0244">
        <ele>949.2</ele>
        <time>2021-07-29T11:20:54Z</time>
      </trkpt>
      <trkpt lat="48.02818" lon="7.02438">
        <ele>949.6</ele>
        <time>2021-07-29T11:20:58Z</time>
      </trkpt>
      <trkpt lat="48.02814" lon="7.02439">
        <ele>950</ele>
        <time>2021-07-29T11:21:04Z</time>
      </trkpt>
      <trkpt lat="48.02813" lon="7.02439">
        <ele>950.4</ele>
        <time>2021-07-29T11:21:05Z</time>
      </trkpt>
      <trkpt lat="48.0281" lon="7.02439">
        <ele>950.4</ele>
        <time>2021-07-29T11:21:08Z</time>
      </trkpt>
      <trkpt lat="48.02805" lon="7.02437">
        <ele>951</ele>
        <time>2021-07-29T11:21:14Z</time>
      </trkpt>
      <trkpt lat="48.02802" lon="7.02435">
        <ele>951.4</ele>
        <time>2021-07-29T11:21:16Z</time>
      </trkpt>
      <trkpt lat="48.02799" lon="7.02433">
        <ele>951.8</ele>
        <time>2021-07-29T11:21:18Z</time>
      </trkpt>
      <trkpt lat="48.02797" lon="7.02433">
        <ele>952</ele>
        <time>2021-07-29T11:21:19Z</time>
      </trkpt>
      <trkpt lat="48.02795" lon="7.02434">
        <ele>952.4</ele>
        <time>2021-07-29T11:21:21Z</time>
      </trkpt>
      <trkpt lat="48.02793" lon="7.02434">
        <ele>952.4</ele>
        <time>2021-07-29T11:21:22Z</time>
      </trkpt>
      <trkpt lat="48.02791" lon="7.02433">
        <ele>952.6</ele>
        <time>2021-07-29T11:21:23Z</time>
      </trkpt>
      <trkpt lat="48.02787" lon="7.02433">
        <ele>953</ele>
        <time>2021-07-29T11:21:26Z</time>
      </trkpt>
      <trkpt lat="48.02786" lon="7.02431">
        <ele>953.4</ele>
        <time>2021-07-29T11:21:28Z</time>
      </trkpt>
      <trkpt lat="48.0278" lon="7.02427">
        <ele>954</ele>
        <time>2021-07-29T11:21:34Z</time>
      </trkpt>
      <trkpt lat="48.02777" lon="7.02423">
        <ele>954.2</ele>
        <time>2021-07-29T11:21:38Z</time>
      </trkpt>
      <trkpt lat="48.02775" lon="7.02416">
        <ele>954.6</ele>
        <time>2021-07-29T11:21:42Z</time>
      </trkpt>
      <trkpt lat="48.02774" lon="7.0241">
        <ele>955.2</ele>
        <time>2021-07-29T11:21:48Z</time>
      </trkpt>
      <trkpt lat="48.02772" lon="7.02407">
        <ele>955.6</ele>
        <time>2021-07-29T11:21:52Z</time>
      </trkpt>
      <trkpt lat="48.0277" lon="7.02402">
        <ele>956</ele>
        <time>2021-07-29T11:21:58Z</time>
      </trkpt>
      <trkpt lat="48.02767" lon="7.02396">
        <ele>956.6</ele>
        <time>2021-07-29T11:22:04Z</time>
      </trkpt>
      <trkpt lat="48.02766" lon="7.02391">
        <ele>957</ele>
        <time>2021-07-29T11:22:08Z</time>
      </trkpt>
      <trkpt lat="48.02766" lon="7.02384">
        <ele>957.8</ele>
        <time>2021-07-29T11:22:13Z</time>
      </trkpt>
      <trkpt lat="48.02767" lon="7.02378">
        <ele>958.4</ele>
        <time>2021-07-29T11:22:17Z</time>
      </trkpt>
      <trkpt lat="48.02767" lon="7.02377">
        <ele>958.4</ele>
        <time>2021-07-29T11:22:18Z</time>
      </trkpt>
      <trkpt lat="48.02766" lon="7.02373">
        <ele>958.8</ele>
        <time>2021-07-29T11:22:21Z</time>
      </trkpt>
      <trkpt lat="48.02766" lon="7.02372">
        <ele>959</ele>
        <time>2021-07-29T11:22:22Z</time>
      </trkpt>
      <trkpt lat="48.02766" lon="7.02366">
        <ele>959.8</ele>
        <time>2021-07-29T11:22:28Z</time>
      </trkpt>
      <trkpt lat="48.02769" lon="7.02359">
        <ele>960.8</ele>
        <time>2021-07-29T11:22:34Z</time>
      </trkpt>
      <trkpt lat="48.02769" lon="7.02358">
        <ele>961</ele>
        <time>2021-07-29T11:22:35Z</time>
      </trkpt>
      <trkpt lat="48.0277" lon="7.02355">
        <ele>961.2</ele>
        <time>2021-07-29T11:22:38Z</time>
      </trkpt>
      <trkpt lat="48.0277" lon="7.02354">
        <ele>961.2</ele>
        <time>2021-07-29T11:22:39Z</time>
      </trkpt>
      <trkpt lat="48.02771" lon="7.02348">
        <ele>961.8</ele>
        <time>2021-07-29T11:22:45Z</time>
      </trkpt>
      <trkpt lat="48.02771" lon="7.02347">
        <ele>961.8</ele>
        <time>2021-07-29T11:22:48Z</time>
      </trkpt>
      <trkpt lat="48.02772" lon="7.02347">
        <ele>962</ele>
        <time>2021-07-29T11:22:49Z</time>
      </trkpt>
      <trkpt lat="48.02772" lon="7.02343">
        <ele>962</ele>
        <time>2021-07-29T11:22:55Z</time>
      </trkpt>
      <trkpt lat="48.02773" lon="7.02341">
        <ele>962.2</ele>
        <time>2021-07-29T11:22:58Z</time>
      </trkpt>
      <trkpt lat="48.02773" lon="7.02337">
        <ele>963</ele>
        <time>2021-07-29T11:23:03Z</time>
      </trkpt>
      <trkpt lat="48.02773" lon="7.02335">
        <ele>963.8</ele>
        <time>2021-07-29T11:23:08Z</time>
      </trkpt>
      <trkpt lat="48.02774" lon="7.02334">
        <ele>964.2</ele>
        <time>2021-07-29T11:23:11Z</time>
      </trkpt>
      <trkpt lat="48.02778" lon="7.02333">
        <ele>965</ele>
        <time>2021-07-29T11:23:17Z</time>
      </trkpt>
      <trkpt lat="48.02778" lon="7.02333">
        <ele>965.2</ele>
        <time>2021-07-29T11:23:18Z</time>
      </trkpt>
      <trkpt lat="48.02783" lon="7.0233">
        <ele>966.2</ele>
        <time>2021-07-29T11:23:23Z</time>
      </trkpt>
      <trkpt lat="48.02784" lon="7.0233">
        <ele>966.4</ele>
        <time>2021-07-29T11:23:24Z</time>
      </trkpt>
      <trkpt lat="48.02786" lon="7.02328">
        <ele>966.8</ele>
        <time>2021-07-29T11:23:26Z</time>
      </trkpt>
      <trkpt lat="48.02788" lon="7.02328">
        <ele>967</ele>
        <time>2021-07-29T11:23:28Z</time>
      </trkpt>
      <trkpt lat="48.0279" lon="7.02326">
        <ele>967.6</ele>
        <time>2021-07-29T11:23:32Z</time>
      </trkpt>
      <trkpt lat="48.02794" lon="7.02323">
        <ele>968.2</ele>
        <time>2021-07-29T11:23:38Z</time>
      </trkpt>
      <trkpt lat="48.02796" lon="7.0232">
        <ele>968.8</ele>
        <time>2021-07-29T11:23:43Z</time>
      </trkpt>
      <trkpt lat="48.02797" lon="7.02318">
        <ele>969.2</ele>
        <time>2021-07-29T11:23:48Z</time>
      </trkpt>
      <trkpt lat="48.02795" lon="7.02314">
        <ele>969.6</ele>
        <time>2021-07-29T11:23:54Z</time>
      </trkpt>
      <trkpt lat="48.02795" lon="7.02314">
        <ele>969.8</ele>
        <time>2021-07-29T11:23:56Z</time>
      </trkpt>
      <trkpt lat="48.02795" lon="7.02316">
        <ele>970.4</ele>
        <time>2021-07-29T11:23:58Z</time>
      </trkpt>
      <trkpt lat="48.02796" lon="7.02317">
        <ele>971</ele>
        <time>2021-07-29T11:24:02Z</time>
      </trkpt>
      <trkpt lat="48.02793" lon="7.0232">
        <ele>971.8</ele>
        <time>2021-07-29T11:24:08Z</time>
      </trkpt>
      <trkpt lat="48.02793" lon="7.0232">
        <ele>972</ele>
        <time>2021-07-29T11:24:11Z</time>
      </trkpt>
      <trkpt lat="48.02791" lon="7.02318">
        <ele>972.8</ele>
        <time>2021-07-29T11:24:17Z</time>
      </trkpt>
      <trkpt lat="48.0279" lon="7.02318">
        <ele>973</ele>
        <time>2021-07-29T11:24:18Z</time>
      </trkpt>
      <trkpt lat="48.0279" lon="7.02317">
        <ele>973.2</ele>
        <time>2021-07-29T11:24:19Z</time>
      </trkpt>
      <trkpt lat="48.02785" lon="7.02318">
        <ele>973.6</ele>
        <time>2021-07-29T11:24:25Z</time>
      </trkpt>
      <trkpt lat="48.02782" lon="7.02318">
        <ele>974</ele>
        <time>2021-07-29T11:24:28Z</time>
      </trkpt>
      <trkpt lat="48.02781" lon="7.02318">
        <ele>974.2</ele>
        <time>2021-07-29T11:24:30Z</time>
      </trkpt>
      <trkpt lat="48.0278" lon="7.02317">
        <ele>974.8</ele>
        <time>2021-07-29T11:24:32Z</time>
      </trkpt>
      <trkpt lat="48.02777" lon="7.02322">
        <ele>975</ele>
        <time>2021-07-29T11:24:38Z</time>
      </trkpt>
      <trkpt lat="48.02775" lon="7.02324">
        <ele>975</ele>
        <time>2021-07-29T11:24:41Z</time>
      </trkpt>
      <trkpt lat="48.02773" lon="7.02326">
        <ele>975.2</ele>
        <time>2021-07-29T11:24:44Z</time>
      </trkpt>
      <trkpt lat="48.0277" lon="7.02328">
        <ele>976.2</ele>
        <time>2021-07-29T11:24:47Z</time>
      </trkpt>
      <trkpt lat="48.02769" lon="7.02328">
        <ele>976.2</ele>
        <time>2021-07-29T11:24:48Z</time>
      </trkpt>
      <trkpt lat="48.02769" lon="7.02328">
        <ele>976.4</ele>
        <time>2021-07-29T11:24:49Z</time>
      </trkpt>
      <trkpt lat="48.02766" lon="7.02327">
        <ele>977.2</ele>
        <time>2021-07-29T11:24:55Z</time>
      </trkpt>
      <trkpt lat="48.02766" lon="7.02327">
        <ele>977.6</ele>
        <time>2021-07-29T11:24:56Z</time>
      </trkpt>
      <trkpt lat="48.02765" lon="7.02328">
        <ele>977.6</ele>
        <time>2021-07-29T11:24:58Z</time>
      </trkpt>
      <trkpt lat="48.02763" lon="7.0233">
        <ele>978</ele>
        <time>2021-07-29T11:25:04Z</time>
      </trkpt>
      <trkpt lat="48.02761" lon="7.02333">
        <ele>978.4</ele>
        <time>2021-07-29T11:25:08Z</time>
      </trkpt>
      <trkpt lat="48.0276" lon="7.02334">
        <ele>978.6</ele>
        <time>2021-07-29T11:25:09Z</time>
      </trkpt>
      <trkpt lat="48.02756" lon="7.0234">
        <ele>979.6</ele>
        <time>2021-07-29T11:25:15Z</time>
      </trkpt>
      <trkpt lat="48.02755" lon="7.02342">
        <ele>979.6</ele>
        <time>2021-07-29T11:25:17Z</time>
      </trkpt>
      <trkpt lat="48.02755" lon="7.02343">
        <ele>979.6</ele>
        <time>2021-07-29T11:25:18Z</time>
      </trkpt>
      <trkpt lat="48.02754" lon="7.02345">
        <ele>979.6</ele>
        <time>2021-07-29T11:25:20Z</time>
      </trkpt>
      <trkpt lat="48.02751" lon="7.0235">
        <ele>980.6</ele>
        <time>2021-07-29T11:25:26Z</time>
      </trkpt>
      <trkpt lat="48.02751" lon="7.02351">
        <ele>980.8</ele>
        <time>2021-07-29T11:25:27Z</time>
      </trkpt>
      <trkpt lat="48.0275" lon="7.02352">
        <ele>981</ele>
        <time>2021-07-29T11:25:28Z</time>
      </trkpt>
      <trkpt lat="48.02747" lon="7.02357">
        <ele>981.4</ele>
        <time>2021-07-29T11:25:31Z</time>
      </trkpt>
      <trkpt lat="48.02746" lon="7.02359">
        <ele>981.8</ele>
        <time>2021-07-29T11:25:33Z</time>
      </trkpt>
      <trkpt lat="48.02745" lon="7.02359">
        <ele>982</ele>
        <time>2021-07-29T11:25:34Z</time>
      </trkpt>
      <trkpt lat="48.02742" lon="7.02365">
        <ele>982.6</ele>
        <time>2021-07-29T11:25:38Z</time>
      </trkpt>
      <trkpt lat="48.02741" lon="7.02366">
        <ele>982.8</ele>
        <time>2021-07-29T11:25:40Z</time>
      </trkpt>
      <trkpt lat="48.02736" lon="7.0237">
        <ele>984</ele>
        <time>2021-07-29T11:25:46Z</time>
      </trkpt>
      <trkpt lat="48.02735" lon="7.02372">
        <ele>984.4</ele>
        <time>2021-07-29T11:25:48Z</time>
      </trkpt>
      <trkpt lat="48.0273" lon="7.02375">
        <ele>984.8</ele>
        <time>2021-07-29T11:25:54Z</time>
      </trkpt>
      <trkpt lat="48.02729" lon="7.02377">
        <ele>984.8</ele>
        <time>2021-07-29T11:25:58Z</time>
      </trkpt>
      <trkpt lat="48.02728" lon="7.02379">
        <ele>985</ele>
        <time>2021-07-29T11:26:02Z</time>
      </trkpt>
      <trkpt lat="48.02724" lon="7.02384">
        <ele>985.6</ele>
        <time>2021-07-29T11:26:08Z</time>
      </trkpt>
      <trkpt lat="48.02722" lon="7.02388">
        <ele>986.2</ele>
        <time>2021-07-29T11:26:11Z</time>
      </trkpt>
      <trkpt lat="48.0272" lon="7.02389">
        <ele>986.4</ele>
        <time>2021-07-29T11:26:13Z</time>
      </trkpt>
      <trkpt lat="48.02717" lon="7.02392">
        <ele>986.4</ele>
        <time>2021-07-29T11:26:17Z</time>
      </trkpt>
      <trkpt lat="48.02716" lon="7.02393">
        <ele>986.4</ele>
        <time>2021-07-29T11:26:18Z</time>
      </trkpt>
      <trkpt lat="48.02714" lon="7.02394">
        <ele>986.8</ele>
        <time>2021-07-29T11:26:20Z</time>
      </trkpt>
      <trkpt lat="48.02714" lon="7.02395">
        <ele>987.2</ele>
        <time>2021-07-29T11:26:22Z</time>
      </trkpt>
      <trkpt lat="48.02713" lon="7.02397">
        <ele>987.2</ele>
        <time>2021-07-29T11:26:24Z</time>
      </trkpt>
      <trkpt lat="48.02711" lon="7.02399">
        <ele>988</ele>
        <time>2021-07-29T11:26:28Z</time>
      </trkpt>
      <trkpt lat="48.02709" lon="7.024">
        <ele>988.4</ele>
        <time>2021-07-29T11:26:32Z</time>
      </trkpt>
      <trkpt lat="48.02705" lon="7.02404">
        <ele>989</ele>
        <time>2021-07-29T11:26:38Z</time>
      </trkpt>
      <trkpt lat="48.02702" lon="7.02407">
        <ele>989.4</ele>
        <time>2021-07-29T11:26:43Z</time>
      </trkpt>
      <trkpt lat="48.02698" lon="7.02412">
        <ele>989.8</ele>
        <time>2021-07-29T11:26:48Z</time>
      </trkpt>
      <trkpt lat="48.02693" lon="7.02415">
        <ele>990.6</ele>
        <time>2021-07-29T11:26:54Z</time>
      </trkpt>
      <trkpt lat="48.02692" lon="7.02415">
        <ele>990.6</ele>
        <time>2021-07-29T11:26:55Z</time>
      </trkpt>
      <trkpt lat="48.0269" lon="7.02416">
        <ele>991</ele>
        <time>2021-07-29T11:26:58Z</time>
      </trkpt>
      <trkpt lat="48.02685" lon="7.02417">
        <ele>991</ele>
        <time>2021-07-29T11:27:02Z</time>
      </trkpt>
      <trkpt lat="48.02681" lon="7.0242">
        <ele>991.2</ele>
        <time>2021-07-29T11:27:06Z</time>
      </trkpt>
      <trkpt lat="48.02679" lon="7.0242">
        <ele>991.2</ele>
        <time>2021-07-29T11:27:08Z</time>
      </trkpt>
      <trkpt lat="48.02675" lon="7.02418">
        <ele>991.6</ele>
        <time>2021-07-29T11:27:11Z</time>
      </trkpt>
      <trkpt lat="48.02671" lon="7.02417">
        <ele>992.6</ele>
        <time>2021-07-29T11:27:16Z</time>
      </trkpt>
      <trkpt lat="48.02669" lon="7.02417">
        <ele>992.6</ele>
        <time>2021-07-29T11:27:18Z</time>
      </trkpt>
      <trkpt lat="48.02669" lon="7.02417">
        <ele>992.8</ele>
        <time>2021-07-29T11:27:19Z</time>
      </trkpt>
      <trkpt lat="48.02663" lon="7.02415">
        <ele>993.4</ele>
        <time>2021-07-29T11:27:25Z</time>
      </trkpt>
      <trkpt lat="48.02662" lon="7.02414">
        <ele>994</ele>
        <time>2021-07-29T11:27:27Z</time>
      </trkpt>
      <trkpt lat="48.02661" lon="7.02414">
        <ele>994.2</ele>
        <time>2021-07-29T11:27:28Z</time>
      </trkpt>
      <trkpt lat="48.02656" lon="7.02411">
        <ele>994.8</ele>
        <time>2021-07-29T11:27:34Z</time>
      </trkpt>
      <trkpt lat="48.02653" lon="7.02408">
        <ele>994.8</ele>
        <time>2021-07-29T11:27:38Z</time>
      </trkpt>
      <trkpt lat="48.02651" lon="7.02406">
        <ele>995.2</ele>
        <time>2021-07-29T11:27:40Z</time>
      </trkpt>
      <trkpt lat="48.02646" lon="7.02401">
        <ele>996.2</ele>
        <time>2021-07-29T11:27:45Z</time>
      </trkpt>
      <trkpt lat="48.02645" lon="7.02399">
        <ele>996.4</ele>
        <time>2021-07-29T11:27:47Z</time>
      </trkpt>
      <trkpt lat="48.02645" lon="7.02398">
        <ele>996.4</ele>
        <time>2021-07-29T11:27:48Z</time>
      </trkpt>
      <trkpt lat="48.02641" lon="7.02397">
        <ele>995.4</ele>
        <time>2021-07-29T11:27:54Z</time>
      </trkpt>
      <trkpt lat="48.02639" lon="7.02396">
        <ele>995.2</ele>
        <time>2021-07-29T11:27:56Z</time>
      </trkpt>
      <trkpt lat="48.02638" lon="7.02396">
        <ele>995.2</ele>
        <time>2021-07-29T11:27:57Z</time>
      </trkpt>
      <trkpt lat="48.02637" lon="7.02396">
        <ele>995</ele>
        <time>2021-07-29T11:27:58Z</time>
      </trkpt>
      <trkpt lat="48.02632" lon="7.02394">
        <ele>996.2</ele>
        <time>2021-07-29T11:28:04Z</time>
      </trkpt>
      <trkpt lat="48.02629" lon="7.02391">
        <ele>996.6</ele>
        <time>2021-07-29T11:28:08Z</time>
      </trkpt>
      <trkpt lat="48.02626" lon="7.02388">
        <ele>996.8</ele>
        <time>2021-07-29T11:28:11Z</time>
      </trkpt>
      <trkpt lat="48.02624" lon="7.02385">
        <ele>997.4</ele>
        <time>2021-07-29T11:28:13Z</time>
      </trkpt>
      <trkpt lat="48.02621" lon="7.02382">
        <ele>998.4</ele>
        <time>2021-07-29T11:28:18Z</time>
      </trkpt>
      <trkpt lat="48.02618" lon="7.02377">
        <ele>999.4</ele>
        <time>2021-07-29T11:28:22Z</time>
      </trkpt>
      <trkpt lat="48.02619" lon="7.02373">
        <ele>1000.6</ele>
        <time>2021-07-29T11:28:28Z</time>
      </trkpt>
      <trkpt lat="48.0262" lon="7.02372">
        <ele>1001.8</ele>
        <time>2021-07-29T11:28:32Z</time>
      </trkpt>
      <trkpt lat="48.02622" lon="7.02369">
        <ele>1003</ele>
        <time>2021-07-29T11:28:36Z</time>
      </trkpt>
      <trkpt lat="48.02624" lon="7.02368">
        <ele>1003.2</ele>
        <time>2021-07-29T11:28:38Z</time>
      </trkpt>
      <trkpt lat="48.02629" lon="7.02366">
        <ele>1003.8</ele>
        <time>2021-07-29T11:28:44Z</time>
      </trkpt>
      <trkpt lat="48.0263" lon="7.02366">
        <ele>1003.8</ele>
        <time>2021-07-29T11:28:46Z</time>
      </trkpt>
      <trkpt lat="48.02631" lon="7.02366">
        <ele>1003.8</ele>
        <time>2021-07-29T11:28:47Z</time>
      </trkpt>
      <trkpt lat="48.02632" lon="7.02366">
        <ele>1003.8</ele>
        <time>2021-07-29T11:28:48Z</time>
      </trkpt>
      <trkpt lat="48.02633" lon="7.02366">
        <ele>1004.2</ele>
        <time>2021-07-29T11:28:49Z</time>
      </trkpt>
      <trkpt lat="48.02635" lon="7.02367">
        <ele>1004.4</ele>
        <time>2021-07-29T11:28:51Z</time>
      </trkpt>
      <trkpt lat="48.02637" lon="7.02368">
        <ele>1004.8</ele>
        <time>2021-07-29T11:28:53Z</time>
      </trkpt>
      <trkpt lat="48.02638" lon="7.02368">
        <ele>1005.2</ele>
        <time>2021-07-29T11:28:55Z</time>
      </trkpt>
      <trkpt lat="48.02639" lon="7.02368">
        <ele>1005.4</ele>
        <time>2021-07-29T11:28:56Z</time>
      </trkpt>
      <trkpt lat="48.0264" lon="7.02368">
        <ele>1005.6</ele>
        <time>2021-07-29T11:28:58Z</time>
      </trkpt>
      <trkpt lat="48.02643" lon="7.02369">
        <ele>1005.8</ele>
        <time>2021-07-29T11:29:04Z</time>
      </trkpt>
      <trkpt lat="48.02646" lon="7.0237">
        <ele>1006</ele>
        <time>2021-07-29T11:29:08Z</time>
      </trkpt>
      <trkpt lat="48.02647" lon="7.02371">
        <ele>1006.4</ele>
        <time>2021-07-29T11:29:10Z</time>
      </trkpt>
      <trkpt lat="48.02648" lon="7.02371">
        <ele>1006.4</ele>
        <time>2021-07-29T11:29:11Z</time>
      </trkpt>
      <trkpt lat="48.02651" lon="7.02369">
        <ele>1006.4</ele>
        <time>2021-07-29T11:29:17Z</time>
      </trkpt>
      <trkpt lat="48.02651" lon="7.02369">
        <ele>1006.4</ele>
        <time>2021-07-29T11:29:18Z</time>
      </trkpt>
      <trkpt lat="48.02654" lon="7.02372">
        <ele>1007</ele>
        <time>2021-07-29T11:29:24Z</time>
      </trkpt>
      <trkpt lat="48.02655" lon="7.02372">
        <ele>1007.4</ele>
        <time>2021-07-29T11:29:26Z</time>
      </trkpt>
      <trkpt lat="48.02656" lon="7.02372">
        <ele>1007.6</ele>
        <time>2021-07-29T11:29:28Z</time>
      </trkpt>
      <trkpt lat="48.02661" lon="7.02372">
        <ele>1008.2</ele>
        <time>2021-07-29T11:29:34Z</time>
      </trkpt>
      <trkpt lat="48.02663" lon="7.0237">
        <ele>1008.4</ele>
        <time>2021-07-29T11:29:36Z</time>
      </trkpt>
      <trkpt lat="48.02664" lon="7.0237">
        <ele>1008.6</ele>
        <time>2021-07-29T11:29:37Z</time>
      </trkpt>
      <trkpt lat="48.02665" lon="7.02369">
        <ele>1008.8</ele>
        <time>2021-07-29T11:29:38Z</time>
      </trkpt>
      <trkpt lat="48.02665" lon="7.02368">
        <ele>1008.8</ele>
        <time>2021-07-29T11:29:39Z</time>
      </trkpt>
      <trkpt lat="48.02667" lon="7.02367">
        <ele>1009.4</ele>
        <time>2021-07-29T11:29:42Z</time>
      </trkpt>
      <trkpt lat="48.02668" lon="7.02367">
        <ele>1009.4</ele>
        <time>2021-07-29T11:29:43Z</time>
      </trkpt>
      <trkpt lat="48.02669" lon="7.02367">
        <ele>1009.6</ele>
        <time>2021-07-29T11:29:44Z</time>
      </trkpt>
      <trkpt lat="48.02672" lon="7.02364">
        <ele>1010</ele>
        <time>2021-07-29T11:29:48Z</time>
      </trkpt>
      <trkpt lat="48.02675" lon="7.0236">
        <ele>1010.4</ele>
        <time>2021-07-29T11:29:52Z</time>
      </trkpt>
      <trkpt lat="48.02675" lon="7.0236">
        <ele>1010.6</ele>
        <time>2021-07-29T11:29:53Z</time>
      </trkpt>
      <trkpt lat="48.02676" lon="7.02355">
        <ele>1011</ele>
        <time>2021-07-29T11:29:58Z</time>
      </trkpt>
      <trkpt lat="48.02678" lon="7.02349">
        <ele>1011.2</ele>
        <time>2021-07-29T11:30:04Z</time>
      </trkpt>
      <trkpt lat="48.02679" lon="7.02346">
        <ele>1011.6</ele>
        <time>2021-07-29T11:30:07Z</time>
      </trkpt>
      <trkpt lat="48.02679" lon="7.02345">
        <ele>1011.6</ele>
        <time>2021-07-29T11:30:08Z</time>
      </trkpt>
      <trkpt lat="48.02681" lon="7.02343">
        <ele>1011.4</ele>
        <time>2021-07-29T11:30:14Z</time>
      </trkpt>
      <trkpt lat="48.02681" lon="7.02342">
        <ele>1011.4</ele>
        <time>2021-07-29T11:30:18Z</time>
      </trkpt>
      <trkpt lat="48.02682" lon="7.02341">
        <ele>1011.4</ele>
        <time>2021-07-29T11:30:24Z</time>
      </trkpt>
      <trkpt lat="48.02683" lon="7.02339">
        <ele>1012</ele>
        <time>2021-07-29T11:30:28Z</time>
      </trkpt>
      <trkpt lat="48.02684" lon="7.02337">
        <ele>1012.6</ele>
        <time>2021-07-29T11:30:32Z</time>
      </trkpt>
      <trkpt lat="48.02686" lon="7.02332">
        <ele>1013.6</ele>
        <time>2021-07-29T11:30:38Z</time>
      </trkpt>
      <trkpt lat="48.02688" lon="7.02328">
        <ele>1014.6</ele>
        <time>2021-07-29T11:30:44Z</time>
      </trkpt>
      <trkpt lat="48.02689" lon="7.02327">
        <ele>1015</ele>
        <time>2021-07-29T11:30:45Z</time>
      </trkpt>
      <trkpt lat="48.02691" lon="7.02324">
        <ele>1015.4</ele>
        <time>2021-07-29T11:30:48Z</time>
      </trkpt>
      <trkpt lat="48.02692" lon="7.02319">
        <ele>1016</ele>
        <time>2021-07-29T11:30:52Z</time>
      </trkpt>
      <trkpt lat="48.02693" lon="7.02314">
        <ele>1016.2</ele>
        <time>2021-07-29T11:30:55Z</time>
      </trkpt>
      <trkpt lat="48.02694" lon="7.02312">
        <ele>1016.6</ele>
        <time>2021-07-29T11:30:57Z</time>
      </trkpt>
      <trkpt lat="48.02695" lon="7.0231">
        <ele>1016.6</ele>
        <time>2021-07-29T11:30:58Z</time>
      </trkpt>
      <trkpt lat="48.02696" lon="7.02306">
        <ele>1016.8</ele>
        <time>2021-07-29T11:31:01Z</time>
      </trkpt>
      <trkpt lat="48.02697" lon="7.02304">
        <ele>1017.2</ele>
        <time>2021-07-29T11:31:03Z</time>
      </trkpt>
      <trkpt lat="48.027" lon="7.02297">
        <ele>1017.8</ele>
        <time>2021-07-29T11:31:09Z</time>
      </trkpt>
      <trkpt lat="48.027" lon="7.02296">
        <ele>1018.2</ele>
        <time>2021-07-29T11:31:11Z</time>
      </trkpt>
      <trkpt lat="48.02703" lon="7.02289">
        <ele>1018.8</ele>
        <time>2021-07-29T11:31:17Z</time>
      </trkpt>
      <trkpt lat="48.02703" lon="7.02288">
        <ele>1019</ele>
        <time>2021-07-29T11:31:18Z</time>
      </trkpt>
      <trkpt lat="48.02704" lon="7.02287">
        <ele>1019.2</ele>
        <time>2021-07-29T11:31:19Z</time>
      </trkpt>
      <trkpt lat="48.02705" lon="7.0228">
        <ele>1020.4</ele>
        <time>2021-07-29T11:31:25Z</time>
      </trkpt>
      <trkpt lat="48.02706" lon="7.02277">
        <ele>1020.8</ele>
        <time>2021-07-29T11:31:29Z</time>
      </trkpt>
      <trkpt lat="48.02709" lon="7.02272">
        <ele>1020.6</ele>
        <time>2021-07-29T11:31:35Z</time>
      </trkpt>
      <trkpt lat="48.02711" lon="7.02269">
        <ele>1020.6</ele>
        <time>2021-07-29T11:31:39Z</time>
      </trkpt>
      <trkpt lat="48.02713" lon="7.02262">
        <ele>1021.2</ele>
        <time>2021-07-29T11:31:45Z</time>
      </trkpt>
      <trkpt lat="48.02714" lon="7.0226">
        <ele>1021.4</ele>
        <time>2021-07-29T11:31:46Z</time>
      </trkpt>
      <trkpt lat="48.02715" lon="7.02256">
        <ele>1021.8</ele>
        <time>2021-07-29T11:31:49Z</time>
      </trkpt>
      <trkpt lat="48.02715" lon="7.02252">
        <ele>1022.4</ele>
        <time>2021-07-29T11:31:53Z</time>
      </trkpt>
      <trkpt lat="48.02715" lon="7.02252">
        <ele>1023.6</ele>
        <time>2021-07-29T11:31:58Z</time>
      </trkpt>
      <trkpt lat="48.02715" lon="7.02253">
        <ele>1024</ele>
        <time>2021-07-29T11:31:59Z</time>
      </trkpt>
      <trkpt lat="48.02714" lon="7.02253">
        <ele>1024.6</ele>
        <time>2021-07-29T11:32:03Z</time>
      </trkpt>
      <trkpt lat="48.02711" lon="7.02251">
        <ele>1025.8</ele>
        <time>2021-07-29T11:32:09Z</time>
      </trkpt>
      <trkpt lat="48.02709" lon="7.02249">
        <ele>1026.6</ele>
        <time>2021-07-29T11:32:15Z</time>
      </trkpt>
      <trkpt lat="48.02706" lon="7.02248">
        <ele>1026.8</ele>
        <time>2021-07-29T11:32:18Z</time>
      </trkpt>
      <trkpt lat="48.02706" lon="7.02248">
        <ele>1026.8</ele>
        <time>2021-07-29T11:32:19Z</time>
      </trkpt>
      <trkpt lat="48.02701" lon="7.02246">
        <ele>1027</ele>
        <time>2021-07-29T11:32:25Z</time>
      </trkpt>
      <trkpt lat="48.02698" lon="7.0225">
        <ele>1026.6</ele>
        <time>2021-07-29T11:32:29Z</time>
      </trkpt>
      <trkpt lat="48.02698" lon="7.0225">
        <ele>1026.6</ele>
        <time>2021-07-29T11:32:30Z</time>
      </trkpt>
      <trkpt lat="48.02694" lon="7.0225">
        <ele>1026.6</ele>
        <time>2021-07-29T11:32:36Z</time>
      </trkpt>
      <trkpt lat="48.02692" lon="7.02249">
        <ele>1026.8</ele>
        <time>2021-07-29T11:32:39Z</time>
      </trkpt>
      <trkpt lat="48.0269" lon="7.02247">
        <ele>1027.8</ele>
        <time>2021-07-29T11:32:44Z</time>
      </trkpt>
      <trkpt lat="48.02687" lon="7.02247">
        <ele>1028</ele>
        <time>2021-07-29T11:32:47Z</time>
      </trkpt>
      <trkpt lat="48.02686" lon="7.02248">
        <ele>1027.8</ele>
        <time>2021-07-29T11:32:48Z</time>
      </trkpt>
      <trkpt lat="48.02685" lon="7.02249">
        <ele>1027.8</ele>
        <time>2021-07-29T11:32:50Z</time>
      </trkpt>
      <trkpt lat="48.02682" lon="7.02251">
        <ele>1028.2</ele>
        <time>2021-07-29T11:32:53Z</time>
      </trkpt>
      <trkpt lat="48.02679" lon="7.02254">
        <ele>1028.4</ele>
        <time>2021-07-29T11:32:55Z</time>
      </trkpt>
      <trkpt lat="48.02676" lon="7.02259">
        <ele>1028.6</ele>
        <time>2021-07-29T11:32:59Z</time>
      </trkpt>
      <trkpt lat="48.02674" lon="7.02261">
        <ele>1029</ele>
        <time>2021-07-29T11:33:01Z</time>
      </trkpt>
      <trkpt lat="48.02669" lon="7.02267">
        <ele>1029.2</ele>
        <time>2021-07-29T11:33:07Z</time>
      </trkpt>
      <trkpt lat="48.02668" lon="7.02269">
        <ele>1029.2</ele>
        <time>2021-07-29T11:33:09Z</time>
      </trkpt>
      <trkpt lat="48.02664" lon="7.02269">
        <ele>1029.8</ele>
        <time>2021-07-29T11:33:15Z</time>
      </trkpt>
      <trkpt lat="48.02664" lon="7.02268">
        <ele>1030</ele>
        <time>2021-07-29T11:33:16Z</time>
      </trkpt>
      <trkpt lat="48.02663" lon="7.02266">
        <ele>1030.6</ele>
        <time>2021-07-29T11:33:19Z</time>
      </trkpt>
      <trkpt lat="48.02662" lon="7.02264">
        <ele>1031.2</ele>
        <time>2021-07-29T11:33:21Z</time>
      </trkpt>
      <trkpt lat="48.02659" lon="7.02258">
        <ele>1031.4</ele>
        <time>2021-07-29T11:33:27Z</time>
      </trkpt>
      <trkpt lat="48.02659" lon="7.02257">
        <ele>1031.4</ele>
        <time>2021-07-29T11:33:28Z</time>
      </trkpt>
      <trkpt lat="48.02659" lon="7.02251">
        <ele>1032.2</ele>
        <time>2021-07-29T11:33:34Z</time>
      </trkpt>
      <trkpt lat="48.02659" lon="7.02245">
        <ele>1032.6</ele>
        <time>2021-07-29T11:33:39Z</time>
      </trkpt>
      <trkpt lat="48.0266" lon="7.02241">
        <ele>1033.4</ele>
        <time>2021-07-29T11:33:43Z</time>
      </trkpt>
      <trkpt lat="48.02659" lon="7.02233">
        <ele>1033.4</ele>
        <time>2021-07-29T11:33:48Z</time>
      </trkpt>
      <trkpt lat="48.02659" lon="7.02232">
        <ele>1033.4</ele>
        <time>2021-07-29T11:33:49Z</time>
      </trkpt>
      <trkpt lat="48.02658" lon="7.0223">
        <ele>1033.6</ele>
        <time>2021-07-29T11:33:50Z</time>
      </trkpt>
      <trkpt lat="48.02657" lon="7.02228">
        <ele>1034</ele>
        <time>2021-07-29T11:33:53Z</time>
      </trkpt>
      <trkpt lat="48.02656" lon="7.02226">
        <ele>1034.4</ele>
        <time>2021-07-29T11:33:57Z</time>
      </trkpt>
      <trkpt lat="48.02656" lon="7.02226">
        <ele>1034.4</ele>
        <time>2021-07-29T11:33:58Z</time>
      </trkpt>
      <trkpt lat="48.02654" lon="7.02222">
        <ele>1034</ele>
        <time>2021-07-29T11:34:04Z</time>
      </trkpt>
      <trkpt lat="48.02652" lon="7.02222">
        <ele>1034.6</ele>
        <time>2021-07-29T11:34:09Z</time>
      </trkpt>
      <trkpt lat="48.02652" lon="7.02218">
        <ele>1033.4</ele>
        <time>2021-07-29T11:34:15Z</time>
      </trkpt>
      <trkpt lat="48.02651" lon="7.02217">
        <ele>1033.2</ele>
        <time>2021-07-29T11:34:16Z</time>
      </trkpt>
      <trkpt lat="48.0265" lon="7.02215">
        <ele>1033.2</ele>
        <time>2021-07-29T11:34:19Z</time>
      </trkpt>
      <trkpt lat="48.02648" lon="7.02212">
        <ele>1032.2</ele>
        <time>2021-07-29T11:34:25Z</time>
      </trkpt>
      <trkpt lat="48.02645" lon="7.0221">
        <ele>1032.4</ele>
        <time>2021-07-29T11:34:29Z</time>
      </trkpt>
      <trkpt lat="48.02641" lon="7.02209">
        <ele>1032.4</ele>
        <time>2021-07-29T11:34:33Z</time>
      </trkpt>
      <trkpt lat="48.02636" lon="7.02207">
        <ele>1032.6</ele>
        <time>2021-07-29T11:34:39Z</time>
      </trkpt>
      <trkpt lat="48.02634" lon="7.02207">
        <ele>1032.2</ele>
        <time>2021-07-29T11:34:41Z</time>
      </trkpt>
      <trkpt lat="48.0263" lon="7.02204">
        <ele>1031.2</ele>
        <time>2021-07-29T11:34:47Z</time>
      </trkpt>
      <trkpt lat="48.02629" lon="7.02203">
        <ele>1031.2</ele>
        <time>2021-07-29T11:34:48Z</time>
      </trkpt>
      <trkpt lat="48.02627" lon="7.02203">
        <ele>1030.8</ele>
        <time>2021-07-29T11:34:51Z</time>
      </trkpt>
      <trkpt lat="48.02624" lon="7.02203">
        <ele>1030.8</ele>
        <time>2021-07-29T11:34:57Z</time>
      </trkpt>
      <trkpt lat="48.02623" lon="7.02203">
        <ele>1030.8</ele>
        <time>2021-07-29T11:34:59Z</time>
      </trkpt>
      <trkpt lat="48.02619" lon="7.02199">
        <ele>1030</ele>
        <time>2021-07-29T11:35:04Z</time>
      </trkpt>
      <trkpt lat="48.02617" lon="7.02197">
        <ele>1029</ele>
        <time>2021-07-29T11:35:07Z</time>
      </trkpt>
      <trkpt lat="48.02616" lon="7.02195">
        <ele>1028.8</ele>
        <time>2021-07-29T11:35:08Z</time>
      </trkpt>
      <trkpt lat="48.02615" lon="7.02194">
        <ele>1028.6</ele>
        <time>2021-07-29T11:35:09Z</time>
      </trkpt>
      <trkpt lat="48.02614" lon="7.02192">
        <ele>1028.6</ele>
        <time>2021-07-29T11:35:11Z</time>
      </trkpt>
      <trkpt lat="48.0261" lon="7.02186">
        <ele>1028.4</ele>
        <time>2021-07-29T11:35:17Z</time>
      </trkpt>
      <trkpt lat="48.02609" lon="7.02184">
        <ele>1028.6</ele>
        <time>2021-07-29T11:35:18Z</time>
      </trkpt>
      <trkpt lat="48.02603" lon="7.02174">
        <ele>1028.4</ele>
        <time>2021-07-29T11:35:24Z</time>
      </trkpt>
      <trkpt lat="48.026" lon="7.02164">
        <ele>1028.8</ele>
        <time>2021-07-29T11:35:29Z</time>
      </trkpt>
      <trkpt lat="48.026" lon="7.02157">
        <ele>1028</ele>
        <time>2021-07-29T11:35:35Z</time>
      </trkpt>
      <trkpt lat="48.026" lon="7.02154">
        <ele>1027.6</ele>
        <time>2021-07-29T11:35:39Z</time>
      </trkpt>
      <trkpt lat="48.02598" lon="7.02149">
        <ele>1026.8</ele>
        <time>2021-07-29T11:35:43Z</time>
      </trkpt>
      <trkpt lat="48.02598" lon="7.02147">
        <ele>1025.6</ele>
        <time>2021-07-29T11:35:45Z</time>
      </trkpt>
      <trkpt lat="48.02598" lon="7.02143">
        <ele>1025.4</ele>
        <time>2021-07-29T11:35:49Z</time>
      </trkpt>
      <trkpt lat="48.02596" lon="7.02138">
        <ele>1025</ele>
        <time>2021-07-29T11:35:52Z</time>
      </trkpt>
      <trkpt lat="48.02592" lon="7.02131">
        <ele>1025</ele>
        <time>2021-07-29T11:35:58Z</time>
      </trkpt>
      <trkpt lat="48.02591" lon="7.0213">
        <ele>1024.8</ele>
        <time>2021-07-29T11:35:59Z</time>
      </trkpt>
      <trkpt lat="48.02591" lon="7.02129">
        <ele>1024.6</ele>
        <time>2021-07-29T11:36:00Z</time>
      </trkpt>
      <trkpt lat="48.02589" lon="7.02125">
        <ele>1024.4</ele>
        <time>2021-07-29T11:36:04Z</time>
      </trkpt>
      <trkpt lat="48.02587" lon="7.02122">
        <ele>1023.6</ele>
        <time>2021-07-29T11:36:08Z</time>
      </trkpt>
      <trkpt lat="48.02587" lon="7.0212">
        <ele>1023.4</ele>
        <time>2021-07-29T11:36:09Z</time>
      </trkpt>
      <trkpt lat="48.02585" lon="7.02115">
        <ele>1024</ele>
        <time>2021-07-29T11:36:15Z</time>
      </trkpt>
      <trkpt lat="48.02586" lon="7.02111">
        <ele>1024.4</ele>
        <time>2021-07-29T11:36:19Z</time>
      </trkpt>
      <trkpt lat="48.02586" lon="7.0211">
        <ele>1024.6</ele>
        <time>2021-07-29T11:36:20Z</time>
      </trkpt>
      <trkpt lat="48.02589" lon="7.02104">
        <ele>1025.4</ele>
        <time>2021-07-29T11:36:26Z</time>
      </trkpt>
      <trkpt lat="48.02589" lon="7.02103">
        <ele>1025.6</ele>
        <time>2021-07-29T11:36:27Z</time>
      </trkpt>
      <trkpt lat="48.02589" lon="7.02101">
        <ele>1025.6</ele>
        <time>2021-07-29T11:36:28Z</time>
      </trkpt>
      <trkpt lat="48.02589" lon="7.02099">
        <ele>1025.6</ele>
        <time>2021-07-29T11:36:29Z</time>
      </trkpt>
      <trkpt lat="48.02588" lon="7.0209">
        <ele>1025.8</ele>
        <time>2021-07-29T11:36:35Z</time>
      </trkpt>
      <trkpt lat="48.02588" lon="7.02085">
        <ele>1025.8</ele>
        <time>2021-07-29T11:36:38Z</time>
      </trkpt>
      <trkpt lat="48.02588" lon="7.02084">
        <ele>1025.8</ele>
        <time>2021-07-29T11:36:39Z</time>
      </trkpt>
      <trkpt lat="48.0259" lon="7.02075">
        <ele>1026.4</ele>
        <time>2021-07-29T11:36:45Z</time>
      </trkpt>
      <trkpt lat="48.0259" lon="7.02072">
        <ele>1026.6</ele>
        <time>2021-07-29T11:36:47Z</time>
      </trkpt>
      <trkpt lat="48.0259" lon="7.0207">
        <ele>1026.8</ele>
        <time>2021-07-29T11:36:49Z</time>
      </trkpt>
      <trkpt lat="48.02591" lon="7.02062">
        <ele>1027.6</ele>
        <time>2021-07-29T11:36:55Z</time>
      </trkpt>
      <trkpt lat="48.02591" lon="7.02057">
        <ele>1027.6</ele>
        <time>2021-07-29T11:36:58Z</time>
      </trkpt>
      <trkpt lat="48.02591" lon="7.02056">
        <ele>1027.6</ele>
        <time>2021-07-29T11:36:59Z</time>
      </trkpt>
      <trkpt lat="48.02591" lon="7.02051">
        <ele>1027.6</ele>
        <time>2021-07-29T11:37:05Z</time>
      </trkpt>
      <trkpt lat="48.0259" lon="7.02048">
        <ele>1028.2</ele>
        <time>2021-07-29T11:37:09Z</time>
      </trkpt>
      <trkpt lat="48.0259" lon="7.02041">
        <ele>1028.2</ele>
        <time>2021-07-29T11:37:15Z</time>
      </trkpt>
      <trkpt lat="48.0259" lon="7.02038">
        <ele>1028.2</ele>
        <time>2021-07-29T11:37:19Z</time>
      </trkpt>
      <trkpt lat="48.02592" lon="7.02033">
        <ele>1028.8</ele>
        <time>2021-07-29T11:37:24Z</time>
      </trkpt>
      <trkpt lat="48.02593" lon="7.02027">
        <ele>1029.6</ele>
        <time>2021-07-29T11:37:29Z</time>
      </trkpt>
      <trkpt lat="48.02595" lon="7.02025">
        <ele>1029.8</ele>
        <time>2021-07-29T11:37:31Z</time>
      </trkpt>
      <trkpt lat="48.02598" lon="7.0202">
        <ele>1030.6</ele>
        <time>2021-07-29T11:37:37Z</time>
      </trkpt>
      <trkpt lat="48.02599" lon="7.02019">
        <ele>1030.8</ele>
        <time>2021-07-29T11:37:38Z</time>
      </trkpt>
      <trkpt lat="48.026" lon="7.02018">
        <ele>1030.8</ele>
        <time>2021-07-29T11:37:39Z</time>
      </trkpt>
      <trkpt lat="48.02602" lon="7.02016">
        <ele>1031.4</ele>
        <time>2021-07-29T11:37:43Z</time>
      </trkpt>
      <trkpt lat="48.02603" lon="7.02014">
        <ele>1031.6</ele>
        <time>2021-07-29T11:37:45Z</time>
      </trkpt>
      <trkpt lat="48.02604" lon="7.02014">
        <ele>1031.8</ele>
        <time>2021-07-29T11:37:46Z</time>
      </trkpt>
      <trkpt lat="48.02607" lon="7.0201">
        <ele>1032.2</ele>
        <time>2021-07-29T11:37:49Z</time>
      </trkpt>
      <trkpt lat="48.02611" lon="7.02003">
        <ele>1032.6</ele>
        <time>2021-07-29T11:37:55Z</time>
      </trkpt>
      <trkpt lat="48.02612" lon="7.02002">
        <ele>1032.8</ele>
        <time>2021-07-29T11:37:56Z</time>
      </trkpt>
      <trkpt lat="48.02613" lon="7.01998">
        <ele>1033.6</ele>
        <time>2021-07-29T11:37:59Z</time>
      </trkpt>
      <trkpt lat="48.02614" lon="7.01996">
        <ele>1034</ele>
        <time>2021-07-29T11:38:02Z</time>
      </trkpt>
      <trkpt lat="48.02615" lon="7.01993">
        <ele>1034.4</ele>
        <time>2021-07-29T11:38:05Z</time>
      </trkpt>
      <trkpt lat="48.02616" lon="7.01991">
        <ele>1035.4</ele>
        <time>2021-07-29T11:38:08Z</time>
      </trkpt>
      <trkpt lat="48.02617" lon="7.0199">
        <ele>1035.8</ele>
        <time>2021-07-29T11:38:09Z</time>
      </trkpt>
      <trkpt lat="48.02618" lon="7.01987">
        <ele>1036.4</ele>
        <time>2021-07-29T11:38:12Z</time>
      </trkpt>
      <trkpt lat="48.02621" lon="7.01984">
        <ele>1037.4</ele>
        <time>2021-07-29T11:38:18Z</time>
      </trkpt>
      <trkpt lat="48.02621" lon="7.01983">
        <ele>1037.4</ele>
        <time>2021-07-29T11:38:19Z</time>
      </trkpt>
      <trkpt lat="48.02621" lon="7.01983">
        <ele>1036.2</ele>
        <time>2021-07-29T11:38:25Z</time>
      </trkpt>
      <trkpt lat="48.02623" lon="7.01981">
        <ele>1036.6</ele>
        <time>2021-07-29T11:38:29Z</time>
      </trkpt>
      <trkpt lat="48.02624" lon="7.01978">
        <ele>1037.4</ele>
        <time>2021-07-29T11:38:33Z</time>
      </trkpt>
      <trkpt lat="48.02626" lon="7.01971">
        <ele>1038.2</ele>
        <time>2021-07-29T11:38:39Z</time>
      </trkpt>
      <trkpt lat="48.02627" lon="7.0197">
        <ele>1038.4</ele>
        <time>2021-07-29T11:38:40Z</time>
      </trkpt>
      <trkpt lat="48.02626" lon="7.01965">
        <ele>1039.4</ele>
        <time>2021-07-29T11:38:46Z</time>
      </trkpt>
      <trkpt lat="48.02626" lon="7.01964">
        <ele>1039.4</ele>
        <time>2021-07-29T11:38:47Z</time>
      </trkpt>
      <trkpt lat="48.02626" lon="7.01963">
        <ele>1039.4</ele>
        <time>2021-07-29T11:38:49Z</time>
      </trkpt>
      <trkpt lat="48.02626" lon="7.01963">
        <ele>1038.4</ele>
        <time>2021-07-29T11:38:53Z</time>
      </trkpt>
      <trkpt lat="48.02629" lon="7.0196">
        <ele>1038.8</ele>
        <time>2021-07-29T11:38:59Z</time>
      </trkpt>
      <trkpt lat="48.0263" lon="7.01959">
        <ele>1039.4</ele>
        <time>2021-07-29T11:39:01Z</time>
      </trkpt>
      <trkpt lat="48.02633" lon="7.01955">
        <ele>1039.2</ele>
        <time>2021-07-29T11:39:07Z</time>
      </trkpt>
      <trkpt lat="48.02634" lon="7.01952">
        <ele>1039.8</ele>
        <time>2021-07-29T11:39:09Z</time>
      </trkpt>
      <trkpt lat="48.02635" lon="7.01948">
        <ele>1040.6</ele>
        <time>2021-07-29T11:39:13Z</time>
      </trkpt>
      <trkpt lat="48.02636" lon="7.01946">
        <ele>1041.6</ele>
        <time>2021-07-29T11:39:16Z</time>
      </trkpt>
      <trkpt lat="48.02638" lon="7.01944">
        <ele>1042</ele>
        <time>2021-07-29T11:39:19Z</time>
      </trkpt>
      <trkpt lat="48.0264" lon="7.01941">
        <ele>1042.8</ele>
        <time>2021-07-29T11:39:24Z</time>
      </trkpt>
      <trkpt lat="48.02641" lon="7.01937">
        <ele>1043.6</ele>
        <time>2021-07-29T11:39:29Z</time>
      </trkpt>
      <trkpt lat="48.02643" lon="7.01939">
        <ele>1043.6</ele>
        <time>2021-07-29T11:39:35Z</time>
      </trkpt>
      <trkpt lat="48.02643" lon="7.01939">
        <ele>1043.8</ele>
        <time>2021-07-29T11:39:36Z</time>
      </trkpt>
      <trkpt lat="48.02644" lon="7.01939">
        <ele>1043.8</ele>
        <time>2021-07-29T11:39:39Z</time>
      </trkpt>
      <trkpt lat="48.02644" lon="7.01939">
        <ele>1043.8</ele>
        <time>2021-07-29T11:39:45Z</time>
      </trkpt>
      <trkpt lat="48.02645" lon="7.01937">
        <ele>1044.4</ele>
        <time>2021-07-29T11:39:49Z</time>
      </trkpt>
      <trkpt lat="48.02645" lon="7.01936">
        <ele>1045.2</ele>
        <time>2021-07-29T11:39:51Z</time>
      </trkpt>
      <trkpt lat="48.02645" lon="7.01936">
        <ele>1045.2</ele>
        <time>2021-07-29T11:39:57Z</time>
      </trkpt>
      <trkpt lat="48.02646" lon="7.01935">
        <ele>1045.2</ele>
        <time>2021-07-29T11:39:59Z</time>
      </trkpt>
      <trkpt lat="48.02646" lon="7.01934">
        <ele>1045.8</ele>
        <time>2021-07-29T11:40:05Z</time>
      </trkpt>
      <trkpt lat="48.02648" lon="7.01934">
        <ele>1046.2</ele>
        <time>2021-07-29T11:40:08Z</time>
      </trkpt>
      <trkpt lat="48.02648" lon="7.01935">
        <ele>1046.2</ele>
        <time>2021-07-29T11:40:09Z</time>
      </trkpt>
      <trkpt lat="48.0265" lon="7.01936">
        <ele>1047.2</ele>
        <time>2021-07-29T11:40:15Z</time>
      </trkpt>
      <trkpt lat="48.02651" lon="7.01935">
        <ele>1046.8</ele>
        <time>2021-07-29T11:40:19Z</time>
      </trkpt>
      <trkpt lat="48.02651" lon="7.01935">
        <ele>1047.2</ele>
        <time>2021-07-29T11:40:20Z</time>
      </trkpt>
      <trkpt lat="48.02652" lon="7.01936">
        <ele>1047.6</ele>
        <time>2021-07-29T11:40:26Z</time>
      </trkpt>
      <trkpt lat="48.02652" lon="7.01937">
        <ele>1047.8</ele>
        <time>2021-07-29T11:40:29Z</time>
      </trkpt>
      <trkpt lat="48.02653" lon="7.01938">
        <ele>1048.8</ele>
        <time>2021-07-29T11:40:33Z</time>
      </trkpt>
      <trkpt lat="48.02654" lon="7.01939">
        <ele>1049.6</ele>
        <time>2021-07-29T11:40:39Z</time>
      </trkpt>
      <trkpt lat="48.02656" lon="7.01939">
        <ele>1049.4</ele>
        <time>2021-07-29T11:40:45Z</time>
      </trkpt>
      <trkpt lat="48.02657" lon="7.01941">
        <ele>1049.8</ele>
        <time>2021-07-29T11:40:49Z</time>
      </trkpt>
      <trkpt lat="48.0266" lon="7.01939">
        <ele>1051</ele>
        <time>2021-07-29T11:40:55Z</time>
      </trkpt>
      <trkpt lat="48.02661" lon="7.01936">
        <ele>1051.2</ele>
        <time>2021-07-29T11:40:59Z</time>
      </trkpt>
      <trkpt lat="48.02663" lon="7.01933">
        <ele>1052</ele>
        <time>2021-07-29T11:41:05Z</time>
      </trkpt>
      <trkpt lat="48.02663" lon="7.01933">
        <ele>1052.6</ele>
        <time>2021-07-29T11:41:09Z</time>
      </trkpt>
      <trkpt lat="48.02663" lon="7.01933">
        <ele>1053</ele>
        <time>2021-07-29T11:41:10Z</time>
      </trkpt>
      <trkpt lat="48.02665" lon="7.01934">
        <ele>1053.4</ele>
        <time>2021-07-29T11:41:16Z</time>
      </trkpt>
      <trkpt lat="48.02666" lon="7.01934">
        <ele>1052.8</ele>
        <time>2021-07-29T11:41:19Z</time>
      </trkpt>
      <trkpt lat="48.02668" lon="7.01934">
        <ele>1052.6</ele>
        <time>2021-07-29T11:41:25Z</time>
      </trkpt>
      <trkpt lat="48.02669" lon="7.01936">
        <ele>1052</ele>
        <time>2021-07-29T11:41:29Z</time>
      </trkpt>
      <trkpt lat="48.02671" lon="7.01931">
        <ele>1051</ele>
        <time>2021-07-29T11:41:34Z</time>
      </trkpt>
      <trkpt lat="48.02672" lon="7.01928">
        <ele>1050.6</ele>
        <time>2021-07-29T11:41:37Z</time>
      </trkpt>
      <trkpt lat="48.02672" lon="7.01926">
        <ele>1050.8</ele>
        <time>2021-07-29T11:41:39Z</time>
      </trkpt>
      <trkpt lat="48.02671" lon="7.01924">
        <ele>1049.6</ele>
        <time>2021-07-29T11:41:42Z</time>
      </trkpt>
      <trkpt lat="48.0267" lon="7.01922">
        <ele>1049.2</ele>
        <time>2021-07-29T11:41:48Z</time>
      </trkpt>
      <trkpt lat="48.0267" lon="7.01921">
        <ele>1049</ele>
        <time>2021-07-29T11:41:49Z</time>
      </trkpt>
      <trkpt lat="48.02669" lon="7.01919">
        <ele>1048.4</ele>
        <time>2021-07-29T11:41:55Z</time>
      </trkpt>
      <trkpt lat="48.02669" lon="7.01917">
        <ele>1047.8</ele>
        <time>2021-07-29T11:42:00Z</time>
      </trkpt>
      <trkpt lat="48.02669" lon="7.01917">
        <ele>1047.2</ele>
        <time>2021-07-29T11:42:03Z</time>
      </trkpt>
      <trkpt lat="48.0267" lon="7.01912">
        <ele>1046</ele>
        <time>2021-07-29T11:42:07Z</time>
      </trkpt>
      <trkpt lat="48.02671" lon="7.01908">
        <ele>1045.8</ele>
        <time>2021-07-29T11:42:10Z</time>
      </trkpt>
      <trkpt lat="48.02673" lon="7.01905">
        <ele>1045.8</ele>
        <time>2021-07-29T11:42:16Z</time>
      </trkpt>
      <trkpt lat="48.02673" lon="7.01903">
        <ele>1046</ele>
        <time>2021-07-29T11:42:20Z</time>
      </trkpt>
      <trkpt lat="48.02674" lon="7.01902">
        <ele>1045.4</ele>
        <time>2021-07-29T11:42:26Z</time>
      </trkpt>
      <trkpt lat="48.02674" lon="7.01902">
        <ele>1044.8</ele>
        <time>2021-07-29T11:42:27Z</time>
      </trkpt>
      <trkpt lat="48.02674" lon="7.01902">
        <ele>1042</ele>
        <time>2021-07-29T11:42:28Z</time>
      </trkpt>
      <trkpt lat="48.02674" lon="7.01903">
        <ele>1041.6</ele>
        <time>2021-07-29T11:42:30Z</time>
      </trkpt>
      <trkpt lat="48.02674" lon="7.01903">
        <ele>1043.6</ele>
        <time>2021-07-29T11:42:32Z</time>
      </trkpt>
      <trkpt lat="48.02674" lon="7.01903">
        <ele>1042.6</ele>
        <time>2021-07-29T11:42:34Z</time>
      </trkpt>
      <trkpt lat="48.02674" lon="7.01902">
        <ele>1041.4</ele>
        <time>2021-07-29T11:42:36Z</time>
      </trkpt>
      <trkpt lat="48.02674" lon="7.01901">
        <ele>1041.6</ele>
        <time>2021-07-29T11:42:40Z</time>
      </trkpt>
      <trkpt lat="48.02674" lon="7.01901">
        <ele>1042.4</ele>
        <time>2021-07-29T11:42:42Z</time>
      </trkpt>
      <trkpt lat="48.02674" lon="7.019">
        <ele>1042.6</ele>
        <time>2021-07-29T11:42:48Z</time>
      </trkpt>
      <trkpt lat="48.02674" lon="7.01899">
        <ele>1042.6</ele>
        <time>2021-07-29T11:42:50Z</time>
      </trkpt>
      <trkpt lat="48.02674" lon="7.01899">
        <ele>1042.8</ele>
        <time>2021-07-29T11:42:56Z</time>
      </trkpt>
      <trkpt lat="48.02674" lon="7.01897">
        <ele>1042.4</ele>
        <time>2021-07-29T11:43:00Z</time>
      </trkpt>
      <trkpt lat="48.02675" lon="7.01897">
        <ele>1042</ele>
        <time>2021-07-29T11:43:06Z</time>
      </trkpt>
      <trkpt lat="48.02675" lon="7.01895">
        <ele>1041.4</ele>
        <time>2021-07-29T11:43:10Z</time>
      </trkpt>
      <trkpt lat="48.02675" lon="7.01893">
        <ele>1040.4</ele>
        <time>2021-07-29T11:43:13Z</time>
      </trkpt>
      <trkpt lat="48.02676" lon="7.0189">
        <ele>1039.2</ele>
        <time>2021-07-29T11:43:19Z</time>
      </trkpt>
      <trkpt lat="48.02676" lon="7.0189">
        <ele>1039.2</ele>
        <time>2021-07-29T11:43:20Z</time>
      </trkpt>
      <trkpt lat="48.02678" lon="7.01886">
        <ele>1038.4</ele>
        <time>2021-07-29T11:43:26Z</time>
      </trkpt>
      <trkpt lat="48.02678" lon="7.01884">
        <ele>1039.2</ele>
        <time>2021-07-29T11:43:31Z</time>
      </trkpt>
      <trkpt lat="48.02681" lon="7.01879">
        <ele>1040.6</ele>
        <time>2021-07-29T11:43:35Z</time>
      </trkpt>
      <trkpt lat="48.02681" lon="7.01878">
        <ele>1041</ele>
        <time>2021-07-29T11:43:36Z</time>
      </trkpt>
      <trkpt lat="48.02682" lon="7.01875">
        <ele>1042</ele>
        <time>2021-07-29T11:43:38Z</time>
      </trkpt>
      <trkpt lat="48.02683" lon="7.01872">
        <ele>1042.2</ele>
        <time>2021-07-29T11:43:41Z</time>
      </trkpt>
      <trkpt lat="48.02685" lon="7.01864">
        <ele>1042.8</ele>
        <time>2021-07-29T11:43:47Z</time>
      </trkpt>
      <trkpt lat="48.02685" lon="7.01861">
        <ele>1043</ele>
        <time>2021-07-29T11:43:51Z</time>
      </trkpt>
      <trkpt lat="48.02686" lon="7.01859">
        <ele>1043.2</ele>
        <time>2021-07-29T11:43:57Z</time>
      </trkpt>
      <trkpt lat="48.02686" lon="7.01859">
        <ele>1043.4</ele>
        <time>2021-07-29T11:44:01Z</time>
      </trkpt>
      <trkpt lat="48.02687" lon="7.01859">
        <ele>1043.2</ele>
        <time>2021-07-29T11:44:07Z</time>
      </trkpt>
      <trkpt lat="48.02687" lon="7.01859">
        <ele>1043.4</ele>
        <time>2021-07-29T11:44:11Z</time>
      </trkpt>
      <trkpt lat="48.02687" lon="7.01859">
        <ele>1042.6</ele>
        <time>2021-07-29T11:44:17Z</time>
      </trkpt>
      <trkpt lat="48.02686" lon="7.01859">
        <ele>1042.2</ele>
        <time>2021-07-29T11:44:21Z</time>
      </trkpt>
      <trkpt lat="48.02687" lon="7.01858">
        <ele>1041.4</ele>
        <time>2021-07-29T11:44:22Z</time>
      </trkpt>
      <trkpt lat="48.02688" lon="7.01858">
        <ele>1040.4</ele>
        <time>2021-07-29T11:44:26Z</time>
      </trkpt>
      <trkpt lat="48.02689" lon="7.01858">
        <ele>1039.2</ele>
        <time>2021-07-29T11:44:30Z</time>
      </trkpt>
      <trkpt lat="48.02689" lon="7.01857">
        <ele>1039</ele>
        <time>2021-07-29T11:44:31Z</time>
      </trkpt>
      <trkpt lat="48.02689" lon="7.01855">
        <ele>1038.4</ele>
        <time>2021-07-29T11:44:37Z</time>
      </trkpt>
      <trkpt lat="48.02689" lon="7.01854">
        <ele>1038</ele>
        <time>2021-07-29T11:44:38Z</time>
      </trkpt>
      <trkpt lat="48.0269" lon="7.01853">
        <ele>1037.4</ele>
        <time>2021-07-29T11:44:41Z</time>
      </trkpt>
      <trkpt lat="48.0269" lon="7.01853">
        <ele>1036.8</ele>
        <time>2021-07-29T11:44:44Z</time>
      </trkpt>
      <trkpt lat="48.02689" lon="7.01847">
        <ele>1036</ele>
        <time>2021-07-29T11:44:50Z</time>
      </trkpt>
      <trkpt lat="48.02689" lon="7.01845">
        <ele>1035.6</ele>
        <time>2021-07-29T11:44:51Z</time>
      </trkpt>
      <trkpt lat="48.0269" lon="7.01838">
        <ele>1035</ele>
        <time>2021-07-29T11:44:57Z</time>
      </trkpt>
      <trkpt lat="48.02691" lon="7.01835">
        <ele>1034.4</ele>
        <time>2021-07-29T11:45:00Z</time>
      </trkpt>
      <trkpt lat="48.02692" lon="7.01834">
        <ele>1034.4</ele>
        <time>2021-07-29T11:45:01Z</time>
      </trkpt>
      <trkpt lat="48.02693" lon="7.01825">
        <ele>1033.4</ele>
        <time>2021-07-29T11:45:06Z</time>
      </trkpt>
      <trkpt lat="48.02694" lon="7.01817">
        <ele>1033</ele>
        <time>2021-07-29T11:45:11Z</time>
      </trkpt>
      <trkpt lat="48.02691" lon="7.01807">
        <ele>1033.6</ele>
        <time>2021-07-29T11:45:17Z</time>
      </trkpt>
      <trkpt lat="48.02691" lon="7.01807">
        <ele>1033.8</ele>
        <time>2021-07-29T11:45:18Z</time>
      </trkpt>
      <trkpt lat="48.02691" lon="7.01806">
        <ele>1034.2</ele>
        <time>2021-07-29T11:45:20Z</time>
      </trkpt>
      <trkpt lat="48.02691" lon="7.01806">
        <ele>1034</ele>
        <time>2021-07-29T11:45:21Z</time>
      </trkpt>
      <trkpt lat="48.02692" lon="7.01807">
        <ele>1033.2</ele>
        <time>2021-07-29T11:45:27Z</time>
      </trkpt>
      <trkpt lat="48.02692" lon="7.0181">
        <ele>1032.8</ele>
        <time>2021-07-29T11:45:31Z</time>
      </trkpt>
      <trkpt lat="48.02692" lon="7.01812">
        <ele>1033.2</ele>
        <time>2021-07-29T11:45:37Z</time>
      </trkpt>
      <trkpt lat="48.02693" lon="7.01813">
        <ele>1033.6</ele>
        <time>2021-07-29T11:45:41Z</time>
      </trkpt>
      <trkpt lat="48.02692" lon="7.01813">
        <ele>1033</ele>
        <time>2021-07-29T11:45:47Z</time>
      </trkpt>
      <trkpt lat="48.02692" lon="7.01813">
        <ele>1032.8</ele>
        <time>2021-07-29T11:45:51Z</time>
      </trkpt>
      <trkpt lat="48.02692" lon="7.01812">
        <ele>1032.4</ele>
        <time>2021-07-29T11:45:57Z</time>
      </trkpt>
      <trkpt lat="48.02692" lon="7.01813">
        <ele>1032</ele>
        <time>2021-07-29T11:46:01Z</time>
      </trkpt>
      <trkpt lat="48.02692" lon="7.01818">
        <ele>1032.2</ele>
        <time>2021-07-29T11:46:06Z</time>
      </trkpt>
      <trkpt lat="48.0269" lon="7.01824">
        <ele>1032.8</ele>
        <time>2021-07-29T11:46:11Z</time>
      </trkpt>
      <trkpt lat="48.02689" lon="7.01831">
        <ele>1033.2</ele>
        <time>2021-07-29T11:46:16Z</time>
      </trkpt>
      <trkpt lat="48.02687" lon="7.01835">
        <ele>1033.4</ele>
        <time>2021-07-29T11:46:19Z</time>
      </trkpt>
      <trkpt lat="48.02687" lon="7.01837">
        <ele>1033.6</ele>
        <time>2021-07-29T11:46:20Z</time>
      </trkpt>
      <trkpt lat="48.02687" lon="7.01838">
        <ele>1033.8</ele>
        <time>2021-07-29T11:46:21Z</time>
      </trkpt>
      <trkpt lat="48.02686" lon="7.01841">
        <ele>1034.6</ele>
        <time>2021-07-29T11:46:23Z</time>
      </trkpt>
      <trkpt lat="48.02687" lon="7.01846">
        <ele>1035.6</ele>
        <time>2021-07-29T11:46:28Z</time>
      </trkpt>
      <trkpt lat="48.02686" lon="7.01848">
        <ele>1036.4</ele>
        <time>2021-07-29T11:46:31Z</time>
      </trkpt>
      <trkpt lat="48.02686" lon="7.01849">
        <ele>1036.6</ele>
        <time>2021-07-29T11:46:32Z</time>
      </trkpt>
      <trkpt lat="48.02687" lon="7.01854">
        <ele>1037.8</ele>
        <time>2021-07-29T11:46:36Z</time>
      </trkpt>
      <trkpt lat="48.02688" lon="7.01856">
        <ele>1038.8</ele>
        <time>2021-07-29T11:46:40Z</time>
      </trkpt>
      <trkpt lat="48.02688" lon="7.01856">
        <ele>1038.8</ele>
        <time>2021-07-29T11:46:41Z</time>
      </trkpt>
      <trkpt lat="48.02689" lon="7.01858">
        <ele>1039.8</ele>
        <time>2021-07-29T11:46:47Z</time>
      </trkpt>
      <trkpt lat="48.0269" lon="7.0186">
        <ele>1040.2</ele>
        <time>2021-07-29T11:46:51Z</time>
      </trkpt>
      <trkpt lat="48.0269" lon="7.0186">
        <ele>1040.6</ele>
        <time>2021-07-29T11:46:57Z</time>
      </trkpt>
      <trkpt lat="48.0269" lon="7.0186">
        <ele>1041</ele>
        <time>2021-07-29T11:46:58Z</time>
      </trkpt>
      <trkpt lat="48.02689" lon="7.0186">
        <ele>1042</ele>
        <time>2021-07-29T11:47:01Z</time>
      </trkpt>
      <trkpt lat="48.02689" lon="7.01861">
        <ele>1042.8</ele>
        <time>2021-07-29T11:47:07Z</time>
      </trkpt>
      <trkpt lat="48.02689" lon="7.01861">
        <ele>1043.2</ele>
        <time>2021-07-29T11:47:08Z</time>
      </trkpt>
      <trkpt lat="48.02688" lon="7.01862">
        <ele>1043.8</ele>
        <time>2021-07-29T11:47:11Z</time>
      </trkpt>
      <trkpt lat="48.02686" lon="7.01864">
        <ele>1044.2</ele>
        <time>2021-07-29T11:47:15Z</time>
      </trkpt>
      <trkpt lat="48.02684" lon="7.01874">
        <ele>1044.2</ele>
        <time>2021-07-29T11:47:21Z</time>
      </trkpt>
      <trkpt lat="48.02683" lon="7.0188">
        <ele>1044.2</ele>
        <time>2021-07-29T11:47:27Z</time>
      </trkpt>
      <trkpt lat="48.02682" lon="7.01884">
        <ele>1044</ele>
        <time>2021-07-29T11:47:31Z</time>
      </trkpt>
      <trkpt lat="48.02682" lon="7.01888">
        <ele>1044</ele>
        <time>2021-07-29T11:47:37Z</time>
      </trkpt>
      <trkpt lat="48.02682" lon="7.0189">
        <ele>1043.8</ele>
        <time>2021-07-29T11:47:41Z</time>
      </trkpt>
      <trkpt lat="48.0268" lon="7.01891">
        <ele>1043.2</ele>
        <time>2021-07-29T11:47:47Z</time>
      </trkpt>
      <trkpt lat="48.02679" lon="7.01891">
        <ele>1043</ele>
        <time>2021-07-29T11:47:48Z</time>
      </trkpt>
      <trkpt lat="48.02678" lon="7.01891">
        <ele>1043.4</ele>
        <time>2021-07-29T11:47:51Z</time>
      </trkpt>
      <trkpt lat="48.02676" lon="7.01888">
        <ele>1043.8</ele>
        <time>2021-07-29T11:47:57Z</time>
      </trkpt>
      <trkpt lat="48.02676" lon="7.01889">
        <ele>1044.2</ele>
        <time>2021-07-29T11:48:01Z</time>
      </trkpt>
      <trkpt lat="48.02674" lon="7.0189">
        <ele>1045.4</ele>
        <time>2021-07-29T11:48:07Z</time>
      </trkpt>
      <trkpt lat="48.02674" lon="7.01895">
        <ele>1046.4</ele>
        <time>2021-07-29T11:48:11Z</time>
      </trkpt>
      <trkpt lat="48.02672" lon="7.01905">
        <ele>1047.4</ele>
        <time>2021-07-29T11:48:17Z</time>
      </trkpt>
      <trkpt lat="48.02671" lon="7.01906">
        <ele>1047.4</ele>
        <time>2021-07-29T11:48:18Z</time>
      </trkpt>
      <trkpt lat="48.0267" lon="7.01909">
        <ele>1047.8</ele>
        <time>2021-07-29T11:48:21Z</time>
      </trkpt>
      <trkpt lat="48.0267" lon="7.01912">
        <ele>1048.2</ele>
        <time>2021-07-29T11:48:27Z</time>
      </trkpt>
      <trkpt lat="48.0267" lon="7.01914">
        <ele>1048</ele>
        <time>2021-07-29T11:48:31Z</time>
      </trkpt>
      <trkpt lat="48.0267" lon="7.01917">
        <ele>1048.6</ele>
        <time>2021-07-29T11:48:36Z</time>
      </trkpt>
      <trkpt lat="48.0267" lon="7.01919">
        <ele>1048.6</ele>
        <time>2021-07-29T11:48:41Z</time>
      </trkpt>
      <trkpt lat="48.0267" lon="7.01924">
        <ele>1049</ele>
        <time>2021-07-29T11:48:47Z</time>
      </trkpt>
      <trkpt lat="48.02669" lon="7.01928">
        <ele>1049.4</ele>
        <time>2021-07-29T11:48:51Z</time>
      </trkpt>
      <trkpt lat="48.02668" lon="7.0193">
        <ele>1049.8</ele>
        <time>2021-07-29T11:48:53Z</time>
      </trkpt>
      <trkpt lat="48.02667" lon="7.01933">
        <ele>1050.8</ele>
        <time>2021-07-29T11:48:57Z</time>
      </trkpt>
      <trkpt lat="48.02667" lon="7.01934">
        <ele>1051.8</ele>
        <time>2021-07-29T11:49:01Z</time>
      </trkpt>
      <trkpt lat="48.02667" lon="7.01934">
        <ele>1052</ele>
        <time>2021-07-29T11:49:02Z</time>
      </trkpt>
      <trkpt lat="48.02666" lon="7.01935">
        <ele>1053.2</ele>
        <time>2021-07-29T11:49:06Z</time>
      </trkpt>
      <trkpt lat="48.02666" lon="7.01937">
        <ele>1053.8</ele>
        <time>2021-07-29T11:49:11Z</time>
      </trkpt>
      <trkpt lat="48.02664" lon="7.01937">
        <ele>1053.2</ele>
        <time>2021-07-29T11:49:17Z</time>
      </trkpt>
      <trkpt lat="48.02663" lon="7.01934">
        <ele>1052.8</ele>
        <time>2021-07-29T11:49:21Z</time>
      </trkpt>
      <trkpt lat="48.02662" lon="7.01936">
        <ele>1052.2</ele>
        <time>2021-07-29T11:49:27Z</time>
      </trkpt>
      <trkpt lat="48.02662" lon="7.01937">
        <ele>1052.2</ele>
        <time>2021-07-29T11:49:29Z</time>
      </trkpt>
      <trkpt lat="48.02662" lon="7.01938">
        <ele>1051.8</ele>
        <time>2021-07-29T11:49:31Z</time>
      </trkpt>
      <trkpt lat="48.02661" lon="7.01939">
        <ele>1051</ele>
        <time>2021-07-29T11:49:34Z</time>
      </trkpt>
      <trkpt lat="48.02657" lon="7.01941">
        <ele>1050.6</ele>
        <time>2021-07-29T11:49:39Z</time>
      </trkpt>
      <trkpt lat="48.02655" lon="7.01941">
        <ele>1050.4</ele>
        <time>2021-07-29T11:49:41Z</time>
      </trkpt>
      <trkpt lat="48.02653" lon="7.01945">
        <ele>1050</ele>
        <time>2021-07-29T11:49:45Z</time>
      </trkpt>
      <trkpt lat="48.02653" lon="7.0195">
        <ele>1049.4</ele>
        <time>2021-07-29T11:49:51Z</time>
      </trkpt>
      <trkpt lat="48.02652" lon="7.01953">
        <ele>1049</ele>
        <time>2021-07-29T11:49:54Z</time>
      </trkpt>
      <trkpt lat="48.02651" lon="7.01954">
        <ele>1047.8</ele>
        <time>2021-07-29T11:50:00Z</time>
      </trkpt>
      <trkpt lat="48.02651" lon="7.01955">
        <ele>1047.6</ele>
        <time>2021-07-29T11:50:01Z</time>
      </trkpt>
      <trkpt lat="48.0265" lon="7.01955">
        <ele>1046.6</ele>
        <time>2021-07-29T11:50:05Z</time>
      </trkpt>
      <trkpt lat="48.02648" lon="7.01949">
        <ele>1045.4</ele>
        <time>2021-07-29T11:50:09Z</time>
      </trkpt>
      <trkpt lat="48.02647" lon="7.01947">
        <ele>1045</ele>
        <time>2021-07-29T11:50:11Z</time>
      </trkpt>
      <trkpt lat="48.02647" lon="7.01944">
        <ele>1044.4</ele>
        <time>2021-07-29T11:50:15Z</time>
      </trkpt>
      <trkpt lat="48.02647" lon="7.01941">
        <ele>1043.4</ele>
        <time>2021-07-29T11:50:19Z</time>
      </trkpt>
      <trkpt lat="48.02647" lon="7.0194">
        <ele>1042.8</ele>
        <time>2021-07-29T11:50:21Z</time>
      </trkpt>
      <trkpt lat="48.02645" lon="7.0194">
        <ele>1042.2</ele>
        <time>2021-07-29T11:50:23Z</time>
      </trkpt>
      <trkpt lat="48.02644" lon="7.01944">
        <ele>1041.8</ele>
        <time>2021-07-29T11:50:29Z</time>
      </trkpt>
      <trkpt lat="48.02644" lon="7.01945">
        <ele>1041.8</ele>
        <time>2021-07-29T11:50:30Z</time>
      </trkpt>
      <trkpt lat="48.02644" lon="7.01949">
        <ele>1041.6</ele>
        <time>2021-07-29T11:50:36Z</time>
      </trkpt>
      <trkpt lat="48.02644" lon="7.01953">
        <ele>1041.2</ele>
        <time>2021-07-29T11:50:41Z</time>
      </trkpt>
      <trkpt lat="48.02643" lon="7.01954">
        <ele>1041</ele>
        <time>2021-07-29T11:50:42Z</time>
      </trkpt>
      <trkpt lat="48.0264" lon="7.01959">
        <ele>1040.2</ele>
        <time>2021-07-29T11:50:46Z</time>
      </trkpt>
      <trkpt lat="48.02638" lon="7.01964">
        <ele>1040.4</ele>
        <time>2021-07-29T11:50:51Z</time>
      </trkpt>
      <trkpt lat="48.02638" lon="7.01965">
        <ele>1040.4</ele>
        <time>2021-07-29T11:50:53Z</time>
      </trkpt>
      <trkpt lat="48.02638" lon="7.01966">
        <ele>1040</ele>
        <time>2021-07-29T11:50:55Z</time>
      </trkpt>
      <trkpt lat="48.02638" lon="7.01967">
        <ele>1039.2</ele>
        <time>2021-07-29T11:51:01Z</time>
      </trkpt>
      <trkpt lat="48.02637" lon="7.01968">
        <ele>1038.8</ele>
        <time>2021-07-29T11:51:02Z</time>
      </trkpt>
      <trkpt lat="48.02636" lon="7.01972">
        <ele>1037.8</ele>
        <time>2021-07-29T11:51:05Z</time>
      </trkpt>
      <trkpt lat="48.02635" lon="7.01974">
        <ele>1037.6</ele>
        <time>2021-07-29T11:51:06Z</time>
      </trkpt>
      <trkpt lat="48.02633" lon="7.01982">
        <ele>1037.4</ele>
        <time>2021-07-29T11:51:11Z</time>
      </trkpt>
      <trkpt lat="48.02632" lon="7.01984">
        <ele>1037.2</ele>
        <time>2021-07-29T11:51:14Z</time>
      </trkpt>
      <trkpt lat="48.02631" lon="7.01987">
        <ele>1036.8</ele>
        <time>2021-07-29T11:51:19Z</time>
      </trkpt>
      <trkpt lat="48.02631" lon="7.01987">
        <ele>1036.4</ele>
        <time>2021-07-29T11:51:21Z</time>
      </trkpt>
      <trkpt lat="48.02631" lon="7.01987">
        <ele>1035.6</ele>
        <time>2021-07-29T11:51:26Z</time>
      </trkpt>
      <trkpt lat="48.0263" lon="7.01988">
        <ele>1035</ele>
        <time>2021-07-29T11:51:31Z</time>
      </trkpt>
      <trkpt lat="48.02629" lon="7.0199">
        <ele>1034.6</ele>
        <time>2021-07-29T11:51:33Z</time>
      </trkpt>
      <trkpt lat="48.02626" lon="7.01995">
        <ele>1033.8</ele>
        <time>2021-07-29T11:51:39Z</time>
      </trkpt>
      <trkpt lat="48.02626" lon="7.01995">
        <ele>1033.4</ele>
        <time>2021-07-29T11:51:40Z</time>
      </trkpt>
      <trkpt lat="48.02626" lon="7.01996">
        <ele>1033</ele>
        <time>2021-07-29T11:51:41Z</time>
      </trkpt>
      <trkpt lat="48.02623" lon="7.02">
        <ele>1032.2</ele>
        <time>2021-07-29T11:51:46Z</time>
      </trkpt>
      <trkpt lat="48.02621" lon="7.02004">
        <ele>1031.2</ele>
        <time>2021-07-29T11:51:50Z</time>
      </trkpt>
      <trkpt lat="48.0262" lon="7.02005">
        <ele>1031</ele>
        <time>2021-07-29T11:51:51Z</time>
      </trkpt>
      <trkpt lat="48.02619" lon="7.0201">
        <ele>1030.2</ele>
        <time>2021-07-29T11:51:57Z</time>
      </trkpt>
      <trkpt lat="48.0262" lon="7.02013">
        <ele>1030</ele>
        <time>2021-07-29T11:52:00Z</time>
      </trkpt>
      <trkpt lat="48.02619" lon="7.02013">
        <ele>1029.8</ele>
        <time>2021-07-29T11:52:01Z</time>
      </trkpt>
      <trkpt lat="48.02619" lon="7.02019">
        <ele>1029.2</ele>
        <time>2021-07-29T11:52:06Z</time>
      </trkpt>
      <trkpt lat="48.02619" lon="7.02024">
        <ele>1029</ele>
        <time>2021-07-29T11:52:11Z</time>
      </trkpt>
      <trkpt lat="48.02615" lon="7.02028">
        <ele>1028</ele>
        <time>2021-07-29T11:52:17Z</time>
      </trkpt>
      <trkpt lat="48.02612" lon="7.0203">
        <ele>1028</ele>
        <time>2021-07-29T11:52:20Z</time>
      </trkpt>
      <trkpt lat="48.02612" lon="7.0203">
        <ele>1027.8</ele>
        <time>2021-07-29T11:52:21Z</time>
      </trkpt>
      <trkpt lat="48.02607" lon="7.02034">
        <ele>1028.2</ele>
        <time>2021-07-29T11:52:27Z</time>
      </trkpt>
      <trkpt lat="48.02605" lon="7.02038">
        <ele>1028.2</ele>
        <time>2021-07-29T11:52:31Z</time>
      </trkpt>
      <trkpt lat="48.02604" lon="7.02044">
        <ele>1027.4</ele>
        <time>2021-07-29T11:52:37Z</time>
      </trkpt>
      <trkpt lat="48.02603" lon="7.02049">
        <ele>1027.2</ele>
        <time>2021-07-29T11:52:41Z</time>
      </trkpt>
      <trkpt lat="48.02602" lon="7.0205">
        <ele>1027</ele>
        <time>2021-07-29T11:52:43Z</time>
      </trkpt>
      <trkpt lat="48.02602" lon="7.02051">
        <ele>1026.8</ele>
        <time>2021-07-29T11:52:44Z</time>
      </trkpt>
      <trkpt lat="48.02601" lon="7.02055">
        <ele>1027.2</ele>
        <time>2021-07-29T11:52:50Z</time>
      </trkpt>
      <trkpt lat="48.02601" lon="7.02056">
        <ele>1027.4</ele>
        <time>2021-07-29T11:52:51Z</time>
      </trkpt>
      <trkpt lat="48.02599" lon="7.02066">
        <ele>1027.6</ele>
        <time>2021-07-29T11:52:57Z</time>
      </trkpt>
      <trkpt lat="48.02598" lon="7.02071">
        <ele>1027</ele>
        <time>2021-07-29T11:53:01Z</time>
      </trkpt>
      <trkpt lat="48.02595" lon="7.02078">
        <ele>1026.4</ele>
        <time>2021-07-29T11:53:07Z</time>
      </trkpt>
      <trkpt lat="48.02594" lon="7.02083">
        <ele>1026</ele>
        <time>2021-07-29T11:53:11Z</time>
      </trkpt>
      <trkpt lat="48.02595" lon="7.02085">
        <ele>1025.8</ele>
        <time>2021-07-29T11:53:13Z</time>
      </trkpt>
      <trkpt lat="48.02595" lon="7.02094">
        <ele>1025.2</ele>
        <time>2021-07-29T11:53:19Z</time>
      </trkpt>
      <trkpt lat="48.02595" lon="7.02097">
        <ele>1025.4</ele>
        <time>2021-07-29T11:53:21Z</time>
      </trkpt>
      <trkpt lat="48.02595" lon="7.02106">
        <ele>1025.6</ele>
        <time>2021-07-29T11:53:27Z</time>
      </trkpt>
      <trkpt lat="48.02595" lon="7.02111">
        <ele>1025.2</ele>
        <time>2021-07-29T11:53:31Z</time>
      </trkpt>
      <trkpt lat="48.02594" lon="7.02119">
        <ele>1024.8</ele>
        <time>2021-07-29T11:53:37Z</time>
      </trkpt>
      <trkpt lat="48.02593" lon="7.02122">
        <ele>1023.4</ele>
        <time>2021-07-29T11:53:40Z</time>
      </trkpt>
      <trkpt lat="48.02593" lon="7.02123">
        <ele>1023.4</ele>
        <time>2021-07-29T11:53:41Z</time>
      </trkpt>
      <trkpt lat="48.02594" lon="7.02128">
        <ele>1023.8</ele>
        <time>2021-07-29T11:53:47Z</time>
      </trkpt>
      <trkpt lat="48.02595" lon="7.02131">
        <ele>1024</ele>
        <time>2021-07-29T11:53:51Z</time>
      </trkpt>
      <trkpt lat="48.02596" lon="7.02132">
        <ele>1024.6</ele>
        <time>2021-07-29T11:53:53Z</time>
      </trkpt>
      <trkpt lat="48.026" lon="7.02137">
        <ele>1025.2</ele>
        <time>2021-07-29T11:53:58Z</time>
      </trkpt>
      <trkpt lat="48.02601" lon="7.0214">
        <ele>1025.6</ele>
        <time>2021-07-29T11:54:00Z</time>
      </trkpt>
      <trkpt lat="48.02601" lon="7.02142">
        <ele>1025.6</ele>
        <time>2021-07-29T11:54:01Z</time>
      </trkpt>
      <trkpt lat="48.02605" lon="7.02151">
        <ele>1025.6</ele>
        <time>2021-07-29T11:54:07Z</time>
      </trkpt>
      <trkpt lat="48.02606" lon="7.02159">
        <ele>1026.2</ele>
        <time>2021-07-29T11:54:11Z</time>
      </trkpt>
      <trkpt lat="48.02606" lon="7.02162">
        <ele>1026.8</ele>
        <time>2021-07-29T11:54:13Z</time>
      </trkpt>
      <trkpt lat="48.02607" lon="7.02168">
        <ele>1027.2</ele>
        <time>2021-07-29T11:54:19Z</time>
      </trkpt>
      <trkpt lat="48.02608" lon="7.0217">
        <ele>1026.8</ele>
        <time>2021-07-29T11:54:21Z</time>
      </trkpt>
      <trkpt lat="48.02611" lon="7.02178">
        <ele>1026.8</ele>
        <time>2021-07-29T11:54:27Z</time>
      </trkpt>
      <trkpt lat="48.02613" lon="7.02182">
        <ele>1026.8</ele>
        <time>2021-07-29T11:54:31Z</time>
      </trkpt>
      <trkpt lat="48.02617" lon="7.02186">
        <ele>1026.6</ele>
        <time>2021-07-29T11:54:37Z</time>
      </trkpt>
      <trkpt lat="48.02619" lon="7.02187">
        <ele>1026.8</ele>
        <time>2021-07-29T11:54:41Z</time>
      </trkpt>
      <trkpt lat="48.02624" lon="7.02193">
        <ele>1027.2</ele>
        <time>2021-07-29T11:54:47Z</time>
      </trkpt>
      <trkpt lat="48.02626" lon="7.02194">
        <ele>1027.6</ele>
        <time>2021-07-29T11:54:51Z</time>
      </trkpt>
      <trkpt lat="48.02627" lon="7.02194">
        <ele>1028</ele>
        <time>2021-07-29T11:54:52Z</time>
      </trkpt>
      <trkpt lat="48.02631" lon="7.02193">
        <ele>1029.2</ele>
        <time>2021-07-29T11:54:57Z</time>
      </trkpt>
      <trkpt lat="48.02634" lon="7.02195">
        <ele>1030</ele>
        <time>2021-07-29T11:55:01Z</time>
      </trkpt>
      <trkpt lat="48.02635" lon="7.02196">
        <ele>1030.4</ele>
        <time>2021-07-29T11:55:02Z</time>
      </trkpt>
      <trkpt lat="48.02638" lon="7.02199">
        <ele>1031.6</ele>
        <time>2021-07-29T11:55:07Z</time>
      </trkpt>
      <trkpt lat="48.02641" lon="7.02201">
        <ele>1031.6</ele>
        <time>2021-07-29T11:55:10Z</time>
      </trkpt>
      <trkpt lat="48.02642" lon="7.02202">
        <ele>1031.6</ele>
        <time>2021-07-29T11:55:11Z</time>
      </trkpt>
      <trkpt lat="48.0265" lon="7.02207">
        <ele>1032.4</ele>
        <time>2021-07-29T11:55:17Z</time>
      </trkpt>
      <trkpt lat="48.02651" lon="7.02208">
        <ele>1032.6</ele>
        <time>2021-07-29T11:55:18Z</time>
      </trkpt>
      <trkpt lat="48.02653" lon="7.02209">
        <ele>1033.4</ele>
        <time>2021-07-29T11:55:21Z</time>
      </trkpt>
      <trkpt lat="48.02654" lon="7.02211">
        <ele>1033.6</ele>
        <time>2021-07-29T11:55:22Z</time>
      </trkpt>
      <trkpt lat="48.02659" lon="7.02216">
        <ele>1034.2</ele>
        <time>2021-07-29T11:55:28Z</time>
      </trkpt>
      <trkpt lat="48.02661" lon="7.02218">
        <ele>1034</ele>
        <time>2021-07-29T11:55:31Z</time>
      </trkpt>
      <trkpt lat="48.02664" lon="7.02226">
        <ele>1034.4</ele>
        <time>2021-07-29T11:55:37Z</time>
      </trkpt>
      <trkpt lat="48.02664" lon="7.02229">
        <ele>1034.4</ele>
        <time>2021-07-29T11:55:41Z</time>
      </trkpt>
      <trkpt lat="48.02665" lon="7.02239">
        <ele>1033.6</ele>
        <time>2021-07-29T11:55:47Z</time>
      </trkpt>
      <trkpt lat="48.02664" lon="7.02247">
        <ele>1033.4</ele>
        <time>2021-07-29T11:55:51Z</time>
      </trkpt>
      <trkpt lat="48.02661" lon="7.02255">
        <ele>1032.6</ele>
        <time>2021-07-29T11:55:57Z</time>
      </trkpt>
      <trkpt lat="48.02658" lon="7.02255">
        <ele>1032.8</ele>
        <time>2021-07-29T11:56:01Z</time>
      </trkpt>
      <trkpt lat="48.02658" lon="7.02255">
        <ele>1032.6</ele>
        <time>2021-07-29T11:56:03Z</time>
      </trkpt>
      <trkpt lat="48.02658" lon="7.02252">
        <ele>1032.2</ele>
        <time>2021-07-29T11:56:09Z</time>
      </trkpt>
      <trkpt lat="48.02658" lon="7.0225">
        <ele>1032.4</ele>
        <time>2021-07-29T11:56:11Z</time>
      </trkpt>
      <trkpt lat="48.02657" lon="7.02245">
        <ele>1033</ele>
        <time>2021-07-29T11:56:17Z</time>
      </trkpt>
      <trkpt lat="48.02656" lon="7.02242">
        <ele>1033.2</ele>
        <time>2021-07-29T11:56:21Z</time>
      </trkpt>
      <trkpt lat="48.02655" lon="7.0225">
        <ele>1032.4</ele>
        <time>2021-07-29T11:56:27Z</time>
      </trkpt>
      <trkpt lat="48.02656" lon="7.02256">
        <ele>1032.8</ele>
        <time>2021-07-29T11:56:31Z</time>
      </trkpt>
      <trkpt lat="48.02661" lon="7.02262">
        <ele>1031.6</ele>
        <time>2021-07-29T11:56:36Z</time>
      </trkpt>
      <trkpt lat="48.02663" lon="7.02262">
        <ele>1031.4</ele>
        <time>2021-07-29T11:56:37Z</time>
      </trkpt>
      <trkpt lat="48.02667" lon="7.02261">
        <ele>1030.6</ele>
        <time>2021-07-29T11:56:41Z</time>
      </trkpt>
      <trkpt lat="48.02668" lon="7.0226">
        <ele>1030.4</ele>
        <time>2021-07-29T11:56:42Z</time>
      </trkpt>
      <trkpt lat="48.02672" lon="7.02257">
        <ele>1029.4</ele>
        <time>2021-07-29T11:56:48Z</time>
      </trkpt>
      <trkpt lat="48.02673" lon="7.02256">
        <ele>1029.4</ele>
        <time>2021-07-29T11:56:49Z</time>
      </trkpt>
      <trkpt lat="48.02675" lon="7.02253">
        <ele>1029.2</ele>
        <time>2021-07-29T11:56:51Z</time>
      </trkpt>
      <trkpt lat="48.02681" lon="7.0225">
        <ele>1028.8</ele>
        <time>2021-07-29T11:56:57Z</time>
      </trkpt>
      <trkpt lat="48.02685" lon="7.02251">
        <ele>1028.8</ele>
        <time>2021-07-29T11:57:01Z</time>
      </trkpt>
      <trkpt lat="48.02685" lon="7.02252">
        <ele>1028.6</ele>
        <time>2021-07-29T11:57:02Z</time>
      </trkpt>
      <trkpt lat="48.02687" lon="7.02252">
        <ele>1029</ele>
        <time>2021-07-29T11:57:08Z</time>
      </trkpt>
      <trkpt lat="48.02688" lon="7.02253">
        <ele>1029.2</ele>
        <time>2021-07-29T11:57:11Z</time>
      </trkpt>
      <trkpt lat="48.02688" lon="7.02253">
        <ele>1029.6</ele>
        <time>2021-07-29T11:57:17Z</time>
      </trkpt>
      <trkpt lat="48.02688" lon="7.02253">
        <ele>1029.8</ele>
        <time>2021-07-29T11:57:21Z</time>
      </trkpt>
      <trkpt lat="48.0269" lon="7.0225">
        <ele>1029.6</ele>
        <time>2021-07-29T11:57:27Z</time>
      </trkpt>
      <trkpt lat="48.02692" lon="7.02247">
        <ele>1029</ele>
        <time>2021-07-29T11:57:31Z</time>
      </trkpt>
      <trkpt lat="48.02693" lon="7.02246">
        <ele>1028.2</ele>
        <time>2021-07-29T11:57:33Z</time>
      </trkpt>
      <trkpt lat="48.02694" lon="7.02245">
        <ele>1028</ele>
        <time>2021-07-29T11:57:34Z</time>
      </trkpt>
      <trkpt lat="48.027" lon="7.02241">
        <ele>1027.8</ele>
        <time>2021-07-29T11:57:40Z</time>
      </trkpt>
      <trkpt lat="48.02701" lon="7.02241">
        <ele>1027.6</ele>
        <time>2021-07-29T11:57:41Z</time>
      </trkpt>
      <trkpt lat="48.02708" lon="7.02244">
        <ele>1027.2</ele>
        <time>2021-07-29T11:57:47Z</time>
      </trkpt>
      <trkpt lat="48.02709" lon="7.02244">
        <ele>1027</ele>
        <time>2021-07-29T11:57:48Z</time>
      </trkpt>
      <trkpt lat="48.02713" lon="7.02244">
        <ele>1026.4</ele>
        <time>2021-07-29T11:57:51Z</time>
      </trkpt>
      <trkpt lat="48.02714" lon="7.02244">
        <ele>1025.8</ele>
        <time>2021-07-29T11:57:53Z</time>
      </trkpt>
      <trkpt lat="48.02716" lon="7.02245">
        <ele>1025.6</ele>
        <time>2021-07-29T11:57:56Z</time>
      </trkpt>
      <trkpt lat="48.02718" lon="7.02245">
        <ele>1025.2</ele>
        <time>2021-07-29T11:58:01Z</time>
      </trkpt>
      <trkpt lat="48.02719" lon="7.02246">
        <ele>1024.8</ele>
        <time>2021-07-29T11:58:03Z</time>
      </trkpt>
      <trkpt lat="48.02722" lon="7.02247">
        <ele>1023.6</ele>
        <time>2021-07-29T11:58:07Z</time>
      </trkpt>
      <trkpt lat="48.02722" lon="7.02252">
        <ele>1022.8</ele>
        <time>2021-07-29T11:58:11Z</time>
      </trkpt>
      <trkpt lat="48.02722" lon="7.02253">
        <ele>1022.6</ele>
        <time>2021-07-29T11:58:12Z</time>
      </trkpt>
      <trkpt lat="48.02724" lon="7.02259">
        <ele>1021.4</ele>
        <time>2021-07-29T11:58:17Z</time>
      </trkpt>
      <trkpt lat="48.02723" lon="7.02264">
        <ele>1020.4</ele>
        <time>2021-07-29T11:58:21Z</time>
      </trkpt>
      <trkpt lat="48.02723" lon="7.02269">
        <ele>1019.6</ele>
        <time>2021-07-29T11:58:24Z</time>
      </trkpt>
      <trkpt lat="48.02721" lon="7.02274">
        <ele>1019.4</ele>
        <time>2021-07-29T11:58:28Z</time>
      </trkpt>
      <trkpt lat="48.02721" lon="7.02278">
        <ele>1019.2</ele>
        <time>2021-07-29T11:58:31Z</time>
      </trkpt>
      <trkpt lat="48.0272" lon="7.02284">
        <ele>1018.6</ele>
        <time>2021-07-29T11:58:36Z</time>
      </trkpt>
      <trkpt lat="48.02718" lon="7.02286">
        <ele>1018.8</ele>
        <time>2021-07-29T11:58:41Z</time>
      </trkpt>
      <trkpt lat="48.02719" lon="7.02289">
        <ele>1018.2</ele>
        <time>2021-07-29T11:58:46Z</time>
      </trkpt>
      <trkpt lat="48.02717" lon="7.02293">
        <ele>1017.6</ele>
        <time>2021-07-29T11:58:51Z</time>
      </trkpt>
      <trkpt lat="48.02716" lon="7.02299">
        <ele>1017.2</ele>
        <time>2021-07-29T11:58:55Z</time>
      </trkpt>
      <trkpt lat="48.02716" lon="7.02305">
        <ele>1016.4</ele>
        <time>2021-07-29T11:58:58Z</time>
      </trkpt>
      <trkpt lat="48.02713" lon="7.0231">
        <ele>1016.2</ele>
        <time>2021-07-29T11:59:01Z</time>
      </trkpt>
      <trkpt lat="48.02712" lon="7.02312">
        <ele>1016</ele>
        <time>2021-07-29T11:59:02Z</time>
      </trkpt>
      <trkpt lat="48.02708" lon="7.02322">
        <ele>1014.8</ele>
        <time>2021-07-29T11:59:08Z</time>
      </trkpt>
      <trkpt lat="48.02705" lon="7.02327">
        <ele>1014.2</ele>
        <time>2021-07-29T11:59:11Z</time>
      </trkpt>
      <trkpt lat="48.02704" lon="7.02331">
        <ele>1013.8</ele>
        <time>2021-07-29T11:59:13Z</time>
      </trkpt>
      <trkpt lat="48.027" lon="7.02338">
        <ele>1012.8</ele>
        <time>2021-07-29T11:59:18Z</time>
      </trkpt>
      <trkpt lat="48.02698" lon="7.02344">
        <ele>1011.8</ele>
        <time>2021-07-29T11:59:21Z</time>
      </trkpt>
      <trkpt lat="48.02697" lon="7.02347">
        <ele>1011.6</ele>
        <time>2021-07-29T11:59:23Z</time>
      </trkpt>
      <trkpt lat="48.02692" lon="7.02353">
        <ele>1010.6</ele>
        <time>2021-07-29T11:59:29Z</time>
      </trkpt>
      <trkpt lat="48.0269" lon="7.02356">
        <ele>1010.4</ele>
        <time>2021-07-29T11:59:31Z</time>
      </trkpt>
      <trkpt lat="48.02684" lon="7.02361">
        <ele>1009.6</ele>
        <time>2021-07-29T11:59:35Z</time>
      </trkpt>
      <trkpt lat="48.02679" lon="7.02366">
        <ele>1009</ele>
        <time>2021-07-29T11:59:41Z</time>
      </trkpt>
      <trkpt lat="48.02677" lon="7.02365">
        <ele>1009.2</ele>
        <time>2021-07-29T11:59:47Z</time>
      </trkpt>
      <trkpt lat="48.02674" lon="7.02365">
        <ele>1008.8</ele>
        <time>2021-07-29T11:59:51Z</time>
      </trkpt>
      <trkpt lat="48.02674" lon="7.02365">
        <ele>1008.2</ele>
        <time>2021-07-29T11:59:52Z</time>
      </trkpt>
      <trkpt lat="48.02673" lon="7.02366">
        <ele>1008.2</ele>
        <time>2021-07-29T11:59:58Z</time>
      </trkpt>
      <trkpt lat="48.02671" lon="7.02369">
        <ele>1008</ele>
        <time>2021-07-29T12:00:01Z</time>
      </trkpt>
      <trkpt lat="48.02671" lon="7.02369">
        <ele>1008.2</ele>
        <time>2021-07-29T12:00:02Z</time>
      </trkpt>
      <trkpt lat="48.02672" lon="7.0237">
        <ele>1008.2</ele>
        <time>2021-07-29T12:00:08Z</time>
      </trkpt>
      <trkpt lat="48.02672" lon="7.0237">
        <ele>1008.4</ele>
        <time>2021-07-29T12:00:11Z</time>
      </trkpt>
      <trkpt lat="48.02672" lon="7.0237">
        <ele>1008.4</ele>
        <time>2021-07-29T12:00:17Z</time>
      </trkpt>
      <trkpt lat="48.02672" lon="7.0237">
        <ele>1008</ele>
        <time>2021-07-29T12:00:21Z</time>
      </trkpt>
      <trkpt lat="48.02673" lon="7.0237">
        <ele>1008.2</ele>
        <time>2021-07-29T12:00:27Z</time>
      </trkpt>
      <trkpt lat="48.02673" lon="7.0237">
        <ele>1008.4</ele>
        <time>2021-07-29T12:00:31Z</time>
      </trkpt>
      <trkpt lat="48.02672" lon="7.02371">
        <ele>1008</ele>
        <time>2021-07-29T12:00:37Z</time>
      </trkpt>
      <trkpt lat="48.0267" lon="7.02371">
        <ele>1008</ele>
        <time>2021-07-29T12:00:41Z</time>
      </trkpt>
      <trkpt lat="48.02665" lon="7.02372">
        <ele>1007.2</ele>
        <time>2021-07-29T12:00:47Z</time>
      </trkpt>
      <trkpt lat="48.02663" lon="7.02373">
        <ele>1007</ele>
        <time>2021-07-29T12:00:48Z</time>
      </trkpt>
      <trkpt lat="48.02661" lon="7.02373">
        <ele>1006.8</ele>
        <time>2021-07-29T12:00:51Z</time>
      </trkpt>
      <trkpt lat="48.0266" lon="7.02373">
        <ele>1006.6</ele>
        <time>2021-07-29T12:00:52Z</time>
      </trkpt>
      <trkpt lat="48.02658" lon="7.02374">
        <ele>1006.4</ele>
        <time>2021-07-29T12:00:53Z</time>
      </trkpt>
      <trkpt lat="48.02653" lon="7.02377">
        <ele>1006.2</ele>
        <time>2021-07-29T12:00:59Z</time>
      </trkpt>
      <trkpt lat="48.02651" lon="7.02377">
        <ele>1006.2</ele>
        <time>2021-07-29T12:01:01Z</time>
      </trkpt>
      <trkpt lat="48.02646" lon="7.02375">
        <ele>1005.2</ele>
        <time>2021-07-29T12:01:07Z</time>
      </trkpt>
      <trkpt lat="48.02645" lon="7.02375">
        <ele>1005</ele>
        <time>2021-07-29T12:01:08Z</time>
      </trkpt>
      <trkpt lat="48.02644" lon="7.02375">
        <ele>1004.8</ele>
        <time>2021-07-29T12:01:09Z</time>
      </trkpt>
      <trkpt lat="48.02641" lon="7.02376">
        <ele>1004.6</ele>
        <time>2021-07-29T12:01:11Z</time>
      </trkpt>
      <trkpt lat="48.02638" lon="7.02376">
        <ele>1004</ele>
        <time>2021-07-29T12:01:14Z</time>
      </trkpt>
      <trkpt lat="48.02636" lon="7.02376">
        <ele>1003.8</ele>
        <time>2021-07-29T12:01:15Z</time>
      </trkpt>
      <trkpt lat="48.02633" lon="7.02377">
        <ele>1003.6</ele>
        <time>2021-07-29T12:01:19Z</time>
      </trkpt>
      <trkpt lat="48.02632" lon="7.02377">
        <ele>1003.2</ele>
        <time>2021-07-29T12:01:21Z</time>
      </trkpt>
      <trkpt lat="48.02631" lon="7.02378">
        <ele>1002.8</ele>
        <time>2021-07-29T12:01:22Z</time>
      </trkpt>
      <trkpt lat="48.02627" lon="7.02379">
        <ele>1001.6</ele>
        <time>2021-07-29T12:01:27Z</time>
      </trkpt>
      <trkpt lat="48.02625" lon="7.02382">
        <ele>1000.6</ele>
        <time>2021-07-29T12:01:31Z</time>
      </trkpt>
      <trkpt lat="48.02624" lon="7.02382">
        <ele>999.6</ele>
        <time>2021-07-29T12:01:36Z</time>
      </trkpt>
      <trkpt lat="48.02623" lon="7.02382">
        <ele>998.6</ele>
        <time>2021-07-29T12:01:41Z</time>
      </trkpt>
      <trkpt lat="48.02624" lon="7.02381">
        <ele>998.4</ele>
        <time>2021-07-29T12:01:45Z</time>
      </trkpt>
      <trkpt lat="48.02627" lon="7.02384">
        <ele>997.6</ele>
        <time>2021-07-29T12:01:50Z</time>
      </trkpt>
      <trkpt lat="48.02627" lon="7.02384">
        <ele>997.4</ele>
        <time>2021-07-29T12:01:51Z</time>
      </trkpt>
      <trkpt lat="48.02627" lon="7.02383">
        <ele>996.8</ele>
        <time>2021-07-29T12:01:57Z</time>
      </trkpt>
      <trkpt lat="48.0263" lon="7.02385">
        <ele>996.4</ele>
        <time>2021-07-29T12:02:00Z</time>
      </trkpt>
      <trkpt lat="48.0263" lon="7.02386">
        <ele>996.2</ele>
        <time>2021-07-29T12:02:01Z</time>
      </trkpt>
      <trkpt lat="48.02631" lon="7.02386">
        <ele>996.2</ele>
        <time>2021-07-29T12:02:02Z</time>
      </trkpt>
      <trkpt lat="48.02634" lon="7.02389">
        <ele>995.8</ele>
        <time>2021-07-29T12:02:06Z</time>
      </trkpt>
      <trkpt lat="48.02637" lon="7.02389">
        <ele>995.4</ele>
        <time>2021-07-29T12:02:08Z</time>
      </trkpt>
      <trkpt lat="48.02638" lon="7.0239">
        <ele>995.4</ele>
        <time>2021-07-29T12:02:09Z</time>
      </trkpt>
      <trkpt lat="48.02643" lon="7.02391">
        <ele>995.2</ele>
        <time>2021-07-29T12:02:12Z</time>
      </trkpt>
      <trkpt lat="48.02651" lon="7.02394">
        <ele>995.6</ele>
        <time>2021-07-29T12:02:18Z</time>
      </trkpt>
      <trkpt lat="48.02654" lon="7.02396">
        <ele>994.8</ele>
        <time>2021-07-29T12:02:22Z</time>
      </trkpt>
      <trkpt lat="48.02662" lon="7.02397">
        <ele>994.4</ele>
        <time>2021-07-29T12:02:28Z</time>
      </trkpt>
      <trkpt lat="48.02664" lon="7.02398">
        <ele>994</ele>
        <time>2021-07-29T12:02:30Z</time>
      </trkpt>
      <trkpt lat="48.02665" lon="7.02399">
        <ele>994</ele>
        <time>2021-07-29T12:02:32Z</time>
      </trkpt>
      <trkpt lat="48.02669" lon="7.02401">
        <ele>993.6</ele>
        <time>2021-07-29T12:02:38Z</time>
      </trkpt>
      <trkpt lat="48.02672" lon="7.02402">
        <ele>993.2</ele>
        <time>2021-07-29T12:02:41Z</time>
      </trkpt>
      <trkpt lat="48.02673" lon="7.02402">
        <ele>992.8</ele>
        <time>2021-07-29T12:02:42Z</time>
      </trkpt>
      <trkpt lat="48.02676" lon="7.02405">
        <ele>992.2</ele>
        <time>2021-07-29T12:02:45Z</time>
      </trkpt>
      <trkpt lat="48.02677" lon="7.02406">
        <ele>991.8</ele>
        <time>2021-07-29T12:02:46Z</time>
      </trkpt>
      <trkpt lat="48.02679" lon="7.02408">
        <ele>991</ele>
        <time>2021-07-29T12:02:48Z</time>
      </trkpt>
      <trkpt lat="48.02683" lon="7.02412">
        <ele>990.2</ele>
        <time>2021-07-29T12:02:52Z</time>
      </trkpt>
      <trkpt lat="48.02688" lon="7.02412">
        <ele>990.4</ele>
        <time>2021-07-29T12:02:58Z</time>
      </trkpt>
      <trkpt lat="48.02692" lon="7.0241">
        <ele>990</ele>
        <time>2021-07-29T12:03:02Z</time>
      </trkpt>
      <trkpt lat="48.02696" lon="7.02411">
        <ele>989.4</ele>
        <time>2021-07-29T12:03:08Z</time>
      </trkpt>
      <trkpt lat="48.02699" lon="7.02409">
        <ele>989.2</ele>
        <time>2021-07-29T12:03:12Z</time>
      </trkpt>
      <trkpt lat="48.02698" lon="7.02409">
        <ele>989</ele>
        <time>2021-07-29T12:03:13Z</time>
      </trkpt>
      <trkpt lat="48.02697" lon="7.02407">
        <ele>989.2</ele>
        <time>2021-07-29T12:03:19Z</time>
      </trkpt>
      <trkpt lat="48.02697" lon="7.02407">
        <ele>989.2</ele>
        <time>2021-07-29T12:03:22Z</time>
      </trkpt>
      <trkpt lat="48.02697" lon="7.02407">
        <ele>989.2</ele>
        <time>2021-07-29T12:03:28Z</time>
      </trkpt>
      <trkpt lat="48.02697" lon="7.02407">
        <ele>989.2</ele>
        <time>2021-07-29T12:03:32Z</time>
      </trkpt>
      <trkpt lat="48.02697" lon="7.02406">
        <ele>988.8</ele>
        <time>2021-07-29T12:03:38Z</time>
      </trkpt>
      <trkpt lat="48.02698" lon="7.02404">
        <ele>988.4</ele>
        <time>2021-07-29T12:03:42Z</time>
      </trkpt>
      <trkpt lat="48.027" lon="7.024">
        <ele>987.8</ele>
        <time>2021-07-29T12:03:45Z</time>
      </trkpt>
      <trkpt lat="48.02703" lon="7.02393">
        <ele>986.8</ele>
        <time>2021-07-29T12:03:51Z</time>
      </trkpt>
      <trkpt lat="48.02704" lon="7.02393">
        <ele>986.8</ele>
        <time>2021-07-29T12:03:52Z</time>
      </trkpt>
      <trkpt lat="48.02709" lon="7.02387">
        <ele>986</ele>
        <time>2021-07-29T12:03:58Z</time>
      </trkpt>
      <trkpt lat="48.02712" lon="7.02387">
        <ele>985.6</ele>
        <time>2021-07-29T12:04:01Z</time>
      </trkpt>
      <trkpt lat="48.02713" lon="7.02386">
        <ele>985.4</ele>
        <time>2021-07-29T12:04:02Z</time>
      </trkpt>
      <trkpt lat="48.02721" lon="7.02383">
        <ele>985.2</ele>
        <time>2021-07-29T12:04:08Z</time>
      </trkpt>
      <trkpt lat="48.02725" lon="7.02381">
        <ele>985</ele>
        <time>2021-07-29T12:04:12Z</time>
      </trkpt>
      <trkpt lat="48.02728" lon="7.02375">
        <ele>985.2</ele>
        <time>2021-07-29T12:04:18Z</time>
      </trkpt>
      <trkpt lat="48.02731" lon="7.02371">
        <ele>985</ele>
        <time>2021-07-29T12:04:22Z</time>
      </trkpt>
      <trkpt lat="48.02734" lon="7.02368">
        <ele>984.8</ele>
        <time>2021-07-29T12:04:27Z</time>
      </trkpt>
      <trkpt lat="48.02734" lon="7.02366">
        <ele>984.4</ele>
        <time>2021-07-29T12:04:29Z</time>
      </trkpt>
      <trkpt lat="48.02736" lon="7.02363">
        <ele>983.8</ele>
        <time>2021-07-29T12:04:32Z</time>
      </trkpt>
      <trkpt lat="48.02739" lon="7.0236">
        <ele>983.2</ele>
        <time>2021-07-29T12:04:36Z</time>
      </trkpt>
      <trkpt lat="48.0274" lon="7.02359">
        <ele>982.8</ele>
        <time>2021-07-29T12:04:38Z</time>
      </trkpt>
      <trkpt lat="48.02742" lon="7.02357">
        <ele>982.6</ele>
        <time>2021-07-29T12:04:40Z</time>
      </trkpt>
      <trkpt lat="48.02743" lon="7.02354">
        <ele>982</ele>
        <time>2021-07-29T12:04:42Z</time>
      </trkpt>
      <trkpt lat="48.02743" lon="7.02353">
        <ele>981.8</ele>
        <time>2021-07-29T12:04:43Z</time>
      </trkpt>
      <trkpt lat="48.02745" lon="7.0235">
        <ele>981.4</ele>
        <time>2021-07-29T12:04:45Z</time>
      </trkpt>
      <trkpt lat="48.02746" lon="7.02348">
        <ele>981</ele>
        <time>2021-07-29T12:04:47Z</time>
      </trkpt>
      <trkpt lat="48.02747" lon="7.02346">
        <ele>980.8</ele>
        <time>2021-07-29T12:04:48Z</time>
      </trkpt>
      <trkpt lat="48.0275" lon="7.0234">
        <ele>980.4</ele>
        <time>2021-07-29T12:04:52Z</time>
      </trkpt>
      <trkpt lat="48.02752" lon="7.02334">
        <ele>979.6</ele>
        <time>2021-07-29T12:04:56Z</time>
      </trkpt>
      <trkpt lat="48.02758" lon="7.02326">
        <ele>978.6</ele>
        <time>2021-07-29T12:05:02Z</time>
      </trkpt>
      <trkpt lat="48.02759" lon="7.02325">
        <ele>978.6</ele>
        <time>2021-07-29T12:05:03Z</time>
      </trkpt>
      <trkpt lat="48.02764" lon="7.02317">
        <ele>978</ele>
        <time>2021-07-29T12:05:09Z</time>
      </trkpt>
      <trkpt lat="48.02767" lon="7.02316">
        <ele>977.4</ele>
        <time>2021-07-29T12:05:12Z</time>
      </trkpt>
      <trkpt lat="48.02773" lon="7.02314">
        <ele>976.4</ele>
        <time>2021-07-29T12:05:17Z</time>
      </trkpt>
      <trkpt lat="48.02779" lon="7.0231">
        <ele>976.4</ele>
        <time>2021-07-29T12:05:22Z</time>
      </trkpt>
      <trkpt lat="48.02785" lon="7.02309">
        <ele>975.8</ele>
        <time>2021-07-29T12:05:28Z</time>
      </trkpt>
      <trkpt lat="48.02789" lon="7.02305">
        <ele>975.2</ele>
        <time>2021-07-29T12:05:31Z</time>
      </trkpt>
      <trkpt lat="48.0279" lon="7.02304">
        <ele>975</ele>
        <time>2021-07-29T12:05:32Z</time>
      </trkpt>
      <trkpt lat="48.02796" lon="7.02303">
        <ele>974</ele>
        <time>2021-07-29T12:05:38Z</time>
      </trkpt>
      <trkpt lat="48.028" lon="7.02302">
        <ele>973.6</ele>
        <time>2021-07-29T12:05:42Z</time>
      </trkpt>
      <trkpt lat="48.02807" lon="7.02304">
        <ele>972.8</ele>
        <time>2021-07-29T12:05:48Z</time>
      </trkpt>
      <trkpt lat="48.02812" lon="7.02304">
        <ele>972.4</ele>
        <time>2021-07-29T12:05:52Z</time>
      </trkpt>
      <trkpt lat="48.02815" lon="7.02303">
        <ele>971.6</ele>
        <time>2021-07-29T12:05:55Z</time>
      </trkpt>
      <trkpt lat="48.02818" lon="7.02303">
        <ele>971.8</ele>
        <time>2021-07-29T12:05:58Z</time>
      </trkpt>
      <trkpt lat="48.0282" lon="7.02303">
        <ele>971.6</ele>
        <time>2021-07-29T12:06:02Z</time>
      </trkpt>
      <trkpt lat="48.02818" lon="7.02302">
        <ele>971.6</ele>
        <time>2021-07-29T12:06:08Z</time>
      </trkpt>
      <trkpt lat="48.02818" lon="7.02302">
        <ele>971.6</ele>
        <time>2021-07-29T12:06:12Z</time>
      </trkpt>
      <trkpt lat="48.02818" lon="7.02302">
        <ele>971.6</ele>
        <time>2021-07-29T12:06:18Z</time>
      </trkpt>
      <trkpt lat="48.02818" lon="7.02303">
        <ele>971.4</ele>
        <time>2021-07-29T12:06:22Z</time>
      </trkpt>
      <trkpt lat="48.02818" lon="7.02303">
        <ele>971.2</ele>
        <time>2021-07-29T12:06:28Z</time>
      </trkpt>
      <trkpt lat="48.02817" lon="7.02303">
        <ele>971.2</ele>
        <time>2021-07-29T12:06:32Z</time>
      </trkpt>
      <trkpt lat="48.02817" lon="7.02303">
        <ele>971</ele>
        <time>2021-07-29T12:06:38Z</time>
      </trkpt>
      <trkpt lat="48.02817" lon="7.02303">
        <ele>971</ele>
        <time>2021-07-29T12:06:42Z</time>
      </trkpt>
      <trkpt lat="48.02818" lon="7.02301">
        <ele>971.2</ele>
        <time>2021-07-29T12:06:48Z</time>
      </trkpt>
      <trkpt lat="48.02818" lon="7.02299">
        <ele>971.6</ele>
        <time>2021-07-29T12:06:52Z</time>
      </trkpt>
      <trkpt lat="48.0282" lon="7.02296">
        <ele>972</ele>
        <time>2021-07-29T12:06:58Z</time>
      </trkpt>
      <trkpt lat="48.0282" lon="7.02295">
        <ele>972</ele>
        <time>2021-07-29T12:07:02Z</time>
      </trkpt>
      <trkpt lat="48.0282" lon="7.02292">
        <ele>972</ele>
        <time>2021-07-29T12:07:08Z</time>
      </trkpt>
      <trkpt lat="48.0282" lon="7.02292">
        <ele>972</ele>
        <time>2021-07-29T12:07:12Z</time>
      </trkpt>
      <trkpt lat="48.02821" lon="7.02289">
        <ele>972.4</ele>
        <time>2021-07-29T12:07:18Z</time>
      </trkpt>
      <trkpt lat="48.02821" lon="7.02288">
        <ele>972.8</ele>
        <time>2021-07-29T12:07:20Z</time>
      </trkpt>
      <trkpt lat="48.02821" lon="7.02286">
        <ele>973</ele>
        <time>2021-07-29T12:07:22Z</time>
      </trkpt>
      <trkpt lat="48.02823" lon="7.0228">
        <ele>973.8</ele>
        <time>2021-07-29T12:07:28Z</time>
      </trkpt>
      <trkpt lat="48.02824" lon="7.0228">
        <ele>973.8</ele>
        <time>2021-07-29T12:07:29Z</time>
      </trkpt>
      <trkpt lat="48.02824" lon="7.02277">
        <ele>974</ele>
        <time>2021-07-29T12:07:32Z</time>
      </trkpt>
      <trkpt lat="48.02829" lon="7.02271">
        <ele>974.4</ele>
        <time>2021-07-29T12:07:38Z</time>
      </trkpt>
      <trkpt lat="48.0283" lon="7.0227">
        <ele>974.6</ele>
        <time>2021-07-29T12:07:39Z</time>
      </trkpt>
      <trkpt lat="48.02832" lon="7.02268">
        <ele>975</ele>
        <time>2021-07-29T12:07:42Z</time>
      </trkpt>
      <trkpt lat="48.02833" lon="7.02266">
        <ele>975</ele>
        <time>2021-07-29T12:07:45Z</time>
      </trkpt>
      <trkpt lat="48.02837" lon="7.02262">
        <ele>975.8</ele>
        <time>2021-07-29T12:07:51Z</time>
      </trkpt>
      <trkpt lat="48.02838" lon="7.02261">
        <ele>976</ele>
        <time>2021-07-29T12:07:52Z</time>
      </trkpt>
      <trkpt lat="48.02841" lon="7.02259">
        <ele>976.8</ele>
        <time>2021-07-29T12:07:58Z</time>
      </trkpt>
      <trkpt lat="48.02844" lon="7.02257">
        <ele>977.2</ele>
        <time>2021-07-29T12:08:02Z</time>
      </trkpt>
      <trkpt lat="48.02849" lon="7.02255">
        <ele>978</ele>
        <time>2021-07-29T12:08:08Z</time>
      </trkpt>
      <trkpt lat="48.02852" lon="7.02254">
        <ele>978.4</ele>
        <time>2021-07-29T12:08:11Z</time>
      </trkpt>
      <trkpt lat="48.02852" lon="7.02254">
        <ele>978.6</ele>
        <time>2021-07-29T12:08:12Z</time>
      </trkpt>
      <trkpt lat="48.02855" lon="7.02252">
        <ele>979</ele>
        <time>2021-07-29T12:08:15Z</time>
      </trkpt>
      <trkpt lat="48.02856" lon="7.02251">
        <ele>979.4</ele>
        <time>2021-07-29T12:08:17Z</time>
      </trkpt>
      <trkpt lat="48.02858" lon="7.0225">
        <ele>980</ele>
        <time>2021-07-29T12:08:22Z</time>
      </trkpt>
      <trkpt lat="48.0286" lon="7.02249">
        <ele>980.4</ele>
        <time>2021-07-29T12:08:25Z</time>
      </trkpt>
      <trkpt lat="48.02859" lon="7.02249">
        <ele>980.6</ele>
        <time>2021-07-29T12:08:31Z</time>
      </trkpt>
      <trkpt lat="48.02859" lon="7.02249">
        <ele>980.6</ele>
        <time>2021-07-29T12:08:32Z</time>
      </trkpt>
      <trkpt lat="48.0286" lon="7.02247">
        <ele>980.8</ele>
        <time>2021-07-29T12:08:38Z</time>
      </trkpt>
      <trkpt lat="48.02862" lon="7.02246">
        <ele>981.2</ele>
        <time>2021-07-29T12:08:42Z</time>
      </trkpt>
      <trkpt lat="48.02862" lon="7.02246">
        <ele>981.6</ele>
        <time>2021-07-29T12:08:44Z</time>
      </trkpt>
      <trkpt lat="48.02866" lon="7.02243">
        <ele>982.4</ele>
        <time>2021-07-29T12:08:50Z</time>
      </trkpt>
      <trkpt lat="48.02867" lon="7.02242">
        <ele>982.6</ele>
        <time>2021-07-29T12:08:52Z</time>
      </trkpt>
      <trkpt lat="48.0287" lon="7.0224">
        <ele>983.4</ele>
        <time>2021-07-29T12:08:58Z</time>
      </trkpt>
      <trkpt lat="48.02871" lon="7.02238">
        <ele>983.6</ele>
        <time>2021-07-29T12:09:00Z</time>
      </trkpt>
      <trkpt lat="48.02873" lon="7.02237">
        <ele>983.8</ele>
        <time>2021-07-29T12:09:02Z</time>
      </trkpt>
      <trkpt lat="48.02875" lon="7.02234">
        <ele>984.8</ele>
        <time>2021-07-29T12:09:08Z</time>
      </trkpt>
      <trkpt lat="48.02876" lon="7.02229">
        <ele>985.4</ele>
        <time>2021-07-29T12:09:12Z</time>
      </trkpt>
      <trkpt lat="48.02879" lon="7.02226">
        <ele>985.8</ele>
        <time>2021-07-29T12:09:15Z</time>
      </trkpt>
      <trkpt lat="48.0288" lon="7.02225">
        <ele>986.2</ele>
        <time>2021-07-29T12:09:17Z</time>
      </trkpt>
      <trkpt lat="48.02881" lon="7.02224">
        <ele>986.4</ele>
        <time>2021-07-29T12:09:19Z</time>
      </trkpt>
      <trkpt lat="48.02883" lon="7.02225">
        <ele>986.8</ele>
        <time>2021-07-29T12:09:21Z</time>
      </trkpt>
      <trkpt lat="48.02883" lon="7.02225">
        <ele>987</ele>
        <time>2021-07-29T12:09:22Z</time>
      </trkpt>
      <trkpt lat="48.02887" lon="7.02225">
        <ele>987.4</ele>
        <time>2021-07-29T12:09:25Z</time>
      </trkpt>
      <trkpt lat="48.0289" lon="7.02226">
        <ele>987.8</ele>
        <time>2021-07-29T12:09:28Z</time>
      </trkpt>
      <trkpt lat="48.02891" lon="7.02225">
        <ele>988.4</ele>
        <time>2021-07-29T12:09:32Z</time>
      </trkpt>
      <trkpt lat="48.02894" lon="7.02225">
        <ele>988.8</ele>
        <time>2021-07-29T12:09:36Z</time>
      </trkpt>
      <trkpt lat="48.02899" lon="7.02227">
        <ele>989.6</ele>
        <time>2021-07-29T12:09:41Z</time>
      </trkpt>
      <trkpt lat="48.029" lon="7.02227">
        <ele>989.8</ele>
        <time>2021-07-29T12:09:42Z</time>
      </trkpt>
      <trkpt lat="48.02901" lon="7.02227">
        <ele>989.8</ele>
        <time>2021-07-29T12:09:43Z</time>
      </trkpt>
      <trkpt lat="48.02902" lon="7.02227">
        <ele>990</ele>
        <time>2021-07-29T12:09:44Z</time>
      </trkpt>
      <trkpt lat="48.02905" lon="7.02228">
        <ele>990.8</ele>
        <time>2021-07-29T12:09:50Z</time>
      </trkpt>
      <trkpt lat="48.02906" lon="7.02228">
        <ele>991.2</ele>
        <time>2021-07-29T12:09:52Z</time>
      </trkpt>
      <trkpt lat="48.02907" lon="7.02228">
        <ele>991.4</ele>
        <time>2021-07-29T12:09:53Z</time>
      </trkpt>
      <trkpt lat="48.02909" lon="7.02223">
        <ele>992</ele>
        <time>2021-07-29T12:09:59Z</time>
      </trkpt>
      <trkpt lat="48.02909" lon="7.02223">
        <ele>991.8</ele>
        <time>2021-07-29T12:10:03Z</time>
      </trkpt>
      <trkpt lat="48.02908" lon="7.02224">
        <ele>992</ele>
        <time>2021-07-29T12:10:09Z</time>
      </trkpt>
      <trkpt lat="48.02908" lon="7.02224">
        <ele>991.8</ele>
        <time>2021-07-29T12:10:13Z</time>
      </trkpt>
      <trkpt lat="48.02908" lon="7.02223">
        <ele>991.8</ele>
        <time>2021-07-29T12:10:19Z</time>
      </trkpt>
      <trkpt lat="48.02908" lon="7.02223">
        <ele>991.8</ele>
        <time>2021-07-29T12:10:23Z</time>
      </trkpt>
      <trkpt lat="48.02908" lon="7.02223">
        <ele>991.8</ele>
        <time>2021-07-29T12:10:29Z</time>
      </trkpt>
      <trkpt lat="48.02908" lon="7.02223">
        <ele>992</ele>
        <time>2021-07-29T12:10:33Z</time>
      </trkpt>
      <trkpt lat="48.02908" lon="7.02223">
        <ele>991.8</ele>
        <time>2021-07-29T12:10:39Z</time>
      </trkpt>
      <trkpt lat="48.02908" lon="7.02222">
        <ele>992</ele>
        <time>2021-07-29T12:10:43Z</time>
      </trkpt>
      <trkpt lat="48.02909" lon="7.02221">
        <ele>992</ele>
        <time>2021-07-29T12:10:49Z</time>
      </trkpt>
      <trkpt lat="48.02909" lon="7.02221">
        <ele>992</ele>
        <time>2021-07-29T12:10:53Z</time>
      </trkpt>
      <trkpt lat="48.02908" lon="7.0222">
        <ele>991.8</ele>
        <time>2021-07-29T12:10:59Z</time>
      </trkpt>
      <trkpt lat="48.02908" lon="7.0222">
        <ele>991.8</ele>
        <time>2021-07-29T12:11:03Z</time>
      </trkpt>
      <trkpt lat="48.02908" lon="7.0222">
        <ele>992.2</ele>
        <time>2021-07-29T12:11:07Z</time>
      </trkpt>
      <trkpt lat="48.02908" lon="7.0222">
        <ele>991.6</ele>
        <time>2021-07-29T12:11:13Z</time>
      </trkpt>
      <trkpt lat="48.02908" lon="7.02221">
        <ele>991.8</ele>
        <time>2021-07-29T12:11:19Z</time>
      </trkpt>
      <trkpt lat="48.02908" lon="7.02221">
        <ele>991.8</ele>
        <time>2021-07-29T12:11:23Z</time>
      </trkpt>
      <trkpt lat="48.02908" lon="7.02221">
        <ele>992</ele>
        <time>2021-07-29T12:11:29Z</time>
      </trkpt>
      <trkpt lat="48.02908" lon="7.02221">
        <ele>992</ele>
        <time>2021-07-29T12:11:33Z</time>
      </trkpt>
      <trkpt lat="48.02908" lon="7.02221">
        <ele>992</ele>
        <time>2021-07-29T12:11:39Z</time>
      </trkpt>
      <trkpt lat="48.02908" lon="7.02221">
        <ele>992</ele>
        <time>2021-07-29T12:11:43Z</time>
      </trkpt>
      <trkpt lat="48.02908" lon="7.02221">
        <ele>992.2</ele>
        <time>2021-07-29T12:11:49Z</time>
      </trkpt>
      <trkpt lat="48.02908" lon="7.02221">
        <ele>992.2</ele>
        <time>2021-07-29T12:11:53Z</time>
      </trkpt>
      <trkpt lat="48.02908" lon="7.02222">
        <ele>992.2</ele>
        <time>2021-07-29T12:11:59Z</time>
      </trkpt>
      <trkpt lat="48.02908" lon="7.02222">
        <ele>992</ele>
        <time>2021-07-29T12:12:03Z</time>
      </trkpt>
      <trkpt lat="48.02908" lon="7.02222">
        <ele>991.8</ele>
        <time>2021-07-29T12:12:09Z</time>
      </trkpt>
      <trkpt lat="48.02908" lon="7.02222">
        <ele>992.2</ele>
        <time>2021-07-29T12:12:13Z</time>
      </trkpt>
      <trkpt lat="48.02908" lon="7.02222">
        <ele>992.2</ele>
        <time>2021-07-29T12:12:19Z</time>
      </trkpt>
      <trkpt lat="48.02908" lon="7.02222">
        <ele>992.2</ele>
        <time>2021-07-29T12:12:23Z</time>
      </trkpt>
      <trkpt lat="48.02908" lon="7.02221">
        <ele>992</ele>
        <time>2021-07-29T12:12:29Z</time>
      </trkpt>
      <trkpt lat="48.02908" lon="7.02222">
        <ele>991.8</ele>
        <time>2021-07-29T12:12:33Z</time>
      </trkpt>
      <trkpt lat="48.02908" lon="7.02222">
        <ele>991.8</ele>
        <time>2021-07-29T12:12:39Z</time>
      </trkpt>
      <trkpt lat="48.02908" lon="7.02222">
        <ele>991.8</ele>
        <time>2021-07-29T12:12:43Z</time>
      </trkpt>
      <trkpt lat="48.02908" lon="7.02222">
        <ele>992.2</ele>
        <time>2021-07-29T12:12:49Z</time>
      </trkpt>
      <trkpt lat="48.02908" lon="7.02221">
        <ele>992</ele>
        <time>2021-07-29T12:12:53Z</time>
      </trkpt>
      <trkpt lat="48.02909" lon="7.0222">
        <ele>992.4</ele>
        <time>2021-07-29T12:12:59Z</time>
      </trkpt>
      <trkpt lat="48.02908" lon="7.02219">
        <ele>992.4</ele>
        <time>2021-07-29T12:13:03Z</time>
      </trkpt>
      <trkpt lat="48.02909" lon="7.02217">
        <ele>992.4</ele>
        <time>2021-07-29T12:13:09Z</time>
      </trkpt>
      <trkpt lat="48.02909" lon="7.02216">
        <ele>992.4</ele>
        <time>2021-07-29T12:13:13Z</time>
      </trkpt>
      <trkpt lat="48.02909" lon="7.02217">
        <ele>992</ele>
        <time>2021-07-29T12:13:19Z</time>
      </trkpt>
      <trkpt lat="48.02909" lon="7.02218">
        <ele>992</ele>
        <time>2021-07-29T12:13:23Z</time>
      </trkpt>
      <trkpt lat="48.02909" lon="7.02219">
        <ele>992.4</ele>
        <time>2021-07-29T12:13:29Z</time>
      </trkpt>
      <trkpt lat="48.02909" lon="7.02218">
        <ele>992.4</ele>
        <time>2021-07-29T12:13:33Z</time>
      </trkpt>
      <trkpt lat="48.0291" lon="7.0222">
        <ele>992.4</ele>
        <time>2021-07-29T12:13:39Z</time>
      </trkpt>
      <trkpt lat="48.0291" lon="7.02222">
        <ele>992.4</ele>
        <time>2021-07-29T12:13:43Z</time>
      </trkpt>
      <trkpt lat="48.0291" lon="7.02222">
        <ele>992.4</ele>
        <time>2021-07-29T12:13:49Z</time>
      </trkpt>
      <trkpt lat="48.0291" lon="7.02222">
        <ele>992.2</ele>
        <time>2021-07-29T12:13:53Z</time>
      </trkpt>
      <trkpt lat="48.0291" lon="7.02222">
        <ele>992.2</ele>
        <time>2021-07-29T12:13:59Z</time>
      </trkpt>
      <trkpt lat="48.0291" lon="7.02222">
        <ele>992.2</ele>
        <time>2021-07-29T12:14:03Z</time>
      </trkpt>
      <trkpt lat="48.0291" lon="7.02222">
        <ele>992.2</ele>
        <time>2021-07-29T12:14:09Z</time>
      </trkpt>
      <trkpt lat="48.0291" lon="7.02222">
        <ele>992</ele>
        <time>2021-07-29T12:14:13Z</time>
      </trkpt>
      <trkpt lat="48.0291" lon="7.02221">
        <ele>992.4</ele>
        <time>2021-07-29T12:14:19Z</time>
      </trkpt>
      <trkpt lat="48.02911" lon="7.0222">
        <ele>992.4</ele>
        <time>2021-07-29T12:14:23Z</time>
      </trkpt>
      <trkpt lat="48.02913" lon="7.02219">
        <ele>992.8</ele>
        <time>2021-07-29T12:14:29Z</time>
      </trkpt>
      <trkpt lat="48.02915" lon="7.02219">
        <ele>992.8</ele>
        <time>2021-07-29T12:14:33Z</time>
      </trkpt>
      <trkpt lat="48.02913" lon="7.02214">
        <ele>992.6</ele>
        <time>2021-07-29T12:14:39Z</time>
      </trkpt>
      <trkpt lat="48.02913" lon="7.02213">
        <ele>992.6</ele>
        <time>2021-07-29T12:14:43Z</time>
      </trkpt>
      <trkpt lat="48.02913" lon="7.02213">
        <ele>992.8</ele>
        <time>2021-07-29T12:14:49Z</time>
      </trkpt>
      <trkpt lat="48.02913" lon="7.02212">
        <ele>992.8</ele>
        <time>2021-07-29T12:14:53Z</time>
      </trkpt>
      <trkpt lat="48.02915" lon="7.0221">
        <ele>992.8</ele>
        <time>2021-07-29T12:14:59Z</time>
      </trkpt>
      <trkpt lat="48.02914" lon="7.02209">
        <ele>992.8</ele>
        <time>2021-07-29T12:15:03Z</time>
      </trkpt>
      <trkpt lat="48.02914" lon="7.02207">
        <ele>993</ele>
        <time>2021-07-29T12:15:09Z</time>
      </trkpt>
      <trkpt lat="48.02914" lon="7.02206">
        <ele>993</ele>
        <time>2021-07-29T12:15:13Z</time>
      </trkpt>
      <trkpt lat="48.02914" lon="7.02207">
        <ele>993.2</ele>
        <time>2021-07-29T12:15:19Z</time>
      </trkpt>
      <trkpt lat="48.02915" lon="7.02206">
        <ele>993.8</ele>
        <time>2021-07-29T12:15:23Z</time>
      </trkpt>
      <trkpt lat="48.02916" lon="7.02204">
        <ele>994.4</ele>
        <time>2021-07-29T12:15:27Z</time>
      </trkpt>
      <trkpt lat="48.02918" lon="7.02202">
        <ele>995.2</ele>
        <time>2021-07-29T12:15:33Z</time>
      </trkpt>
      <trkpt lat="48.02922" lon="7.022">
        <ele>995.4</ele>
        <time>2021-07-29T12:15:36Z</time>
      </trkpt>
      <trkpt lat="48.02922" lon="7.02199">
        <ele>995.6</ele>
        <time>2021-07-29T12:15:37Z</time>
      </trkpt>
      <trkpt lat="48.02926" lon="7.02195">
        <ele>996.2</ele>
        <time>2021-07-29T12:15:41Z</time>
      </trkpt>
      <trkpt lat="48.02927" lon="7.02194">
        <ele>996.4</ele>
        <time>2021-07-29T12:15:43Z</time>
      </trkpt>
      <trkpt lat="48.0293" lon="7.02192">
        <ele>996.4</ele>
        <time>2021-07-29T12:15:46Z</time>
      </trkpt>
      <trkpt lat="48.02932" lon="7.02189">
        <ele>997</ele>
        <time>2021-07-29T12:15:52Z</time>
      </trkpt>
      <trkpt lat="48.02934" lon="7.02188">
        <ele>997.2</ele>
        <time>2021-07-29T12:15:53Z</time>
      </trkpt>
      <trkpt lat="48.02935" lon="7.02186">
        <ele>997.4</ele>
        <time>2021-07-29T12:15:55Z</time>
      </trkpt>
      <trkpt lat="48.02939" lon="7.02184">
        <ele>998.2</ele>
        <time>2021-07-29T12:16:01Z</time>
      </trkpt>
      <trkpt lat="48.0294" lon="7.02183">
        <ele>998.6</ele>
        <time>2021-07-29T12:16:03Z</time>
      </trkpt>
      <trkpt lat="48.02944" lon="7.02182">
        <ele>999.2</ele>
        <time>2021-07-29T12:16:09Z</time>
      </trkpt>
      <trkpt lat="48.02946" lon="7.02182">
        <ele>999.6</ele>
        <time>2021-07-29T12:16:12Z</time>
      </trkpt>
      <trkpt lat="48.02946" lon="7.02182">
        <ele>999.6</ele>
        <time>2021-07-29T12:16:13Z</time>
      </trkpt>
      <trkpt lat="48.0295" lon="7.02178">
        <ele>1000.2</ele>
        <time>2021-07-29T12:16:19Z</time>
      </trkpt>
      <trkpt lat="48.02951" lon="7.02178">
        <ele>1000.6</ele>
        <time>2021-07-29T12:16:21Z</time>
      </trkpt>
      <trkpt lat="48.02952" lon="7.02179">
        <ele>1000.8</ele>
        <time>2021-07-29T12:16:22Z</time>
      </trkpt>
      <trkpt lat="48.02954" lon="7.02177">
        <ele>1001.6</ele>
        <time>2021-07-29T12:16:27Z</time>
      </trkpt>
      <trkpt lat="48.02958" lon="7.02173">
        <ele>1002.4</ele>
        <time>2021-07-29T12:16:33Z</time>
      </trkpt>
      <trkpt lat="48.0296" lon="7.02172">
        <ele>1002.6</ele>
        <time>2021-07-29T12:16:36Z</time>
      </trkpt>
      <trkpt lat="48.02965" lon="7.0217">
        <ele>1003.6</ele>
        <time>2021-07-29T12:16:42Z</time>
      </trkpt>
      <trkpt lat="48.02965" lon="7.0217">
        <ele>1003.6</ele>
        <time>2021-07-29T12:16:43Z</time>
      </trkpt>
      <trkpt lat="48.02966" lon="7.0217">
        <ele>1003.8</ele>
        <time>2021-07-29T12:16:44Z</time>
      </trkpt>
      <trkpt lat="48.02968" lon="7.02168">
        <ele>1004.4</ele>
        <time>2021-07-29T12:16:50Z</time>
      </trkpt>
      <trkpt lat="48.02971" lon="7.02168">
        <ele>1004.8</ele>
        <time>2021-07-29T12:16:53Z</time>
      </trkpt>
      <trkpt lat="48.02975" lon="7.02165">
        <ele>1005.6</ele>
        <time>2021-07-29T12:16:59Z</time>
      </trkpt>
      <trkpt lat="48.02975" lon="7.02165">
        <ele>1005.8</ele>
        <time>2021-07-29T12:17:00Z</time>
      </trkpt>
      <trkpt lat="48.02976" lon="7.02164">
        <ele>1006</ele>
        <time>2021-07-29T12:17:03Z</time>
      </trkpt>
      <trkpt lat="48.02981" lon="7.02163">
        <ele>1006.8</ele>
        <time>2021-07-29T12:17:09Z</time>
      </trkpt>
      <trkpt lat="48.02982" lon="7.02163">
        <ele>1007</ele>
        <time>2021-07-29T12:17:10Z</time>
      </trkpt>
      <trkpt lat="48.02985" lon="7.02161">
        <ele>1007</ele>
        <time>2021-07-29T12:17:13Z</time>
      </trkpt>
      <trkpt lat="48.02986" lon="7.0216">
        <ele>1007.4</ele>
        <time>2021-07-29T12:17:15Z</time>
      </trkpt>
      <trkpt lat="48.02988" lon="7.0216">
        <ele>1007.8</ele>
        <time>2021-07-29T12:17:18Z</time>
      </trkpt>
      <trkpt lat="48.02989" lon="7.02158">
        <ele>1008</ele>
        <time>2021-07-29T12:17:20Z</time>
      </trkpt>
      <trkpt lat="48.0299" lon="7.02156">
        <ele>1008.4</ele>
        <time>2021-07-29T12:17:23Z</time>
      </trkpt>
      <trkpt lat="48.02993" lon="7.02156">
        <ele>1009.2</ele>
        <time>2021-07-29T12:17:28Z</time>
      </trkpt>
      <trkpt lat="48.02997" lon="7.02155">
        <ele>1010</ele>
        <time>2021-07-29T12:17:33Z</time>
      </trkpt>
      <trkpt lat="48.02998" lon="7.02153">
        <ele>1010.2</ele>
        <time>2021-07-29T12:17:35Z</time>
      </trkpt>
      <trkpt lat="48.03001" lon="7.02151">
        <ele>1010.6</ele>
        <time>2021-07-29T12:17:41Z</time>
      </trkpt>
      <trkpt lat="48.03002" lon="7.0215">
        <ele>1010.8</ele>
        <time>2021-07-29T12:17:43Z</time>
      </trkpt>
      <trkpt lat="48.03003" lon="7.02147">
        <ele>1011.2</ele>
        <time>2021-07-29T12:17:46Z</time>
      </trkpt>
      <trkpt lat="48.03005" lon="7.02143">
        <ele>1011.8</ele>
        <time>2021-07-29T12:17:52Z</time>
      </trkpt>
      <trkpt lat="48.03005" lon="7.02141">
        <ele>1012</ele>
        <time>2021-07-29T12:17:53Z</time>
      </trkpt>
      <trkpt lat="48.03005" lon="7.02139">
        <ele>1012.4</ele>
        <time>2021-07-29T12:17:55Z</time>
      </trkpt>
      <trkpt lat="48.03006" lon="7.02134">
        <ele>1013.2</ele>
        <time>2021-07-29T12:18:01Z</time>
      </trkpt>
      <trkpt lat="48.03006" lon="7.02133">
        <ele>1013.4</ele>
        <time>2021-07-29T12:18:03Z</time>
      </trkpt>
      <trkpt lat="48.03009" lon="7.02128">
        <ele>1014.4</ele>
        <time>2021-07-29T12:18:09Z</time>
      </trkpt>
      <trkpt lat="48.03009" lon="7.02128">
        <ele>1014.6</ele>
        <time>2021-07-29T12:18:10Z</time>
      </trkpt>
      <trkpt lat="48.0301" lon="7.02126">
        <ele>1014.8</ele>
        <time>2021-07-29T12:18:13Z</time>
      </trkpt>
      <trkpt lat="48.03011" lon="7.02125">
        <ele>1015.2</ele>
        <time>2021-07-29T12:18:19Z</time>
      </trkpt>
      <trkpt lat="48.03012" lon="7.02122">
        <ele>1015.6</ele>
        <time>2021-07-29T12:18:22Z</time>
      </trkpt>
      <trkpt lat="48.03013" lon="7.02122">
        <ele>1015.8</ele>
        <time>2021-07-29T12:18:23Z</time>
      </trkpt>
      <trkpt lat="48.03018" lon="7.02119">
        <ele>1016.6</ele>
        <time>2021-07-29T12:18:29Z</time>
      </trkpt>
      <trkpt lat="48.03018" lon="7.02118">
        <ele>1016.8</ele>
        <time>2021-07-29T12:18:30Z</time>
      </trkpt>
      <trkpt lat="48.03019" lon="7.02116">
        <ele>1017.4</ele>
        <time>2021-07-29T12:18:33Z</time>
      </trkpt>
      <trkpt lat="48.03021" lon="7.02111">
        <ele>1017.8</ele>
        <time>2021-07-29T12:18:37Z</time>
      </trkpt>
      <trkpt lat="48.03022" lon="7.02108">
        <ele>1018</ele>
        <time>2021-07-29T12:18:43Z</time>
      </trkpt>
      <trkpt lat="48.03025" lon="7.02106">
        <ele>1017.8</ele>
        <time>2021-07-29T12:18:49Z</time>
      </trkpt>
      <trkpt lat="48.03025" lon="7.02105">
        <ele>1018.4</ele>
        <time>2021-07-29T12:18:53Z</time>
      </trkpt>
      <trkpt lat="48.03025" lon="7.02105">
        <ele>1019</ele>
        <time>2021-07-29T12:18:58Z</time>
      </trkpt>
      <trkpt lat="48.03023" lon="7.02104">
        <ele>1019.8</ele>
        <time>2021-07-29T12:19:03Z</time>
      </trkpt>
      <trkpt lat="48.03022" lon="7.02104">
        <ele>1020</ele>
        <time>2021-07-29T12:19:05Z</time>
      </trkpt>
      <trkpt lat="48.0302" lon="7.02106">
        <ele>1020.4</ele>
        <time>2021-07-29T12:19:11Z</time>
      </trkpt>
      <trkpt lat="48.03018" lon="7.02105">
        <ele>1020.4</ele>
        <time>2021-07-29T12:19:13Z</time>
      </trkpt>
      <trkpt lat="48.03013" lon="7.02105">
        <ele>1020.8</ele>
        <time>2021-07-29T12:19:19Z</time>
      </trkpt>
      <trkpt lat="48.0301" lon="7.02106">
        <ele>1021</ele>
        <time>2021-07-29T12:19:22Z</time>
      </trkpt>
      <trkpt lat="48.0301" lon="7.02106">
        <ele>1021</ele>
        <time>2021-07-29T12:19:23Z</time>
      </trkpt>
      <trkpt lat="48.03009" lon="7.02106">
        <ele>1020.8</ele>
        <time>2021-07-29T12:19:29Z</time>
      </trkpt>
      <trkpt lat="48.0301" lon="7.02106">
        <ele>1021</ele>
        <time>2021-07-29T12:19:33Z</time>
      </trkpt>
      <trkpt lat="48.0301" lon="7.02106">
        <ele>1022.2</ele>
        <time>2021-07-29T12:19:35Z</time>
      </trkpt>
      <trkpt lat="48.0301" lon="7.02103">
        <ele>1021.4</ele>
        <time>2021-07-29T12:19:41Z</time>
      </trkpt>
      <trkpt lat="48.0301" lon="7.02101">
        <ele>1021.8</ele>
        <time>2021-07-29T12:19:43Z</time>
      </trkpt>
      <trkpt lat="48.0301" lon="7.02095">
        <ele>1022.6</ele>
        <time>2021-07-29T12:19:49Z</time>
      </trkpt>
      <trkpt lat="48.03011" lon="7.02091">
        <ele>1023</ele>
        <time>2021-07-29T12:19:53Z</time>
      </trkpt>
      <trkpt lat="48.03011" lon="7.0209">
        <ele>1023.2</ele>
        <time>2021-07-29T12:19:54Z</time>
      </trkpt>
      <trkpt lat="48.03012" lon="7.02084">
        <ele>1024</ele>
        <time>2021-07-29T12:20:00Z</time>
      </trkpt>
      <trkpt lat="48.03012" lon="7.02083">
        <ele>1024.4</ele>
        <time>2021-07-29T12:20:02Z</time>
      </trkpt>
      <trkpt lat="48.03013" lon="7.02083">
        <ele>1024.4</ele>
        <time>2021-07-29T12:20:03Z</time>
      </trkpt>
      <trkpt lat="48.03015" lon="7.02081">
        <ele>1025.4</ele>
        <time>2021-07-29T12:20:09Z</time>
      </trkpt>
      <trkpt lat="48.03018" lon="7.02082">
        <ele>1025.8</ele>
        <time>2021-07-29T12:20:13Z</time>
      </trkpt>
      <trkpt lat="48.03025" lon="7.02082">
        <ele>1026.4</ele>
        <time>2021-07-29T12:20:18Z</time>
      </trkpt>
      <trkpt lat="48.03029" lon="7.02082">
        <ele>1027</ele>
        <time>2021-07-29T12:20:23Z</time>
      </trkpt>
      <trkpt lat="48.03031" lon="7.0208">
        <ele>1027.4</ele>
        <time>2021-07-29T12:20:29Z</time>
      </trkpt>
      <trkpt lat="48.03033" lon="7.02079">
        <ele>1028.2</ele>
        <time>2021-07-29T12:20:33Z</time>
      </trkpt>
      <trkpt lat="48.03034" lon="7.02078">
        <ele>1028.6</ele>
        <time>2021-07-29T12:20:37Z</time>
      </trkpt>
      <trkpt lat="48.03039" lon="7.02075">
        <ele>1029.2</ele>
        <time>2021-07-29T12:20:43Z</time>
      </trkpt>
      <trkpt lat="48.03041" lon="7.02074">
        <ele>1029.4</ele>
        <time>2021-07-29T12:20:45Z</time>
      </trkpt>
      <trkpt lat="48.03043" lon="7.02073">
        <ele>1029.6</ele>
        <time>2021-07-29T12:20:47Z</time>
      </trkpt>
      <trkpt lat="48.03046" lon="7.02073">
        <ele>1030</ele>
        <time>2021-07-29T12:20:50Z</time>
      </trkpt>
      <trkpt lat="48.0305" lon="7.02073">
        <ele>1030.2</ele>
        <time>2021-07-29T12:20:53Z</time>
      </trkpt>
      <trkpt lat="48.03051" lon="7.02073">
        <ele>1030.4</ele>
        <time>2021-07-29T12:20:55Z</time>
      </trkpt>
      <trkpt lat="48.03052" lon="7.02072">
        <ele>1030.8</ele>
        <time>2021-07-29T12:20:57Z</time>
      </trkpt>
      <trkpt lat="48.03055" lon="7.02068">
        <ele>1031.6</ele>
        <time>2021-07-29T12:21:03Z</time>
      </trkpt>
      <trkpt lat="48.03055" lon="7.02067">
        <ele>1031.8</ele>
        <time>2021-07-29T12:21:04Z</time>
      </trkpt>
      <trkpt lat="48.03056" lon="7.0206">
        <ele>1033</ele>
        <time>2021-07-29T12:21:10Z</time>
      </trkpt>
      <trkpt lat="48.03058" lon="7.02059">
        <ele>1033.2</ele>
        <time>2021-07-29T12:21:12Z</time>
      </trkpt>
      <trkpt lat="48.03058" lon="7.02058">
        <ele>1033.2</ele>
        <time>2021-07-29T12:21:13Z</time>
      </trkpt>
      <trkpt lat="48.03062" lon="7.02055">
        <ele>1033.4</ele>
        <time>2021-07-29T12:21:19Z</time>
      </trkpt>
      <trkpt lat="48.03065" lon="7.02052">
        <ele>1034</ele>
        <time>2021-07-29T12:21:23Z</time>
      </trkpt>
      <trkpt lat="48.03065" lon="7.02052">
        <ele>1034.2</ele>
        <time>2021-07-29T12:21:24Z</time>
      </trkpt>
      <trkpt lat="48.03069" lon="7.02049">
        <ele>1034.4</ele>
        <time>2021-07-29T12:21:30Z</time>
      </trkpt>
      <trkpt lat="48.03071" lon="7.02049">
        <ele>1034.4</ele>
        <time>2021-07-29T12:21:33Z</time>
      </trkpt>
      <trkpt lat="48.03075" lon="7.02048">
        <ele>1035</ele>
        <time>2021-07-29T12:21:39Z</time>
      </trkpt>
      <trkpt lat="48.03076" lon="7.02048">
        <ele>1035.2</ele>
        <time>2021-07-29T12:21:40Z</time>
      </trkpt>
      <trkpt lat="48.03074" lon="7.02046">
        <ele>1035.6</ele>
        <time>2021-07-29T12:21:43Z</time>
      </trkpt>
      <trkpt lat="48.03076" lon="7.02044">
        <ele>1036.2</ele>
        <time>2021-07-29T12:21:49Z</time>
      </trkpt>
      <trkpt lat="48.03079" lon="7.02043">
        <ele>1036.6</ele>
        <time>2021-07-29T12:21:53Z</time>
      </trkpt>
      <trkpt lat="48.03081" lon="7.0204">
        <ele>1037.4</ele>
        <time>2021-07-29T12:21:58Z</time>
      </trkpt>
      <trkpt lat="48.03085" lon="7.02037">
        <ele>1038.2</ele>
        <time>2021-07-29T12:22:03Z</time>
      </trkpt>
      <trkpt lat="48.03086" lon="7.02036">
        <ele>1038.6</ele>
        <time>2021-07-29T12:22:05Z</time>
      </trkpt>
      <trkpt lat="48.03089" lon="7.02034">
        <ele>1039.6</ele>
        <time>2021-07-29T12:22:11Z</time>
      </trkpt>
      <trkpt lat="48.0309" lon="7.02034">
        <ele>1039.6</ele>
        <time>2021-07-29T12:22:12Z</time>
      </trkpt>
      <trkpt lat="48.03091" lon="7.02032">
        <ele>1039.8</ele>
        <time>2021-07-29T12:22:13Z</time>
      </trkpt>
      <trkpt lat="48.03095" lon="7.02028">
        <ele>1040.4</ele>
        <time>2021-07-29T12:22:16Z</time>
      </trkpt>
      <trkpt lat="48.03098" lon="7.02025">
        <ele>1040.6</ele>
        <time>2021-07-29T12:22:19Z</time>
      </trkpt>
      <trkpt lat="48.03102" lon="7.02023">
        <ele>1040.8</ele>
        <time>2021-07-29T12:22:23Z</time>
      </trkpt>
      <trkpt lat="48.03105" lon="7.02024">
        <ele>1041.4</ele>
        <time>2021-07-29T12:22:29Z</time>
      </trkpt>
      <trkpt lat="48.03105" lon="7.02022">
        <ele>1041.8</ele>
        <time>2021-07-29T12:22:31Z</time>
      </trkpt>
      <trkpt lat="48.03108" lon="7.0202">
        <ele>1042</ele>
        <time>2021-07-29T12:22:33Z</time>
      </trkpt>
      <trkpt lat="48.0311" lon="7.02012">
        <ele>1042.4</ele>
        <time>2021-07-29T12:22:39Z</time>
      </trkpt>
      <trkpt lat="48.03112" lon="7.02012">
        <ele>1041.8</ele>
        <time>2021-07-29T12:22:42Z</time>
      </trkpt>
      <trkpt lat="48.03114" lon="7.02012">
        <ele>1041.6</ele>
        <time>2021-07-29T12:22:43Z</time>
      </trkpt>
      <trkpt lat="48.03118" lon="7.02012">
        <ele>1041.4</ele>
        <time>2021-07-29T12:22:46Z</time>
      </trkpt>
      <trkpt lat="48.03121" lon="7.02012">
        <ele>1041.8</ele>
        <time>2021-07-29T12:22:49Z</time>
      </trkpt>
      <trkpt lat="48.03127" lon="7.02011">
        <ele>1042</ele>
        <time>2021-07-29T12:22:53Z</time>
      </trkpt>
      <trkpt lat="48.03132" lon="7.0201">
        <ele>1042.2</ele>
        <time>2021-07-29T12:22:59Z</time>
      </trkpt>
      <trkpt lat="48.03134" lon="7.02008">
        <ele>1042.4</ele>
        <time>2021-07-29T12:23:03Z</time>
      </trkpt>
      <trkpt lat="48.03135" lon="7.02004">
        <ele>1042.4</ele>
        <time>2021-07-29T12:23:09Z</time>
      </trkpt>
      <trkpt lat="48.03135" lon="7.02004">
        <ele>1042.2</ele>
        <time>2021-07-29T12:23:13Z</time>
      </trkpt>
      <trkpt lat="48.0314" lon="7.02003">
        <ele>1041.4</ele>
        <time>2021-07-29T12:23:19Z</time>
      </trkpt>
      <trkpt lat="48.03143" lon="7.02003">
        <ele>1040.8</ele>
        <time>2021-07-29T12:23:23Z</time>
      </trkpt>
      <trkpt lat="48.03147" lon="7.02002">
        <ele>1040.4</ele>
        <time>2021-07-29T12:23:29Z</time>
      </trkpt>
      <trkpt lat="48.03151" lon="7.02002">
        <ele>1039.6</ele>
        <time>2021-07-29T12:23:33Z</time>
      </trkpt>
      <trkpt lat="48.03152" lon="7.02002">
        <ele>1039.4</ele>
        <time>2021-07-29T12:23:34Z</time>
      </trkpt>
      <trkpt lat="48.03155" lon="7.02002">
        <ele>1039</ele>
        <time>2021-07-29T12:23:37Z</time>
      </trkpt>
      <trkpt lat="48.03159" lon="7.01999">
        <ele>1038.6</ele>
        <time>2021-07-29T12:23:43Z</time>
      </trkpt>
      <trkpt lat="48.03165" lon="7.01994">
        <ele>1037.6</ele>
        <time>2021-07-29T12:23:49Z</time>
      </trkpt>
      <trkpt lat="48.03165" lon="7.01994">
        <ele>1037.4</ele>
        <time>2021-07-29T12:23:50Z</time>
      </trkpt>
      <trkpt lat="48.03167" lon="7.0199">
        <ele>1037.4</ele>
        <time>2021-07-29T12:23:53Z</time>
      </trkpt>
      <trkpt lat="48.03171" lon="7.01981">
        <ele>1037.4</ele>
        <time>2021-07-29T12:23:59Z</time>
      </trkpt>
      <trkpt lat="48.03171" lon="7.01975">
        <ele>1036.8</ele>
        <time>2021-07-29T12:24:03Z</time>
      </trkpt>
      <trkpt lat="48.03171" lon="7.01966">
        <ele>1037.4</ele>
        <time>2021-07-29T12:24:09Z</time>
      </trkpt>
      <trkpt lat="48.0317" lon="7.01959">
        <ele>1037.8</ele>
        <time>2021-07-29T12:24:13Z</time>
      </trkpt>
      <trkpt lat="48.03169" lon="7.01957">
        <ele>1038.6</ele>
        <time>2021-07-29T12:24:15Z</time>
      </trkpt>
      <trkpt lat="48.03171" lon="7.0195">
        <ele>1039.2</ele>
        <time>2021-07-29T12:24:21Z</time>
      </trkpt>
      <trkpt lat="48.03172" lon="7.01948">
        <ele>1039</ele>
        <time>2021-07-29T12:24:23Z</time>
      </trkpt>
      <trkpt lat="48.03175" lon="7.0194">
        <ele>1039</ele>
        <time>2021-07-29T12:24:29Z</time>
      </trkpt>
      <trkpt lat="48.03177" lon="7.01936">
        <ele>1038.8</ele>
        <time>2021-07-29T12:24:33Z</time>
      </trkpt>
      <trkpt lat="48.03179" lon="7.01933">
        <ele>1038.8</ele>
        <time>2021-07-29T12:24:36Z</time>
      </trkpt>
      <trkpt lat="48.0318" lon="7.01928">
        <ele>1038.6</ele>
        <time>2021-07-29T12:24:42Z</time>
      </trkpt>
      <trkpt lat="48.0318" lon="7.01928">
        <ele>1038.6</ele>
        <time>2021-07-29T12:24:43Z</time>
      </trkpt>
      <trkpt lat="48.03181" lon="7.01928">
        <ele>1038.8</ele>
        <time>2021-07-29T12:24:49Z</time>
      </trkpt>
      <trkpt lat="48.03181" lon="7.01928">
        <ele>1039</ele>
        <time>2021-07-29T12:24:53Z</time>
      </trkpt>
      <trkpt lat="48.03181" lon="7.01928">
        <ele>1039.4</ele>
        <time>2021-07-29T12:24:59Z</time>
      </trkpt>
      <trkpt lat="48.03181" lon="7.01928">
        <ele>1039.6</ele>
        <time>2021-07-29T12:25:00Z</time>
      </trkpt>
      <trkpt lat="48.03181" lon="7.01928">
        <ele>1039.8</ele>
        <time>2021-07-29T12:25:03Z</time>
      </trkpt>
      <trkpt lat="48.03182" lon="7.01928">
        <ele>1040.6</ele>
        <time>2021-07-29T12:25:08Z</time>
      </trkpt>
      <trkpt lat="48.03182" lon="7.01928">
        <ele>1040.6</ele>
        <time>2021-07-29T12:25:13Z</time>
      </trkpt>
      <trkpt lat="48.03182" lon="7.01928">
        <ele>1040.2</ele>
        <time>2021-07-29T12:25:19Z</time>
      </trkpt>
      <trkpt lat="48.03182" lon="7.01927">
        <ele>1040.6</ele>
        <time>2021-07-29T12:25:23Z</time>
      </trkpt>
      <trkpt lat="48.03184" lon="7.01923">
        <ele>1040.2</ele>
        <time>2021-07-29T12:25:29Z</time>
      </trkpt>
      <trkpt lat="48.03183" lon="7.01921">
        <ele>1039.6</ele>
        <time>2021-07-29T12:25:33Z</time>
      </trkpt>
      <trkpt lat="48.03183" lon="7.0192">
        <ele>1039.2</ele>
        <time>2021-07-29T12:25:36Z</time>
      </trkpt>
      <trkpt lat="48.03184" lon="7.0192">
        <ele>1039.2</ele>
        <time>2021-07-29T12:25:42Z</time>
      </trkpt>
      <trkpt lat="48.03184" lon="7.0192">
        <ele>1039.2</ele>
        <time>2021-07-29T12:25:43Z</time>
      </trkpt>
      <trkpt lat="48.03185" lon="7.01921">
        <ele>1039.2</ele>
        <time>2021-07-29T12:25:49Z</time>
      </trkpt>
      <trkpt lat="48.03185" lon="7.01921">
        <ele>1039.2</ele>
        <time>2021-07-29T12:25:53Z</time>
      </trkpt>
      <trkpt lat="48.03186" lon="7.01921">
        <ele>1039.4</ele>
        <time>2021-07-29T12:25:59Z</time>
      </trkpt>
      <trkpt lat="48.03185" lon="7.01919">
        <ele>1039.8</ele>
        <time>2021-07-29T12:26:03Z</time>
      </trkpt>
      <trkpt lat="48.03188" lon="7.01916">
        <ele>1040.4</ele>
        <time>2021-07-29T12:26:09Z</time>
      </trkpt>
      <trkpt lat="48.03188" lon="7.01916">
        <ele>1040.6</ele>
        <time>2021-07-29T12:26:10Z</time>
      </trkpt>
      <trkpt lat="48.03189" lon="7.01915">
        <ele>1040.4</ele>
        <time>2021-07-29T12:26:13Z</time>
      </trkpt>
      <trkpt lat="48.0319" lon="7.01911">
        <ele>1041.2</ele>
        <time>2021-07-29T12:26:19Z</time>
      </trkpt>
      <trkpt lat="48.03191" lon="7.0191">
        <ele>1041.6</ele>
        <time>2021-07-29T12:26:21Z</time>
      </trkpt>
      <trkpt lat="48.03192" lon="7.01908">
        <ele>1042</ele>
        <time>2021-07-29T12:26:23Z</time>
      </trkpt>
      <trkpt lat="48.03194" lon="7.01904">
        <ele>1042.8</ele>
        <time>2021-07-29T12:26:29Z</time>
      </trkpt>
      <trkpt lat="48.03196" lon="7.01901">
        <ele>1043.2</ele>
        <time>2021-07-29T12:26:33Z</time>
      </trkpt>
      <trkpt lat="48.03197" lon="7.01899">
        <ele>1043.8</ele>
        <time>2021-07-29T12:26:36Z</time>
      </trkpt>
      <trkpt lat="48.03199" lon="7.01893">
        <ele>1044.8</ele>
        <time>2021-07-29T12:26:42Z</time>
      </trkpt>
      <trkpt lat="48.03199" lon="7.01892">
        <ele>1044.8</ele>
        <time>2021-07-29T12:26:43Z</time>
      </trkpt>
      <trkpt lat="48.032" lon="7.01889">
        <ele>1045</ele>
        <time>2021-07-29T12:26:45Z</time>
      </trkpt>
      <trkpt lat="48.03202" lon="7.01883">
        <ele>1045.8</ele>
        <time>2021-07-29T12:26:51Z</time>
      </trkpt>
      <trkpt lat="48.03203" lon="7.01883">
        <ele>1046</ele>
        <time>2021-07-29T12:26:52Z</time>
      </trkpt>
      <trkpt lat="48.03203" lon="7.01882">
        <ele>1046</ele>
        <time>2021-07-29T12:26:53Z</time>
      </trkpt>
      <trkpt lat="48.03207" lon="7.01878">
        <ele>1047</ele>
        <time>2021-07-29T12:26:58Z</time>
      </trkpt>
      <trkpt lat="48.0321" lon="7.01877">
        <ele>1047.4</ele>
        <time>2021-07-29T12:27:03Z</time>
      </trkpt>
      <trkpt lat="48.03215" lon="7.01879">
        <ele>1047.6</ele>
        <time>2021-07-29T12:27:09Z</time>
      </trkpt>
      <trkpt lat="48.03218" lon="7.01878">
        <ele>1047.4</ele>
        <time>2021-07-29T12:27:13Z</time>
      </trkpt>
      <trkpt lat="48.0322" lon="7.01877">
        <ele>1047</ele>
        <time>2021-07-29T12:27:17Z</time>
      </trkpt>
      <trkpt lat="48.03224" lon="7.01875">
        <ele>1046.4</ele>
        <time>2021-07-29T12:27:22Z</time>
      </trkpt>
      <trkpt lat="48.03225" lon="7.01875">
        <ele>1046.2</ele>
        <time>2021-07-29T12:27:23Z</time>
      </trkpt>
      <trkpt lat="48.03226" lon="7.01874">
        <ele>1046.2</ele>
        <time>2021-07-29T12:27:24Z</time>
      </trkpt>
      <trkpt lat="48.03229" lon="7.01873">
        <ele>1046</ele>
        <time>2021-07-29T12:27:26Z</time>
      </trkpt>
      <trkpt lat="48.0323" lon="7.01873">
        <ele>1046</ele>
        <time>2021-07-29T12:27:28Z</time>
      </trkpt>
      <trkpt lat="48.03231" lon="7.01872">
        <ele>1046</ele>
        <time>2021-07-29T12:27:29Z</time>
      </trkpt>
      <trkpt lat="48.03232" lon="7.01871">
        <ele>1045.6</ele>
        <time>2021-07-29T12:27:30Z</time>
      </trkpt>
      <trkpt lat="48.03235" lon="7.01868">
        <ele>1045.2</ele>
        <time>2021-07-29T12:27:33Z</time>
      </trkpt>
      <trkpt lat="48.03237" lon="7.01865">
        <ele>1045</ele>
        <time>2021-07-29T12:27:36Z</time>
      </trkpt>
      <trkpt lat="48.03239" lon="7.01864">
        <ele>1045.4</ele>
        <time>2021-07-29T12:27:39Z</time>
      </trkpt>
      <trkpt lat="48.03242" lon="7.01862">
        <ele>1046</ele>
        <time>2021-07-29T12:27:43Z</time>
      </trkpt>
      <trkpt lat="48.03243" lon="7.01861">
        <ele>1046.4</ele>
        <time>2021-07-29T12:27:45Z</time>
      </trkpt>
      <trkpt lat="48.03244" lon="7.0186">
        <ele>1046.4</ele>
        <time>2021-07-29T12:27:47Z</time>
      </trkpt>
      <trkpt lat="48.03245" lon="7.01858">
        <ele>1047</ele>
        <time>2021-07-29T12:27:50Z</time>
      </trkpt>
      <trkpt lat="48.03245" lon="7.01856">
        <ele>1047.6</ele>
        <time>2021-07-29T12:27:53Z</time>
      </trkpt>
      <trkpt lat="48.03245" lon="7.01855">
        <ele>1048</ele>
        <time>2021-07-29T12:27:55Z</time>
      </trkpt>
      <trkpt lat="48.03244" lon="7.01854">
        <ele>1048.2</ele>
        <time>2021-07-29T12:28:01Z</time>
      </trkpt>
      <trkpt lat="48.03244" lon="7.01853">
        <ele>1048.6</ele>
        <time>2021-07-29T12:28:03Z</time>
      </trkpt>
      <trkpt lat="48.03245" lon="7.01852">
        <ele>1048.4</ele>
        <time>2021-07-29T12:28:09Z</time>
      </trkpt>
      <trkpt lat="48.03247" lon="7.0185">
        <ele>1049</ele>
        <time>2021-07-29T12:28:13Z</time>
      </trkpt>
      <trkpt lat="48.03247" lon="7.0185">
        <ele>1049.2</ele>
        <time>2021-07-29T12:28:14Z</time>
      </trkpt>
      <trkpt lat="48.0325" lon="7.01847">
        <ele>1050.2</ele>
        <time>2021-07-29T12:28:20Z</time>
      </trkpt>
      <trkpt lat="48.03251" lon="7.01845">
        <ele>1051</ele>
        <time>2021-07-29T12:28:23Z</time>
      </trkpt>
      <trkpt lat="48.03251" lon="7.01844">
        <ele>1051.4</ele>
        <time>2021-07-29T12:28:24Z</time>
      </trkpt>
      <trkpt lat="48.03251" lon="7.01839">
        <ele>1052.2</ele>
        <time>2021-07-29T12:28:30Z</time>
      </trkpt>
      <trkpt lat="48.03251" lon="7.01838">
        <ele>1052.4</ele>
        <time>2021-07-29T12:28:33Z</time>
      </trkpt>
      <trkpt lat="48.0325" lon="7.01836">
        <ele>1053.6</ele>
        <time>2021-07-29T12:28:39Z</time>
      </trkpt>
      <trkpt lat="48.0325" lon="7.01832">
        <ele>1054.6</ele>
        <time>2021-07-29T12:28:42Z</time>
      </trkpt>
      <trkpt lat="48.0325" lon="7.01832">
        <ele>1054.8</ele>
        <time>2021-07-29T12:28:43Z</time>
      </trkpt>
      <trkpt lat="48.03249" lon="7.01828">
        <ele>1055</ele>
        <time>2021-07-29T12:28:49Z</time>
      </trkpt>
      <trkpt lat="48.03248" lon="7.01827">
        <ele>1055.6</ele>
        <time>2021-07-29T12:28:53Z</time>
      </trkpt>
      <trkpt lat="48.03247" lon="7.01827">
        <ele>1055.8</ele>
        <time>2021-07-29T12:28:54Z</time>
      </trkpt>
      <trkpt lat="48.03245" lon="7.01826">
        <ele>1057</ele>
        <time>2021-07-29T12:29:00Z</time>
      </trkpt>
      <trkpt lat="48.03244" lon="7.01825">
        <ele>1057.2</ele>
        <time>2021-07-29T12:29:03Z</time>
      </trkpt>
      <trkpt lat="48.03241" lon="7.01822">
        <ele>1058</ele>
        <time>2021-07-29T12:29:08Z</time>
      </trkpt>
      <trkpt lat="48.03241" lon="7.01821">
        <ele>1058.8</ele>
        <time>2021-07-29T12:29:13Z</time>
      </trkpt>
      <trkpt lat="48.03241" lon="7.0182">
        <ele>1059.2</ele>
        <time>2021-07-29T12:29:15Z</time>
      </trkpt>
      <trkpt lat="48.0324" lon="7.01819">
        <ele>1060</ele>
        <time>2021-07-29T12:29:21Z</time>
      </trkpt>
      <trkpt lat="48.0324" lon="7.01819">
        <ele>1060</ele>
        <time>2021-07-29T12:29:23Z</time>
      </trkpt>
      <trkpt lat="48.0324" lon="7.01815">
        <ele>1060</ele>
        <time>2021-07-29T12:29:29Z</time>
      </trkpt>
      <trkpt lat="48.0324" lon="7.01813">
        <ele>1060.4</ele>
        <time>2021-07-29T12:29:33Z</time>
      </trkpt>
      <trkpt lat="48.03239" lon="7.01813">
        <ele>1061.6</ele>
        <time>2021-07-29T12:29:38Z</time>
      </trkpt>
      <trkpt lat="48.03237" lon="7.01812">
        <ele>1062.2</ele>
        <time>2021-07-29T12:29:43Z</time>
      </trkpt>
      <trkpt lat="48.03236" lon="7.01812">
        <ele>1062.8</ele>
        <time>2021-07-29T12:29:45Z</time>
      </trkpt>
      <trkpt lat="48.03234" lon="7.01813">
        <ele>1063.8</ele>
        <time>2021-07-29T12:29:49Z</time>
      </trkpt>
      <trkpt lat="48.03232" lon="7.01811">
        <ele>1064.2</ele>
        <time>2021-07-29T12:29:53Z</time>
      </trkpt>
      <trkpt lat="48.0323" lon="7.01805">
        <ele>1064.6</ele>
        <time>2021-07-29T12:29:57Z</time>
      </trkpt>
      <trkpt lat="48.0323" lon="7.01805">
        <ele>1064.8</ele>
        <time>2021-07-29T12:29:58Z</time>
      </trkpt>
      <trkpt lat="48.0323" lon="7.01804">
        <ele>1065</ele>
        <time>2021-07-29T12:29:59Z</time>
      </trkpt>
      <trkpt lat="48.0323" lon="7.01804">
        <ele>1065</ele>
        <time>2021-07-29T12:30:02Z</time>
      </trkpt>
      <trkpt lat="48.0323" lon="7.01804">
        <ele>1065.2</ele>
        <time>2021-07-29T12:30:03Z</time>
      </trkpt>
      <trkpt lat="48.0323" lon="7.01803">
        <ele>1065.2</ele>
        <time>2021-07-29T12:30:09Z</time>
      </trkpt>
      <trkpt lat="48.0323" lon="7.01803">
        <ele>1065.2</ele>
        <time>2021-07-29T12:30:13Z</time>
      </trkpt>
      <trkpt lat="48.0323" lon="7.01803">
        <ele>1065.2</ele>
        <time>2021-07-29T12:30:19Z</time>
      </trkpt>
      <trkpt lat="48.0323" lon="7.01803">
        <ele>1065.2</ele>
        <time>2021-07-29T12:30:23Z</time>
      </trkpt>
      <trkpt lat="48.03231" lon="7.01801">
        <ele>1066</ele>
        <time>2021-07-29T12:30:29Z</time>
      </trkpt>
      <trkpt lat="48.03231" lon="7.01801">
        <ele>1066</ele>
        <time>2021-07-29T12:30:30Z</time>
      </trkpt>
      <trkpt lat="48.03232" lon="7.01801">
        <ele>1066.6</ele>
        <time>2021-07-29T12:30:33Z</time>
      </trkpt>
      <trkpt lat="48.03235" lon="7.01798">
        <ele>1067.2</ele>
        <time>2021-07-29T12:30:39Z</time>
      </trkpt>
      <trkpt lat="48.03237" lon="7.01797">
        <ele>1067.4</ele>
        <time>2021-07-29T12:30:42Z</time>
      </trkpt>
      <trkpt lat="48.03238" lon="7.01797">
        <ele>1067.6</ele>
        <time>2021-07-29T12:30:43Z</time>
      </trkpt>
      <trkpt lat="48.03242" lon="7.01798">
        <ele>1067.8</ele>
        <time>2021-07-29T12:30:49Z</time>
      </trkpt>
      <trkpt lat="48.03245" lon="7.018">
        <ele>1067.8</ele>
        <time>2021-07-29T12:30:53Z</time>
      </trkpt>
      <trkpt lat="48.03248" lon="7.018">
        <ele>1068.4</ele>
        <time>2021-07-29T12:30:57Z</time>
      </trkpt>
      <trkpt lat="48.0325" lon="7.018">
        <ele>1069.6</ele>
        <time>2021-07-29T12:31:01Z</time>
      </trkpt>
      <trkpt lat="48.03251" lon="7.01801">
        <ele>1070</ele>
        <time>2021-07-29T12:31:03Z</time>
      </trkpt>
      <trkpt lat="48.03253" lon="7.01801">
        <ele>1070.6</ele>
        <time>2021-07-29T12:31:07Z</time>
      </trkpt>
      <trkpt lat="48.03256" lon="7.01802">
        <ele>1071.4</ele>
        <time>2021-07-29T12:31:13Z</time>
      </trkpt>
      <trkpt lat="48.03258" lon="7.01801">
        <ele>1071.6</ele>
        <time>2021-07-29T12:31:17Z</time>
      </trkpt>
      <trkpt lat="48.03259" lon="7.01799">
        <ele>1072.8</ele>
        <time>2021-07-29T12:31:23Z</time>
      </trkpt>
      <trkpt lat="48.03262" lon="7.01797">
        <ele>1073.8</ele>
        <time>2021-07-29T12:31:29Z</time>
      </trkpt>
      <trkpt lat="48.03264" lon="7.01796">
        <ele>1074.4</ele>
        <time>2021-07-29T12:31:33Z</time>
      </trkpt>
      <trkpt lat="48.03265" lon="7.01796">
        <ele>1074.8</ele>
        <time>2021-07-29T12:31:35Z</time>
      </trkpt>
      <trkpt lat="48.03268" lon="7.01795">
        <ele>1076</ele>
        <time>2021-07-29T12:31:41Z</time>
      </trkpt>
      <trkpt lat="48.0327" lon="7.01795">
        <ele>1076.4</ele>
        <time>2021-07-29T12:31:43Z</time>
      </trkpt>
      <trkpt lat="48.03273" lon="7.01789">
        <ele>1076</ele>
        <time>2021-07-29T12:31:48Z</time>
      </trkpt>
      <trkpt lat="48.03273" lon="7.01788">
        <ele>1075.6</ele>
        <time>2021-07-29T12:31:53Z</time>
      </trkpt>
      <trkpt lat="48.03273" lon="7.01787">
        <ele>1076.2</ele>
        <time>2021-07-29T12:31:59Z</time>
      </trkpt>
      <trkpt lat="48.03271" lon="7.01784">
        <ele>1077</ele>
        <time>2021-07-29T12:32:03Z</time>
      </trkpt>
      <trkpt lat="48.03271" lon="7.01784">
        <ele>1077.4</ele>
        <time>2021-07-29T12:32:04Z</time>
      </trkpt>
      <trkpt lat="48.03271" lon="7.01783">
        <ele>1078.6</ele>
        <time>2021-07-29T12:32:07Z</time>
      </trkpt>
      <trkpt lat="48.03272" lon="7.01779">
        <ele>1079.2</ele>
        <time>2021-07-29T12:32:13Z</time>
      </trkpt>
      <trkpt lat="48.0327" lon="7.0177">
        <ele>1079</ele>
        <time>2021-07-29T12:32:18Z</time>
      </trkpt>
      <trkpt lat="48.03271" lon="7.01764">
        <ele>1079.8</ele>
        <time>2021-07-29T12:32:23Z</time>
      </trkpt>
      <trkpt lat="48.03272" lon="7.01758">
        <ele>1080.4</ele>
        <time>2021-07-29T12:32:29Z</time>
      </trkpt>
      <trkpt lat="48.03275" lon="7.01753">
        <ele>1080.8</ele>
        <time>2021-07-29T12:32:33Z</time>
      </trkpt>
      <trkpt lat="48.03278" lon="7.0175">
        <ele>1081.4</ele>
        <time>2021-07-29T12:32:39Z</time>
      </trkpt>
      <trkpt lat="48.0328" lon="7.01748">
        <ele>1081.8</ele>
        <time>2021-07-29T12:32:41Z</time>
      </trkpt>
      <trkpt lat="48.03282" lon="7.01747">
        <ele>1082</ele>
        <time>2021-07-29T12:32:43Z</time>
      </trkpt>
      <trkpt lat="48.03283" lon="7.01741">
        <ele>1082.8</ele>
        <time>2021-07-29T12:32:48Z</time>
      </trkpt>
      <trkpt lat="48.03283" lon="7.01739">
        <ele>1083.4</ele>
        <time>2021-07-29T12:32:50Z</time>
      </trkpt>
      <trkpt lat="48.03284" lon="7.01738">
        <ele>1084.2</ele>
        <time>2021-07-29T12:32:52Z</time>
      </trkpt>
      <trkpt lat="48.03284" lon="7.01736">
        <ele>1084.4</ele>
        <time>2021-07-29T12:32:53Z</time>
      </trkpt>
      <trkpt lat="48.03285" lon="7.01733">
        <ele>1085.2</ele>
        <time>2021-07-29T12:32:56Z</time>
      </trkpt>
      <trkpt lat="48.03285" lon="7.01732">
        <ele>1085.4</ele>
        <time>2021-07-29T12:32:57Z</time>
      </trkpt>
      <trkpt lat="48.03288" lon="7.01727">
        <ele>1085.2</ele>
        <time>2021-07-29T12:33:03Z</time>
      </trkpt>
      <trkpt lat="48.0329" lon="7.01724">
        <ele>1085.2</ele>
        <time>2021-07-29T12:33:09Z</time>
      </trkpt>
      <trkpt lat="48.03292" lon="7.01721">
        <ele>1085.6</ele>
        <time>2021-07-29T12:33:13Z</time>
      </trkpt>
      <trkpt lat="48.03295" lon="7.01722">
        <ele>1086.4</ele>
        <time>2021-07-29T12:33:18Z</time>
      </trkpt>
      <trkpt lat="48.03295" lon="7.01722">
        <ele>1087.4</ele>
        <time>2021-07-29T12:33:22Z</time>
      </trkpt>
      <trkpt lat="48.03295" lon="7.01721">
        <ele>1087.6</ele>
        <time>2021-07-29T12:33:23Z</time>
      </trkpt>
      <trkpt lat="48.03297" lon="7.0172">
        <ele>1087.2</ele>
        <time>2021-07-29T12:33:29Z</time>
      </trkpt>
      <trkpt lat="48.03297" lon="7.0172">
        <ele>1087.2</ele>
        <time>2021-07-29T12:33:33Z</time>
      </trkpt>
      <trkpt lat="48.03297" lon="7.0172">
        <ele>1087.4</ele>
        <time>2021-07-29T12:33:39Z</time>
      </trkpt>
      <trkpt lat="48.03297" lon="7.0172">
        <ele>1087.8</ele>
        <time>2021-07-29T12:33:43Z</time>
      </trkpt>
      <trkpt lat="48.03297" lon="7.0172">
        <ele>1087.6</ele>
        <time>2021-07-29T12:33:49Z</time>
      </trkpt>
      <trkpt lat="48.03297" lon="7.0172">
        <ele>1088</ele>
        <time>2021-07-29T12:33:53Z</time>
      </trkpt>
      <trkpt lat="48.03297" lon="7.01719">
        <ele>1088.6</ele>
        <time>2021-07-29T12:33:56Z</time>
      </trkpt>
      <trkpt lat="48.03297" lon="7.01714">
        <ele>1089.6</ele>
        <time>2021-07-29T12:34:01Z</time>
      </trkpt>
      <trkpt lat="48.03298" lon="7.01713">
        <ele>1090.2</ele>
        <time>2021-07-29T12:34:03Z</time>
      </trkpt>
      <trkpt lat="48.033" lon="7.0171">
        <ele>1090.8</ele>
        <time>2021-07-29T12:34:08Z</time>
      </trkpt>
      <trkpt lat="48.03304" lon="7.01706">
        <ele>1091.4</ele>
        <time>2021-07-29T12:34:13Z</time>
      </trkpt>
      <trkpt lat="48.03305" lon="7.01705">
        <ele>1092</ele>
        <time>2021-07-29T12:34:15Z</time>
      </trkpt>
      <trkpt lat="48.03306" lon="7.01701">
        <ele>1092.6</ele>
        <time>2021-07-29T12:34:18Z</time>
      </trkpt>
      <trkpt lat="48.03306" lon="7.01699">
        <ele>1092.6</ele>
        <time>2021-07-29T12:34:20Z</time>
      </trkpt>
      <trkpt lat="48.03306" lon="7.01697">
        <ele>1092.8</ele>
        <time>2021-07-29T12:34:23Z</time>
      </trkpt>
      <trkpt lat="48.03306" lon="7.01697">
        <ele>1093</ele>
        <time>2021-07-29T12:34:25Z</time>
      </trkpt>
      <trkpt lat="48.03307" lon="7.01694">
        <ele>1094</ele>
        <time>2021-07-29T12:34:28Z</time>
      </trkpt>
      <trkpt lat="48.0331" lon="7.01689">
        <ele>1094.8</ele>
        <time>2021-07-29T12:34:33Z</time>
      </trkpt>
      <trkpt lat="48.0331" lon="7.01688">
        <ele>1094.2</ele>
        <time>2021-07-29T12:34:39Z</time>
      </trkpt>
      <trkpt lat="48.0331" lon="7.01688">
        <ele>1095.2</ele>
        <time>2021-07-29T12:34:43Z</time>
      </trkpt>
      <trkpt lat="48.0331" lon="7.01688">
        <ele>1095.6</ele>
        <time>2021-07-29T12:34:49Z</time>
      </trkpt>
      <trkpt lat="48.0331" lon="7.01689">
        <ele>1095.4</ele>
        <time>2021-07-29T12:34:53Z</time>
      </trkpt>
      <trkpt lat="48.03311" lon="7.01689">
        <ele>1094.6</ele>
        <time>2021-07-29T12:34:59Z</time>
      </trkpt>
      <trkpt lat="48.03311" lon="7.01689">
        <ele>1094</ele>
        <time>2021-07-29T12:35:02Z</time>
      </trkpt>
      <trkpt lat="48.03311" lon="7.01689">
        <ele>1094</ele>
        <time>2021-07-29T12:35:03Z</time>
      </trkpt>
      <trkpt lat="48.03311" lon="7.01689">
        <ele>1094.2</ele>
        <time>2021-07-29T12:35:09Z</time>
      </trkpt>
      <trkpt lat="48.03311" lon="7.0169">
        <ele>1093.6</ele>
        <time>2021-07-29T12:35:13Z</time>
      </trkpt>
      <trkpt lat="48.03312" lon="7.01689">
        <ele>1093.6</ele>
        <time>2021-07-29T12:35:19Z</time>
      </trkpt>
      <trkpt lat="48.03311" lon="7.01688">
        <ele>1094.4</ele>
        <time>2021-07-29T12:35:23Z</time>
      </trkpt>
      <trkpt lat="48.03312" lon="7.01686">
        <ele>1095.2</ele>
        <time>2021-07-29T12:35:25Z</time>
      </trkpt>
      <trkpt lat="48.03314" lon="7.01685">
        <ele>1095.8</ele>
        <time>2021-07-29T12:35:31Z</time>
      </trkpt>
      <trkpt lat="48.03314" lon="7.01685">
        <ele>1096</ele>
        <time>2021-07-29T12:35:33Z</time>
      </trkpt>
      <trkpt lat="48.03315" lon="7.01684">
        <ele>1096.4</ele>
        <time>2021-07-29T12:35:35Z</time>
      </trkpt>
      <trkpt lat="48.03317" lon="7.0168">
        <ele>1097.4</ele>
        <time>2021-07-29T12:35:41Z</time>
      </trkpt>
      <trkpt lat="48.03318" lon="7.0168">
        <ele>1097.8</ele>
        <time>2021-07-29T12:35:43Z</time>
      </trkpt>
      <trkpt lat="48.03319" lon="7.01674">
        <ele>1098.4</ele>
        <time>2021-07-29T12:35:49Z</time>
      </trkpt>
      <trkpt lat="48.03321" lon="7.01672">
        <ele>1098.6</ele>
        <time>2021-07-29T12:35:53Z</time>
      </trkpt>
      <trkpt lat="48.03325" lon="7.0167">
        <ele>1099.6</ele>
        <time>2021-07-29T12:35:58Z</time>
      </trkpt>
      <trkpt lat="48.03326" lon="7.01668">
        <ele>1100.4</ele>
        <time>2021-07-29T12:36:03Z</time>
      </trkpt>
      <trkpt lat="48.03327" lon="7.01668">
        <ele>1100.6</ele>
        <time>2021-07-29T12:36:04Z</time>
      </trkpt>
      <trkpt lat="48.03329" lon="7.01666">
        <ele>1101.6</ele>
        <time>2021-07-29T12:36:08Z</time>
      </trkpt>
      <trkpt lat="48.03333" lon="7.01663">
        <ele>1102</ele>
        <time>2021-07-29T12:36:13Z</time>
      </trkpt>
      <trkpt lat="48.03335" lon="7.0166">
        <ele>1102.4</ele>
        <time>2021-07-29T12:36:16Z</time>
      </trkpt>
      <trkpt lat="48.03337" lon="7.01658">
        <ele>1102.8</ele>
        <time>2021-07-29T12:36:19Z</time>
      </trkpt>
      <trkpt lat="48.03337" lon="7.01656">
        <ele>1103.8</ele>
        <time>2021-07-29T12:36:23Z</time>
      </trkpt>
      <trkpt lat="48.03337" lon="7.01653">
        <ele>1104.8</ele>
        <time>2021-07-29T12:36:28Z</time>
      </trkpt>
      <trkpt lat="48.03337" lon="7.01649">
        <ele>1105.8</ele>
        <time>2021-07-29T12:36:33Z</time>
      </trkpt>
      <trkpt lat="48.03338" lon="7.01648">
        <ele>1106</ele>
        <time>2021-07-29T12:36:34Z</time>
      </trkpt>
      <trkpt lat="48.0334" lon="7.01644">
        <ele>1107</ele>
        <time>2021-07-29T12:36:40Z</time>
      </trkpt>
      <trkpt lat="48.03341" lon="7.01643">
        <ele>1107</ele>
        <time>2021-07-29T12:36:41Z</time>
      </trkpt>
      <trkpt lat="48.03342" lon="7.01642">
        <ele>1107.4</ele>
        <time>2021-07-29T12:36:43Z</time>
      </trkpt>
      <trkpt lat="48.03345" lon="7.01641">
        <ele>1108.2</ele>
        <time>2021-07-29T12:36:47Z</time>
      </trkpt>
      <trkpt lat="48.03348" lon="7.01639">
        <ele>1109.2</ele>
        <time>2021-07-29T12:36:52Z</time>
      </trkpt>
      <trkpt lat="48.03349" lon="7.01639">
        <ele>1109.4</ele>
        <time>2021-07-29T12:36:53Z</time>
      </trkpt>
      <trkpt lat="48.03356" lon="7.01635">
        <ele>1110.2</ele>
        <time>2021-07-29T12:36:59Z</time>
      </trkpt>
      <trkpt lat="48.03357" lon="7.01635">
        <ele>1110.2</ele>
        <time>2021-07-29T12:37:00Z</time>
      </trkpt>
      <trkpt lat="48.03357" lon="7.01635">
        <ele>1110.4</ele>
        <time>2021-07-29T12:37:01Z</time>
      </trkpt>
      <trkpt lat="48.03358" lon="7.01633">
        <ele>1110.6</ele>
        <time>2021-07-29T12:37:03Z</time>
      </trkpt>
      <trkpt lat="48.03358" lon="7.01632">
        <ele>1110.8</ele>
        <time>2021-07-29T12:37:04Z</time>
      </trkpt>
      <trkpt lat="48.03358" lon="7.01631">
        <ele>1111</ele>
        <time>2021-07-29T12:37:05Z</time>
      </trkpt>
      <trkpt lat="48.03358" lon="7.01629">
        <ele>1111.4</ele>
        <time>2021-07-29T12:37:07Z</time>
      </trkpt>
      <trkpt lat="48.03359" lon="7.01628">
        <ele>1111.4</ele>
        <time>2021-07-29T12:37:08Z</time>
      </trkpt>
      <trkpt lat="48.03362" lon="7.01628">
        <ele>1111.6</ele>
        <time>2021-07-29T12:37:14Z</time>
      </trkpt>
      <trkpt lat="48.03364" lon="7.01626">
        <ele>1112</ele>
        <time>2021-07-29T12:37:20Z</time>
      </trkpt>
      <trkpt lat="48.03367" lon="7.01628">
        <ele>1112.4</ele>
        <time>2021-07-29T12:37:24Z</time>
      </trkpt>
      <trkpt lat="48.03369" lon="7.01629">
        <ele>1113.6</ele>
        <time>2021-07-29T12:37:28Z</time>
      </trkpt>
      <trkpt lat="48.03372" lon="7.01628">
        <ele>1114.8</ele>
        <time>2021-07-29T12:37:34Z</time>
      </trkpt>
      <trkpt lat="48.03374" lon="7.01625">
        <ele>1115.8</ele>
        <time>2021-07-29T12:37:40Z</time>
      </trkpt>
      <trkpt lat="48.03378" lon="7.0162">
        <ele>1116.2</ele>
        <time>2021-07-29T12:37:44Z</time>
      </trkpt>
      <trkpt lat="48.03379" lon="7.01619">
        <ele>1116.6</ele>
        <time>2021-07-29T12:37:47Z</time>
      </trkpt>
      <trkpt lat="48.03379" lon="7.01618">
        <ele>1117</ele>
        <time>2021-07-29T12:37:48Z</time>
      </trkpt>
      <trkpt lat="48.03381" lon="7.0162">
        <ele>1117</ele>
        <time>2021-07-29T12:37:54Z</time>
      </trkpt>
      <trkpt lat="48.0338" lon="7.01621">
        <ele>1117</ele>
        <time>2021-07-29T12:38:00Z</time>
      </trkpt>
      <trkpt lat="48.03379" lon="7.0162">
        <ele>1116.8</ele>
        <time>2021-07-29T12:38:04Z</time>
      </trkpt>
      <trkpt lat="48.03379" lon="7.01621">
        <ele>1116.6</ele>
        <time>2021-07-29T12:38:10Z</time>
      </trkpt>
      <trkpt lat="48.03379" lon="7.0162">
        <ele>1116.6</ele>
        <time>2021-07-29T12:38:14Z</time>
      </trkpt>
      <trkpt lat="48.03379" lon="7.01619">
        <ele>1117</ele>
        <time>2021-07-29T12:38:20Z</time>
      </trkpt>
      <trkpt lat="48.03378" lon="7.01619">
        <ele>1116.8</ele>
        <time>2021-07-29T12:38:24Z</time>
      </trkpt>
      <trkpt lat="48.03378" lon="7.01619">
        <ele>1116.6</ele>
        <time>2021-07-29T12:38:30Z</time>
      </trkpt>
      <trkpt lat="48.03378" lon="7.0162">
        <ele>1116.8</ele>
        <time>2021-07-29T12:38:34Z</time>
      </trkpt>
      <trkpt lat="48.03378" lon="7.0162">
        <ele>1117</ele>
        <time>2021-07-29T12:38:40Z</time>
      </trkpt>
      <trkpt lat="48.03378" lon="7.01619">
        <ele>1117.2</ele>
        <time>2021-07-29T12:38:44Z</time>
      </trkpt>
      <trkpt lat="48.03379" lon="7.01618">
        <ele>1118.2</ele>
        <time>2021-07-29T12:38:49Z</time>
      </trkpt>
      <trkpt lat="48.0338" lon="7.01616">
        <ele>1119</ele>
        <time>2021-07-29T12:38:54Z</time>
      </trkpt>
      <trkpt lat="48.03381" lon="7.01616">
        <ele>1119.4</ele>
        <time>2021-07-29T12:38:55Z</time>
      </trkpt>
      <trkpt lat="48.03382" lon="7.01612">
        <ele>1120.2</ele>
        <time>2021-07-29T12:39:01Z</time>
      </trkpt>
      <trkpt lat="48.03382" lon="7.01611">
        <ele>1120.4</ele>
        <time>2021-07-29T12:39:04Z</time>
      </trkpt>
      <trkpt lat="48.03385" lon="7.0161">
        <ele>1121.6</ele>
        <time>2021-07-29T12:39:10Z</time>
      </trkpt>
      <trkpt lat="48.03388" lon="7.01609">
        <ele>1122</ele>
        <time>2021-07-29T12:39:14Z</time>
      </trkpt>
      <trkpt lat="48.0339" lon="7.01608">
        <ele>1122.6</ele>
        <time>2021-07-29T12:39:17Z</time>
      </trkpt>
      <trkpt lat="48.03395" lon="7.01607">
        <ele>1123.4</ele>
        <time>2021-07-29T12:39:21Z</time>
      </trkpt>
      <trkpt lat="48.03396" lon="7.01607">
        <ele>1123.8</ele>
        <time>2021-07-29T12:39:22Z</time>
      </trkpt>
      <trkpt lat="48.03398" lon="7.01605">
        <ele>1124</ele>
        <time>2021-07-29T12:39:24Z</time>
      </trkpt>
      <trkpt lat="48.03398" lon="7.01604">
        <ele>1124.4</ele>
        <time>2021-07-29T12:39:25Z</time>
      </trkpt>
      <trkpt lat="48.03399" lon="7.01602">
        <ele>1124.8</ele>
        <time>2021-07-29T12:39:29Z</time>
      </trkpt>
      <trkpt lat="48.03399" lon="7.016">
        <ele>1125.8</ele>
        <time>2021-07-29T12:39:34Z</time>
      </trkpt>
      <trkpt lat="48.034" lon="7.01601">
        <ele>1127</ele>
        <time>2021-07-29T12:39:39Z</time>
      </trkpt>
      <trkpt lat="48.03399" lon="7.01598">
        <ele>1127.2</ele>
        <time>2021-07-29T12:39:44Z</time>
      </trkpt>
      <trkpt lat="48.034" lon="7.01596">
        <ele>1128.4</ele>
        <time>2021-07-29T12:39:49Z</time>
      </trkpt>
      <trkpt lat="48.03401" lon="7.01594">
        <ele>1129.2</ele>
        <time>2021-07-29T12:39:54Z</time>
      </trkpt>
      <trkpt lat="48.03402" lon="7.01594">
        <ele>1129.8</ele>
        <time>2021-07-29T12:39:55Z</time>
      </trkpt>
      <trkpt lat="48.03404" lon="7.0159">
        <ele>1130.8</ele>
        <time>2021-07-29T12:40:01Z</time>
      </trkpt>
      <trkpt lat="48.03404" lon="7.0159">
        <ele>1130.8</ele>
        <time>2021-07-29T12:40:02Z</time>
      </trkpt>
      <trkpt lat="48.03404" lon="7.01588">
        <ele>1131.2</ele>
        <time>2021-07-29T12:40:04Z</time>
      </trkpt>
      <trkpt lat="48.03405" lon="7.01586">
        <ele>1132</ele>
        <time>2021-07-29T12:40:07Z</time>
      </trkpt>
      <trkpt lat="48.03406" lon="7.01582">
        <ele>1133.2</ele>
        <time>2021-07-29T12:40:13Z</time>
      </trkpt>
      <trkpt lat="48.03405" lon="7.01582">
        <ele>1133.2</ele>
        <time>2021-07-29T12:40:14Z</time>
      </trkpt>
      <trkpt lat="48.03404" lon="7.0158">
        <ele>1133</ele>
        <time>2021-07-29T12:40:20Z</time>
      </trkpt>
      <trkpt lat="48.03404" lon="7.01579">
        <ele>1132.8</ele>
        <time>2021-07-29T12:40:24Z</time>
      </trkpt>
      <trkpt lat="48.03405" lon="7.01579">
        <ele>1132.8</ele>
        <time>2021-07-29T12:40:30Z</time>
      </trkpt>
      <trkpt lat="48.03405" lon="7.01578">
        <ele>1132.4</ele>
        <time>2021-07-29T12:40:34Z</time>
      </trkpt>
      <trkpt lat="48.03405" lon="7.01577">
        <ele>1132.6</ele>
        <time>2021-07-29T12:40:40Z</time>
      </trkpt>
      <trkpt lat="48.03406" lon="7.01574">
        <ele>1132.4</ele>
        <time>2021-07-29T12:40:44Z</time>
      </trkpt>
      <trkpt lat="48.03407" lon="7.01572">
        <ele>1132.6</ele>
        <time>2021-07-29T12:40:50Z</time>
      </trkpt>
      <trkpt lat="48.03407" lon="7.01573">
        <ele>1132.8</ele>
        <time>2021-07-29T12:40:54Z</time>
      </trkpt>
      <trkpt lat="48.03405" lon="7.01575">
        <ele>1132.8</ele>
        <time>2021-07-29T12:41:00Z</time>
      </trkpt>
      <trkpt lat="48.03405" lon="7.01575">
        <ele>1132.6</ele>
        <time>2021-07-29T12:41:04Z</time>
      </trkpt>
      <trkpt lat="48.03403" lon="7.01577">
        <ele>1132.6</ele>
        <time>2021-07-29T12:41:10Z</time>
      </trkpt>
      <trkpt lat="48.03405" lon="7.01577">
        <ele>1133.2</ele>
        <time>2021-07-29T12:41:14Z</time>
      </trkpt>
      <trkpt lat="48.03405" lon="7.01573">
        <ele>1132.6</ele>
        <time>2021-07-29T12:41:20Z</time>
      </trkpt>
      <trkpt lat="48.03405" lon="7.01573">
        <ele>1132.8</ele>
        <time>2021-07-29T12:41:24Z</time>
      </trkpt>
      <trkpt lat="48.03402" lon="7.01573">
        <ele>1133.6</ele>
        <time>2021-07-29T12:41:30Z</time>
      </trkpt>
      <trkpt lat="48.03402" lon="7.01571">
        <ele>1133.8</ele>
        <time>2021-07-29T12:41:34Z</time>
      </trkpt>
      <trkpt lat="48.03403" lon="7.01568">
        <ele>1134.4</ele>
        <time>2021-07-29T12:41:37Z</time>
      </trkpt>
      <trkpt lat="48.03403" lon="7.0157">
        <ele>1135.4</ele>
        <time>2021-07-29T12:41:43Z</time>
      </trkpt>
      <trkpt lat="48.03403" lon="7.0157">
        <ele>1135.4</ele>
        <time>2021-07-29T12:41:44Z</time>
      </trkpt>
      <trkpt lat="48.034" lon="7.0157">
        <ele>1136.4</ele>
        <time>2021-07-29T12:41:50Z</time>
      </trkpt>
      <trkpt lat="48.034" lon="7.0157">
        <ele>1136.6</ele>
        <time>2021-07-29T12:41:51Z</time>
      </trkpt>
      <trkpt lat="48.03399" lon="7.01568">
        <ele>1137.4</ele>
        <time>2021-07-29T12:41:54Z</time>
      </trkpt>
      <trkpt lat="48.03399" lon="7.01567">
        <ele>1137.8</ele>
        <time>2021-07-29T12:41:56Z</time>
      </trkpt>
      <trkpt lat="48.03396" lon="7.01564">
        <ele>1138.4</ele>
        <time>2021-07-29T12:42:02Z</time>
      </trkpt>
      <trkpt lat="48.03395" lon="7.01566">
        <ele>1138.4</ele>
        <time>2021-07-29T12:42:04Z</time>
      </trkpt>
      <trkpt lat="48.03393" lon="7.01561">
        <ele>1138.6</ele>
        <time>2021-07-29T12:42:10Z</time>
      </trkpt>
      <trkpt lat="48.03393" lon="7.01559">
        <ele>1138.8</ele>
        <time>2021-07-29T12:42:11Z</time>
      </trkpt>
      <trkpt lat="48.03392" lon="7.01558">
        <ele>1139.6</ele>
        <time>2021-07-29T12:42:14Z</time>
      </trkpt>
      <trkpt lat="48.03391" lon="7.01562">
        <ele>1139.8</ele>
        <time>2021-07-29T12:42:20Z</time>
      </trkpt>
      <trkpt lat="48.0339" lon="7.01564">
        <ele>1139.4</ele>
        <time>2021-07-29T12:42:24Z</time>
      </trkpt>
      <trkpt lat="48.0339" lon="7.01563">
        <ele>1139.6</ele>
        <time>2021-07-29T12:42:30Z</time>
      </trkpt>
      <trkpt lat="48.0339" lon="7.01563">
        <ele>1139.6</ele>
        <time>2021-07-29T12:42:34Z</time>
      </trkpt>
      <trkpt lat="48.0339" lon="7.01563">
        <ele>1140</ele>
        <time>2021-07-29T12:42:37Z</time>
      </trkpt>
      <trkpt lat="48.0339" lon="7.01563">
        <ele>1140.2</ele>
        <time>2021-07-29T12:42:43Z</time>
      </trkpt>
      <trkpt lat="48.03389" lon="7.01563">
        <ele>1140.2</ele>
        <time>2021-07-29T12:42:44Z</time>
      </trkpt>
      <trkpt lat="48.0339" lon="7.01563">
        <ele>1140</ele>
        <time>2021-07-29T12:42:50Z</time>
      </trkpt>
      <trkpt lat="48.0339" lon="7.01563">
        <ele>1139.6</ele>
        <time>2021-07-29T12:42:54Z</time>
      </trkpt>
      <trkpt lat="48.0339" lon="7.01563">
        <ele>1139.6</ele>
        <time>2021-07-29T12:43:00Z</time>
      </trkpt>
      <trkpt lat="48.0339" lon="7.01564">
        <ele>1139.2</ele>
        <time>2021-07-29T12:43:04Z</time>
      </trkpt>
      <trkpt lat="48.0339" lon="7.01564">
        <ele>1139.6</ele>
        <time>2021-07-29T12:43:10Z</time>
      </trkpt>
      <trkpt lat="48.03391" lon="7.01565">
        <ele>1139.2</ele>
        <time>2021-07-29T12:43:14Z</time>
      </trkpt>
      <trkpt lat="48.03391" lon="7.01566">
        <ele>1138.6</ele>
        <time>2021-07-29T12:43:19Z</time>
      </trkpt>
      <trkpt lat="48.03392" lon="7.01569">
        <ele>1137.6</ele>
        <time>2021-07-29T12:43:22Z</time>
      </trkpt>
      <trkpt lat="48.03392" lon="7.0157">
        <ele>1137.6</ele>
        <time>2021-07-29T12:43:24Z</time>
      </trkpt>
      <trkpt lat="48.03397" lon="7.01566">
        <ele>1137.4</ele>
        <time>2021-07-29T12:43:30Z</time>
      </trkpt>
      <trkpt lat="48.03398" lon="7.01562">
        <ele>1137.4</ele>
        <time>2021-07-29T12:43:34Z</time>
      </trkpt>
      <trkpt lat="48.03399" lon="7.01557">
        <ele>1137.4</ele>
        <time>2021-07-29T12:43:40Z</time>
      </trkpt>
      <trkpt lat="48.03399" lon="7.01553">
        <ele>1137.6</ele>
        <time>2021-07-29T12:43:44Z</time>
      </trkpt>
      <trkpt lat="48.03399" lon="7.01551">
        <ele>1137.6</ele>
        <time>2021-07-29T12:43:50Z</time>
      </trkpt>
      <trkpt lat="48.03399" lon="7.0155">
        <ele>1137.8</ele>
        <time>2021-07-29T12:43:54Z</time>
      </trkpt>
      <trkpt lat="48.03399" lon="7.01546">
        <ele>1138.4</ele>
        <time>2021-07-29T12:44:00Z</time>
      </trkpt>
      <trkpt lat="48.034" lon="7.01546">
        <ele>1138.6</ele>
        <time>2021-07-29T12:44:01Z</time>
      </trkpt>
      <trkpt lat="48.03401" lon="7.01543">
        <ele>1139</ele>
        <time>2021-07-29T12:44:04Z</time>
      </trkpt>
      <trkpt lat="48.03401" lon="7.01538">
        <ele>1139.6</ele>
        <time>2021-07-29T12:44:08Z</time>
      </trkpt>
      <trkpt lat="48.03402" lon="7.01535">
        <ele>1140</ele>
        <time>2021-07-29T12:44:10Z</time>
      </trkpt>
      <trkpt lat="48.03402" lon="7.01533">
        <ele>1140.2</ele>
        <time>2021-07-29T12:44:12Z</time>
      </trkpt>
      <trkpt lat="48.03402" lon="7.01532">
        <ele>1140.6</ele>
        <time>2021-07-29T12:44:14Z</time>
      </trkpt>
      <trkpt lat="48.03404" lon="7.01526">
        <ele>1141.6</ele>
        <time>2021-07-29T12:44:20Z</time>
      </trkpt>
      <trkpt lat="48.03405" lon="7.01526">
        <ele>1141.6</ele>
        <time>2021-07-29T12:44:21Z</time>
      </trkpt>
      <trkpt lat="48.03405" lon="7.01525">
        <ele>1141.8</ele>
        <time>2021-07-29T12:44:23Z</time>
      </trkpt>
      <trkpt lat="48.03405" lon="7.01524">
        <ele>1141.8</ele>
        <time>2021-07-29T12:44:24Z</time>
      </trkpt>
      <trkpt lat="48.03404" lon="7.0152">
        <ele>1141.8</ele>
        <time>2021-07-29T12:44:30Z</time>
      </trkpt>
      <trkpt lat="48.03404" lon="7.01517">
        <ele>1142.6</ele>
        <time>2021-07-29T12:44:34Z</time>
      </trkpt>
      <trkpt lat="48.03403" lon="7.01516">
        <ele>1142.8</ele>
        <time>2021-07-29T12:44:35Z</time>
      </trkpt>
      <trkpt lat="48.034" lon="7.01513">
        <ele>1143.8</ele>
        <time>2021-07-29T12:44:40Z</time>
      </trkpt>
      <trkpt lat="48.03399" lon="7.01508">
        <ele>1144.6</ele>
        <time>2021-07-29T12:44:44Z</time>
      </trkpt>
      <trkpt lat="48.03398" lon="7.01506">
        <ele>1144.8</ele>
        <time>2021-07-29T12:44:47Z</time>
      </trkpt>
      <trkpt lat="48.03396" lon="7.01504">
        <ele>1146</ele>
        <time>2021-07-29T12:44:51Z</time>
      </trkpt>
      <trkpt lat="48.03395" lon="7.01504">
        <ele>1146.4</ele>
        <time>2021-07-29T12:44:54Z</time>
      </trkpt>
      <trkpt lat="48.03393" lon="7.01502">
        <ele>1146.6</ele>
        <time>2021-07-29T12:45:00Z</time>
      </trkpt>
      <trkpt lat="48.03393" lon="7.015">
        <ele>1147.2</ele>
        <time>2021-07-29T12:45:03Z</time>
      </trkpt>
      <trkpt lat="48.03392" lon="7.015">
        <ele>1147.2</ele>
        <time>2021-07-29T12:45:04Z</time>
      </trkpt>
      <trkpt lat="48.03391" lon="7.01497">
        <ele>1147.8</ele>
        <time>2021-07-29T12:45:10Z</time>
      </trkpt>
      <trkpt lat="48.0339" lon="7.01495">
        <ele>1148.4</ele>
        <time>2021-07-29T12:45:12Z</time>
      </trkpt>
      <trkpt lat="48.0339" lon="7.01495">
        <ele>1148.8</ele>
        <time>2021-07-29T12:45:14Z</time>
      </trkpt>
      <trkpt lat="48.0339" lon="7.01496">
        <ele>1148.4</ele>
        <time>2021-07-29T12:45:20Z</time>
      </trkpt>
      <trkpt lat="48.0339" lon="7.01497">
        <ele>1148.2</ele>
        <time>2021-07-29T12:45:24Z</time>
      </trkpt>
      <trkpt lat="48.0339" lon="7.01499">
        <ele>1149</ele>
        <time>2021-07-29T12:45:30Z</time>
      </trkpt>
      <trkpt lat="48.03389" lon="7.01501">
        <ele>1149.4</ele>
        <time>2021-07-29T12:45:34Z</time>
      </trkpt>
      <trkpt lat="48.0339" lon="7.01497">
        <ele>1150</ele>
        <time>2021-07-29T12:45:40Z</time>
      </trkpt>
      <trkpt lat="48.0339" lon="7.01496">
        <ele>1150.4</ele>
        <time>2021-07-29T12:45:41Z</time>
      </trkpt>
      <trkpt lat="48.03389" lon="7.01493">
        <ele>1151</ele>
        <time>2021-07-29T12:45:44Z</time>
      </trkpt>
      <trkpt lat="48.03389" lon="7.01489">
        <ele>1151.4</ele>
        <time>2021-07-29T12:45:49Z</time>
      </trkpt>
      <trkpt lat="48.03388" lon="7.01488">
        <ele>1151.6</ele>
        <time>2021-07-29T12:45:51Z</time>
      </trkpt>
      <trkpt lat="48.03389" lon="7.01487">
        <ele>1152.2</ele>
        <time>2021-07-29T12:45:54Z</time>
      </trkpt>
      <trkpt lat="48.03388" lon="7.01485">
        <ele>1152.8</ele>
        <time>2021-07-29T12:45:56Z</time>
      </trkpt>
      <trkpt lat="48.03388" lon="7.01482">
        <ele>1153.2</ele>
        <time>2021-07-29T12:46:02Z</time>
      </trkpt>
      <trkpt lat="48.03388" lon="7.01481">
        <ele>1153.8</ele>
        <time>2021-07-29T12:46:04Z</time>
      </trkpt>
      <trkpt lat="48.03388" lon="7.0148">
        <ele>1154</ele>
        <time>2021-07-29T12:46:05Z</time>
      </trkpt>
      <trkpt lat="48.03388" lon="7.01476">
        <ele>1154.6</ele>
        <time>2021-07-29T12:46:11Z</time>
      </trkpt>
      <trkpt lat="48.03388" lon="7.01476">
        <ele>1154.6</ele>
        <time>2021-07-29T12:46:14Z</time>
      </trkpt>
      <trkpt lat="48.03387" lon="7.01475">
        <ele>1155.2</ele>
        <time>2021-07-29T12:46:18Z</time>
      </trkpt>
      <trkpt lat="48.03387" lon="7.01474">
        <ele>1155.6</ele>
        <time>2021-07-29T12:46:24Z</time>
      </trkpt>
      <trkpt lat="48.03388" lon="7.01472">
        <ele>1156.2</ele>
        <time>2021-07-29T12:46:26Z</time>
      </trkpt>
      <trkpt lat="48.03388" lon="7.01468">
        <ele>1156.8</ele>
        <time>2021-07-29T12:46:32Z</time>
      </trkpt>
      <trkpt lat="48.03389" lon="7.01467">
        <ele>1156.8</ele>
        <time>2021-07-29T12:46:33Z</time>
      </trkpt>
      <trkpt lat="48.03389" lon="7.01461">
        <ele>1157.4</ele>
        <time>2021-07-29T12:46:39Z</time>
      </trkpt>
      <trkpt lat="48.03389" lon="7.01455">
        <ele>1158.8</ele>
        <time>2021-07-29T12:46:44Z</time>
      </trkpt>
      <trkpt lat="48.03389" lon="7.01451">
        <ele>1159.4</ele>
        <time>2021-07-29T12:46:50Z</time>
      </trkpt>
      <trkpt lat="48.03388" lon="7.01448">
        <ele>1159.8</ele>
        <time>2021-07-29T12:46:54Z</time>
      </trkpt>
      <trkpt lat="48.03388" lon="7.01448">
        <ele>1159.8</ele>
        <time>2021-07-29T12:46:55Z</time>
      </trkpt>
      <trkpt lat="48.03389" lon="7.01443">
        <ele>1159.4</ele>
        <time>2021-07-29T12:47:01Z</time>
      </trkpt>
      <trkpt lat="48.03389" lon="7.01443">
        <ele>1160</ele>
        <time>2021-07-29T12:47:04Z</time>
      </trkpt>
      <trkpt lat="48.0339" lon="7.01441">
        <ele>1160.8</ele>
        <time>2021-07-29T12:47:08Z</time>
      </trkpt>
      <trkpt lat="48.0339" lon="7.01437">
        <ele>1162</ele>
        <time>2021-07-29T12:47:14Z</time>
      </trkpt>
      <trkpt lat="48.03391" lon="7.01432">
        <ele>1162.4</ele>
        <time>2021-07-29T12:47:20Z</time>
      </trkpt>
      <trkpt lat="48.03389" lon="7.0143">
        <ele>1163</ele>
        <time>2021-07-29T12:47:23Z</time>
      </trkpt>
      <trkpt lat="48.03389" lon="7.0143">
        <ele>1163.2</ele>
        <time>2021-07-29T12:47:24Z</time>
      </trkpt>
      <trkpt lat="48.03389" lon="7.01427">
        <ele>1164</ele>
        <time>2021-07-29T12:47:28Z</time>
      </trkpt>
      <trkpt lat="48.03388" lon="7.01419">
        <ele>1164.8</ele>
        <time>2021-07-29T12:47:34Z</time>
      </trkpt>
      <trkpt lat="48.03387" lon="7.01414">
        <ele>1165.2</ele>
        <time>2021-07-29T12:47:36Z</time>
      </trkpt>
      <trkpt lat="48.03387" lon="7.01406">
        <ele>1165.6</ele>
        <time>2021-07-29T12:47:42Z</time>
      </trkpt>
      <trkpt lat="48.03387" lon="7.01404">
        <ele>1165.8</ele>
        <time>2021-07-29T12:47:44Z</time>
      </trkpt>
      <trkpt lat="48.0339" lon="7.01398">
        <ele>1166</ele>
        <time>2021-07-29T12:47:50Z</time>
      </trkpt>
      <trkpt lat="48.0339" lon="7.01391">
        <ele>1166.2</ele>
        <time>2021-07-29T12:47:54Z</time>
      </trkpt>
      <trkpt lat="48.03393" lon="7.01386">
        <ele>1166.6</ele>
        <time>2021-07-29T12:48:00Z</time>
      </trkpt>
      <trkpt lat="48.03394" lon="7.01382">
        <ele>1167</ele>
        <time>2021-07-29T12:48:04Z</time>
      </trkpt>
      <trkpt lat="48.03395" lon="7.01381">
        <ele>1167.2</ele>
        <time>2021-07-29T12:48:05Z</time>
      </trkpt>
      <trkpt lat="48.03395" lon="7.0138">
        <ele>1167.2</ele>
        <time>2021-07-29T12:48:06Z</time>
      </trkpt>
      <trkpt lat="48.03396" lon="7.01377">
        <ele>1167</ele>
        <time>2021-07-29T12:48:12Z</time>
      </trkpt>
      <trkpt lat="48.03396" lon="7.01376">
        <ele>1167</ele>
        <time>2021-07-29T12:48:14Z</time>
      </trkpt>
      <trkpt lat="48.03397" lon="7.01379">
        <ele>1166.6</ele>
        <time>2021-07-29T12:48:20Z</time>
      </trkpt>
      <trkpt lat="48.03395" lon="7.01379">
        <ele>1166.8</ele>
        <time>2021-07-29T12:48:24Z</time>
      </trkpt>
      <trkpt lat="48.03395" lon="7.01379">
        <ele>1167.2</ele>
        <time>2021-07-29T12:48:30Z</time>
      </trkpt>
      <trkpt lat="48.03395" lon="7.01379">
        <ele>1167.2</ele>
        <time>2021-07-29T12:48:34Z</time>
      </trkpt>
      <trkpt lat="48.03395" lon="7.01379">
        <ele>1167.6</ele>
        <time>2021-07-29T12:48:40Z</time>
      </trkpt>
      <trkpt lat="48.03395" lon="7.0138">
        <ele>1167.8</ele>
        <time>2021-07-29T12:48:44Z</time>
      </trkpt>
      <trkpt lat="48.03394" lon="7.01377">
        <ele>1168.2</ele>
        <time>2021-07-29T12:48:50Z</time>
      </trkpt>
      <trkpt lat="48.03395" lon="7.01376">
        <ele>1168.6</ele>
        <time>2021-07-29T12:48:51Z</time>
      </trkpt>
      <trkpt lat="48.03394" lon="7.01376">
        <ele>1169</ele>
        <time>2021-07-29T12:48:54Z</time>
      </trkpt>
      <trkpt lat="48.03397" lon="7.01373">
        <ele>1169.4</ele>
        <time>2021-07-29T12:49:00Z</time>
      </trkpt>
      <trkpt lat="48.03397" lon="7.01373">
        <ele>1169.6</ele>
        <time>2021-07-29T12:49:02Z</time>
      </trkpt>
      <trkpt lat="48.03396" lon="7.01373">
        <ele>1169.6</ele>
        <time>2021-07-29T12:49:04Z</time>
      </trkpt>
      <trkpt lat="48.03393" lon="7.01372">
        <ele>1170.2</ele>
        <time>2021-07-29T12:49:10Z</time>
      </trkpt>
      <trkpt lat="48.03391" lon="7.01373">
        <ele>1170.6</ele>
        <time>2021-07-29T12:49:14Z</time>
      </trkpt>
      <trkpt lat="48.0339" lon="7.01372">
        <ele>1171.2</ele>
        <time>2021-07-29T12:49:20Z</time>
      </trkpt>
      <trkpt lat="48.0339" lon="7.01371">
        <ele>1171.6</ele>
        <time>2021-07-29T12:49:24Z</time>
      </trkpt>
      <trkpt lat="48.0339" lon="7.0137">
        <ele>1172</ele>
        <time>2021-07-29T12:49:25Z</time>
      </trkpt>
      <trkpt lat="48.0339" lon="7.01366">
        <ele>1172.6</ele>
        <time>2021-07-29T12:49:31Z</time>
      </trkpt>
      <trkpt lat="48.0339" lon="7.01363">
        <ele>1172.8</ele>
        <time>2021-07-29T12:49:34Z</time>
      </trkpt>
      <trkpt lat="48.0339" lon="7.01362">
        <ele>1173.2</ele>
        <time>2021-07-29T12:49:35Z</time>
      </trkpt>
      <trkpt lat="48.03391" lon="7.01359">
        <ele>1174.6</ele>
        <time>2021-07-29T12:49:39Z</time>
      </trkpt>
      <trkpt lat="48.03391" lon="7.01359">
        <ele>1174.8</ele>
        <time>2021-07-29T12:49:44Z</time>
      </trkpt>
      <trkpt lat="48.03391" lon="7.01354">
        <ele>1175.6</ele>
        <time>2021-07-29T12:49:50Z</time>
      </trkpt>
      <trkpt lat="48.0339" lon="7.01353">
        <ele>1175.6</ele>
        <time>2021-07-29T12:49:52Z</time>
      </trkpt>
      <trkpt lat="48.0339" lon="7.01353">
        <ele>1175.6</ele>
        <time>2021-07-29T12:49:54Z</time>
      </trkpt>
      <trkpt lat="48.03389" lon="7.01351">
        <ele>1176.2</ele>
        <time>2021-07-29T12:50:00Z</time>
      </trkpt>
      <trkpt lat="48.03389" lon="7.01352">
        <ele>1176.6</ele>
        <time>2021-07-29T12:50:04Z</time>
      </trkpt>
      <trkpt lat="48.03389" lon="7.01351">
        <ele>1176.6</ele>
        <time>2021-07-29T12:50:07Z</time>
      </trkpt>
      <trkpt lat="48.03387" lon="7.01351">
        <ele>1177.4</ele>
        <time>2021-07-29T12:50:13Z</time>
      </trkpt>
      <trkpt lat="48.03387" lon="7.0135">
        <ele>1177.4</ele>
        <time>2021-07-29T12:50:14Z</time>
      </trkpt>
      <trkpt lat="48.03385" lon="7.01349">
        <ele>1177.4</ele>
        <time>2021-07-29T12:50:20Z</time>
      </trkpt>
      <trkpt lat="48.03385" lon="7.01348">
        <ele>1177.8</ele>
        <time>2021-07-29T12:50:21Z</time>
      </trkpt>
      <trkpt lat="48.03384" lon="7.01345">
        <ele>1178</ele>
        <time>2021-07-29T12:50:24Z</time>
      </trkpt>
      <trkpt lat="48.03382" lon="7.01343">
        <ele>1178.8</ele>
        <time>2021-07-29T12:50:29Z</time>
      </trkpt>
      <trkpt lat="48.03381" lon="7.01341">
        <ele>1179.4</ele>
        <time>2021-07-29T12:50:34Z</time>
      </trkpt>
      <trkpt lat="48.03382" lon="7.0134">
        <ele>1180</ele>
        <time>2021-07-29T12:50:36Z</time>
      </trkpt>
      <trkpt lat="48.03381" lon="7.01337">
        <ele>1181</ele>
        <time>2021-07-29T12:50:41Z</time>
      </trkpt>
      <trkpt lat="48.0338" lon="7.01337">
        <ele>1181.4</ele>
        <time>2021-07-29T12:50:44Z</time>
      </trkpt>
      <trkpt lat="48.03376" lon="7.01338">
        <ele>1181.8</ele>
        <time>2021-07-29T12:50:50Z</time>
      </trkpt>
      <trkpt lat="48.03374" lon="7.01338">
        <ele>1182</ele>
        <time>2021-07-29T12:50:54Z</time>
      </trkpt>
      <trkpt lat="48.03375" lon="7.01337">
        <ele>1182.2</ele>
        <time>2021-07-29T12:50:55Z</time>
      </trkpt>
      <trkpt lat="48.03373" lon="7.01336">
        <ele>1182.4</ele>
        <time>2021-07-29T12:51:01Z</time>
      </trkpt>
      <trkpt lat="48.03373" lon="7.01336">
        <ele>1182.6</ele>
        <time>2021-07-29T12:51:04Z</time>
      </trkpt>
      <trkpt lat="48.03374" lon="7.01335">
        <ele>1182.8</ele>
        <time>2021-07-29T12:51:10Z</time>
      </trkpt>
      <trkpt lat="48.03374" lon="7.01335">
        <ele>1182.8</ele>
        <time>2021-07-29T12:51:14Z</time>
      </trkpt>
      <trkpt lat="48.03373" lon="7.01335">
        <ele>1182.6</ele>
        <time>2021-07-29T12:51:20Z</time>
      </trkpt>
      <trkpt lat="48.03374" lon="7.01335">
        <ele>1182.8</ele>
        <time>2021-07-29T12:51:24Z</time>
      </trkpt>
      <trkpt lat="48.03374" lon="7.01334">
        <ele>1183.4</ele>
        <time>2021-07-29T12:51:27Z</time>
      </trkpt>
      <trkpt lat="48.03374" lon="7.01333">
        <ele>1183</ele>
        <time>2021-07-29T12:51:33Z</time>
      </trkpt>
      <trkpt lat="48.03374" lon="7.01333">
        <ele>1183.2</ele>
        <time>2021-07-29T12:51:34Z</time>
      </trkpt>
      <trkpt lat="48.03373" lon="7.01327">
        <ele>1184</ele>
        <time>2021-07-29T12:51:40Z</time>
      </trkpt>
      <trkpt lat="48.03371" lon="7.01325">
        <ele>1184.4</ele>
        <time>2021-07-29T12:51:43Z</time>
      </trkpt>
      <trkpt lat="48.03371" lon="7.01325">
        <ele>1184.6</ele>
        <time>2021-07-29T12:51:44Z</time>
      </trkpt>
      <trkpt lat="48.03372" lon="7.01321">
        <ele>1185.6</ele>
        <time>2021-07-29T12:51:48Z</time>
      </trkpt>
      <trkpt lat="48.03374" lon="7.01318">
        <ele>1186.6</ele>
        <time>2021-07-29T12:51:53Z</time>
      </trkpt>
      <trkpt lat="48.03374" lon="7.01318">
        <ele>1186.6</ele>
        <time>2021-07-29T12:51:54Z</time>
      </trkpt>
      <trkpt lat="48.03373" lon="7.01316">
        <ele>1187.8</ele>
        <time>2021-07-29T12:51:59Z</time>
      </trkpt>
      <trkpt lat="48.03375" lon="7.01313">
        <ele>1188.6</ele>
        <time>2021-07-29T12:52:04Z</time>
      </trkpt>
      <trkpt lat="48.03375" lon="7.01312">
        <ele>1188.8</ele>
        <time>2021-07-29T12:52:08Z</time>
      </trkpt>
      <trkpt lat="48.03376" lon="7.0131">
        <ele>1190</ele>
        <time>2021-07-29T12:52:12Z</time>
      </trkpt>
      <trkpt lat="48.03377" lon="7.01309">
        <ele>1189.6</ele>
        <time>2021-07-29T12:52:14Z</time>
      </trkpt>
      <trkpt lat="48.03379" lon="7.01307">
        <ele>1190.4</ele>
        <time>2021-07-29T12:52:20Z</time>
      </trkpt>
      <trkpt lat="48.03379" lon="7.01306">
        <ele>1190.4</ele>
        <time>2021-07-29T12:52:24Z</time>
      </trkpt>
      <trkpt lat="48.03379" lon="7.01304">
        <ele>1191</ele>
        <time>2021-07-29T12:52:28Z</time>
      </trkpt>
      <trkpt lat="48.03378" lon="7.01301">
        <ele>1191.8</ele>
        <time>2021-07-29T12:52:34Z</time>
      </trkpt>
      <trkpt lat="48.03378" lon="7.01301">
        <ele>1192</ele>
        <time>2021-07-29T12:52:35Z</time>
      </trkpt>
      <trkpt lat="48.03378" lon="7.01303">
        <ele>1192.4</ele>
        <time>2021-07-29T12:52:41Z</time>
      </trkpt>
      <trkpt lat="48.03378" lon="7.01303">
        <ele>1192</ele>
        <time>2021-07-29T12:52:44Z</time>
      </trkpt>
      <trkpt lat="48.03378" lon="7.01303">
        <ele>1192</ele>
        <time>2021-07-29T12:52:50Z</time>
      </trkpt>
      <trkpt lat="48.03377" lon="7.01302">
        <ele>1191.8</ele>
        <time>2021-07-29T12:52:54Z</time>
      </trkpt>
      <trkpt lat="48.03376" lon="7.01302">
        <ele>1193.2</ele>
        <time>2021-07-29T12:52:58Z</time>
      </trkpt>
      <trkpt lat="48.03376" lon="7.013">
        <ele>1194.2</ele>
        <time>2021-07-29T12:53:04Z</time>
      </trkpt>
      <trkpt lat="48.03376" lon="7.013">
        <ele>1194.4</ele>
        <time>2021-07-29T12:53:06Z</time>
      </trkpt>
      <trkpt lat="48.03376" lon="7.013">
        <ele>1193.8</ele>
        <time>2021-07-29T12:53:12Z</time>
      </trkpt>
      <trkpt lat="48.03376" lon="7.013">
        <ele>1193.4</ele>
        <time>2021-07-29T12:53:14Z</time>
      </trkpt>
      <trkpt lat="48.03377" lon="7.013">
        <ele>1193.2</ele>
        <time>2021-07-29T12:53:17Z</time>
      </trkpt>
      <trkpt lat="48.03376" lon="7.01303">
        <ele>1193.2</ele>
        <time>2021-07-29T12:53:23Z</time>
      </trkpt>
      <trkpt lat="48.03377" lon="7.01302">
        <ele>1193.2</ele>
        <time>2021-07-29T12:53:24Z</time>
      </trkpt>
      <trkpt lat="48.03377" lon="7.01302">
        <ele>1192.8</ele>
        <time>2021-07-29T12:53:30Z</time>
      </trkpt>
      <trkpt lat="48.03377" lon="7.01302">
        <ele>1192.4</ele>
        <time>2021-07-29T12:53:34Z</time>
      </trkpt>
      <trkpt lat="48.03378" lon="7.01302">
        <ele>1192.2</ele>
        <time>2021-07-29T12:53:36Z</time>
      </trkpt>
      <trkpt lat="48.03378" lon="7.01302">
        <ele>1192</ele>
        <time>2021-07-29T12:53:42Z</time>
      </trkpt>
      <trkpt lat="48.03378" lon="7.01301">
        <ele>1191.8</ele>
        <time>2021-07-29T12:53:44Z</time>
      </trkpt>
      <trkpt lat="48.03379" lon="7.01301">
        <ele>1192</ele>
        <time>2021-07-29T12:53:50Z</time>
      </trkpt>
      <trkpt lat="48.0338" lon="7.013">
        <ele>1191.6</ele>
        <time>2021-07-29T12:53:54Z</time>
      </trkpt>
      <trkpt lat="48.0338" lon="7.01299">
        <ele>1191.8</ele>
        <time>2021-07-29T12:54:00Z</time>
      </trkpt>
      <trkpt lat="48.03381" lon="7.01297">
        <ele>1191.6</ele>
        <time>2021-07-29T12:54:04Z</time>
      </trkpt>
      <trkpt lat="48.03383" lon="7.01295">
        <ele>1191.4</ele>
        <time>2021-07-29T12:54:10Z</time>
      </trkpt>
      <trkpt lat="48.03384" lon="7.01295">
        <ele>1192</ele>
        <time>2021-07-29T12:54:14Z</time>
      </trkpt>
      <trkpt lat="48.03384" lon="7.01295">
        <ele>1192.4</ele>
        <time>2021-07-29T12:54:20Z</time>
      </trkpt>
      <trkpt lat="48.03385" lon="7.01294">
        <ele>1192.8</ele>
        <time>2021-07-29T12:54:24Z</time>
      </trkpt>
      <trkpt lat="48.03385" lon="7.01293">
        <ele>1193.4</ele>
        <time>2021-07-29T12:54:27Z</time>
      </trkpt>
      <trkpt lat="48.03388" lon="7.0129">
        <ele>1193.8</ele>
        <time>2021-07-29T12:54:33Z</time>
      </trkpt>
      <trkpt lat="48.03388" lon="7.01289">
        <ele>1193.8</ele>
        <time>2021-07-29T12:54:34Z</time>
      </trkpt>
      <trkpt lat="48.03389" lon="7.01288">
        <ele>1193.8</ele>
        <time>2021-07-29T12:54:40Z</time>
      </trkpt>
      <trkpt lat="48.0339" lon="7.01288">
        <ele>1193.8</ele>
        <time>2021-07-29T12:54:44Z</time>
      </trkpt>
      <trkpt lat="48.03393" lon="7.01287">
        <ele>1194.4</ele>
        <time>2021-07-29T12:54:50Z</time>
      </trkpt>
      <trkpt lat="48.03396" lon="7.01287">
        <ele>1194.2</ele>
        <time>2021-07-29T12:54:54Z</time>
      </trkpt>
      <trkpt lat="48.03396" lon="7.01285">
        <ele>1194</ele>
        <time>2021-07-29T12:55:00Z</time>
      </trkpt>
      <trkpt lat="48.03396" lon="7.01283">
        <ele>1194.4</ele>
        <time>2021-07-29T12:55:04Z</time>
      </trkpt>
      <trkpt lat="48.03396" lon="7.01283">
        <ele>1194.4</ele>
        <time>2021-07-29T12:55:10Z</time>
      </trkpt>
      <trkpt lat="48.03397" lon="7.01283">
        <ele>1193.6</ele>
        <time>2021-07-29T12:55:14Z</time>
      </trkpt>
      <trkpt lat="48.03397" lon="7.01285">
        <ele>1193.2</ele>
        <time>2021-07-29T12:55:18Z</time>
      </trkpt>
      <trkpt lat="48.034" lon="7.01287">
        <ele>1192.8</ele>
        <time>2021-07-29T12:55:24Z</time>
      </trkpt>
      <trkpt lat="48.03401" lon="7.01288">
        <ele>1193.2</ele>
        <time>2021-07-29T12:55:26Z</time>
      </trkpt>
      <trkpt lat="48.03403" lon="7.0129">
        <ele>1193.4</ele>
        <time>2021-07-29T12:55:28Z</time>
      </trkpt>
      <trkpt lat="48.03403" lon="7.01292">
        <ele>1193.4</ele>
        <time>2021-07-29T12:55:30Z</time>
      </trkpt>
      <trkpt lat="48.03407" lon="7.01293">
        <ele>1193</ele>
        <time>2021-07-29T12:55:34Z</time>
      </trkpt>
      <trkpt lat="48.03412" lon="7.01294">
        <ele>1194.2</ele>
        <time>2021-07-29T12:55:40Z</time>
      </trkpt>
      <trkpt lat="48.03412" lon="7.01295">
        <ele>1194.6</ele>
        <time>2021-07-29T12:55:41Z</time>
      </trkpt>
      <trkpt lat="48.03413" lon="7.01294">
        <ele>1194.8</ele>
        <time>2021-07-29T12:55:44Z</time>
      </trkpt>
      <trkpt lat="48.03413" lon="7.01299">
        <ele>1193.8</ele>
        <time>2021-07-29T12:55:50Z</time>
      </trkpt>
      <trkpt lat="48.03412" lon="7.013">
        <ele>1193.8</ele>
        <time>2021-07-29T12:55:54Z</time>
      </trkpt>
      <trkpt lat="48.03414" lon="7.01299">
        <ele>1194.6</ele>
        <time>2021-07-29T12:56:00Z</time>
      </trkpt>
      <trkpt lat="48.03417" lon="7.01301">
        <ele>1195.2</ele>
        <time>2021-07-29T12:56:04Z</time>
      </trkpt>
      <trkpt lat="48.03417" lon="7.01302">
        <ele>1195.8</ele>
        <time>2021-07-29T12:56:06Z</time>
      </trkpt>
      <trkpt lat="48.03418" lon="7.01302">
        <ele>1196.6</ele>
        <time>2021-07-29T12:56:12Z</time>
      </trkpt>
      <trkpt lat="48.03419" lon="7.01302">
        <ele>1196.8</ele>
        <time>2021-07-29T12:56:14Z</time>
      </trkpt>
      <trkpt lat="48.0342" lon="7.01304">
        <ele>1198</ele>
        <time>2021-07-29T12:56:18Z</time>
      </trkpt>
      <trkpt lat="48.03423" lon="7.01306">
        <ele>1199</ele>
        <time>2021-07-29T12:56:23Z</time>
      </trkpt>
      <trkpt lat="48.03423" lon="7.01306">
        <ele>1199.2</ele>
        <time>2021-07-29T12:56:24Z</time>
      </trkpt>
      <trkpt lat="48.03425" lon="7.01309">
        <ele>1200.2</ele>
        <time>2021-07-29T12:56:28Z</time>
      </trkpt>
      <trkpt lat="48.03425" lon="7.01311">
        <ele>1200</ele>
        <time>2021-07-29T12:56:34Z</time>
      </trkpt>
      <trkpt lat="48.03429" lon="7.01312">
        <ele>1200.8</ele>
        <time>2021-07-29T12:56:39Z</time>
      </trkpt>
      <trkpt lat="48.03432" lon="7.01311">
        <ele>1201.2</ele>
        <time>2021-07-29T12:56:42Z</time>
      </trkpt>
      <trkpt lat="48.03432" lon="7.01311">
        <ele>1201.4</ele>
        <time>2021-07-29T12:56:43Z</time>
      </trkpt>
      <trkpt lat="48.03433" lon="7.01311">
        <ele>1201.6</ele>
        <time>2021-07-29T12:56:44Z</time>
      </trkpt>
      <trkpt lat="48.03431" lon="7.01307">
        <ele>1202.2</ele>
        <time>2021-07-29T12:56:50Z</time>
      </trkpt>
      <trkpt lat="48.03431" lon="7.01302">
        <ele>1201.2</ele>
        <time>2021-07-29T12:56:54Z</time>
      </trkpt>
      <trkpt lat="48.03431" lon="7.01301">
        <ele>1202.4</ele>
        <time>2021-07-29T12:56:56Z</time>
      </trkpt>
      <trkpt lat="48.03431" lon="7.013">
        <ele>1202.8</ele>
        <time>2021-07-29T12:56:57Z</time>
      </trkpt>
      <trkpt lat="48.03431" lon="7.01301">
        <ele>1203</ele>
        <time>2021-07-29T12:57:03Z</time>
      </trkpt>
      <trkpt lat="48.03431" lon="7.013">
        <ele>1203.4</ele>
        <time>2021-07-29T12:57:04Z</time>
      </trkpt>
      <trkpt lat="48.0343" lon="7.01299">
        <ele>1204</ele>
        <time>2021-07-29T12:57:07Z</time>
      </trkpt>
      <trkpt lat="48.03431" lon="7.01298">
        <ele>1204.2</ele>
        <time>2021-07-29T12:57:13Z</time>
      </trkpt>
      <trkpt lat="48.03431" lon="7.01298">
        <ele>1204.2</ele>
        <time>2021-07-29T12:57:15Z</time>
      </trkpt>
      <trkpt lat="48.03431" lon="7.01298">
        <ele>1204.2</ele>
        <time>2021-07-29T12:57:21Z</time>
      </trkpt>
      <trkpt lat="48.03431" lon="7.01298">
        <ele>1204.4</ele>
        <time>2021-07-29T12:57:25Z</time>
      </trkpt>
      <trkpt lat="48.03431" lon="7.01298">
        <ele>1205</ele>
        <time>2021-07-29T12:57:27Z</time>
      </trkpt>
      <trkpt lat="48.03431" lon="7.01299">
        <ele>1204.6</ele>
        <time>2021-07-29T12:57:33Z</time>
      </trkpt>
      <trkpt lat="48.03431" lon="7.01299">
        <ele>1204.6</ele>
        <time>2021-07-29T12:57:35Z</time>
      </trkpt>
      <trkpt lat="48.03429" lon="7.01298">
        <ele>1205</ele>
        <time>2021-07-29T12:57:41Z</time>
      </trkpt>
      <trkpt lat="48.03427" lon="7.01293">
        <ele>1205.6</ele>
        <time>2021-07-29T12:57:45Z</time>
      </trkpt>
      <trkpt lat="48.03427" lon="7.01292">
        <ele>1206.2</ele>
        <time>2021-07-29T12:57:47Z</time>
      </trkpt>
      <trkpt lat="48.03427" lon="7.01286">
        <ele>1207</ele>
        <time>2021-07-29T12:57:53Z</time>
      </trkpt>
      <trkpt lat="48.03427" lon="7.01284">
        <ele>1207.4</ele>
        <time>2021-07-29T12:57:55Z</time>
      </trkpt>
      <trkpt lat="48.03429" lon="7.01278">
        <ele>1208.2</ele>
        <time>2021-07-29T12:58:01Z</time>
      </trkpt>
      <trkpt lat="48.03431" lon="7.01277">
        <ele>1208.4</ele>
        <time>2021-07-29T12:58:04Z</time>
      </trkpt>
      <trkpt lat="48.03431" lon="7.01276">
        <ele>1208.6</ele>
        <time>2021-07-29T12:58:05Z</time>
      </trkpt>
      <trkpt lat="48.03436" lon="7.01274">
        <ele>1209.8</ele>
        <time>2021-07-29T12:58:10Z</time>
      </trkpt>
      <trkpt lat="48.03437" lon="7.01272">
        <ele>1209.8</ele>
        <time>2021-07-29T12:58:12Z</time>
      </trkpt>
      <trkpt lat="48.03437" lon="7.0127">
        <ele>1210.4</ele>
        <time>2021-07-29T12:58:15Z</time>
      </trkpt>
      <trkpt lat="48.03438" lon="7.0127">
        <ele>1210.8</ele>
        <time>2021-07-29T12:58:16Z</time>
      </trkpt>
      <trkpt lat="48.03438" lon="7.01269">
        <ele>1211.2</ele>
        <time>2021-07-29T12:58:22Z</time>
      </trkpt>
      <trkpt lat="48.03439" lon="7.01268">
        <ele>1211.6</ele>
        <time>2021-07-29T12:58:25Z</time>
      </trkpt>
      <trkpt lat="48.0344" lon="7.01267">
        <ele>1212</ele>
        <time>2021-07-29T12:58:26Z</time>
      </trkpt>
      <trkpt lat="48.03443" lon="7.01265">
        <ele>1212.6</ele>
        <time>2021-07-29T12:58:32Z</time>
      </trkpt>
      <trkpt lat="48.03445" lon="7.01263">
        <ele>1212.4</ele>
        <time>2021-07-29T12:58:35Z</time>
      </trkpt>
      <trkpt lat="48.03445" lon="7.01262">
        <ele>1213</ele>
        <time>2021-07-29T12:58:39Z</time>
      </trkpt>
      <trkpt lat="48.03445" lon="7.01257">
        <ele>1213.4</ele>
        <time>2021-07-29T12:58:45Z</time>
      </trkpt>
      <trkpt lat="48.03445" lon="7.01254">
        <ele>1214</ele>
        <time>2021-07-29T12:58:48Z</time>
      </trkpt>
      <trkpt lat="48.03445" lon="7.0125">
        <ele>1215.2</ele>
        <time>2021-07-29T12:58:52Z</time>
      </trkpt>
      <trkpt lat="48.03446" lon="7.01249">
        <ele>1215.4</ele>
        <time>2021-07-29T12:58:55Z</time>
      </trkpt>
      <trkpt lat="48.03448" lon="7.01247">
        <ele>1216.2</ele>
        <time>2021-07-29T12:59:01Z</time>
      </trkpt>
      <trkpt lat="48.03448" lon="7.01246">
        <ele>1216.4</ele>
        <time>2021-07-29T12:59:03Z</time>
      </trkpt>
      <trkpt lat="48.03449" lon="7.01245">
        <ele>1216.6</ele>
        <time>2021-07-29T12:59:04Z</time>
      </trkpt>
      <trkpt lat="48.03449" lon="7.01242">
        <ele>1217.6</ele>
        <time>2021-07-29T12:59:07Z</time>
      </trkpt>
      <trkpt lat="48.0345" lon="7.01239">
        <ele>1218</ele>
        <time>2021-07-29T12:59:13Z</time>
      </trkpt>
      <trkpt lat="48.03451" lon="7.01238">
        <ele>1218</ele>
        <time>2021-07-29T12:59:15Z</time>
      </trkpt>
      <trkpt lat="48.0345" lon="7.01233">
        <ele>1219</ele>
        <time>2021-07-29T12:59:20Z</time>
      </trkpt>
      <trkpt lat="48.0345" lon="7.01229">
        <ele>1220</ele>
        <time>2021-07-29T12:59:25Z</time>
      </trkpt>
      <trkpt lat="48.0345" lon="7.01229">
        <ele>1220.2</ele>
        <time>2021-07-29T12:59:26Z</time>
      </trkpt>
      <trkpt lat="48.03453" lon="7.01227">
        <ele>1221.4</ele>
        <time>2021-07-29T12:59:31Z</time>
      </trkpt>
      <trkpt lat="48.03453" lon="7.01225">
        <ele>1222</ele>
        <time>2021-07-29T12:59:35Z</time>
      </trkpt>
      <trkpt lat="48.03453" lon="7.01222">
        <ele>1222.6</ele>
        <time>2021-07-29T12:59:38Z</time>
      </trkpt>
      <trkpt lat="48.03454" lon="7.0122">
        <ele>1224.2</ele>
        <time>2021-07-29T12:59:42Z</time>
      </trkpt>
      <trkpt lat="48.03455" lon="7.01219">
        <ele>1224.4</ele>
        <time>2021-07-29T12:59:45Z</time>
      </trkpt>
      <trkpt lat="48.03457" lon="7.01218">
        <ele>1225</ele>
        <time>2021-07-29T12:59:51Z</time>
      </trkpt>
      <trkpt lat="48.03458" lon="7.01218">
        <ele>1225.2</ele>
        <time>2021-07-29T12:59:53Z</time>
      </trkpt>
      <trkpt lat="48.03458" lon="7.01217">
        <ele>1225.2</ele>
        <time>2021-07-29T12:59:55Z</time>
      </trkpt>
      <trkpt lat="48.03458" lon="7.01213">
        <ele>1225.4</ele>
        <time>2021-07-29T13:00:01Z</time>
      </trkpt>
      <trkpt lat="48.03458" lon="7.01212">
        <ele>1225.4</ele>
        <time>2021-07-29T13:00:05Z</time>
      </trkpt>
      <trkpt lat="48.03458" lon="7.01211">
        <ele>1226.4</ele>
        <time>2021-07-29T13:00:10Z</time>
      </trkpt>
      <trkpt lat="48.03457" lon="7.01212">
        <ele>1226</ele>
        <time>2021-07-29T13:00:15Z</time>
      </trkpt>
      <trkpt lat="48.03457" lon="7.01212">
        <ele>1225.6</ele>
        <time>2021-07-29T13:00:21Z</time>
      </trkpt>
      <trkpt lat="48.03457" lon="7.01211">
        <ele>1225.4</ele>
        <time>2021-07-29T13:00:25Z</time>
      </trkpt>
      <trkpt lat="48.03458" lon="7.0121">
        <ele>1225.6</ele>
        <time>2021-07-29T13:00:31Z</time>
      </trkpt>
      <trkpt lat="48.03458" lon="7.0121">
        <ele>1225.8</ele>
        <time>2021-07-29T13:00:35Z</time>
      </trkpt>
      <trkpt lat="48.03458" lon="7.0121">
        <ele>1225.8</ele>
        <time>2021-07-29T13:00:41Z</time>
      </trkpt>
      <trkpt lat="48.03458" lon="7.01209">
        <ele>1225.6</ele>
        <time>2021-07-29T13:00:45Z</time>
      </trkpt>
      <trkpt lat="48.03458" lon="7.01209">
        <ele>1225.4</ele>
        <time>2021-07-29T13:00:46Z</time>
      </trkpt>
      <trkpt lat="48.03458" lon="7.01209">
        <ele>1225.4</ele>
        <time>2021-07-29T13:00:52Z</time>
      </trkpt>
      <trkpt lat="48.03458" lon="7.01209">
        <ele>1225.2</ele>
        <time>2021-07-29T13:00:55Z</time>
      </trkpt>
      <trkpt lat="48.03458" lon="7.01207">
        <ele>1226</ele>
        <time>2021-07-29T13:01:01Z</time>
      </trkpt>
      <trkpt lat="48.0346" lon="7.01206">
        <ele>1226.6</ele>
        <time>2021-07-29T13:01:04Z</time>
      </trkpt>
      <trkpt lat="48.0346" lon="7.01205">
        <ele>1226.8</ele>
        <time>2021-07-29T13:01:05Z</time>
      </trkpt>
      <trkpt lat="48.03461" lon="7.01203">
        <ele>1227.2</ele>
        <time>2021-07-29T13:01:07Z</time>
      </trkpt>
      <trkpt lat="48.03462" lon="7.01201">
        <ele>1227.6</ele>
        <time>2021-07-29T13:01:09Z</time>
      </trkpt>
      <trkpt lat="48.03463" lon="7.01199">
        <ele>1228.8</ele>
        <time>2021-07-29T13:01:13Z</time>
      </trkpt>
      <trkpt lat="48.03464" lon="7.01199">
        <ele>1228.8</ele>
        <time>2021-07-29T13:01:16Z</time>
      </trkpt>
      <trkpt lat="48.03464" lon="7.01196">
        <ele>1229.2</ele>
        <time>2021-07-29T13:01:22Z</time>
      </trkpt>
      <trkpt lat="48.03466" lon="7.01196">
        <ele>1229.8</ele>
        <time>2021-07-29T13:01:25Z</time>
      </trkpt>
      <trkpt lat="48.03466" lon="7.01197">
        <ele>1230.2</ele>
        <time>2021-07-29T13:01:26Z</time>
      </trkpt>
      <trkpt lat="48.03467" lon="7.01197">
        <ele>1231</ele>
        <time>2021-07-29T13:01:28Z</time>
      </trkpt>
      <trkpt lat="48.03469" lon="7.01195">
        <ele>1231.4</ele>
        <time>2021-07-29T13:01:34Z</time>
      </trkpt>
      <trkpt lat="48.03468" lon="7.01194">
        <ele>1232.6</ele>
        <time>2021-07-29T13:01:36Z</time>
      </trkpt>
      <trkpt lat="48.03469" lon="7.01191">
        <ele>1233.4</ele>
        <time>2021-07-29T13:01:42Z</time>
      </trkpt>
      <trkpt lat="48.0347" lon="7.0119">
        <ele>1233.8</ele>
        <time>2021-07-29T13:01:44Z</time>
      </trkpt>
      <trkpt lat="48.03471" lon="7.0119">
        <ele>1234.2</ele>
        <time>2021-07-29T13:01:46Z</time>
      </trkpt>
      <trkpt lat="48.03472" lon="7.01191">
        <ele>1234.8</ele>
        <time>2021-07-29T13:01:48Z</time>
      </trkpt>
      <trkpt lat="48.03471" lon="7.0119">
        <ele>1235.2</ele>
        <time>2021-07-29T13:01:54Z</time>
      </trkpt>
      <trkpt lat="48.0347" lon="7.01189">
        <ele>1235.8</ele>
        <time>2021-07-29T13:01:56Z</time>
      </trkpt>
      <trkpt lat="48.0347" lon="7.01189">
        <ele>1236.2</ele>
        <time>2021-07-29T13:01:57Z</time>
      </trkpt>
      <trkpt lat="48.0347" lon="7.01183">
        <ele>1236.6</ele>
        <time>2021-07-29T13:02:03Z</time>
      </trkpt>
      <trkpt lat="48.0347" lon="7.01183">
        <ele>1236.6</ele>
        <time>2021-07-29T13:02:06Z</time>
      </trkpt>
      <trkpt lat="48.0347" lon="7.01183">
        <ele>1237.2</ele>
        <time>2021-07-29T13:02:10Z</time>
      </trkpt>
      <trkpt lat="48.03472" lon="7.01181">
        <ele>1238.2</ele>
        <time>2021-07-29T13:02:14Z</time>
      </trkpt>
      <trkpt lat="48.03472" lon="7.01179">
        <ele>1238.8</ele>
        <time>2021-07-29T13:02:16Z</time>
      </trkpt>
      <trkpt lat="48.03474" lon="7.01179">
        <ele>1239.4</ele>
        <time>2021-07-29T13:02:19Z</time>
      </trkpt>
      <trkpt lat="48.03476" lon="7.01181">
        <ele>1240.2</ele>
        <time>2021-07-29T13:02:25Z</time>
      </trkpt>
      <trkpt lat="48.03476" lon="7.01179">
        <ele>1240.6</ele>
        <time>2021-07-29T13:02:26Z</time>
      </trkpt>
      <trkpt lat="48.03474" lon="7.01174">
        <ele>1241</ele>
        <time>2021-07-29T13:02:30Z</time>
      </trkpt>
      <trkpt lat="48.03472" lon="7.01168">
        <ele>1241.4</ele>
        <time>2021-07-29T13:02:35Z</time>
      </trkpt>
      <trkpt lat="48.03472" lon="7.01168">
        <ele>1241.6</ele>
        <time>2021-07-29T13:02:36Z</time>
      </trkpt>
      <trkpt lat="48.03472" lon="7.01167">
        <ele>1241.8</ele>
        <time>2021-07-29T13:02:37Z</time>
      </trkpt>
      <trkpt lat="48.03472" lon="7.01162">
        <ele>1242.6</ele>
        <time>2021-07-29T13:02:43Z</time>
      </trkpt>
      <trkpt lat="48.03471" lon="7.01161">
        <ele>1242.8</ele>
        <time>2021-07-29T13:02:44Z</time>
      </trkpt>
      <trkpt lat="48.03471" lon="7.01158">
        <ele>1243.2</ele>
        <time>2021-07-29T13:02:47Z</time>
      </trkpt>
      <trkpt lat="48.0347" lon="7.01156">
        <ele>1243.8</ele>
        <time>2021-07-29T13:02:50Z</time>
      </trkpt>
      <trkpt lat="48.03469" lon="7.01152">
        <ele>1244.8</ele>
        <time>2021-07-29T13:02:54Z</time>
      </trkpt>
      <trkpt lat="48.03468" lon="7.01149">
        <ele>1245.2</ele>
        <time>2021-07-29T13:02:57Z</time>
      </trkpt>
      <trkpt lat="48.03465" lon="7.01145">
        <ele>1245.4</ele>
        <time>2021-07-29T13:03:03Z</time>
      </trkpt>
      <trkpt lat="48.03464" lon="7.01144">
        <ele>1246.2</ele>
        <time>2021-07-29T13:03:05Z</time>
      </trkpt>
      <trkpt lat="48.03464" lon="7.01142">
        <ele>1246.8</ele>
        <time>2021-07-29T13:03:07Z</time>
      </trkpt>
      <trkpt lat="48.03463" lon="7.0114">
        <ele>1247.6</ele>
        <time>2021-07-29T13:03:09Z</time>
      </trkpt>
      <trkpt lat="48.03459" lon="7.01134">
        <ele>1249</ele>
        <time>2021-07-29T13:03:15Z</time>
      </trkpt>
      <trkpt lat="48.03458" lon="7.01133">
        <ele>1249</ele>
        <time>2021-07-29T13:03:17Z</time>
      </trkpt>
      <trkpt lat="48.03456" lon="7.01132">
        <ele>1250</ele>
        <time>2021-07-29T13:03:23Z</time>
      </trkpt>
      <trkpt lat="48.03457" lon="7.01133">
        <ele>1250.6</ele>
        <time>2021-07-29T13:03:27Z</time>
      </trkpt>
      <trkpt lat="48.0346" lon="7.01135">
        <ele>1251</ele>
        <time>2021-07-29T13:03:31Z</time>
      </trkpt>
      <trkpt lat="48.03463" lon="7.01136">
        <ele>1251.4</ele>
        <time>2021-07-29T13:03:37Z</time>
      </trkpt>
      <trkpt lat="48.03465" lon="7.01136">
        <ele>1252.2</ele>
        <time>2021-07-29T13:03:40Z</time>
      </trkpt>
      <trkpt lat="48.03468" lon="7.01137">
        <ele>1252.8</ele>
        <time>2021-07-29T13:03:46Z</time>
      </trkpt>
      <trkpt lat="48.03469" lon="7.01138">
        <ele>1253</ele>
        <time>2021-07-29T13:03:47Z</time>
      </trkpt>
      <trkpt lat="48.0347" lon="7.01138">
        <ele>1253.4</ele>
        <time>2021-07-29T13:03:48Z</time>
      </trkpt>
      <trkpt lat="48.03469" lon="7.0114">
        <ele>1253.6</ele>
        <time>2021-07-29T13:03:54Z</time>
      </trkpt>
      <trkpt lat="48.03469" lon="7.0114">
        <ele>1253.6</ele>
        <time>2021-07-29T13:03:57Z</time>
      </trkpt>
      <trkpt lat="48.03469" lon="7.01138">
        <ele>1254.4</ele>
        <time>2021-07-29T13:04:01Z</time>
      </trkpt>
      <trkpt lat="48.03469" lon="7.01136">
        <ele>1255.6</ele>
        <time>2021-07-29T13:04:05Z</time>
      </trkpt>
      <trkpt lat="48.0347" lon="7.01134">
        <ele>1255.6</ele>
        <time>2021-07-29T13:04:07Z</time>
      </trkpt>
      <trkpt lat="48.03469" lon="7.01132">
        <ele>1256.2</ele>
        <time>2021-07-29T13:04:13Z</time>
      </trkpt>
      <trkpt lat="48.03469" lon="7.01132">
        <ele>1256.6</ele>
        <time>2021-07-29T13:04:14Z</time>
      </trkpt>
      <trkpt lat="48.0347" lon="7.01131">
        <ele>1257.4</ele>
        <time>2021-07-29T13:04:17Z</time>
      </trkpt>
      <trkpt lat="48.0347" lon="7.0113">
        <ele>1257.6</ele>
        <time>2021-07-29T13:04:19Z</time>
      </trkpt>
      <trkpt lat="48.03469" lon="7.01128">
        <ele>1259</ele>
        <time>2021-07-29T13:04:25Z</time>
      </trkpt>
      <trkpt lat="48.03469" lon="7.01126">
        <ele>1259</ele>
        <time>2021-07-29T13:04:27Z</time>
      </trkpt>
      <trkpt lat="48.03467" lon="7.01123">
        <ele>1259.4</ele>
        <time>2021-07-29T13:04:30Z</time>
      </trkpt>
      <trkpt lat="48.03465" lon="7.0112">
        <ele>1260.2</ele>
        <time>2021-07-29T13:04:33Z</time>
      </trkpt>
      <trkpt lat="48.03462" lon="7.01117">
        <ele>1260.6</ele>
        <time>2021-07-29T13:04:37Z</time>
      </trkpt>
      <trkpt lat="48.0346" lon="7.01114">
        <ele>1261.2</ele>
        <time>2021-07-29T13:04:40Z</time>
      </trkpt>
      <trkpt lat="48.0346" lon="7.01114">
        <ele>1261.2</ele>
        <time>2021-07-29T13:04:41Z</time>
      </trkpt>
      <trkpt lat="48.03461" lon="7.01113">
        <ele>1261.8</ele>
        <time>2021-07-29T13:04:47Z</time>
      </trkpt>
      <trkpt lat="48.03462" lon="7.01114">
        <ele>1262.4</ele>
        <time>2021-07-29T13:04:51Z</time>
      </trkpt>
      <trkpt lat="48.03465" lon="7.01116">
        <ele>1263.4</ele>
        <time>2021-07-29T13:04:57Z</time>
      </trkpt>
      <trkpt lat="48.03467" lon="7.01117">
        <ele>1263.4</ele>
        <time>2021-07-29T13:05:02Z</time>
      </trkpt>
      <trkpt lat="48.0347" lon="7.01115">
        <ele>1264.2</ele>
        <time>2021-07-29T13:05:07Z</time>
      </trkpt>
      <trkpt lat="48.0347" lon="7.01116">
        <ele>1264.8</ele>
        <time>2021-07-29T13:05:10Z</time>
      </trkpt>
      <trkpt lat="48.03472" lon="7.01119">
        <ele>1266</ele>
        <time>2021-07-29T13:05:13Z</time>
      </trkpt>
      <trkpt lat="48.03473" lon="7.01119">
        <ele>1266</ele>
        <time>2021-07-29T13:05:15Z</time>
      </trkpt>
      <trkpt lat="48.03474" lon="7.0112">
        <ele>1266</ele>
        <time>2021-07-29T13:05:17Z</time>
      </trkpt>
      <trkpt lat="48.03477" lon="7.0112">
        <ele>1266</ele>
        <time>2021-07-29T13:05:20Z</time>
      </trkpt>
      <trkpt lat="48.03477" lon="7.01121">
        <ele>1267</ele>
        <time>2021-07-29T13:05:23Z</time>
      </trkpt>
      <trkpt lat="48.03478" lon="7.01121">
        <ele>1266.8</ele>
        <time>2021-07-29T13:05:27Z</time>
      </trkpt>
      <trkpt lat="48.03479" lon="7.0112">
        <ele>1268</ele>
        <time>2021-07-29T13:05:32Z</time>
      </trkpt>
      <trkpt lat="48.03481" lon="7.0112">
        <ele>1269.4</ele>
        <time>2021-07-29T13:05:36Z</time>
      </trkpt>
      <trkpt lat="48.03481" lon="7.01119">
        <ele>1269.4</ele>
        <time>2021-07-29T13:05:37Z</time>
      </trkpt>
      <trkpt lat="48.03483" lon="7.01118">
        <ele>1269.6</ele>
        <time>2021-07-29T13:05:43Z</time>
      </trkpt>
      <trkpt lat="48.03484" lon="7.01118">
        <ele>1270.4</ele>
        <time>2021-07-29T13:05:45Z</time>
      </trkpt>
      <trkpt lat="48.03485" lon="7.01117">
        <ele>1270.8</ele>
        <time>2021-07-29T13:05:47Z</time>
      </trkpt>
      <trkpt lat="48.03489" lon="7.01119">
        <ele>1271.6</ele>
        <time>2021-07-29T13:05:52Z</time>
      </trkpt>
      <trkpt lat="48.03491" lon="7.01119">
        <ele>1272.8</ele>
        <time>2021-07-29T13:05:57Z</time>
      </trkpt>
      <trkpt lat="48.0349" lon="7.01118">
        <ele>1273.8</ele>
        <time>2021-07-29T13:06:02Z</time>
      </trkpt>
      <trkpt lat="48.03491" lon="7.01119">
        <ele>1275</ele>
        <time>2021-07-29T13:06:07Z</time>
      </trkpt>
      <trkpt lat="48.03494" lon="7.01121">
        <ele>1276</ele>
        <time>2021-07-29T13:06:13Z</time>
      </trkpt>
      <trkpt lat="48.03496" lon="7.01119">
        <ele>1277</ele>
        <time>2021-07-29T13:06:17Z</time>
      </trkpt>
      <trkpt lat="48.03498" lon="7.0112">
        <ele>1277.8</ele>
        <time>2021-07-29T13:06:23Z</time>
      </trkpt>
      <trkpt lat="48.03498" lon="7.01122">
        <ele>1278.4</ele>
        <time>2021-07-29T13:06:25Z</time>
      </trkpt>
      <trkpt lat="48.03498" lon="7.01123">
        <ele>1278.8</ele>
        <time>2021-07-29T13:06:27Z</time>
      </trkpt>
      <trkpt lat="48.03499" lon="7.01126">
        <ele>1279.2</ele>
        <time>2021-07-29T13:06:33Z</time>
      </trkpt>
      <trkpt lat="48.035" lon="7.01126">
        <ele>1279.4</ele>
        <time>2021-07-29T13:06:34Z</time>
      </trkpt>
      <trkpt lat="48.03501" lon="7.01123">
        <ele>1279.6</ele>
        <time>2021-07-29T13:06:37Z</time>
      </trkpt>
      <trkpt lat="48.035" lon="7.0112">
        <ele>1280.6</ele>
        <time>2021-07-29T13:06:40Z</time>
      </trkpt>
      <trkpt lat="48.03497" lon="7.01113">
        <ele>1281.8</ele>
        <time>2021-07-29T13:06:46Z</time>
      </trkpt>
      <trkpt lat="48.03496" lon="7.01112">
        <ele>1282</ele>
        <time>2021-07-29T13:06:47Z</time>
      </trkpt>
      <trkpt lat="48.03492" lon="7.01108">
        <ele>1282.6</ele>
        <time>2021-07-29T13:06:51Z</time>
      </trkpt>
      <trkpt lat="48.03491" lon="7.01103">
        <ele>1282.8</ele>
        <time>2021-07-29T13:06:54Z</time>
      </trkpt>
      <trkpt lat="48.03488" lon="7.01102">
        <ele>1283.2</ele>
        <time>2021-07-29T13:06:57Z</time>
      </trkpt>
      <trkpt lat="48.03487" lon="7.01102">
        <ele>1283.4</ele>
        <time>2021-07-29T13:06:59Z</time>
      </trkpt>
      <trkpt lat="48.03487" lon="7.01105">
        <ele>1282.8</ele>
        <time>2021-07-29T13:07:05Z</time>
      </trkpt>
      <trkpt lat="48.03487" lon="7.01105">
        <ele>1282</ele>
        <time>2021-07-29T13:07:07Z</time>
      </trkpt>
      <trkpt lat="48.03486" lon="7.01107">
        <ele>1281.6</ele>
        <time>2021-07-29T13:07:10Z</time>
      </trkpt>
      <trkpt lat="48.03486" lon="7.01108">
        <ele>1282.6</ele>
        <time>2021-07-29T13:07:16Z</time>
      </trkpt>
      <trkpt lat="48.03486" lon="7.01108">
        <ele>1282.6</ele>
        <time>2021-07-29T13:07:17Z</time>
      </trkpt>
      <trkpt lat="48.03486" lon="7.01108">
        <ele>1282.8</ele>
        <time>2021-07-29T13:07:18Z</time>
      </trkpt>
      <trkpt lat="48.03486" lon="7.01108">
        <ele>1283</ele>
        <time>2021-07-29T13:07:24Z</time>
      </trkpt>
      <trkpt lat="48.03485" lon="7.01108">
        <ele>1282.8</ele>
        <time>2021-07-29T13:07:25Z</time>
      </trkpt>
      <trkpt lat="48.03485" lon="7.01108">
        <ele>1283.6</ele>
        <time>2021-07-29T13:07:30Z</time>
      </trkpt>
      <trkpt lat="48.03485" lon="7.01107">
        <ele>1283.8</ele>
        <time>2021-07-29T13:07:32Z</time>
      </trkpt>
      <trkpt lat="48.03485" lon="7.01109">
        <ele>1283.2</ele>
        <time>2021-07-29T13:07:38Z</time>
      </trkpt>
      <trkpt lat="48.03485" lon="7.01108">
        <ele>1282.8</ele>
        <time>2021-07-29T13:07:40Z</time>
      </trkpt>
      <trkpt lat="48.03485" lon="7.01109">
        <ele>1283.6</ele>
        <time>2021-07-29T13:07:46Z</time>
      </trkpt>
      <trkpt lat="48.03485" lon="7.01109">
        <ele>1283.6</ele>
        <time>2021-07-29T13:07:51Z</time>
      </trkpt>
      <trkpt lat="48.03485" lon="7.01109">
        <ele>1283.6</ele>
        <time>2021-07-29T13:07:57Z</time>
      </trkpt>
      <trkpt lat="48.03485" lon="7.01109">
        <ele>1282.8</ele>
        <time>2021-07-29T13:08:01Z</time>
      </trkpt>
      <trkpt lat="48.03485" lon="7.01109">
        <ele>1282.8</ele>
        <time>2021-07-29T13:08:07Z</time>
      </trkpt>
      <trkpt lat="48.03485" lon="7.01111">
        <ele>1283</ele>
        <time>2021-07-29T13:08:11Z</time>
      </trkpt>
      <trkpt lat="48.03484" lon="7.01114">
        <ele>1283.2</ele>
        <time>2021-07-29T13:08:17Z</time>
      </trkpt>
      <trkpt lat="48.03484" lon="7.01114">
        <ele>1283</ele>
        <time>2021-07-29T13:08:21Z</time>
      </trkpt>
      <trkpt lat="48.03484" lon="7.01115">
        <ele>1282.8</ele>
        <time>2021-07-29T13:08:27Z</time>
      </trkpt>
      <trkpt lat="48.03484" lon="7.01115">
        <ele>1282.8</ele>
        <time>2021-07-29T13:08:31Z</time>
      </trkpt>
      <trkpt lat="48.03483" lon="7.01116">
        <ele>1282.8</ele>
        <time>2021-07-29T13:08:37Z</time>
      </trkpt>
      <trkpt lat="48.03483" lon="7.01115">
        <ele>1283</ele>
        <time>2021-07-29T13:08:41Z</time>
      </trkpt>
      <trkpt lat="48.03483" lon="7.01115">
        <ele>1283.2</ele>
        <time>2021-07-29T13:08:47Z</time>
      </trkpt>
      <trkpt lat="48.03483" lon="7.01114">
        <ele>1283</ele>
        <time>2021-07-29T13:08:51Z</time>
      </trkpt>
      <trkpt lat="48.03484" lon="7.01114">
        <ele>1282.6</ele>
        <time>2021-07-29T13:08:57Z</time>
      </trkpt>
      <trkpt lat="48.03484" lon="7.01114">
        <ele>1282</ele>
        <time>2021-07-29T13:09:01Z</time>
      </trkpt>
      <trkpt lat="48.03484" lon="7.01114">
        <ele>1281.8</ele>
        <time>2021-07-29T13:09:07Z</time>
      </trkpt>
      <trkpt lat="48.03484" lon="7.01114">
        <ele>1282.2</ele>
        <time>2021-07-29T13:09:11Z</time>
      </trkpt>
      <trkpt lat="48.03484" lon="7.01115">
        <ele>1282.6</ele>
        <time>2021-07-29T13:09:17Z</time>
      </trkpt>
      <trkpt lat="48.03484" lon="7.01115">
        <ele>1282.8</ele>
        <time>2021-07-29T13:09:18Z</time>
      </trkpt>
      <trkpt lat="48.03483" lon="7.01117">
        <ele>1283</ele>
        <time>2021-07-29T13:09:21Z</time>
      </trkpt>
      <trkpt lat="48.03484" lon="7.01118">
        <ele>1282.8</ele>
        <time>2021-07-29T13:09:27Z</time>
      </trkpt>
      <trkpt lat="48.03484" lon="7.01118">
        <ele>1283.4</ele>
        <time>2021-07-29T13:09:31Z</time>
      </trkpt>
      <trkpt lat="48.03483" lon="7.01117">
        <ele>1282.8</ele>
        <time>2021-07-29T13:09:37Z</time>
      </trkpt>
      <trkpt lat="48.03483" lon="7.01117">
        <ele>1282.6</ele>
        <time>2021-07-29T13:09:41Z</time>
      </trkpt>
      <trkpt lat="48.03482" lon="7.01118">
        <ele>1283</ele>
        <time>2021-07-29T13:09:47Z</time>
      </trkpt>
      <trkpt lat="48.03483" lon="7.01117">
        <ele>1283</ele>
        <time>2021-07-29T13:09:51Z</time>
      </trkpt>
      <trkpt lat="48.03483" lon="7.01117">
        <ele>1283.8</ele>
        <time>2021-07-29T13:09:56Z</time>
      </trkpt>
      <trkpt lat="48.03483" lon="7.01117">
        <ele>1284</ele>
        <time>2021-07-29T13:10:01Z</time>
      </trkpt>
      <trkpt lat="48.03483" lon="7.01117">
        <ele>1283.4</ele>
        <time>2021-07-29T13:10:07Z</time>
      </trkpt>
      <trkpt lat="48.03483" lon="7.01116">
        <ele>1284.4</ele>
        <time>2021-07-29T13:10:11Z</time>
      </trkpt>
      <trkpt lat="48.03483" lon="7.01116">
        <ele>1287.4</ele>
        <time>2021-07-29T13:10:12Z</time>
      </trkpt>
      <trkpt lat="48.03483" lon="7.01117">
        <ele>1284.8</ele>
        <time>2021-07-29T13:10:14Z</time>
      </trkpt>
      <trkpt lat="48.03482" lon="7.01118">
        <ele>1283.8</ele>
        <time>2021-07-29T13:10:16Z</time>
      </trkpt>
      <trkpt lat="48.03482" lon="7.0112">
        <ele>1283</ele>
        <time>2021-07-29T13:10:21Z</time>
      </trkpt>
      <trkpt lat="48.03482" lon="7.0112">
        <ele>1282.8</ele>
        <time>2021-07-29T13:10:23Z</time>
      </trkpt>
      <trkpt lat="48.03481" lon="7.01121">
        <ele>1283</ele>
        <time>2021-07-29T13:10:29Z</time>
      </trkpt>
      <trkpt lat="48.03481" lon="7.0112">
        <ele>1283.2</ele>
        <time>2021-07-29T13:10:31Z</time>
      </trkpt>
      <trkpt lat="48.03481" lon="7.0112">
        <ele>1283</ele>
        <time>2021-07-29T13:10:37Z</time>
      </trkpt>
      <trkpt lat="48.03481" lon="7.01121">
        <ele>1282.8</ele>
        <time>2021-07-29T13:10:41Z</time>
      </trkpt>
      <trkpt lat="48.03481" lon="7.0112">
        <ele>1282.8</ele>
        <time>2021-07-29T13:10:47Z</time>
      </trkpt>
      <trkpt lat="48.03481" lon="7.01121">
        <ele>1283</ele>
        <time>2021-07-29T13:10:51Z</time>
      </trkpt>
      <trkpt lat="48.03481" lon="7.01121">
        <ele>1282.6</ele>
        <time>2021-07-29T13:10:57Z</time>
      </trkpt>
      <trkpt lat="48.03481" lon="7.01121">
        <ele>1282.8</ele>
        <time>2021-07-29T13:11:01Z</time>
      </trkpt>
      <trkpt lat="48.03481" lon="7.0112">
        <ele>1282.8</ele>
        <time>2021-07-29T13:11:07Z</time>
      </trkpt>
      <trkpt lat="48.03481" lon="7.01119">
        <ele>1282.8</ele>
        <time>2021-07-29T13:11:11Z</time>
      </trkpt>
      <trkpt lat="48.03481" lon="7.01119">
        <ele>1282.8</ele>
        <time>2021-07-29T13:11:17Z</time>
      </trkpt>
      <trkpt lat="48.03481" lon="7.01119">
        <ele>1282.2</ele>
        <time>2021-07-29T13:11:21Z</time>
      </trkpt>
      <trkpt lat="48.03481" lon="7.01118">
        <ele>1282.4</ele>
        <time>2021-07-29T13:11:27Z</time>
      </trkpt>
      <trkpt lat="48.03481" lon="7.01118">
        <ele>1283.4</ele>
        <time>2021-07-29T13:11:31Z</time>
      </trkpt>
      <trkpt lat="48.03481" lon="7.01118">
        <ele>1282.8</ele>
        <time>2021-07-29T13:11:37Z</time>
      </trkpt>
      <trkpt lat="48.03481" lon="7.01118">
        <ele>1282.4</ele>
        <time>2021-07-29T13:11:41Z</time>
      </trkpt>
      <trkpt lat="48.03481" lon="7.01118">
        <ele>1282.2</ele>
        <time>2021-07-29T13:11:47Z</time>
      </trkpt>
      <trkpt lat="48.03481" lon="7.01118">
        <ele>1282.2</ele>
        <time>2021-07-29T13:11:51Z</time>
      </trkpt>
      <trkpt lat="48.03481" lon="7.01117">
        <ele>1282.8</ele>
        <time>2021-07-29T13:11:57Z</time>
      </trkpt>
      <trkpt lat="48.03482" lon="7.01116">
        <ele>1282.6</ele>
        <time>2021-07-29T13:12:01Z</time>
      </trkpt>
      <trkpt lat="48.03482" lon="7.01116">
        <ele>1283.8</ele>
        <time>2021-07-29T13:12:07Z</time>
      </trkpt>
      <trkpt lat="48.03482" lon="7.01116">
        <ele>1284</ele>
        <time>2021-07-29T13:12:08Z</time>
      </trkpt>
      <trkpt lat="48.03482" lon="7.01116">
        <ele>1284.2</ele>
        <time>2021-07-29T13:12:11Z</time>
      </trkpt>
      <trkpt lat="48.03482" lon="7.01116">
        <ele>1283</ele>
        <time>2021-07-29T13:12:17Z</time>
      </trkpt>
      <trkpt lat="48.03482" lon="7.01116">
        <ele>1282.8</ele>
        <time>2021-07-29T13:12:18Z</time>
      </trkpt>
      <trkpt lat="48.03482" lon="7.01116">
        <ele>1283.2</ele>
        <time>2021-07-29T13:12:21Z</time>
      </trkpt>
      <trkpt lat="48.03482" lon="7.01117">
        <ele>1282.8</ele>
        <time>2021-07-29T13:12:27Z</time>
      </trkpt>
      <trkpt lat="48.03482" lon="7.01117">
        <ele>1282.6</ele>
        <time>2021-07-29T13:12:31Z</time>
      </trkpt>
      <trkpt lat="48.03484" lon="7.01116">
        <ele>1282.6</ele>
        <time>2021-07-29T13:12:37Z</time>
      </trkpt>
      <trkpt lat="48.03486" lon="7.01115">
        <ele>1282.2</ele>
        <time>2021-07-29T13:12:41Z</time>
      </trkpt>
      <trkpt lat="48.03489" lon="7.01114">
        <ele>1283</ele>
        <time>2021-07-29T13:12:47Z</time>
      </trkpt>
      <trkpt lat="48.03491" lon="7.01117">
        <ele>1283</ele>
        <time>2021-07-29T13:12:51Z</time>
      </trkpt>
      <trkpt lat="48.03497" lon="7.01121">
        <ele>1282.6</ele>
        <time>2021-07-29T13:12:57Z</time>
      </trkpt>
      <trkpt lat="48.03499" lon="7.01122">
        <ele>1282.6</ele>
        <time>2021-07-29T13:12:59Z</time>
      </trkpt>
      <trkpt lat="48.03501" lon="7.01123">
        <ele>1283</ele>
        <time>2021-07-29T13:13:01Z</time>
      </trkpt>
      <trkpt lat="48.03506" lon="7.01126">
        <ele>1283.6</ele>
        <time>2021-07-29T13:13:07Z</time>
      </trkpt>
      <trkpt lat="48.03508" lon="7.01127">
        <ele>1283.8</ele>
        <time>2021-07-29T13:13:09Z</time>
      </trkpt>
      <trkpt lat="48.03509" lon="7.01127">
        <ele>1283.6</ele>
        <time>2021-07-29T13:13:10Z</time>
      </trkpt>
      <trkpt lat="48.03511" lon="7.01127">
        <ele>1284.4</ele>
        <time>2021-07-29T13:13:13Z</time>
      </trkpt>
      <trkpt lat="48.03516" lon="7.01129">
        <ele>1284.8</ele>
        <time>2021-07-29T13:13:18Z</time>
      </trkpt>
      <trkpt lat="48.03518" lon="7.0113">
        <ele>1285.2</ele>
        <time>2021-07-29T13:13:21Z</time>
      </trkpt>
      <trkpt lat="48.03521" lon="7.01132">
        <ele>1286</ele>
        <time>2021-07-29T13:13:25Z</time>
      </trkpt>
      <trkpt lat="48.03524" lon="7.01134">
        <ele>1286.6</ele>
        <time>2021-07-29T13:13:29Z</time>
      </trkpt>
      <trkpt lat="48.03524" lon="7.01134">
        <ele>1286.8</ele>
        <time>2021-07-29T13:13:30Z</time>
      </trkpt>
      <trkpt lat="48.03523" lon="7.01135">
        <ele>1286.8</ele>
        <time>2021-07-29T13:13:36Z</time>
      </trkpt>
      <trkpt lat="48.03523" lon="7.01135">
        <ele>1286.8</ele>
        <time>2021-07-29T13:13:41Z</time>
      </trkpt>
      <trkpt lat="48.03524" lon="7.01137">
        <ele>1287</ele>
        <time>2021-07-29T13:13:43Z</time>
      </trkpt>
      <trkpt lat="48.03527" lon="7.01138">
        <ele>1287.2</ele>
        <time>2021-07-29T13:13:49Z</time>
      </trkpt>
      <trkpt lat="48.03528" lon="7.01138">
        <ele>1287</ele>
        <time>2021-07-29T13:13:51Z</time>
      </trkpt>
      <trkpt lat="48.03533" lon="7.01138">
        <ele>1287.4</ele>
        <time>2021-07-29T13:13:57Z</time>
      </trkpt>
      <trkpt lat="48.03537" lon="7.01137">
        <ele>1288</ele>
        <time>2021-07-29T13:14:01Z</time>
      </trkpt>
      <trkpt lat="48.03541" lon="7.01136">
        <ele>1288.2</ele>
        <time>2021-07-29T13:14:06Z</time>
      </trkpt>
      <trkpt lat="48.03545" lon="7.01135">
        <ele>1289.4</ele>
        <time>2021-07-29T13:14:10Z</time>
      </trkpt>
      <trkpt lat="48.03546" lon="7.01135">
        <ele>1289.4</ele>
        <time>2021-07-29T13:14:11Z</time>
      </trkpt>
      <trkpt lat="48.03551" lon="7.01133">
        <ele>1290.8</ele>
        <time>2021-07-29T13:14:17Z</time>
      </trkpt>
      <trkpt lat="48.03553" lon="7.01131">
        <ele>1289.8</ele>
        <time>2021-07-29T13:14:19Z</time>
      </trkpt>
      <trkpt lat="48.03554" lon="7.01131">
        <ele>1289.6</ele>
        <time>2021-07-29T13:14:20Z</time>
      </trkpt>
      <trkpt lat="48.03556" lon="7.01131">
        <ele>1289.2</ele>
        <time>2021-07-29T13:14:22Z</time>
      </trkpt>
      <trkpt lat="48.03558" lon="7.0113">
        <ele>1290</ele>
        <time>2021-07-29T13:14:24Z</time>
      </trkpt>
      <trkpt lat="48.03561" lon="7.01129">
        <ele>1290.2</ele>
        <time>2021-07-29T13:14:27Z</time>
      </trkpt>
      <trkpt lat="48.03564" lon="7.01128">
        <ele>1290.8</ele>
        <time>2021-07-29T13:14:30Z</time>
      </trkpt>
      <trkpt lat="48.03567" lon="7.01128">
        <ele>1291.2</ele>
        <time>2021-07-29T13:14:32Z</time>
      </trkpt>
      <trkpt lat="48.03568" lon="7.0113">
        <ele>1291.8</ele>
        <time>2021-07-29T13:14:34Z</time>
      </trkpt>
      <trkpt lat="48.03568" lon="7.01132">
        <ele>1292</ele>
        <time>2021-07-29T13:14:35Z</time>
      </trkpt>
      <trkpt lat="48.03566" lon="7.01137">
        <ele>1293.2</ele>
        <time>2021-07-29T13:14:39Z</time>
      </trkpt>
      <trkpt lat="48.03566" lon="7.01138">
        <ele>1293.2</ele>
        <time>2021-07-29T13:14:40Z</time>
      </trkpt>
      <trkpt lat="48.03565" lon="7.01141">
        <ele>1292.6</ele>
        <time>2021-07-29T13:14:42Z</time>
      </trkpt>
      <trkpt lat="48.03563" lon="7.01149">
        <ele>1293.8</ele>
        <time>2021-07-29T13:14:48Z</time>
      </trkpt>
      <trkpt lat="48.03561" lon="7.01155">
        <ele>1294.6</ele>
        <time>2021-07-29T13:14:52Z</time>
      </trkpt>
      <trkpt lat="48.03559" lon="7.01164">
        <ele>1295.4</ele>
        <time>2021-07-29T13:14:58Z</time>
      </trkpt>
      <trkpt lat="48.03559" lon="7.01166">
        <ele>1295.8</ele>
        <time>2021-07-29T13:14:59Z</time>
      </trkpt>
      <trkpt lat="48.03557" lon="7.01171">
        <ele>1296.2</ele>
        <time>2021-07-29T13:15:02Z</time>
      </trkpt>
      <trkpt lat="48.03557" lon="7.01172">
        <ele>1296.2</ele>
        <time>2021-07-29T13:15:03Z</time>
      </trkpt>
      <trkpt lat="48.03556" lon="7.0118">
        <ele>1296.4</ele>
        <time>2021-07-29T13:15:09Z</time>
      </trkpt>
      <trkpt lat="48.03556" lon="7.01184">
        <ele>1296.6</ele>
        <time>2021-07-29T13:15:12Z</time>
      </trkpt>
      <trkpt lat="48.03556" lon="7.01185">
        <ele>1296.8</ele>
        <time>2021-07-29T13:15:13Z</time>
      </trkpt>
      <trkpt lat="48.03556" lon="7.01185">
        <ele>1297</ele>
        <time>2021-07-29T13:15:14Z</time>
      </trkpt>
      <trkpt lat="48.03556" lon="7.01186">
        <ele>1297.6</ele>
        <time>2021-07-29T13:15:20Z</time>
      </trkpt>
      <trkpt lat="48.03556" lon="7.01186">
        <ele>1296.6</ele>
        <time>2021-07-29T13:15:22Z</time>
      </trkpt>
      <trkpt lat="48.03556" lon="7.01185">
        <ele>1295.4</ele>
        <time>2021-07-29T13:15:28Z</time>
      </trkpt>
      <trkpt lat="48.03556" lon="7.01186">
        <ele>1295.6</ele>
        <time>2021-07-29T13:15:32Z</time>
      </trkpt>
      <trkpt lat="48.03556" lon="7.01186">
        <ele>1296</ele>
        <time>2021-07-29T13:15:38Z</time>
      </trkpt>
      <trkpt lat="48.03556" lon="7.01186">
        <ele>1296.6</ele>
        <time>2021-07-29T13:15:42Z</time>
      </trkpt>
      <trkpt lat="48.03556" lon="7.01186">
        <ele>1296.8</ele>
        <time>2021-07-29T13:15:43Z</time>
      </trkpt>
      <trkpt lat="48.03556" lon="7.01186">
        <ele>1296.4</ele>
        <time>2021-07-29T13:15:49Z</time>
      </trkpt>
      <trkpt lat="48.03556" lon="7.01186">
        <ele>1296.8</ele>
        <time>2021-07-29T13:15:52Z</time>
      </trkpt>
      <trkpt lat="48.03556" lon="7.01186">
        <ele>1297.6</ele>
        <time>2021-07-29T13:15:58Z</time>
      </trkpt>
      <trkpt lat="48.03556" lon="7.01186">
        <ele>1297</ele>
        <time>2021-07-29T13:16:02Z</time>
      </trkpt>
      <trkpt lat="48.03557" lon="7.01187">
        <ele>1296.8</ele>
        <time>2021-07-29T13:16:08Z</time>
      </trkpt>
      <trkpt lat="48.03556" lon="7.01192">
        <ele>1297.6</ele>
        <time>2021-07-29T13:16:12Z</time>
      </trkpt>
      <trkpt lat="48.03555" lon="7.01192">
        <ele>1297.8</ele>
        <time>2021-07-29T13:16:13Z</time>
      </trkpt>
      <trkpt lat="48.03556" lon="7.012">
        <ele>1298.2</ele>
        <time>2021-07-29T13:16:19Z</time>
      </trkpt>
      <trkpt lat="48.03555" lon="7.01205">
        <ele>1298.2</ele>
        <time>2021-07-29T13:16:22Z</time>
      </trkpt>
      <trkpt lat="48.03555" lon="7.01206">
        <ele>1298.4</ele>
        <time>2021-07-29T13:16:23Z</time>
      </trkpt>
      <trkpt lat="48.03555" lon="7.01213">
        <ele>1298.8</ele>
        <time>2021-07-29T13:16:27Z</time>
      </trkpt>
      <trkpt lat="48.03555" lon="7.0122">
        <ele>1299.2</ele>
        <time>2021-07-29T13:16:32Z</time>
      </trkpt>
      <trkpt lat="48.03556" lon="7.0123">
        <ele>1299.8</ele>
        <time>2021-07-29T13:16:38Z</time>
      </trkpt>
      <trkpt lat="48.03556" lon="7.01236">
        <ele>1299.4</ele>
        <time>2021-07-29T13:16:42Z</time>
      </trkpt>
      <trkpt lat="48.03557" lon="7.01238">
        <ele>1299.2</ele>
        <time>2021-07-29T13:16:43Z</time>
      </trkpt>
      <trkpt lat="48.0356" lon="7.01243">
        <ele>1299.8</ele>
        <time>2021-07-29T13:16:48Z</time>
      </trkpt>
      <trkpt lat="48.03561" lon="7.01244">
        <ele>1300.4</ele>
        <time>2021-07-29T13:16:50Z</time>
      </trkpt>
      <trkpt lat="48.03564" lon="7.01246">
        <ele>1300.6</ele>
        <time>2021-07-29T13:16:52Z</time>
      </trkpt>
      <trkpt lat="48.03565" lon="7.01249">
        <ele>1301</ele>
        <time>2021-07-29T13:16:54Z</time>
      </trkpt>
      <trkpt lat="48.03569" lon="7.01253">
        <ele>1301.8</ele>
        <time>2021-07-29T13:16:59Z</time>
      </trkpt>
      <trkpt lat="48.0357" lon="7.01254">
        <ele>1302</ele>
        <time>2021-07-29T13:17:01Z</time>
      </trkpt>
      <trkpt lat="48.03571" lon="7.01254">
        <ele>1302.4</ele>
        <time>2021-07-29T13:17:02Z</time>
      </trkpt>
      <trkpt lat="48.03576" lon="7.01257">
        <ele>1303.2</ele>
        <time>2021-07-29T13:17:08Z</time>
      </trkpt>
      <trkpt lat="48.03576" lon="7.01258">
        <ele>1303.4</ele>
        <time>2021-07-29T13:17:09Z</time>
      </trkpt>
      <trkpt lat="48.03578" lon="7.01259">
        <ele>1303.6</ele>
        <time>2021-07-29T13:17:11Z</time>
      </trkpt>
      <trkpt lat="48.03579" lon="7.0126">
        <ele>1303.6</ele>
        <time>2021-07-29T13:17:12Z</time>
      </trkpt>
      <trkpt lat="48.03579" lon="7.0126">
        <ele>1303.8</ele>
        <time>2021-07-29T13:17:13Z</time>
      </trkpt>
      <trkpt lat="48.03581" lon="7.0126">
        <ele>1304</ele>
        <time>2021-07-29T13:17:15Z</time>
      </trkpt>
      <trkpt lat="48.03584" lon="7.01262">
        <ele>1304.2</ele>
        <time>2021-07-29T13:17:18Z</time>
      </trkpt>
      <trkpt lat="48.03587" lon="7.01264">
        <ele>1304.4</ele>
        <time>2021-07-29T13:17:21Z</time>
      </trkpt>
      <trkpt lat="48.03587" lon="7.01264">
        <ele>1304.8</ele>
        <time>2021-07-29T13:17:22Z</time>
      </trkpt>
      <trkpt lat="48.03589" lon="7.01264">
        <ele>1305.4</ele>
        <time>2021-07-29T13:17:24Z</time>
      </trkpt>
      <trkpt lat="48.03592" lon="7.01265">
        <ele>1306.4</ele>
        <time>2021-07-29T13:17:28Z</time>
      </trkpt>
      <trkpt lat="48.03593" lon="7.01261">
        <ele>1306.8</ele>
        <time>2021-07-29T13:17:33Z</time>
      </trkpt>
      <trkpt lat="48.03592" lon="7.01254">
        <ele>1307.2</ele>
        <time>2021-07-29T13:17:37Z</time>
      </trkpt>
      <trkpt lat="48.03593" lon="7.0125">
        <ele>1307.2</ele>
        <time>2021-07-29T13:17:40Z</time>
      </trkpt>
      <trkpt lat="48.03596" lon="7.01248">
        <ele>1307.2</ele>
        <time>2021-07-29T13:17:43Z</time>
      </trkpt>
      <trkpt lat="48.03599" lon="7.01247">
        <ele>1307.4</ele>
        <time>2021-07-29T13:17:47Z</time>
      </trkpt>
      <trkpt lat="48.03605" lon="7.01246">
        <ele>1308.4</ele>
        <time>2021-07-29T13:17:53Z</time>
      </trkpt>
      <trkpt lat="48.03608" lon="7.01246">
        <ele>1308.6</ele>
        <time>2021-07-29T13:17:56Z</time>
      </trkpt>
      <trkpt lat="48.03612" lon="7.01245">
        <ele>1309.6</ele>
        <time>2021-07-29T13:18:00Z</time>
      </trkpt>
      <trkpt lat="48.03612" lon="7.01244">
        <ele>1309.8</ele>
        <time>2021-07-29T13:18:01Z</time>
      </trkpt>
      <trkpt lat="48.03614" lon="7.01244">
        <ele>1309.8</ele>
        <time>2021-07-29T13:18:03Z</time>
      </trkpt>
      <trkpt lat="48.0362" lon="7.01243">
        <ele>1310.6</ele>
        <time>2021-07-29T13:18:09Z</time>
      </trkpt>
      <trkpt lat="48.03622" lon="7.01242">
        <ele>1310.8</ele>
        <time>2021-07-29T13:18:11Z</time>
      </trkpt>
      <trkpt lat="48.03623" lon="7.01242">
        <ele>1311.2</ele>
        <time>2021-07-29T13:18:12Z</time>
      </trkpt>
      <trkpt lat="48.03627" lon="7.01241">
        <ele>1312</ele>
        <time>2021-07-29T13:18:16Z</time>
      </trkpt>
      <trkpt lat="48.03633" lon="7.01239">
        <ele>1312.2</ele>
        <time>2021-07-29T13:18:22Z</time>
      </trkpt>
      <trkpt lat="48.03634" lon="7.01239">
        <ele>1312.4</ele>
        <time>2021-07-29T13:18:23Z</time>
      </trkpt>
      <trkpt lat="48.03635" lon="7.01239">
        <ele>1311.8</ele>
        <time>2021-07-29T13:18:25Z</time>
      </trkpt>
      <trkpt lat="48.03635" lon="7.0124">
        <ele>1313.2</ele>
        <time>2021-07-29T13:18:26Z</time>
      </trkpt>
      <trkpt lat="48.03635" lon="7.01239">
        <ele>1312</ele>
        <time>2021-07-29T13:18:28Z</time>
      </trkpt>
      <trkpt lat="48.03635" lon="7.0124">
        <ele>1313.6</ele>
        <time>2021-07-29T13:18:30Z</time>
      </trkpt>
      <trkpt lat="48.03635" lon="7.0124">
        <ele>1313.4</ele>
        <time>2021-07-29T13:18:34Z</time>
      </trkpt>
      <trkpt lat="48.03635" lon="7.0124">
        <ele>1313.4</ele>
        <time>2021-07-29T13:18:40Z</time>
      </trkpt>
      <trkpt lat="48.03635" lon="7.0124">
        <ele>1312.8</ele>
        <time>2021-07-29T13:18:44Z</time>
      </trkpt>
      <trkpt lat="48.03636" lon="7.01239">
        <ele>1311.4</ele>
        <time>2021-07-29T13:18:45Z</time>
      </trkpt>
      <trkpt lat="48.03638" lon="7.01238">
        <ele>1310.4</ele>
        <time>2021-07-29T13:18:48Z</time>
      </trkpt>
      <trkpt lat="48.0364" lon="7.01237">
        <ele>1311.6</ele>
        <time>2021-07-29T13:18:50Z</time>
      </trkpt>
      <trkpt lat="48.03641" lon="7.01236">
        <ele>1311.6</ele>
        <time>2021-07-29T13:18:51Z</time>
      </trkpt>
      <trkpt lat="48.03643" lon="7.01235">
        <ele>1312.8</ele>
        <time>2021-07-29T13:18:54Z</time>
      </trkpt>
      <trkpt lat="48.03645" lon="7.01236">
        <ele>1314.2</ele>
        <time>2021-07-29T13:18:57Z</time>
      </trkpt>
      <trkpt lat="48.03645" lon="7.01244">
        <ele>1314.4</ele>
        <time>2021-07-29T13:19:03Z</time>
      </trkpt>
      <trkpt lat="48.03645" lon="7.01245">
        <ele>1314.4</ele>
        <time>2021-07-29T13:19:04Z</time>
      </trkpt>
      <trkpt lat="48.03644" lon="7.01248">
        <ele>1315.4</ele>
        <time>2021-07-29T13:19:07Z</time>
      </trkpt>
      <trkpt lat="48.03645" lon="7.01255">
        <ele>1316.6</ele>
        <time>2021-07-29T13:19:12Z</time>
      </trkpt>
      <trkpt lat="48.03646" lon="7.01257">
        <ele>1317.2</ele>
        <time>2021-07-29T13:19:14Z</time>
      </trkpt>
      <trkpt lat="48.03648" lon="7.0126">
        <ele>1316.6</ele>
        <time>2021-07-29T13:19:18Z</time>
      </trkpt>
      <trkpt lat="48.03649" lon="7.01262">
        <ele>1317.2</ele>
        <time>2021-07-29T13:19:20Z</time>
      </trkpt>
      <trkpt lat="48.03648" lon="7.01268">
        <ele>1317.8</ele>
        <time>2021-07-29T13:19:24Z</time>
      </trkpt>
      <trkpt lat="48.03648" lon="7.01269">
        <ele>1317.8</ele>
        <time>2021-07-29T13:19:25Z</time>
      </trkpt>
      <trkpt lat="48.03648" lon="7.01272">
        <ele>1318.2</ele>
        <time>2021-07-29T13:19:28Z</time>
      </trkpt>
      <trkpt lat="48.0365" lon="7.01273">
        <ele>1318.8</ele>
        <time>2021-07-29T13:19:32Z</time>
      </trkpt>
      <trkpt lat="48.03651" lon="7.01273">
        <ele>1319.2</ele>
        <time>2021-07-29T13:19:34Z</time>
      </trkpt>
      <trkpt lat="48.03656" lon="7.01271">
        <ele>1319.6</ele>
        <time>2021-07-29T13:19:40Z</time>
      </trkpt>
      <trkpt lat="48.03657" lon="7.01272">
        <ele>1319.8</ele>
        <time>2021-07-29T13:19:41Z</time>
      </trkpt>
      <trkpt lat="48.03659" lon="7.01273">
        <ele>1320.8</ele>
        <time>2021-07-29T13:19:44Z</time>
      </trkpt>
      <trkpt lat="48.0366" lon="7.01273">
        <ele>1320.8</ele>
        <time>2021-07-29T13:19:46Z</time>
      </trkpt>
      <trkpt lat="48.03666" lon="7.01273">
        <ele>1321</ele>
        <time>2021-07-29T13:19:52Z</time>
      </trkpt>
      <trkpt lat="48.03668" lon="7.01273">
        <ele>1321.8</ele>
        <time>2021-07-29T13:19:54Z</time>
      </trkpt>
      <trkpt lat="48.03669" lon="7.01273">
        <ele>1322</ele>
        <time>2021-07-29T13:19:55Z</time>
      </trkpt>
      <trkpt lat="48.03674" lon="7.01274">
        <ele>1322.8</ele>
        <time>2021-07-29T13:20:01Z</time>
      </trkpt>
      <trkpt lat="48.03676" lon="7.01275">
        <ele>1323</ele>
        <time>2021-07-29T13:20:03Z</time>
      </trkpt>
      <trkpt lat="48.03677" lon="7.01275">
        <ele>1323</ele>
        <time>2021-07-29T13:20:04Z</time>
      </trkpt>
      <trkpt lat="48.03679" lon="7.01276">
        <ele>1323.2</ele>
        <time>2021-07-29T13:20:06Z</time>
      </trkpt>
      <trkpt lat="48.03681" lon="7.01278">
        <ele>1323.4</ele>
        <time>2021-07-29T13:20:08Z</time>
      </trkpt>
      <trkpt lat="48.03683" lon="7.01279">
        <ele>1323.8</ele>
        <time>2021-07-29T13:20:10Z</time>
      </trkpt>
      <trkpt lat="48.03686" lon="7.01281">
        <ele>1324.2</ele>
        <time>2021-07-29T13:20:13Z</time>
      </trkpt>
      <trkpt lat="48.03686" lon="7.01281">
        <ele>1324.2</ele>
        <time>2021-07-29T13:20:14Z</time>
      </trkpt>
      <trkpt lat="48.03687" lon="7.01283">
        <ele>1324.4</ele>
        <time>2021-07-29T13:20:16Z</time>
      </trkpt>
      <trkpt lat="48.03686" lon="7.01287">
        <ele>1325</ele>
        <time>2021-07-29T13:20:20Z</time>
      </trkpt>
      <trkpt lat="48.03685" lon="7.01291">
        <ele>1325.4</ele>
        <time>2021-07-29T13:20:23Z</time>
      </trkpt>
      <trkpt lat="48.03685" lon="7.01292">
        <ele>1325.4</ele>
        <time>2021-07-29T13:20:24Z</time>
      </trkpt>
      <trkpt lat="48.03684" lon="7.01295">
        <ele>1325.8</ele>
        <time>2021-07-29T13:20:27Z</time>
      </trkpt>
      <trkpt lat="48.03683" lon="7.01299">
        <ele>1326.4</ele>
        <time>2021-07-29T13:20:30Z</time>
      </trkpt>
      <trkpt lat="48.03681" lon="7.01304">
        <ele>1326.8</ele>
        <time>2021-07-29T13:20:34Z</time>
      </trkpt>
      <trkpt lat="48.0368" lon="7.01307">
        <ele>1327.2</ele>
        <time>2021-07-29T13:20:37Z</time>
      </trkpt>
      <trkpt lat="48.03679" lon="7.01309">
        <ele>1327.6</ele>
        <time>2021-07-29T13:20:40Z</time>
      </trkpt>
      <trkpt lat="48.03678" lon="7.01315">
        <ele>1328</ele>
        <time>2021-07-29T13:20:44Z</time>
      </trkpt>
      <trkpt lat="48.03676" lon="7.01323">
        <ele>1328.6</ele>
        <time>2021-07-29T13:20:50Z</time>
      </trkpt>
      <trkpt lat="48.03676" lon="7.01328">
        <ele>1329.6</ele>
        <time>2021-07-29T13:20:54Z</time>
      </trkpt>
      <trkpt lat="48.03676" lon="7.01335">
        <ele>1330.6</ele>
        <time>2021-07-29T13:21:00Z</time>
      </trkpt>
      <trkpt lat="48.03677" lon="7.01335">
        <ele>1330.8</ele>
        <time>2021-07-29T13:21:01Z</time>
      </trkpt>
      <trkpt lat="48.03678" lon="7.01336">
        <ele>1331</ele>
        <time>2021-07-29T13:21:03Z</time>
      </trkpt>
      <trkpt lat="48.03679" lon="7.01336">
        <ele>1331</ele>
        <time>2021-07-29T13:21:04Z</time>
      </trkpt>
      <trkpt lat="48.03682" lon="7.01336">
        <ele>1331.8</ele>
        <time>2021-07-29T13:21:07Z</time>
      </trkpt>
      <trkpt lat="48.03683" lon="7.01335">
        <ele>1332</ele>
        <time>2021-07-29T13:21:08Z</time>
      </trkpt>
      <trkpt lat="48.03684" lon="7.01335">
        <ele>1332.2</ele>
        <time>2021-07-29T13:21:09Z</time>
      </trkpt>
      <trkpt lat="48.03685" lon="7.01335">
        <ele>1332.4</ele>
        <time>2021-07-29T13:21:11Z</time>
      </trkpt>
      <trkpt lat="48.03688" lon="7.01335">
        <ele>1333</ele>
        <time>2021-07-29T13:21:14Z</time>
      </trkpt>
      <trkpt lat="48.03689" lon="7.01335">
        <ele>1333.2</ele>
        <time>2021-07-29T13:21:15Z</time>
      </trkpt>
      <trkpt lat="48.0369" lon="7.01334">
        <ele>1334.2</ele>
        <time>2021-07-29T13:21:17Z</time>
      </trkpt>
      <trkpt lat="48.03692" lon="7.01336">
        <ele>1335</ele>
        <time>2021-07-29T13:21:19Z</time>
      </trkpt>
      <trkpt lat="48.03693" lon="7.01337">
        <ele>1335.2</ele>
        <time>2021-07-29T13:21:20Z</time>
      </trkpt>
      <trkpt lat="48.0369" lon="7.01344">
        <ele>1336</ele>
        <time>2021-07-29T13:21:25Z</time>
      </trkpt>
      <trkpt lat="48.03689" lon="7.01348">
        <ele>1335.8</ele>
        <time>2021-07-29T13:21:28Z</time>
      </trkpt>
      <trkpt lat="48.03687" lon="7.01354">
        <ele>1336.4</ele>
        <time>2021-07-29T13:21:32Z</time>
      </trkpt>
      <trkpt lat="48.03687" lon="7.01357">
        <ele>1336.4</ele>
        <time>2021-07-29T13:21:35Z</time>
      </trkpt>
      <trkpt lat="48.03687" lon="7.01359">
        <ele>1336.8</ele>
        <time>2021-07-29T13:21:41Z</time>
      </trkpt>
      <trkpt lat="48.03687" lon="7.01359">
        <ele>1335.6</ele>
        <time>2021-07-29T13:21:45Z</time>
      </trkpt>
      <trkpt lat="48.03687" lon="7.0136">
        <ele>1335.4</ele>
        <time>2021-07-29T13:21:47Z</time>
      </trkpt>
      <trkpt lat="48.03687" lon="7.0136">
        <ele>1335.2</ele>
        <time>2021-07-29T13:21:53Z</time>
      </trkpt>
      <trkpt lat="48.03687" lon="7.0136">
        <ele>1336.4</ele>
        <time>2021-07-29T13:21:55Z</time>
      </trkpt>
      <trkpt lat="48.03687" lon="7.01359">
        <ele>1336.4</ele>
        <time>2021-07-29T13:22:01Z</time>
      </trkpt>
      <trkpt lat="48.03687" lon="7.0136">
        <ele>1336.6</ele>
        <time>2021-07-29T13:22:05Z</time>
      </trkpt>
      <trkpt lat="48.03686" lon="7.0136">
        <ele>1335.4</ele>
        <time>2021-07-29T13:22:10Z</time>
      </trkpt>
      <trkpt lat="48.03687" lon="7.01361">
        <ele>1336.2</ele>
        <time>2021-07-29T13:22:15Z</time>
      </trkpt>
      <trkpt lat="48.03688" lon="7.01361">
        <ele>1336.4</ele>
        <time>2021-07-29T13:22:16Z</time>
      </trkpt>
      <trkpt lat="48.03692" lon="7.01362">
        <ele>1337</ele>
        <time>2021-07-29T13:22:22Z</time>
      </trkpt>
      <trkpt lat="48.03694" lon="7.01362">
        <ele>1337.2</ele>
        <time>2021-07-29T13:22:25Z</time>
      </trkpt>
      <trkpt lat="48.03695" lon="7.01362">
        <ele>1337.6</ele>
        <time>2021-07-29T13:22:27Z</time>
      </trkpt>
      <trkpt lat="48.03696" lon="7.01362">
        <ele>1337.6</ele>
        <time>2021-07-29T13:22:33Z</time>
      </trkpt>
      <trkpt lat="48.03696" lon="7.01362">
        <ele>1337</ele>
        <time>2021-07-29T13:22:35Z</time>
      </trkpt>
      <trkpt lat="48.03696" lon="7.01363">
        <ele>1337.2</ele>
        <time>2021-07-29T13:22:41Z</time>
      </trkpt>
      <trkpt lat="48.03696" lon="7.01363">
        <ele>1337.4</ele>
        <time>2021-07-29T13:22:45Z</time>
      </trkpt>
      <trkpt lat="48.03695" lon="7.01363">
        <ele>1337</ele>
        <time>2021-07-29T13:22:51Z</time>
      </trkpt>
      <trkpt lat="48.03695" lon="7.01363">
        <ele>1336.4</ele>
        <time>2021-07-29T13:22:52Z</time>
      </trkpt>
      <trkpt lat="48.03696" lon="7.01364">
        <ele>1336.8</ele>
        <time>2021-07-29T13:22:55Z</time>
      </trkpt>
      <trkpt lat="48.03696" lon="7.01363">
        <ele>1337.4</ele>
        <time>2021-07-29T13:22:57Z</time>
      </trkpt>
      <trkpt lat="48.03698" lon="7.01364">
        <ele>1338.4</ele>
        <time>2021-07-29T13:23:01Z</time>
      </trkpt>
      <trkpt lat="48.037" lon="7.01364">
        <ele>1338.8</ele>
        <time>2021-07-29T13:23:05Z</time>
      </trkpt>
      <trkpt lat="48.03705" lon="7.01364">
        <ele>1339.4</ele>
        <time>2021-07-29T13:23:10Z</time>
      </trkpt>
      <trkpt lat="48.0371" lon="7.01364">
        <ele>1340.4</ele>
        <time>2021-07-29T13:23:15Z</time>
      </trkpt>
      <trkpt lat="48.03711" lon="7.01364">
        <ele>1340.6</ele>
        <time>2021-07-29T13:23:16Z</time>
      </trkpt>
      <trkpt lat="48.03712" lon="7.01364">
        <ele>1340.6</ele>
        <time>2021-07-29T13:23:17Z</time>
      </trkpt>
      <trkpt lat="48.03713" lon="7.01366">
        <ele>1340.8</ele>
        <time>2021-07-29T13:23:19Z</time>
      </trkpt>
      <trkpt lat="48.03712" lon="7.01373">
        <ele>1341.4</ele>
        <time>2021-07-29T13:23:25Z</time>
      </trkpt>
      <trkpt lat="48.03711" lon="7.01375">
        <ele>1341.8</ele>
        <time>2021-07-29T13:23:27Z</time>
      </trkpt>
      <trkpt lat="48.03709" lon="7.01384">
        <ele>1342.2</ele>
        <time>2021-07-29T13:23:33Z</time>
      </trkpt>
      <trkpt lat="48.03708" lon="7.01386">
        <ele>1342.6</ele>
        <time>2021-07-29T13:23:35Z</time>
      </trkpt>
      <trkpt lat="48.03707" lon="7.0139">
        <ele>1342.6</ele>
        <time>2021-07-29T13:23:38Z</time>
      </trkpt>
      <trkpt lat="48.03707" lon="7.01391">
        <ele>1343</ele>
        <time>2021-07-29T13:23:39Z</time>
      </trkpt>
      <trkpt lat="48.03704" lon="7.014">
        <ele>1343.8</ele>
        <time>2021-07-29T13:23:45Z</time>
      </trkpt>
      <trkpt lat="48.03702" lon="7.01409">
        <ele>1343.8</ele>
        <time>2021-07-29T13:23:51Z</time>
      </trkpt>
      <trkpt lat="48.03702" lon="7.01409">
        <ele>1344</ele>
        <time>2021-07-29T13:23:52Z</time>
      </trkpt>
      <trkpt lat="48.037" lon="7.01414">
        <ele>1344.2</ele>
        <time>2021-07-29T13:23:55Z</time>
      </trkpt>
      <trkpt lat="48.03699" lon="7.01421">
        <ele>1344.4</ele>
        <time>2021-07-29T13:24:00Z</time>
      </trkpt>
      <trkpt lat="48.03701" lon="7.01427">
        <ele>1345.2</ele>
        <time>2021-07-29T13:24:05Z</time>
      </trkpt>
      <trkpt lat="48.03701" lon="7.01431">
        <ele>1346.4</ele>
        <time>2021-07-29T13:24:10Z</time>
      </trkpt>
      <trkpt lat="48.03701" lon="7.01435">
        <ele>1347</ele>
        <time>2021-07-29T13:24:15Z</time>
      </trkpt>
      <trkpt lat="48.03702" lon="7.01439">
        <ele>1347.6</ele>
        <time>2021-07-29T13:24:19Z</time>
      </trkpt>
      <trkpt lat="48.03703" lon="7.01445">
        <ele>1347.8</ele>
        <time>2021-07-29T13:24:25Z</time>
      </trkpt>
      <trkpt lat="48.03703" lon="7.01452">
        <ele>1347.6</ele>
        <time>2021-07-29T13:24:31Z</time>
      </trkpt>
      <trkpt lat="48.03704" lon="7.01455">
        <ele>1348.4</ele>
        <time>2021-07-29T13:24:35Z</time>
      </trkpt>
      <trkpt lat="48.03705" lon="7.01457">
        <ele>1348.8</ele>
        <time>2021-07-29T13:24:36Z</time>
      </trkpt>
      <trkpt lat="48.03706" lon="7.01462">
        <ele>1349</ele>
        <time>2021-07-29T13:24:42Z</time>
      </trkpt>
      <trkpt lat="48.03707" lon="7.01464">
        <ele>1349.4</ele>
        <time>2021-07-29T13:24:45Z</time>
      </trkpt>
      <trkpt lat="48.0371" lon="7.01466">
        <ele>1350</ele>
        <time>2021-07-29T13:24:50Z</time>
      </trkpt>
      <trkpt lat="48.03712" lon="7.01466">
        <ele>1350.4</ele>
        <time>2021-07-29T13:24:55Z</time>
      </trkpt>
      <trkpt lat="48.03715" lon="7.01471">
        <ele>1351</ele>
        <time>2021-07-29T13:25:01Z</time>
      </trkpt>
      <trkpt lat="48.03718" lon="7.01472">
        <ele>1351.6</ele>
        <time>2021-07-29T13:25:05Z</time>
      </trkpt>
      <trkpt lat="48.03721" lon="7.01474">
        <ele>1352.2</ele>
        <time>2021-07-29T13:25:10Z</time>
      </trkpt>
      <trkpt lat="48.03722" lon="7.01479">
        <ele>1352.4</ele>
        <time>2021-07-29T13:25:15Z</time>
      </trkpt>
      <trkpt lat="48.03722" lon="7.01487">
        <ele>1353.4</ele>
        <time>2021-07-29T13:25:21Z</time>
      </trkpt>
      <trkpt lat="48.03723" lon="7.01489">
        <ele>1354.6</ele>
        <time>2021-07-29T13:25:23Z</time>
      </trkpt>
      <trkpt lat="48.03724" lon="7.01491">
        <ele>1355</ele>
        <time>2021-07-29T13:25:25Z</time>
      </trkpt>
      <trkpt lat="48.03724" lon="7.01496">
        <ele>1356</ele>
        <time>2021-07-29T13:25:30Z</time>
      </trkpt>
      <trkpt lat="48.03725" lon="7.01501">
        <ele>1356.2</ele>
        <time>2021-07-29T13:25:35Z</time>
      </trkpt>
      <trkpt lat="48.03725" lon="7.01503">
        <ele>1357</ele>
        <time>2021-07-29T13:25:37Z</time>
      </trkpt>
      <trkpt lat="48.03726" lon="7.01508">
        <ele>1357</ele>
        <time>2021-07-29T13:25:43Z</time>
      </trkpt>
      <trkpt lat="48.03726" lon="7.01511">
        <ele>1357</ele>
        <time>2021-07-29T13:25:45Z</time>
      </trkpt>
      <trkpt lat="48.03728" lon="7.01514">
        <ele>1358</ele>
        <time>2021-07-29T13:25:48Z</time>
      </trkpt>
      <trkpt lat="48.0373" lon="7.0152">
        <ele>1358.2</ele>
        <time>2021-07-29T13:25:54Z</time>
      </trkpt>
      <trkpt lat="48.0373" lon="7.01521">
        <ele>1358.6</ele>
        <time>2021-07-29T13:25:55Z</time>
      </trkpt>
      <trkpt lat="48.03732" lon="7.01526">
        <ele>1359</ele>
        <time>2021-07-29T13:25:58Z</time>
      </trkpt>
      <trkpt lat="48.03733" lon="7.01529">
        <ele>1360.4</ele>
        <time>2021-07-29T13:26:01Z</time>
      </trkpt>
      <trkpt lat="48.03734" lon="7.01532">
        <ele>1360.6</ele>
        <time>2021-07-29T13:26:05Z</time>
      </trkpt>
      <trkpt lat="48.03735" lon="7.01539">
        <ele>1361.4</ele>
        <time>2021-07-29T13:26:11Z</time>
      </trkpt>
      <trkpt lat="48.03735" lon="7.0154">
        <ele>1361.6</ele>
        <time>2021-07-29T13:26:12Z</time>
      </trkpt>
      <trkpt lat="48.03736" lon="7.01544">
        <ele>1361.8</ele>
        <time>2021-07-29T13:26:15Z</time>
      </trkpt>
      <trkpt lat="48.03739" lon="7.01552">
        <ele>1362.4</ele>
        <time>2021-07-29T13:26:21Z</time>
      </trkpt>
      <trkpt lat="48.03739" lon="7.01553">
        <ele>1362.6</ele>
        <time>2021-07-29T13:26:22Z</time>
      </trkpt>
      <trkpt lat="48.03741" lon="7.01555">
        <ele>1363.6</ele>
        <time>2021-07-29T13:26:25Z</time>
      </trkpt>
      <trkpt lat="48.03742" lon="7.01557">
        <ele>1364</ele>
        <time>2021-07-29T13:26:26Z</time>
      </trkpt>
      <trkpt lat="48.03743" lon="7.01558">
        <ele>1364.6</ele>
        <time>2021-07-29T13:26:28Z</time>
      </trkpt>
      <trkpt lat="48.03746" lon="7.01561">
        <ele>1364.6</ele>
        <time>2021-07-29T13:26:31Z</time>
      </trkpt>
      <trkpt lat="48.03747" lon="7.01564">
        <ele>1365.2</ele>
        <time>2021-07-29T13:26:34Z</time>
      </trkpt>
      <trkpt lat="48.03747" lon="7.01565">
        <ele>1365.4</ele>
        <time>2021-07-29T13:26:35Z</time>
      </trkpt>
      <trkpt lat="48.0375" lon="7.01572">
        <ele>1366</ele>
        <time>2021-07-29T13:26:41Z</time>
      </trkpt>
      <trkpt lat="48.03752" lon="7.01575">
        <ele>1366</ele>
        <time>2021-07-29T13:26:44Z</time>
      </trkpt>
      <trkpt lat="48.03753" lon="7.01575">
        <ele>1365.8</ele>
        <time>2021-07-29T13:26:45Z</time>
      </trkpt>
      <trkpt lat="48.03753" lon="7.01576">
        <ele>1365.8</ele>
        <time>2021-07-29T13:26:51Z</time>
      </trkpt>
      <trkpt lat="48.03753" lon="7.01576">
        <ele>1366.4</ele>
        <time>2021-07-29T13:26:55Z</time>
      </trkpt>
      <trkpt lat="48.03752" lon="7.01576">
        <ele>1366</ele>
        <time>2021-07-29T13:26:56Z</time>
      </trkpt>
      <trkpt lat="48.0375" lon="7.01573">
        <ele>1365.8</ele>
        <time>2021-07-29T13:27:02Z</time>
      </trkpt>
      <trkpt lat="48.0375" lon="7.01573">
        <ele>1365.2</ele>
        <time>2021-07-29T13:27:05Z</time>
      </trkpt>
      <trkpt lat="48.0375" lon="7.01573">
        <ele>1365.8</ele>
        <time>2021-07-29T13:27:06Z</time>
      </trkpt>
      <trkpt lat="48.0375" lon="7.01573">
        <ele>1366.4</ele>
        <time>2021-07-29T13:27:10Z</time>
      </trkpt>
      <trkpt lat="48.03755" lon="7.01576">
        <ele>1367</ele>
        <time>2021-07-29T13:27:16Z</time>
      </trkpt>
      <trkpt lat="48.03759" lon="7.01574">
        <ele>1367.6</ele>
        <time>2021-07-29T13:27:20Z</time>
      </trkpt>
      <trkpt lat="48.03761" lon="7.01574">
        <ele>1369</ele>
        <time>2021-07-29T13:27:22Z</time>
      </trkpt>
      <trkpt lat="48.03764" lon="7.01573">
        <ele>1368</ele>
        <time>2021-07-29T13:27:25Z</time>
      </trkpt>
      <trkpt lat="48.03766" lon="7.01573">
        <ele>1367.4</ele>
        <time>2021-07-29T13:27:26Z</time>
      </trkpt>
      <trkpt lat="48.03768" lon="7.01571">
        <ele>1366.4</ele>
        <time>2021-07-29T13:27:28Z</time>
      </trkpt>
      <trkpt lat="48.0377" lon="7.0157">
        <ele>1365.2</ele>
        <time>2021-07-29T13:27:30Z</time>
      </trkpt>
      <trkpt lat="48.03773" lon="7.01568">
        <ele>1365.4</ele>
        <time>2021-07-29T13:27:33Z</time>
      </trkpt>
    </trkseg>
  </trk>
</gpx>